<?xml version="1.0" encoding="UTF-8"?>
<gpx creator="Wikiloc - http://www.wikiloc.com" version="1.1" xmlns="http://www.topografix.com/GPX/1/1" xmlns:xsi="http://www.w3.org/2001/XMLSchema-instance" xsi:schemaLocation="http://www.topografix.com/GPX/1/1 http://www.topografix.com/GPX/1/1/gpx.xsd">
  <trk>
    <name>Trail Moià - Girona</name>
    <cmt></cmt>
    <desc></desc>
    <trkseg>
      <trkpt lat="41.809276" lon="2.101806">
        <ele>679.8</ele>
        <time>2011-09-03T08:38:35Z</time>
      </trkpt>
      <trkpt lat="41.809082" lon="2.102973">
        <ele>678.3</ele>
        <time>2011-09-03T08:38:46Z</time>
      </trkpt>
      <trkpt lat="41.809000" lon="2.103465">
        <ele>678.3</ele>
        <time>2011-09-03T08:38:50Z</time>
      </trkpt>
      <trkpt lat="41.808810" lon="2.103839">
        <ele>677.4</ele>
        <time>2011-09-03T08:38:54Z</time>
      </trkpt>
      <trkpt lat="41.808760" lon="2.104283">
        <ele>677.4</ele>
        <time>2011-09-03T08:38:58Z</time>
      </trkpt>
      <trkpt lat="41.808683" lon="2.105147">
        <ele>677.4</ele>
        <time>2011-09-03T08:39:04Z</time>
      </trkpt>
      <trkpt lat="41.808836" lon="2.106486">
        <ele>675.9</ele>
        <time>2011-09-03T08:39:13Z</time>
      </trkpt>
      <trkpt lat="41.808922" lon="2.106810">
        <ele>675.5</ele>
        <time>2011-09-03T08:39:15Z</time>
      </trkpt>
      <trkpt lat="41.809498" lon="2.107413">
        <ele>674.0</ele>
        <time>2011-09-03T08:39:21Z</time>
      </trkpt>
      <trkpt lat="41.809739" lon="2.107527">
        <ele>673.1</ele>
        <time>2011-09-03T08:39:23Z</time>
      </trkpt>
      <trkpt lat="41.810167" lon="2.108274">
        <ele>671.6</ele>
        <time>2011-09-03T08:39:28Z</time>
      </trkpt>
      <trkpt lat="41.810340" lon="2.110033">
        <ele>674.5</ele>
        <time>2011-09-03T08:39:37Z</time>
      </trkpt>
      <trkpt lat="41.810462" lon="2.110394">
        <ele>675.5</ele>
        <time>2011-09-03T08:39:39Z</time>
      </trkpt>
      <trkpt lat="41.810808" lon="2.111049">
        <ele>678.3</ele>
        <time>2011-09-03T08:39:43Z</time>
      </trkpt>
      <trkpt lat="41.810961" lon="2.111316">
        <ele>679.3</ele>
        <time>2011-09-03T08:39:45Z</time>
      </trkpt>
      <trkpt lat="41.811198" lon="2.111455">
        <ele>679.8</ele>
        <time>2011-09-03T08:39:50Z</time>
      </trkpt>
      <trkpt lat="41.811257" lon="2.111366">
        <ele>680.3</ele>
        <time>2011-09-03T08:39:52Z</time>
      </trkpt>
      <trkpt lat="41.811455" lon="2.111070">
        <ele>680.8</ele>
        <time>2011-09-03T08:39:56Z</time>
      </trkpt>
      <trkpt lat="41.811577" lon="2.110948">
        <ele>681.2</ele>
        <time>2011-09-03T08:39:58Z</time>
      </trkpt>
      <trkpt lat="41.812310" lon="2.110411">
        <ele>677.4</ele>
        <time>2011-09-03T08:40:07Z</time>
      </trkpt>
      <trkpt lat="41.812699" lon="2.109976">
        <ele>673.1</ele>
        <time>2011-09-03T08:40:13Z</time>
      </trkpt>
      <trkpt lat="41.812768" lon="2.109935">
        <ele>672.1</ele>
        <time>2011-09-03T08:40:14Z</time>
      </trkpt>
      <trkpt lat="41.812883" lon="2.109877">
        <ele>670.7</ele>
        <time>2011-09-03T08:40:16Z</time>
      </trkpt>
      <trkpt lat="41.812990" lon="2.109875">
        <ele>669.7</ele>
        <time>2011-09-03T08:40:23Z</time>
      </trkpt>
      <trkpt lat="41.812988" lon="2.109876">
        <ele>669.7</ele>
        <time>2011-09-03T08:40:28Z</time>
      </trkpt>
      <trkpt lat="41.813040" lon="2.110046">
        <ele>669.7</ele>
        <time>2011-09-03T08:40:32Z</time>
      </trkpt>
      <trkpt lat="41.813351" lon="2.110547">
        <ele>670.7</ele>
        <time>2011-09-03T08:40:37Z</time>
      </trkpt>
      <trkpt lat="41.813533" lon="2.110652">
        <ele>671.6</ele>
        <time>2011-09-03T08:40:39Z</time>
      </trkpt>
      <trkpt lat="41.814010" lon="2.110865">
        <ele>673.5</ele>
        <time>2011-09-03T08:40:45Z</time>
      </trkpt>
      <trkpt lat="41.814124" lon="2.110968">
        <ele>673.5</ele>
        <time>2011-09-03T08:40:47Z</time>
      </trkpt>
      <trkpt lat="41.814358" lon="2.111573">
        <ele>676.9</ele>
        <time>2011-09-03T08:40:53Z</time>
      </trkpt>
      <trkpt lat="41.814603" lon="2.112030">
        <ele>682.2</ele>
        <time>2011-09-03T08:40:57Z</time>
      </trkpt>
      <trkpt lat="41.814868" lon="2.112481">
        <ele>683.6</ele>
        <time>2011-09-03T08:41:02Z</time>
      </trkpt>
      <trkpt lat="41.814954" lon="2.112729">
        <ele>684.6</ele>
        <time>2011-09-03T08:41:04Z</time>
      </trkpt>
      <trkpt lat="41.815010" lon="2.112997">
        <ele>684.6</ele>
        <time>2011-09-03T08:41:06Z</time>
      </trkpt>
      <trkpt lat="41.815212" lon="2.113476">
        <ele>688.9</ele>
        <time>2011-09-03T08:41:10Z</time>
      </trkpt>
      <trkpt lat="41.815509" lon="2.113878">
        <ele>692.3</ele>
        <time>2011-09-03T08:41:14Z</time>
      </trkpt>
      <trkpt lat="41.815732" lon="2.114355">
        <ele>695.2</ele>
        <time>2011-09-03T08:41:18Z</time>
      </trkpt>
      <trkpt lat="41.815945" lon="2.114663">
        <ele>698.1</ele>
        <time>2011-09-03T08:41:23Z</time>
      </trkpt>
      <trkpt lat="41.816160" lon="2.114938">
        <ele>701.4</ele>
        <time>2011-09-03T08:41:31Z</time>
      </trkpt>
      <trkpt lat="41.816217" lon="2.115019">
        <ele>702.4</ele>
        <time>2011-09-03T08:41:33Z</time>
      </trkpt>
      <trkpt lat="41.816458" lon="2.115352">
        <ele>706.2</ele>
        <time>2011-09-03T08:41:40Z</time>
      </trkpt>
      <trkpt lat="41.816798" lon="2.115830">
        <ele>709.6</ele>
        <time>2011-09-03T08:41:49Z</time>
      </trkpt>
      <trkpt lat="41.817038" lon="2.116110">
        <ele>711.5</ele>
        <time>2011-09-03T08:41:54Z</time>
      </trkpt>
      <trkpt lat="41.817258" lon="2.116581">
        <ele>713.0</ele>
        <time>2011-09-03T08:42:03Z</time>
      </trkpt>
      <trkpt lat="41.817491" lon="2.117124">
        <ele>714.9</ele>
        <time>2011-09-03T08:42:11Z</time>
      </trkpt>
      <trkpt lat="41.817738" lon="2.117460">
        <ele>716.3</ele>
        <time>2011-09-03T08:42:15Z</time>
      </trkpt>
      <trkpt lat="41.817870" lon="2.118046">
        <ele>719.2</ele>
        <time>2011-09-03T08:42:20Z</time>
      </trkpt>
      <trkpt lat="41.817995" lon="2.118278">
        <ele>722.6</ele>
        <time>2011-09-03T08:42:23Z</time>
      </trkpt>
      <trkpt lat="41.818394" lon="2.118681">
        <ele>726.9</ele>
        <time>2011-09-03T08:42:29Z</time>
      </trkpt>
      <trkpt lat="41.818878" lon="2.119094">
        <ele>729.3</ele>
        <time>2011-09-03T08:42:35Z</time>
      </trkpt>
      <trkpt lat="41.819037" lon="2.119167">
        <ele>730.3</ele>
        <time>2011-09-03T08:42:37Z</time>
      </trkpt>
      <trkpt lat="41.819357" lon="2.119340">
        <ele>731.7</ele>
        <time>2011-09-03T08:42:41Z</time>
      </trkpt>
      <trkpt lat="41.819721" lon="2.119353">
        <ele>734.1</ele>
        <time>2011-09-03T08:42:45Z</time>
      </trkpt>
      <trkpt lat="41.820053" lon="2.119388">
        <ele>736.5</ele>
        <time>2011-09-03T08:42:49Z</time>
      </trkpt>
      <trkpt lat="41.820199" lon="2.119467">
        <ele>737.0</ele>
        <time>2011-09-03T08:42:51Z</time>
      </trkpt>
      <trkpt lat="41.820413" lon="2.119640">
        <ele>738.4</ele>
        <time>2011-09-03T08:42:54Z</time>
      </trkpt>
      <trkpt lat="41.820475" lon="2.119722">
        <ele>738.4</ele>
        <time>2011-09-03T08:42:55Z</time>
      </trkpt>
      <trkpt lat="41.820787" lon="2.120350">
        <ele>742.8</ele>
        <time>2011-09-03T08:43:02Z</time>
      </trkpt>
      <trkpt lat="41.820993" lon="2.120788">
        <ele>747.6</ele>
        <time>2011-09-03T08:43:07Z</time>
      </trkpt>
      <trkpt lat="41.821037" lon="2.120893">
        <ele>748.5</ele>
        <time>2011-09-03T08:43:09Z</time>
      </trkpt>
      <trkpt lat="41.821128" lon="2.120993">
        <ele>750.0</ele>
        <time>2011-09-03T08:43:12Z</time>
      </trkpt>
      <trkpt lat="41.821258" lon="2.121016">
        <ele>751.4</ele>
        <time>2011-09-03T08:43:16Z</time>
      </trkpt>
      <trkpt lat="41.821462" lon="2.121060">
        <ele>755.3</ele>
        <time>2011-09-03T08:43:22Z</time>
      </trkpt>
      <trkpt lat="41.821479" lon="2.121121">
        <ele>756.2</ele>
        <time>2011-09-03T08:43:24Z</time>
      </trkpt>
      <trkpt lat="41.821433" lon="2.121149">
        <ele>755.7</ele>
        <time>2011-09-03T08:43:27Z</time>
      </trkpt>
      <trkpt lat="41.821080" lon="2.121232">
        <ele>755.7</ele>
        <time>2011-09-03T08:43:34Z</time>
      </trkpt>
      <trkpt lat="41.820605" lon="2.121600">
        <ele>753.8</ele>
        <time>2011-09-03T08:43:44Z</time>
      </trkpt>
      <trkpt lat="41.820456" lon="2.121824">
        <ele>753.8</ele>
        <time>2011-09-03T08:43:54Z</time>
      </trkpt>
      <trkpt lat="41.820451" lon="2.121839">
        <ele>752.4</ele>
        <time>2011-09-03T08:44:02Z</time>
      </trkpt>
      <trkpt lat="41.820452" lon="2.121787">
        <ele>752.8</ele>
        <time>2011-09-03T08:44:08Z</time>
      </trkpt>
      <trkpt lat="41.820510" lon="2.121705">
        <ele>753.3</ele>
        <time>2011-09-03T08:44:10Z</time>
      </trkpt>
      <trkpt lat="41.820728" lon="2.121458">
        <ele>755.3</ele>
        <time>2011-09-03T08:44:14Z</time>
      </trkpt>
      <trkpt lat="41.821712" lon="2.121035">
        <ele>757.7</ele>
        <time>2011-09-03T08:44:24Z</time>
      </trkpt>
      <trkpt lat="41.822091" lon="2.120781">
        <ele>762.9</ele>
        <time>2011-09-03T08:44:28Z</time>
      </trkpt>
      <trkpt lat="41.822205" lon="2.120647">
        <ele>764.4</ele>
        <time>2011-09-03T08:44:30Z</time>
      </trkpt>
      <trkpt lat="41.822343" lon="2.120843">
        <ele>767.8</ele>
        <time>2011-09-03T08:44:35Z</time>
      </trkpt>
      <trkpt lat="41.822331" lon="2.120969">
        <ele>767.8</ele>
        <time>2011-09-03T08:44:36Z</time>
      </trkpt>
      <trkpt lat="41.822270" lon="2.121370">
        <ele>770.6</ele>
        <time>2011-09-03T08:44:39Z</time>
      </trkpt>
      <trkpt lat="41.821901" lon="2.121663">
        <ele>775.4</ele>
        <time>2011-09-03T08:44:44Z</time>
      </trkpt>
      <trkpt lat="41.821657" lon="2.121672">
        <ele>778.8</ele>
        <time>2011-09-03T08:44:46Z</time>
      </trkpt>
      <trkpt lat="41.821086" lon="2.121974">
        <ele>782.7</ele>
        <time>2011-09-03T08:44:52Z</time>
      </trkpt>
      <trkpt lat="41.821017" lon="2.122158">
        <ele>783.1</ele>
        <time>2011-09-03T08:44:54Z</time>
      </trkpt>
      <trkpt lat="41.821259" lon="2.122844">
        <ele>787.0</ele>
        <time>2011-09-03T08:45:02Z</time>
      </trkpt>
      <trkpt lat="41.821462" lon="2.122937">
        <ele>788.9</ele>
        <time>2011-09-03T08:45:04Z</time>
      </trkpt>
      <trkpt lat="41.821916" lon="2.123105">
        <ele>793.7</ele>
        <time>2011-09-03T08:45:09Z</time>
      </trkpt>
      <trkpt lat="41.821999" lon="2.123137">
        <ele>794.7</ele>
        <time>2011-09-03T08:45:11Z</time>
      </trkpt>
      <trkpt lat="41.821994" lon="2.123120">
        <ele>794.7</ele>
        <time>2011-09-03T08:45:19Z</time>
      </trkpt>
      <trkpt lat="41.822166" lon="2.123458">
        <ele>796.1</ele>
        <time>2011-09-03T08:45:29Z</time>
      </trkpt>
      <trkpt lat="41.822251" lon="2.123672">
        <ele>796.1</ele>
        <time>2011-09-03T08:45:32Z</time>
      </trkpt>
      <trkpt lat="41.822362" lon="2.124090">
        <ele>797.6</ele>
        <time>2011-09-03T08:45:37Z</time>
      </trkpt>
      <trkpt lat="41.822346" lon="2.124617">
        <ele>800.0</ele>
        <time>2011-09-03T08:45:42Z</time>
      </trkpt>
      <trkpt lat="41.822359" lon="2.124860">
        <ele>800.9</ele>
        <time>2011-09-03T08:45:44Z</time>
      </trkpt>
      <trkpt lat="41.822426" lon="2.125284">
        <ele>801.9</ele>
        <time>2011-09-03T08:45:48Z</time>
      </trkpt>
      <trkpt lat="41.822687" lon="2.125384">
        <ele>803.8</ele>
        <time>2011-09-03T08:45:54Z</time>
      </trkpt>
      <trkpt lat="41.822724" lon="2.125165">
        <ele>804.8</ele>
        <time>2011-09-03T08:45:56Z</time>
      </trkpt>
      <trkpt lat="41.822820" lon="2.124440">
        <ele>809.6</ele>
        <time>2011-09-03T08:46:02Z</time>
      </trkpt>
      <trkpt lat="41.823196" lon="2.123922">
        <ele>816.3</ele>
        <time>2011-09-03T08:46:06Z</time>
      </trkpt>
      <trkpt lat="41.823321" lon="2.123778">
        <ele>815.3</ele>
        <time>2011-09-03T08:46:07Z</time>
      </trkpt>
      <trkpt lat="41.823454" lon="2.123634">
        <ele>815.8</ele>
        <time>2011-09-03T08:46:08Z</time>
      </trkpt>
      <trkpt lat="41.823810" lon="2.123207">
        <ele>824.9</ele>
        <time>2011-09-03T08:46:11Z</time>
      </trkpt>
      <trkpt lat="41.823928" lon="2.123084">
        <ele>825.9</ele>
        <time>2011-09-03T08:46:12Z</time>
      </trkpt>
      <trkpt lat="41.824270" lon="2.122817">
        <ele>831.2</ele>
        <time>2011-09-03T08:46:15Z</time>
      </trkpt>
      <trkpt lat="41.824698" lon="2.122721">
        <ele>837.4</ele>
        <time>2011-09-03T08:46:19Z</time>
      </trkpt>
      <trkpt lat="41.825085" lon="2.122905">
        <ele>842.3</ele>
        <time>2011-09-03T08:46:22Z</time>
      </trkpt>
      <trkpt lat="41.825206" lon="2.122997">
        <ele>841.3</ele>
        <time>2011-09-03T08:46:23Z</time>
      </trkpt>
      <trkpt lat="41.825445" lon="2.123217">
        <ele>843.7</ele>
        <time>2011-09-03T08:46:25Z</time>
      </trkpt>
      <trkpt lat="41.825913" lon="2.123457">
        <ele>850.4</ele>
        <time>2011-09-03T08:46:29Z</time>
      </trkpt>
      <trkpt lat="41.826145" lon="2.123542">
        <ele>853.8</ele>
        <time>2011-09-03T08:46:31Z</time>
      </trkpt>
      <trkpt lat="41.826619" lon="2.123885">
        <ele>858.6</ele>
        <time>2011-09-03T08:46:35Z</time>
      </trkpt>
      <trkpt lat="41.826851" lon="2.124059">
        <ele>862.4</ele>
        <time>2011-09-03T08:46:37Z</time>
      </trkpt>
      <trkpt lat="41.827098" lon="2.124230">
        <ele>863.4</ele>
        <time>2011-09-03T08:46:39Z</time>
      </trkpt>
      <trkpt lat="41.827423" lon="2.124460">
        <ele>866.3</ele>
        <time>2011-09-03T08:46:42Z</time>
      </trkpt>
      <trkpt lat="41.827633" lon="2.124584">
        <ele>869.6</ele>
        <time>2011-09-03T08:46:44Z</time>
      </trkpt>
      <trkpt lat="41.827992" lon="2.124441">
        <ele>872.1</ele>
        <time>2011-09-03T08:46:50Z</time>
      </trkpt>
      <trkpt lat="41.828105" lon="2.123525">
        <ele>877.3</ele>
        <time>2011-09-03T08:46:58Z</time>
      </trkpt>
      <trkpt lat="41.828614" lon="2.123564">
        <ele>879.7</ele>
        <time>2011-09-03T08:47:03Z</time>
      </trkpt>
      <trkpt lat="41.828731" lon="2.123691">
        <ele>880.2</ele>
        <time>2011-09-03T08:47:04Z</time>
      </trkpt>
      <trkpt lat="41.829108" lon="2.124325">
        <ele>886.5</ele>
        <time>2011-09-03T08:47:08Z</time>
      </trkpt>
      <trkpt lat="41.829537" lon="2.125219">
        <ele>888.4</ele>
        <time>2011-09-03T08:47:13Z</time>
      </trkpt>
      <trkpt lat="41.829775" lon="2.125738">
        <ele>891.3</ele>
        <time>2011-09-03T08:47:16Z</time>
      </trkpt>
      <trkpt lat="41.830118" lon="2.126555">
        <ele>897.0</ele>
        <time>2011-09-03T08:47:21Z</time>
      </trkpt>
      <trkpt lat="41.830264" lon="2.126759">
        <ele>898.0</ele>
        <time>2011-09-03T08:47:23Z</time>
      </trkpt>
      <trkpt lat="41.830717" lon="2.127281">
        <ele>898.5</ele>
        <time>2011-09-03T08:47:32Z</time>
      </trkpt>
      <trkpt lat="41.831095" lon="2.127695">
        <ele>895.1</ele>
        <time>2011-09-03T08:47:39Z</time>
      </trkpt>
      <trkpt lat="41.831434" lon="2.128034">
        <ele>892.7</ele>
        <time>2011-09-03T08:47:42Z</time>
      </trkpt>
      <trkpt lat="41.831800" lon="2.128469">
        <ele>890.3</ele>
        <time>2011-09-03T08:47:45Z</time>
      </trkpt>
      <trkpt lat="41.832312" lon="2.129537">
        <ele>893.2</ele>
        <time>2011-09-03T08:47:50Z</time>
      </trkpt>
      <trkpt lat="41.832404" lon="2.129754">
        <ele>896.1</ele>
        <time>2011-09-03T08:47:51Z</time>
      </trkpt>
      <trkpt lat="41.832480" lon="2.129947">
        <ele>896.6</ele>
        <time>2011-09-03T08:47:52Z</time>
      </trkpt>
      <trkpt lat="41.832646" lon="2.130315">
        <ele>897.0</ele>
        <time>2011-09-03T08:47:55Z</time>
      </trkpt>
      <trkpt lat="41.832679" lon="2.130340">
        <ele>897.5</ele>
        <time>2011-09-03T08:48:00Z</time>
      </trkpt>
      <trkpt lat="41.832754" lon="2.130385">
        <ele>898.5</ele>
        <time>2011-09-03T08:48:03Z</time>
      </trkpt>
      <trkpt lat="41.832863" lon="2.130421">
        <ele>899.5</ele>
        <time>2011-09-03T08:48:05Z</time>
      </trkpt>
      <trkpt lat="41.833309" lon="2.130624">
        <ele>902.3</ele>
        <time>2011-09-03T08:48:10Z</time>
      </trkpt>
      <trkpt lat="41.833685" lon="2.130730">
        <ele>903.3</ele>
        <time>2011-09-03T08:48:13Z</time>
      </trkpt>
      <trkpt lat="41.834163" lon="2.131108">
        <ele>907.1</ele>
        <time>2011-09-03T08:48:17Z</time>
      </trkpt>
      <trkpt lat="41.834404" lon="2.131384">
        <ele>908.1</ele>
        <time>2011-09-03T08:48:19Z</time>
      </trkpt>
      <trkpt lat="41.835077" lon="2.131761">
        <ele>913.4</ele>
        <time>2011-09-03T08:48:24Z</time>
      </trkpt>
      <trkpt lat="41.835216" lon="2.131802">
        <ele>913.4</ele>
        <time>2011-09-03T08:48:25Z</time>
      </trkpt>
      <trkpt lat="41.835362" lon="2.131850">
        <ele>913.9</ele>
        <time>2011-09-03T08:48:26Z</time>
      </trkpt>
      <trkpt lat="41.835814" lon="2.132380">
        <ele>916.8</ele>
        <time>2011-09-03T08:48:32Z</time>
      </trkpt>
      <trkpt lat="41.836123" lon="2.133333">
        <ele>916.3</ele>
        <time>2011-09-03T08:48:40Z</time>
      </trkpt>
      <trkpt lat="41.836447" lon="2.133590">
        <ele>920.6</ele>
        <time>2011-09-03T08:48:43Z</time>
      </trkpt>
      <trkpt lat="41.836864" lon="2.133901">
        <ele>922.5</ele>
        <time>2011-09-03T08:48:46Z</time>
      </trkpt>
      <trkpt lat="41.837240" lon="2.134208">
        <ele>922.0</ele>
        <time>2011-09-03T08:48:49Z</time>
      </trkpt>
      <trkpt lat="41.838258" lon="2.134337">
        <ele>922.0</ele>
        <time>2011-09-03T08:48:55Z</time>
      </trkpt>
      <trkpt lat="41.838933" lon="2.134428">
        <ele>924.0</ele>
        <time>2011-09-03T08:48:59Z</time>
      </trkpt>
      <trkpt lat="41.839388" lon="2.134513">
        <ele>924.9</ele>
        <time>2011-09-03T08:49:02Z</time>
      </trkpt>
      <trkpt lat="41.839818" lon="2.134716">
        <ele>925.9</ele>
        <time>2011-09-03T08:49:05Z</time>
      </trkpt>
      <trkpt lat="41.840109" lon="2.135238">
        <ele>924.9</ele>
        <time>2011-09-03T08:49:10Z</time>
      </trkpt>
      <trkpt lat="41.840082" lon="2.135379">
        <ele>924.9</ele>
        <time>2011-09-03T08:49:11Z</time>
      </trkpt>
      <trkpt lat="41.839970" lon="2.135838">
        <ele>923.0</ele>
        <time>2011-09-03T08:49:14Z</time>
      </trkpt>
      <trkpt lat="41.840133" lon="2.136900">
        <ele>924.9</ele>
        <time>2011-09-03T08:49:20Z</time>
      </trkpt>
      <trkpt lat="41.840137" lon="2.137043">
        <ele>924.9</ele>
        <time>2011-09-03T08:49:21Z</time>
      </trkpt>
      <trkpt lat="41.839982" lon="2.137599">
        <ele>926.8</ele>
        <time>2011-09-03T08:49:25Z</time>
      </trkpt>
      <trkpt lat="41.839905" lon="2.138106">
        <ele>927.3</ele>
        <time>2011-09-03T08:49:29Z</time>
      </trkpt>
      <trkpt lat="41.840433" lon="2.138990">
        <ele>926.8</ele>
        <time>2011-09-03T08:49:36Z</time>
      </trkpt>
      <trkpt lat="41.840657" lon="2.139099">
        <ele>927.8</ele>
        <time>2011-09-03T08:49:38Z</time>
      </trkpt>
      <trkpt lat="41.841058" lon="2.139214">
        <ele>925.4</ele>
        <time>2011-09-03T08:49:41Z</time>
      </trkpt>
      <trkpt lat="41.841342" lon="2.139313">
        <ele>924.9</ele>
        <time>2011-09-03T08:49:43Z</time>
      </trkpt>
      <trkpt lat="41.842107" lon="2.139902">
        <ele>925.4</ele>
        <time>2011-09-03T08:49:49Z</time>
      </trkpt>
      <trkpt lat="41.842746" lon="2.140490">
        <ele>929.3</ele>
        <time>2011-09-03T08:49:56Z</time>
      </trkpt>
      <trkpt lat="41.843218" lon="2.140785">
        <ele>932.6</ele>
        <time>2011-09-03T08:50:00Z</time>
      </trkpt>
      <trkpt lat="41.843468" lon="2.140882">
        <ele>936.0</ele>
        <time>2011-09-03T08:50:02Z</time>
      </trkpt>
      <trkpt lat="41.843728" lon="2.141015">
        <ele>936.9</ele>
        <time>2011-09-03T08:50:04Z</time>
      </trkpt>
      <trkpt lat="41.844462" lon="2.141355">
        <ele>935.5</ele>
        <time>2011-09-03T08:50:09Z</time>
      </trkpt>
      <trkpt lat="41.844792" lon="2.141412">
        <ele>935.0</ele>
        <time>2011-09-03T08:50:13Z</time>
      </trkpt>
      <trkpt lat="41.844901" lon="2.141387">
        <ele>935.5</ele>
        <time>2011-09-03T08:50:23Z</time>
      </trkpt>
      <trkpt lat="41.844887" lon="2.141385">
        <ele>936.5</ele>
        <time>2011-09-03T08:51:49Z</time>
      </trkpt>
      <trkpt lat="41.845084" lon="2.141352">
        <ele>937.4</ele>
        <time>2011-09-03T08:51:54Z</time>
      </trkpt>
      <trkpt lat="41.845923" lon="2.141184">
        <ele>940.3</ele>
        <time>2011-09-03T08:52:03Z</time>
      </trkpt>
      <trkpt lat="41.846097" lon="2.141146">
        <ele>940.8</ele>
        <time>2011-09-03T08:52:05Z</time>
      </trkpt>
      <trkpt lat="41.847184" lon="2.141086">
        <ele>943.7</ele>
        <time>2011-09-03T08:52:15Z</time>
      </trkpt>
      <trkpt lat="41.847718" lon="2.141132">
        <ele>944.6</ele>
        <time>2011-09-03T08:52:20Z</time>
      </trkpt>
      <trkpt lat="41.848060" lon="2.141622">
        <ele>948.0</ele>
        <time>2011-09-03T08:52:26Z</time>
      </trkpt>
      <trkpt lat="41.847910" lon="2.141904">
        <ele>951.8</ele>
        <time>2011-09-03T08:52:29Z</time>
      </trkpt>
      <trkpt lat="41.847554" lon="2.142064">
        <ele>954.2</ele>
        <time>2011-09-03T08:52:33Z</time>
      </trkpt>
      <trkpt lat="41.847318" lon="2.141998">
        <ele>956.6</ele>
        <time>2011-09-03T08:52:35Z</time>
      </trkpt>
      <trkpt lat="41.847033" lon="2.141997">
        <ele>957.6</ele>
        <time>2011-09-03T08:52:38Z</time>
      </trkpt>
      <trkpt lat="41.846927" lon="2.142033">
        <ele>958.6</ele>
        <time>2011-09-03T08:52:39Z</time>
      </trkpt>
      <trkpt lat="41.846435" lon="2.142178">
        <ele>963.4</ele>
        <time>2011-09-03T08:52:43Z</time>
      </trkpt>
      <trkpt lat="41.846189" lon="2.142212">
        <ele>964.3</ele>
        <time>2011-09-03T08:52:45Z</time>
      </trkpt>
      <trkpt lat="41.845932" lon="2.142261">
        <ele>964.3</ele>
        <time>2011-09-03T08:52:47Z</time>
      </trkpt>
      <trkpt lat="41.845545" lon="2.142565">
        <ele>967.7</ele>
        <time>2011-09-03T08:52:51Z</time>
      </trkpt>
      <trkpt lat="41.845445" lon="2.143025">
        <ele>972.5</ele>
        <time>2011-09-03T08:52:55Z</time>
      </trkpt>
      <trkpt lat="41.845392" lon="2.143233">
        <ele>973.5</ele>
        <time>2011-09-03T08:52:57Z</time>
      </trkpt>
      <trkpt lat="41.845074" lon="2.143459">
        <ele>976.8</ele>
        <time>2011-09-03T08:53:02Z</time>
      </trkpt>
      <trkpt lat="41.844717" lon="2.143590">
        <ele>980.7</ele>
        <time>2011-09-03T08:53:05Z</time>
      </trkpt>
      <trkpt lat="41.844178" lon="2.143535">
        <ele>983.1</ele>
        <time>2011-09-03T08:53:09Z</time>
      </trkpt>
      <trkpt lat="41.843809" lon="2.143804">
        <ele>984.5</ele>
        <time>2011-09-03T08:53:14Z</time>
      </trkpt>
      <trkpt lat="41.843457" lon="2.144442">
        <ele>982.1</ele>
        <time>2011-09-03T08:53:19Z</time>
      </trkpt>
      <trkpt lat="41.843275" lon="2.144775">
        <ele>980.7</ele>
        <time>2011-09-03T08:53:22Z</time>
      </trkpt>
      <trkpt lat="41.843258" lon="2.145175">
        <ele>978.3</ele>
        <time>2011-09-03T08:53:27Z</time>
      </trkpt>
      <trkpt lat="41.843313" lon="2.145216">
        <ele>977.8</ele>
        <time>2011-09-03T08:53:28Z</time>
      </trkpt>
      <trkpt lat="41.843734" lon="2.145570">
        <ele>973.0</ele>
        <time>2011-09-03T08:53:32Z</time>
      </trkpt>
      <trkpt lat="41.843817" lon="2.145658">
        <ele>973.0</ele>
        <time>2011-09-03T08:53:33Z</time>
      </trkpt>
      <trkpt lat="41.843883" lon="2.145749">
        <ele>973.5</ele>
        <time>2011-09-03T08:53:34Z</time>
      </trkpt>
      <trkpt lat="41.843981" lon="2.146222">
        <ele>973.0</ele>
        <time>2011-09-03T08:53:38Z</time>
      </trkpt>
      <trkpt lat="41.843631" lon="2.147536">
        <ele>969.6</ele>
        <time>2011-09-03T08:53:45Z</time>
      </trkpt>
      <trkpt lat="41.843606" lon="2.147658">
        <ele>969.1</ele>
        <time>2011-09-03T08:53:46Z</time>
      </trkpt>
      <trkpt lat="41.843726" lon="2.148052">
        <ele>965.8</ele>
        <time>2011-09-03T08:53:50Z</time>
      </trkpt>
      <trkpt lat="41.844099" lon="2.148712">
        <ele>963.4</ele>
        <time>2011-09-03T08:53:55Z</time>
      </trkpt>
      <trkpt lat="41.844282" lon="2.149117">
        <ele>961.5</ele>
        <time>2011-09-03T08:53:58Z</time>
      </trkpt>
      <trkpt lat="41.844460" lon="2.149720">
        <ele>962.9</ele>
        <time>2011-09-03T08:54:02Z</time>
      </trkpt>
      <trkpt lat="41.844122" lon="2.150349">
        <ele>964.8</ele>
        <time>2011-09-03T08:54:09Z</time>
      </trkpt>
      <trkpt lat="41.843403" lon="2.150955">
        <ele>964.3</ele>
        <time>2011-09-03T08:54:16Z</time>
      </trkpt>
      <trkpt lat="41.843146" lon="2.151460">
        <ele>964.8</ele>
        <time>2011-09-03T08:54:20Z</time>
      </trkpt>
      <trkpt lat="41.842926" lon="2.152991">
        <ele>963.4</ele>
        <time>2011-09-03T08:54:29Z</time>
      </trkpt>
      <trkpt lat="41.842997" lon="2.153552">
        <ele>966.7</ele>
        <time>2011-09-03T08:54:32Z</time>
      </trkpt>
      <trkpt lat="41.843005" lon="2.154041">
        <ele>969.1</ele>
        <time>2011-09-03T08:54:37Z</time>
      </trkpt>
      <trkpt lat="41.843030" lon="2.154938">
        <ele>971.5</ele>
        <time>2011-09-03T08:54:46Z</time>
      </trkpt>
      <trkpt lat="41.842997" lon="2.155628">
        <ele>974.0</ele>
        <time>2011-09-03T08:54:51Z</time>
      </trkpt>
      <trkpt lat="41.843007" lon="2.156071">
        <ele>976.4</ele>
        <time>2011-09-03T08:54:54Z</time>
      </trkpt>
      <trkpt lat="41.842928" lon="2.156607">
        <ele>979.7</ele>
        <time>2011-09-03T08:54:58Z</time>
      </trkpt>
      <trkpt lat="41.842758" lon="2.157272">
        <ele>981.6</ele>
        <time>2011-09-03T08:55:05Z</time>
      </trkpt>
      <trkpt lat="41.842672" lon="2.157470">
        <ele>981.2</ele>
        <time>2011-09-03T08:55:12Z</time>
      </trkpt>
      <trkpt lat="41.842295" lon="2.158210">
        <ele>979.2</ele>
        <time>2011-09-03T08:55:19Z</time>
      </trkpt>
      <trkpt lat="41.841884" lon="2.158803">
        <ele>976.4</ele>
        <time>2011-09-03T08:55:24Z</time>
      </trkpt>
      <trkpt lat="41.841770" lon="2.159028">
        <ele>975.4</ele>
        <time>2011-09-03T08:55:26Z</time>
      </trkpt>
      <trkpt lat="41.841896" lon="2.159508">
        <ele>976.8</ele>
        <time>2011-09-03T08:55:32Z</time>
      </trkpt>
      <trkpt lat="41.841974" lon="2.160007">
        <ele>976.8</ele>
        <time>2011-09-03T08:55:37Z</time>
      </trkpt>
      <trkpt lat="41.841956" lon="2.160592">
        <ele>976.4</ele>
        <time>2011-09-03T08:55:41Z</time>
      </trkpt>
      <trkpt lat="41.841935" lon="2.161586">
        <ele>974.9</ele>
        <time>2011-09-03T08:55:47Z</time>
      </trkpt>
      <trkpt lat="41.841983" lon="2.162281">
        <ele>971.1</ele>
        <time>2011-09-03T08:55:51Z</time>
      </trkpt>
      <trkpt lat="41.842020" lon="2.162644">
        <ele>969.6</ele>
        <time>2011-09-03T08:55:53Z</time>
      </trkpt>
      <trkpt lat="41.842033" lon="2.162821">
        <ele>968.2</ele>
        <time>2011-09-03T08:55:54Z</time>
      </trkpt>
      <trkpt lat="41.842111" lon="2.163300">
        <ele>968.2</ele>
        <time>2011-09-03T08:55:57Z</time>
      </trkpt>
      <trkpt lat="41.841996" lon="2.163802">
        <ele>965.3</ele>
        <time>2011-09-03T08:56:01Z</time>
      </trkpt>
      <trkpt lat="41.841855" lon="2.164220">
        <ele>963.4</ele>
        <time>2011-09-03T08:56:04Z</time>
      </trkpt>
      <trkpt lat="41.841804" lon="2.164618">
        <ele>963.4</ele>
        <time>2011-09-03T08:56:07Z</time>
      </trkpt>
      <trkpt lat="41.841942" lon="2.165641">
        <ele>967.2</ele>
        <time>2011-09-03T08:56:13Z</time>
      </trkpt>
      <trkpt lat="41.842056" lon="2.166521">
        <ele>970.6</ele>
        <time>2011-09-03T08:56:18Z</time>
      </trkpt>
      <trkpt lat="41.842196" lon="2.167114">
        <ele>974.0</ele>
        <time>2011-09-03T08:56:22Z</time>
      </trkpt>
      <trkpt lat="41.842253" lon="2.167594">
        <ele>977.8</ele>
        <time>2011-09-03T08:56:25Z</time>
      </trkpt>
      <trkpt lat="41.842260" lon="2.167896">
        <ele>980.2</ele>
        <time>2011-09-03T08:56:27Z</time>
      </trkpt>
      <trkpt lat="41.842238" lon="2.168172">
        <ele>982.1</ele>
        <time>2011-09-03T08:56:29Z</time>
      </trkpt>
      <trkpt lat="41.842336" lon="2.168802">
        <ele>986.4</ele>
        <time>2011-09-03T08:56:34Z</time>
      </trkpt>
      <trkpt lat="41.842557" lon="2.169098">
        <ele>988.4</ele>
        <time>2011-09-03T08:56:37Z</time>
      </trkpt>
      <trkpt lat="41.842708" lon="2.169386">
        <ele>988.9</ele>
        <time>2011-09-03T08:56:40Z</time>
      </trkpt>
      <trkpt lat="41.842750" lon="2.169531">
        <ele>989.8</ele>
        <time>2011-09-03T08:56:47Z</time>
      </trkpt>
      <trkpt lat="41.842763" lon="2.169522">
        <ele>992.2</ele>
        <time>2011-09-03T09:09:21Z</time>
      </trkpt>
      <trkpt lat="41.842826" lon="2.169508">
        <ele>992.2</ele>
        <time>2011-09-03T09:09:22Z</time>
      </trkpt>
      <trkpt lat="41.842977" lon="2.169505">
        <ele>993.7</ele>
        <time>2011-09-03T09:09:24Z</time>
      </trkpt>
      <trkpt lat="41.843327" lon="2.169336">
        <ele>996.5</ele>
        <time>2011-09-03T09:09:28Z</time>
      </trkpt>
      <trkpt lat="41.843771" lon="2.169360">
        <ele>999.4</ele>
        <time>2011-09-03T09:09:34Z</time>
      </trkpt>
      <trkpt lat="41.844398" lon="2.169823">
        <ele>999.9</ele>
        <time>2011-09-03T09:09:41Z</time>
      </trkpt>
      <trkpt lat="41.844785" lon="2.169774">
        <ele>1000.4</ele>
        <time>2011-09-03T09:09:45Z</time>
      </trkpt>
      <trkpt lat="41.844978" lon="2.169670">
        <ele>1000.9</ele>
        <time>2011-09-03T09:09:47Z</time>
      </trkpt>
      <trkpt lat="41.845387" lon="2.169636">
        <ele>1002.8</ele>
        <time>2011-09-03T09:09:52Z</time>
      </trkpt>
      <trkpt lat="41.845598" lon="2.169722">
        <ele>1004.7</ele>
        <time>2011-09-03T09:09:55Z</time>
      </trkpt>
      <trkpt lat="41.845779" lon="2.169881">
        <ele>1006.2</ele>
        <time>2011-09-03T09:09:58Z</time>
      </trkpt>
      <trkpt lat="41.845809" lon="2.170420">
        <ele>1010.0</ele>
        <time>2011-09-03T09:10:02Z</time>
      </trkpt>
      <trkpt lat="41.845846" lon="2.170695">
        <ele>1011.4</ele>
        <time>2011-09-03T09:10:04Z</time>
      </trkpt>
      <trkpt lat="41.845964" lon="2.171307">
        <ele>1014.3</ele>
        <time>2011-09-03T09:10:09Z</time>
      </trkpt>
      <trkpt lat="41.845998" lon="2.171480">
        <ele>1014.8</ele>
        <time>2011-09-03T09:10:11Z</time>
      </trkpt>
      <trkpt lat="41.846060" lon="2.171612">
        <ele>1015.8</ele>
        <time>2011-09-03T09:10:19Z</time>
      </trkpt>
      <trkpt lat="41.845908" lon="2.171507">
        <ele>1013.8</ele>
        <time>2011-09-03T09:10:27Z</time>
      </trkpt>
      <trkpt lat="41.845855" lon="2.171533">
        <ele>1012.9</ele>
        <time>2011-09-03T09:10:28Z</time>
      </trkpt>
      <trkpt lat="41.845660" lon="2.171601">
        <ele>1011.0</ele>
        <time>2011-09-03T09:10:31Z</time>
      </trkpt>
      <trkpt lat="41.845541" lon="2.171931">
        <ele>1008.1</ele>
        <time>2011-09-03T09:10:36Z</time>
      </trkpt>
      <trkpt lat="41.845846" lon="2.172604">
        <ele>1006.6</ele>
        <time>2011-09-03T09:10:42Z</time>
      </trkpt>
      <trkpt lat="41.845970" lon="2.173289">
        <ele>1006.6</ele>
        <time>2011-09-03T09:10:49Z</time>
      </trkpt>
      <trkpt lat="41.845746" lon="2.173560">
        <ele>1006.2</ele>
        <time>2011-09-03T09:10:52Z</time>
      </trkpt>
      <trkpt lat="41.845357" lon="2.174076">
        <ele>1001.4</ele>
        <time>2011-09-03T09:10:57Z</time>
      </trkpt>
      <trkpt lat="41.845297" lon="2.174171">
        <ele>1000.9</ele>
        <time>2011-09-03T09:10:58Z</time>
      </trkpt>
      <trkpt lat="41.845223" lon="2.174336">
        <ele>999.4</ele>
        <time>2011-09-03T09:11:00Z</time>
      </trkpt>
      <trkpt lat="41.845215" lon="2.174748">
        <ele>995.6</ele>
        <time>2011-09-03T09:11:04Z</time>
      </trkpt>
      <trkpt lat="41.845260" lon="2.175008">
        <ele>994.6</ele>
        <time>2011-09-03T09:11:06Z</time>
      </trkpt>
      <trkpt lat="41.845443" lon="2.175593">
        <ele>993.2</ele>
        <time>2011-09-03T09:11:11Z</time>
      </trkpt>
      <trkpt lat="41.845979" lon="2.176245">
        <ele>993.7</ele>
        <time>2011-09-03T09:11:18Z</time>
      </trkpt>
      <trkpt lat="41.846004" lon="2.176297">
        <ele>993.2</ele>
        <time>2011-09-03T09:11:25Z</time>
      </trkpt>
      <trkpt lat="41.846003" lon="2.176297">
        <ele>993.2</ele>
        <time>2011-09-03T09:11:26Z</time>
      </trkpt>
      <trkpt lat="41.845958" lon="2.176398">
        <ele>992.7</ele>
        <time>2011-09-03T09:11:30Z</time>
      </trkpt>
      <trkpt lat="41.845762" lon="2.176999">
        <ele>988.9</ele>
        <time>2011-09-03T09:11:37Z</time>
      </trkpt>
      <trkpt lat="41.845730" lon="2.177131">
        <ele>988.9</ele>
        <time>2011-09-03T09:11:38Z</time>
      </trkpt>
      <trkpt lat="41.845471" lon="2.177633">
        <ele>991.7</ele>
        <time>2011-09-03T09:11:43Z</time>
      </trkpt>
      <trkpt lat="41.845304" lon="2.177881">
        <ele>990.8</ele>
        <time>2011-09-03T09:11:46Z</time>
      </trkpt>
      <trkpt lat="41.844847" lon="2.178362">
        <ele>986.4</ele>
        <time>2011-09-03T09:11:51Z</time>
      </trkpt>
      <trkpt lat="41.844755" lon="2.178445">
        <ele>986.4</ele>
        <time>2011-09-03T09:11:52Z</time>
      </trkpt>
      <trkpt lat="41.844528" lon="2.178600">
        <ele>985.0</ele>
        <time>2011-09-03T09:11:55Z</time>
      </trkpt>
      <trkpt lat="41.844407" lon="2.178950">
        <ele>982.6</ele>
        <time>2011-09-03T09:11:59Z</time>
      </trkpt>
      <trkpt lat="41.844256" lon="2.179888">
        <ele>982.1</ele>
        <time>2011-09-03T09:12:05Z</time>
      </trkpt>
      <trkpt lat="41.844242" lon="2.180143">
        <ele>982.1</ele>
        <time>2011-09-03T09:12:07Z</time>
      </trkpt>
      <trkpt lat="41.844358" lon="2.180818">
        <ele>979.7</ele>
        <time>2011-09-03T09:12:12Z</time>
      </trkpt>
      <trkpt lat="41.844429" lon="2.181243">
        <ele>979.7</ele>
        <time>2011-09-03T09:12:15Z</time>
      </trkpt>
      <trkpt lat="41.844337" lon="2.181706">
        <ele>978.8</ele>
        <time>2011-09-03T09:12:19Z</time>
      </trkpt>
      <trkpt lat="41.844065" lon="2.181962">
        <ele>975.4</ele>
        <time>2011-09-03T09:12:23Z</time>
      </trkpt>
      <trkpt lat="41.843665" lon="2.182296">
        <ele>971.5</ele>
        <time>2011-09-03T09:12:28Z</time>
      </trkpt>
      <trkpt lat="41.843420" lon="2.182698">
        <ele>967.2</ele>
        <time>2011-09-03T09:12:34Z</time>
      </trkpt>
      <trkpt lat="41.843256" lon="2.183116">
        <ele>962.9</ele>
        <time>2011-09-03T09:12:39Z</time>
      </trkpt>
      <trkpt lat="41.843209" lon="2.183220">
        <ele>962.4</ele>
        <time>2011-09-03T09:12:40Z</time>
      </trkpt>
      <trkpt lat="41.843031" lon="2.183557">
        <ele>963.4</ele>
        <time>2011-09-03T09:12:43Z</time>
      </trkpt>
      <trkpt lat="41.842748" lon="2.184116">
        <ele>960.5</ele>
        <time>2011-09-03T09:12:48Z</time>
      </trkpt>
      <trkpt lat="41.842477" lon="2.184443">
        <ele>959.1</ele>
        <time>2011-09-03T09:12:52Z</time>
      </trkpt>
      <trkpt lat="41.842330" lon="2.184719">
        <ele>956.6</ele>
        <time>2011-09-03T09:12:56Z</time>
      </trkpt>
      <trkpt lat="41.842283" lon="2.185193">
        <ele>952.8</ele>
        <time>2011-09-03T09:13:00Z</time>
      </trkpt>
      <trkpt lat="41.842325" lon="2.185750">
        <ele>948.5</ele>
        <time>2011-09-03T09:13:04Z</time>
      </trkpt>
      <trkpt lat="41.842358" lon="2.186149">
        <ele>944.6</ele>
        <time>2011-09-03T09:13:08Z</time>
      </trkpt>
      <trkpt lat="41.842361" lon="2.186239">
        <ele>943.7</ele>
        <time>2011-09-03T09:13:09Z</time>
      </trkpt>
      <trkpt lat="41.842575" lon="2.186641">
        <ele>939.3</ele>
        <time>2011-09-03T09:13:14Z</time>
      </trkpt>
      <trkpt lat="41.842762" lon="2.187035">
        <ele>935.0</ele>
        <time>2011-09-03T09:13:18Z</time>
      </trkpt>
      <trkpt lat="41.842967" lon="2.187300">
        <ele>931.7</ele>
        <time>2011-09-03T09:13:21Z</time>
      </trkpt>
      <trkpt lat="41.843389" lon="2.187711">
        <ele>928.3</ele>
        <time>2011-09-03T09:13:26Z</time>
      </trkpt>
      <trkpt lat="41.843530" lon="2.187913">
        <ele>926.4</ele>
        <time>2011-09-03T09:13:28Z</time>
      </trkpt>
      <trkpt lat="41.843839" lon="2.188240">
        <ele>923.0</ele>
        <time>2011-09-03T09:13:32Z</time>
      </trkpt>
      <trkpt lat="41.844042" lon="2.188388">
        <ele>919.2</ele>
        <time>2011-09-03T09:13:35Z</time>
      </trkpt>
      <trkpt lat="41.844103" lon="2.188437">
        <ele>919.2</ele>
        <time>2011-09-03T09:13:36Z</time>
      </trkpt>
      <trkpt lat="41.844335" lon="2.189156">
        <ele>917.7</ele>
        <time>2011-09-03T09:13:44Z</time>
      </trkpt>
      <trkpt lat="41.844357" lon="2.189653">
        <ele>916.8</ele>
        <time>2011-09-03T09:13:48Z</time>
      </trkpt>
      <trkpt lat="41.844402" lon="2.190177">
        <ele>909.1</ele>
        <time>2011-09-03T09:13:52Z</time>
      </trkpt>
      <trkpt lat="41.844443" lon="2.190449">
        <ele>906.2</ele>
        <time>2011-09-03T09:13:54Z</time>
      </trkpt>
      <trkpt lat="41.844664" lon="2.190945">
        <ele>902.8</ele>
        <time>2011-09-03T09:13:58Z</time>
      </trkpt>
      <trkpt lat="41.844905" lon="2.191214">
        <ele>902.8</ele>
        <time>2011-09-03T09:14:01Z</time>
      </trkpt>
      <trkpt lat="41.845050" lon="2.191381">
        <ele>900.4</ele>
        <time>2011-09-03T09:14:03Z</time>
      </trkpt>
      <trkpt lat="41.845471" lon="2.191603">
        <ele>895.6</ele>
        <time>2011-09-03T09:14:08Z</time>
      </trkpt>
      <trkpt lat="41.845670" lon="2.191672">
        <ele>893.7</ele>
        <time>2011-09-03T09:14:10Z</time>
      </trkpt>
      <trkpt lat="41.846092" lon="2.191845">
        <ele>889.8</ele>
        <time>2011-09-03T09:14:14Z</time>
      </trkpt>
      <trkpt lat="41.846589" lon="2.192019">
        <ele>885.0</ele>
        <time>2011-09-03T09:14:20Z</time>
      </trkpt>
      <trkpt lat="41.846684" lon="2.192434">
        <ele>879.7</ele>
        <time>2011-09-03T09:14:24Z</time>
      </trkpt>
      <trkpt lat="41.846607" lon="2.192935">
        <ele>875.9</ele>
        <time>2011-09-03T09:14:27Z</time>
      </trkpt>
      <trkpt lat="41.846581" lon="2.193462">
        <ele>872.5</ele>
        <time>2011-09-03T09:14:31Z</time>
      </trkpt>
      <trkpt lat="41.846862" lon="2.193639">
        <ele>868.7</ele>
        <time>2011-09-03T09:14:36Z</time>
      </trkpt>
      <trkpt lat="41.847153" lon="2.193560">
        <ele>865.3</ele>
        <time>2011-09-03T09:14:39Z</time>
      </trkpt>
      <trkpt lat="41.847406" lon="2.193544">
        <ele>862.9</ele>
        <time>2011-09-03T09:14:41Z</time>
      </trkpt>
      <trkpt lat="41.847738" lon="2.193484">
        <ele>860.5</ele>
        <time>2011-09-03T09:14:44Z</time>
      </trkpt>
      <trkpt lat="41.848088" lon="2.193738">
        <ele>855.7</ele>
        <time>2011-09-03T09:14:49Z</time>
      </trkpt>
      <trkpt lat="41.848275" lon="2.194177">
        <ele>852.8</ele>
        <time>2011-09-03T09:14:53Z</time>
      </trkpt>
      <trkpt lat="41.848338" lon="2.194265">
        <ele>851.4</ele>
        <time>2011-09-03T09:14:54Z</time>
      </trkpt>
      <trkpt lat="41.848454" lon="2.194439">
        <ele>849.9</ele>
        <time>2011-09-03T09:14:56Z</time>
      </trkpt>
      <trkpt lat="41.848662" lon="2.194645">
        <ele>847.1</ele>
        <time>2011-09-03T09:14:59Z</time>
      </trkpt>
      <trkpt lat="41.848832" lon="2.195016">
        <ele>843.7</ele>
        <time>2011-09-03T09:15:03Z</time>
      </trkpt>
      <trkpt lat="41.849046" lon="2.195617">
        <ele>838.4</ele>
        <time>2011-09-03T09:15:10Z</time>
      </trkpt>
      <trkpt lat="41.849015" lon="2.195765">
        <ele>836.0</ele>
        <time>2011-09-03T09:15:12Z</time>
      </trkpt>
      <trkpt lat="41.848917" lon="2.195997">
        <ele>832.2</ele>
        <time>2011-09-03T09:15:15Z</time>
      </trkpt>
      <trkpt lat="41.848847" lon="2.196184">
        <ele>829.3</ele>
        <time>2011-09-03T09:15:24Z</time>
      </trkpt>
      <trkpt lat="41.848843" lon="2.196194">
        <ele>828.8</ele>
        <time>2011-09-03T09:15:59Z</time>
      </trkpt>
      <trkpt lat="41.848794" lon="2.196294">
        <ele>827.8</ele>
        <time>2011-09-03T09:16:03Z</time>
      </trkpt>
      <trkpt lat="41.848715" lon="2.196423">
        <ele>825.4</ele>
        <time>2011-09-03T09:16:06Z</time>
      </trkpt>
      <trkpt lat="41.848335" lon="2.196717">
        <ele>821.6</ele>
        <time>2011-09-03T09:16:11Z</time>
      </trkpt>
      <trkpt lat="41.848258" lon="2.196713">
        <ele>821.1</ele>
        <time>2011-09-03T09:16:12Z</time>
      </trkpt>
      <trkpt lat="41.848169" lon="2.196717">
        <ele>821.1</ele>
        <time>2011-09-03T09:16:13Z</time>
      </trkpt>
      <trkpt lat="41.847967" lon="2.196670">
        <ele>819.2</ele>
        <time>2011-09-03T09:16:16Z</time>
      </trkpt>
      <trkpt lat="41.847768" lon="2.196701">
        <ele>817.7</ele>
        <time>2011-09-03T09:16:19Z</time>
      </trkpt>
      <trkpt lat="41.847616" lon="2.196831">
        <ele>816.8</ele>
        <time>2011-09-03T09:16:21Z</time>
      </trkpt>
      <trkpt lat="41.847475" lon="2.197048">
        <ele>815.8</ele>
        <time>2011-09-03T09:16:23Z</time>
      </trkpt>
      <trkpt lat="41.847218" lon="2.197555">
        <ele>812.9</ele>
        <time>2011-09-03T09:16:27Z</time>
      </trkpt>
      <trkpt lat="41.847116" lon="2.197826">
        <ele>811.5</ele>
        <time>2011-09-03T09:16:29Z</time>
      </trkpt>
      <trkpt lat="41.847055" lon="2.198488">
        <ele>807.2</ele>
        <time>2011-09-03T09:16:34Z</time>
      </trkpt>
      <trkpt lat="41.847066" lon="2.198717">
        <ele>805.7</ele>
        <time>2011-09-03T09:16:36Z</time>
      </trkpt>
      <trkpt lat="41.846955" lon="2.198954">
        <ele>803.3</ele>
        <time>2011-09-03T09:16:39Z</time>
      </trkpt>
      <trkpt lat="41.846821" lon="2.199146">
        <ele>801.9</ele>
        <time>2011-09-03T09:16:41Z</time>
      </trkpt>
      <trkpt lat="41.846623" lon="2.199423">
        <ele>799.0</ele>
        <time>2011-09-03T09:16:44Z</time>
      </trkpt>
      <trkpt lat="41.846524" lon="2.199593">
        <ele>797.6</ele>
        <time>2011-09-03T09:16:46Z</time>
      </trkpt>
      <trkpt lat="41.846129" lon="2.199676">
        <ele>793.7</ele>
        <time>2011-09-03T09:16:51Z</time>
      </trkpt>
      <trkpt lat="41.845944" lon="2.199690">
        <ele>792.7</ele>
        <time>2011-09-03T09:16:53Z</time>
      </trkpt>
      <trkpt lat="41.845719" lon="2.199667">
        <ele>790.8</ele>
        <time>2011-09-03T09:16:56Z</time>
      </trkpt>
      <trkpt lat="41.845529" lon="2.199607">
        <ele>788.9</ele>
        <time>2011-09-03T09:16:59Z</time>
      </trkpt>
      <trkpt lat="41.845322" lon="2.199575">
        <ele>786.5</ele>
        <time>2011-09-03T09:17:06Z</time>
      </trkpt>
      <trkpt lat="41.845317" lon="2.199575">
        <ele>786.0</ele>
        <time>2011-09-03T09:17:55Z</time>
      </trkpt>
      <trkpt lat="41.845035" lon="2.199405">
        <ele>784.1</ele>
        <time>2011-09-03T09:18:00Z</time>
      </trkpt>
      <trkpt lat="41.844819" lon="2.199325">
        <ele>780.7</ele>
        <time>2011-09-03T09:18:02Z</time>
      </trkpt>
      <trkpt lat="41.844637" lon="2.199197">
        <ele>778.8</ele>
        <time>2011-09-03T09:18:04Z</time>
      </trkpt>
      <trkpt lat="41.844299" lon="2.198818">
        <ele>775.0</ele>
        <time>2011-09-03T09:18:08Z</time>
      </trkpt>
      <trkpt lat="41.844027" lon="2.198677">
        <ele>770.6</ele>
        <time>2011-09-03T09:18:12Z</time>
      </trkpt>
      <trkpt lat="41.843826" lon="2.198892">
        <ele>766.3</ele>
        <time>2011-09-03T09:18:16Z</time>
      </trkpt>
      <trkpt lat="41.843651" lon="2.199070">
        <ele>764.9</ele>
        <time>2011-09-03T09:18:18Z</time>
      </trkpt>
      <trkpt lat="41.843315" lon="2.199369">
        <ele>760.1</ele>
        <time>2011-09-03T09:18:22Z</time>
      </trkpt>
      <trkpt lat="41.843150" lon="2.199502">
        <ele>756.7</ele>
        <time>2011-09-03T09:18:24Z</time>
      </trkpt>
      <trkpt lat="41.842835" lon="2.199601">
        <ele>753.3</ele>
        <time>2011-09-03T09:18:28Z</time>
      </trkpt>
      <trkpt lat="41.842661" lon="2.199696">
        <ele>751.9</ele>
        <time>2011-09-03T09:18:31Z</time>
      </trkpt>
      <trkpt lat="41.842429" lon="2.199850">
        <ele>749.0</ele>
        <time>2011-09-03T09:18:36Z</time>
      </trkpt>
      <trkpt lat="41.842054" lon="2.199888">
        <ele>744.7</ele>
        <time>2011-09-03T09:18:41Z</time>
      </trkpt>
      <trkpt lat="41.841957" lon="2.199884">
        <ele>742.8</ele>
        <time>2011-09-03T09:18:42Z</time>
      </trkpt>
      <trkpt lat="41.841800" lon="2.199854">
        <ele>741.8</ele>
        <time>2011-09-03T09:18:44Z</time>
      </trkpt>
      <trkpt lat="41.841500" lon="2.199374">
        <ele>738.9</ele>
        <time>2011-09-03T09:18:51Z</time>
      </trkpt>
      <trkpt lat="41.841503" lon="2.199289">
        <ele>739.4</ele>
        <time>2011-09-03T09:18:52Z</time>
      </trkpt>
      <trkpt lat="41.841408" lon="2.198973">
        <ele>736.5</ele>
        <time>2011-09-03T09:18:58Z</time>
      </trkpt>
      <trkpt lat="41.841361" lon="2.198982">
        <ele>736.5</ele>
        <time>2011-09-03T09:19:15Z</time>
      </trkpt>
      <trkpt lat="41.841363" lon="2.198982">
        <ele>736.0</ele>
        <time>2011-09-03T09:19:20Z</time>
      </trkpt>
      <trkpt lat="41.841322" lon="2.199139">
        <ele>736.5</ele>
        <time>2011-09-03T09:19:24Z</time>
      </trkpt>
      <trkpt lat="41.841344" lon="2.199465">
        <ele>737.5</ele>
        <time>2011-09-03T09:19:27Z</time>
      </trkpt>
      <trkpt lat="41.841099" lon="2.199896">
        <ele>737.9</ele>
        <time>2011-09-03T09:19:32Z</time>
      </trkpt>
      <trkpt lat="41.840920" lon="2.200021">
        <ele>737.9</ele>
        <time>2011-09-03T09:19:34Z</time>
      </trkpt>
      <trkpt lat="41.840739" lon="2.200784">
        <ele>739.4</ele>
        <time>2011-09-03T09:19:40Z</time>
      </trkpt>
      <trkpt lat="41.840763" lon="2.200933">
        <ele>738.9</ele>
        <time>2011-09-03T09:19:41Z</time>
      </trkpt>
      <trkpt lat="41.840902" lon="2.201578">
        <ele>736.5</ele>
        <time>2011-09-03T09:19:45Z</time>
      </trkpt>
      <trkpt lat="41.841047" lon="2.202137">
        <ele>733.1</ele>
        <time>2011-09-03T09:19:49Z</time>
      </trkpt>
      <trkpt lat="41.841334" lon="2.202798">
        <ele>728.8</ele>
        <time>2011-09-03T09:19:54Z</time>
      </trkpt>
      <trkpt lat="41.841739" lon="2.203275">
        <ele>725.0</ele>
        <time>2011-09-03T09:19:59Z</time>
      </trkpt>
      <trkpt lat="41.841850" lon="2.203298">
        <ele>724.5</ele>
        <time>2011-09-03T09:20:00Z</time>
      </trkpt>
      <trkpt lat="41.842189" lon="2.203357">
        <ele>721.6</ele>
        <time>2011-09-03T09:20:03Z</time>
      </trkpt>
      <trkpt lat="41.842519" lon="2.203611">
        <ele>717.3</ele>
        <time>2011-09-03T09:20:07Z</time>
      </trkpt>
      <trkpt lat="41.842578" lon="2.203702">
        <ele>717.8</ele>
        <time>2011-09-03T09:20:08Z</time>
      </trkpt>
      <trkpt lat="41.843043" lon="2.204149">
        <ele>713.0</ele>
        <time>2011-09-03T09:20:15Z</time>
      </trkpt>
      <trkpt lat="41.843135" lon="2.204169">
        <ele>712.5</ele>
        <time>2011-09-03T09:20:16Z</time>
      </trkpt>
      <trkpt lat="41.843463" lon="2.204192">
        <ele>710.1</ele>
        <time>2011-09-03T09:20:20Z</time>
      </trkpt>
      <trkpt lat="41.843819" lon="2.204184">
        <ele>706.7</ele>
        <time>2011-09-03T09:23:52Z</time>
      </trkpt>
      <trkpt lat="41.844152" lon="2.204405">
        <ele>703.8</ele>
        <time>2011-09-03T09:23:56Z</time>
      </trkpt>
      <trkpt lat="41.844278" lon="2.204898">
        <ele>700.9</ele>
        <time>2011-09-03T09:24:00Z</time>
      </trkpt>
      <trkpt lat="41.844306" lon="2.205273">
        <ele>698.5</ele>
        <time>2011-09-03T09:24:03Z</time>
      </trkpt>
      <trkpt lat="41.844170" lon="2.205231">
        <ele>697.6</ele>
        <time>2011-09-03T09:24:09Z</time>
      </trkpt>
      <trkpt lat="41.844152" lon="2.205140">
        <ele>698.1</ele>
        <time>2011-09-03T09:24:10Z</time>
      </trkpt>
      <trkpt lat="41.844110" lon="2.204804">
        <ele>699.5</ele>
        <time>2011-09-03T09:24:13Z</time>
      </trkpt>
      <trkpt lat="41.843997" lon="2.204568">
        <ele>700.9</ele>
        <time>2011-09-03T09:24:16Z</time>
      </trkpt>
      <trkpt lat="41.843811" lon="2.204551">
        <ele>701.4</ele>
        <time>2011-09-03T09:24:18Z</time>
      </trkpt>
      <trkpt lat="41.842941" lon="2.204640">
        <ele>698.5</ele>
        <time>2011-09-03T09:24:25Z</time>
      </trkpt>
      <trkpt lat="41.842759" lon="2.204709">
        <ele>697.6</ele>
        <time>2011-09-03T09:24:27Z</time>
      </trkpt>
      <trkpt lat="41.842633" lon="2.205021">
        <ele>695.7</ele>
        <time>2011-09-03T09:24:30Z</time>
      </trkpt>
      <trkpt lat="41.842428" lon="2.206040">
        <ele>690.4</ele>
        <time>2011-09-03T09:24:36Z</time>
      </trkpt>
      <trkpt lat="41.842300" lon="2.206315">
        <ele>688.9</ele>
        <time>2011-09-03T09:24:38Z</time>
      </trkpt>
      <trkpt lat="41.842052" lon="2.206519">
        <ele>687.0</ele>
        <time>2011-09-03T09:24:42Z</time>
      </trkpt>
      <trkpt lat="41.841797" lon="2.206062">
        <ele>685.6</ele>
        <time>2011-09-03T09:24:48Z</time>
      </trkpt>
      <trkpt lat="41.841429" lon="2.205841">
        <ele>685.6</ele>
        <time>2011-09-03T09:24:52Z</time>
      </trkpt>
      <trkpt lat="41.840719" lon="2.205632">
        <ele>685.6</ele>
        <time>2011-09-03T09:24:58Z</time>
      </trkpt>
      <trkpt lat="41.839943" lon="2.205704">
        <ele>686.0</ele>
        <time>2011-09-03T09:25:04Z</time>
      </trkpt>
      <trkpt lat="41.839620" lon="2.205711">
        <ele>684.6</ele>
        <time>2011-09-03T09:25:07Z</time>
      </trkpt>
      <trkpt lat="41.839264" lon="2.205558">
        <ele>683.2</ele>
        <time>2011-09-03T09:25:11Z</time>
      </trkpt>
      <trkpt lat="41.839084" lon="2.205506">
        <ele>682.7</ele>
        <time>2011-09-03T09:25:16Z</time>
      </trkpt>
      <trkpt lat="41.838995" lon="2.205700">
        <ele>679.8</ele>
        <time>2011-09-03T09:25:20Z</time>
      </trkpt>
      <trkpt lat="41.838936" lon="2.205934">
        <ele>677.4</ele>
        <time>2011-09-03T09:25:23Z</time>
      </trkpt>
      <trkpt lat="41.838645" lon="2.206438">
        <ele>674.5</ele>
        <time>2011-09-03T09:25:31Z</time>
      </trkpt>
      <trkpt lat="41.838626" lon="2.206538">
        <ele>674.0</ele>
        <time>2011-09-03T09:25:32Z</time>
      </trkpt>
      <trkpt lat="41.838603" lon="2.206760">
        <ele>673.1</ele>
        <time>2011-09-03T09:25:34Z</time>
      </trkpt>
      <trkpt lat="41.838597" lon="2.206884">
        <ele>672.6</ele>
        <time>2011-09-03T09:25:35Z</time>
      </trkpt>
      <trkpt lat="41.838739" lon="2.207893">
        <ele>668.7</ele>
        <time>2011-09-03T09:25:42Z</time>
      </trkpt>
      <trkpt lat="41.838866" lon="2.208462">
        <ele>666.8</ele>
        <time>2011-09-03T09:25:46Z</time>
      </trkpt>
      <trkpt lat="41.839004" lon="2.209058">
        <ele>665.9</ele>
        <time>2011-09-03T09:25:51Z</time>
      </trkpt>
      <trkpt lat="41.838883" lon="2.209523">
        <ele>665.4</ele>
        <time>2011-09-03T09:25:58Z</time>
      </trkpt>
      <trkpt lat="41.838771" lon="2.209556">
        <ele>664.4</ele>
        <time>2011-09-03T09:26:01Z</time>
      </trkpt>
      <trkpt lat="41.838654" lon="2.209577">
        <ele>663.9</ele>
        <time>2011-09-03T09:26:04Z</time>
      </trkpt>
      <trkpt lat="41.838510" lon="2.209626">
        <ele>663.4</ele>
        <time>2011-09-03T09:26:07Z</time>
      </trkpt>
      <trkpt lat="41.838181" lon="2.210077">
        <ele>663.0</ele>
        <time>2011-09-03T09:26:14Z</time>
      </trkpt>
      <trkpt lat="41.838112" lon="2.210354">
        <ele>663.0</ele>
        <time>2011-09-03T09:26:17Z</time>
      </trkpt>
      <trkpt lat="41.837995" lon="2.210817">
        <ele>660.1</ele>
        <time>2011-09-03T09:26:22Z</time>
      </trkpt>
      <trkpt lat="41.837907" lon="2.211153">
        <ele>658.6</ele>
        <time>2011-09-03T09:26:25Z</time>
      </trkpt>
      <trkpt lat="41.837886" lon="2.211253">
        <ele>658.6</ele>
        <time>2011-09-03T09:26:26Z</time>
      </trkpt>
      <trkpt lat="41.837882" lon="2.211615">
        <ele>659.1</ele>
        <time>2011-09-03T09:26:30Z</time>
      </trkpt>
      <trkpt lat="41.837836" lon="2.211889">
        <ele>658.2</ele>
        <time>2011-09-03T09:26:33Z</time>
      </trkpt>
      <trkpt lat="41.837755" lon="2.212115">
        <ele>657.7</ele>
        <time>2011-09-03T09:26:35Z</time>
      </trkpt>
      <trkpt lat="41.837625" lon="2.212426">
        <ele>657.2</ele>
        <time>2011-09-03T09:26:38Z</time>
      </trkpt>
      <trkpt lat="41.837504" lon="2.212708">
        <ele>656.7</ele>
        <time>2011-09-03T09:26:41Z</time>
      </trkpt>
      <trkpt lat="41.837191" lon="2.213281">
        <ele>654.3</ele>
        <time>2011-09-03T09:26:47Z</time>
      </trkpt>
      <trkpt lat="41.836839" lon="2.214034">
        <ele>650.5</ele>
        <time>2011-09-03T09:26:55Z</time>
      </trkpt>
      <trkpt lat="41.836530" lon="2.214774">
        <ele>647.1</ele>
        <time>2011-09-03T09:27:03Z</time>
      </trkpt>
      <trkpt lat="41.836350" lon="2.215039">
        <ele>645.7</ele>
        <time>2011-09-03T09:27:06Z</time>
      </trkpt>
      <trkpt lat="41.836025" lon="2.215807">
        <ele>642.8</ele>
        <time>2011-09-03T09:27:14Z</time>
      </trkpt>
      <trkpt lat="41.835879" lon="2.216111">
        <ele>641.3</ele>
        <time>2011-09-03T09:27:18Z</time>
      </trkpt>
      <trkpt lat="41.835694" lon="2.216414">
        <ele>640.4</ele>
        <time>2011-09-03T09:27:22Z</time>
      </trkpt>
      <trkpt lat="41.835608" lon="2.216576">
        <ele>639.9</ele>
        <time>2011-09-03T09:27:24Z</time>
      </trkpt>
      <trkpt lat="41.835439" lon="2.217008">
        <ele>637.0</ele>
        <time>2011-09-03T09:27:30Z</time>
      </trkpt>
      <trkpt lat="41.835314" lon="2.217226">
        <ele>635.1</ele>
        <time>2011-09-03T09:27:34Z</time>
      </trkpt>
      <trkpt lat="41.835188" lon="2.217406">
        <ele>633.6</ele>
        <time>2011-09-03T09:27:38Z</time>
      </trkpt>
      <trkpt lat="41.835182" lon="2.217533">
        <ele>633.2</ele>
        <time>2011-09-03T09:27:48Z</time>
      </trkpt>
      <trkpt lat="41.835196" lon="2.217711">
        <ele>632.2</ele>
        <time>2011-09-03T09:27:57Z</time>
      </trkpt>
      <trkpt lat="41.835202" lon="2.217854">
        <ele>631.7</ele>
        <time>2011-09-03T09:27:59Z</time>
      </trkpt>
      <trkpt lat="41.835010" lon="2.218222">
        <ele>630.8</ele>
        <time>2011-09-03T09:28:03Z</time>
      </trkpt>
      <trkpt lat="41.834906" lon="2.218423">
        <ele>630.3</ele>
        <time>2011-09-03T09:28:05Z</time>
      </trkpt>
      <trkpt lat="41.834793" lon="2.219104">
        <ele>630.3</ele>
        <time>2011-09-03T09:28:13Z</time>
      </trkpt>
      <trkpt lat="41.834793" lon="2.219113">
        <ele>630.3</ele>
        <time>2011-09-03T09:28:19Z</time>
      </trkpt>
      <trkpt lat="41.834755" lon="2.219114">
        <ele>629.8</ele>
        <time>2011-09-03T09:28:23Z</time>
      </trkpt>
      <trkpt lat="41.834726" lon="2.219061">
        <ele>629.8</ele>
        <time>2011-09-03T09:28:25Z</time>
      </trkpt>
      <trkpt lat="41.834598" lon="2.219079">
        <ele>628.4</ele>
        <time>2011-09-03T09:28:30Z</time>
      </trkpt>
      <trkpt lat="41.834139" lon="2.219550">
        <ele>626.9</ele>
        <time>2011-09-03T09:28:40Z</time>
      </trkpt>
      <trkpt lat="41.834159" lon="2.220002">
        <ele>627.4</ele>
        <time>2011-09-03T09:28:47Z</time>
      </trkpt>
      <trkpt lat="41.834541" lon="2.220948">
        <ele>627.9</ele>
        <time>2011-09-03T09:28:56Z</time>
      </trkpt>
      <trkpt lat="41.834574" lon="2.221427">
        <ele>626.9</ele>
        <time>2011-09-03T09:29:01Z</time>
      </trkpt>
      <trkpt lat="41.834494" lon="2.221722">
        <ele>626.4</ele>
        <time>2011-09-03T09:29:04Z</time>
      </trkpt>
      <trkpt lat="41.834541" lon="2.222169">
        <ele>625.5</ele>
        <time>2011-09-03T09:29:10Z</time>
      </trkpt>
      <trkpt lat="41.834804" lon="2.222563">
        <ele>624.5</ele>
        <time>2011-09-03T09:29:16Z</time>
      </trkpt>
      <trkpt lat="41.834875" lon="2.223022">
        <ele>622.6</ele>
        <time>2011-09-03T09:29:22Z</time>
      </trkpt>
      <trkpt lat="41.834708" lon="2.223737">
        <ele>620.7</ele>
        <time>2011-09-03T09:29:30Z</time>
      </trkpt>
      <trkpt lat="41.834434" lon="2.224825">
        <ele>618.3</ele>
        <time>2011-09-03T09:29:42Z</time>
      </trkpt>
      <trkpt lat="41.834408" lon="2.224913">
        <ele>617.8</ele>
        <time>2011-09-03T09:29:43Z</time>
      </trkpt>
      <trkpt lat="41.834219" lon="2.225705">
        <ele>615.9</ele>
        <time>2011-09-03T09:29:50Z</time>
      </trkpt>
      <trkpt lat="41.833943" lon="2.226973">
        <ele>612.5</ele>
        <time>2011-09-03T09:30:00Z</time>
      </trkpt>
      <trkpt lat="41.833916" lon="2.227097">
        <ele>612.0</ele>
        <time>2011-09-03T09:30:01Z</time>
      </trkpt>
      <trkpt lat="41.833660" lon="2.227969">
        <ele>611.1</ele>
        <time>2011-09-03T09:30:08Z</time>
      </trkpt>
      <trkpt lat="41.833283" lon="2.228726">
        <ele>610.1</ele>
        <time>2011-09-03T09:30:14Z</time>
      </trkpt>
      <trkpt lat="41.833154" lon="2.229200">
        <ele>608.7</ele>
        <time>2011-09-03T09:30:18Z</time>
      </trkpt>
      <trkpt lat="41.832694" lon="2.230474">
        <ele>605.3</ele>
        <time>2011-09-03T09:30:29Z</time>
      </trkpt>
      <trkpt lat="41.832477" lon="2.231370">
        <ele>603.8</ele>
        <time>2011-09-03T09:30:36Z</time>
      </trkpt>
      <trkpt lat="41.832307" lon="2.231818">
        <ele>601.9</ele>
        <time>2011-09-03T09:30:40Z</time>
      </trkpt>
      <trkpt lat="41.832099" lon="2.232469">
        <ele>600.5</ele>
        <time>2011-09-03T09:30:47Z</time>
      </trkpt>
      <trkpt lat="41.832171" lon="2.233535">
        <ele>599.0</ele>
        <time>2011-09-03T09:30:58Z</time>
      </trkpt>
      <trkpt lat="41.832152" lon="2.233945">
        <ele>597.6</ele>
        <time>2011-09-03T09:31:06Z</time>
      </trkpt>
      <trkpt lat="41.831885" lon="2.234093">
        <ele>597.6</ele>
        <time>2011-09-03T09:31:11Z</time>
      </trkpt>
      <trkpt lat="41.830627" lon="2.234323">
        <ele>596.2</ele>
        <time>2011-09-03T09:31:22Z</time>
      </trkpt>
      <trkpt lat="41.829170" lon="2.234462">
        <ele>595.2</ele>
        <time>2011-09-03T09:31:32Z</time>
      </trkpt>
      <trkpt lat="41.828163" lon="2.234590">
        <ele>592.3</ele>
        <time>2011-09-03T09:31:39Z</time>
      </trkpt>
      <trkpt lat="41.827445" lon="2.234195">
        <ele>592.8</ele>
        <time>2011-09-03T09:31:45Z</time>
      </trkpt>
      <trkpt lat="41.827258" lon="2.233948">
        <ele>593.8</ele>
        <time>2011-09-03T09:31:47Z</time>
      </trkpt>
      <trkpt lat="41.827090" lon="2.233408">
        <ele>593.8</ele>
        <time>2011-09-03T09:31:52Z</time>
      </trkpt>
      <trkpt lat="41.826836" lon="2.233429">
        <ele>593.8</ele>
        <time>2011-09-03T09:31:57Z</time>
      </trkpt>
      <trkpt lat="41.826713" lon="2.233944">
        <ele>595.2</ele>
        <time>2011-09-03T09:32:02Z</time>
      </trkpt>
      <trkpt lat="41.826663" lon="2.234197">
        <ele>595.2</ele>
        <time>2011-09-03T09:32:04Z</time>
      </trkpt>
      <trkpt lat="41.826447" lon="2.234794">
        <ele>593.8</ele>
        <time>2011-09-03T09:32:10Z</time>
      </trkpt>
      <trkpt lat="41.826346" lon="2.234977">
        <ele>593.3</ele>
        <time>2011-09-03T09:32:12Z</time>
      </trkpt>
      <trkpt lat="41.826039" lon="2.235240">
        <ele>589.4</ele>
        <time>2011-09-03T09:32:16Z</time>
      </trkpt>
      <trkpt lat="41.825439" lon="2.235470">
        <ele>588.0</ele>
        <time>2011-09-03T09:32:25Z</time>
      </trkpt>
      <trkpt lat="41.825437" lon="2.235472">
        <ele>588.0</ele>
        <time>2011-09-03T09:32:39Z</time>
      </trkpt>
      <trkpt lat="41.825437" lon="2.235472">
        <ele>588.5</ele>
        <time>2011-09-03T09:32:43Z</time>
      </trkpt>
      <trkpt lat="41.825396" lon="2.235747">
        <ele>587.5</ele>
        <time>2011-09-03T09:32:48Z</time>
      </trkpt>
      <trkpt lat="41.825461" lon="2.236646">
        <ele>585.1</ele>
        <time>2011-09-03T09:32:54Z</time>
      </trkpt>
      <trkpt lat="41.825452" lon="2.237267">
        <ele>582.7</ele>
        <time>2011-09-03T09:33:00Z</time>
      </trkpt>
      <trkpt lat="41.825455" lon="2.238046">
        <ele>581.7</ele>
        <time>2011-09-03T09:33:06Z</time>
      </trkpt>
      <trkpt lat="41.825541" lon="2.238684">
        <ele>581.3</ele>
        <time>2011-09-03T09:33:12Z</time>
      </trkpt>
      <trkpt lat="41.825540" lon="2.238824">
        <ele>581.3</ele>
        <time>2011-09-03T09:33:14Z</time>
      </trkpt>
      <trkpt lat="41.825461" lon="2.239109">
        <ele>581.3</ele>
        <time>2011-09-03T09:33:19Z</time>
      </trkpt>
      <trkpt lat="41.825389" lon="2.239270">
        <ele>581.3</ele>
        <time>2011-09-03T09:33:22Z</time>
      </trkpt>
      <trkpt lat="41.825095" lon="2.239819">
        <ele>581.7</ele>
        <time>2011-09-03T09:33:29Z</time>
      </trkpt>
      <trkpt lat="41.824754" lon="2.240116">
        <ele>579.3</ele>
        <time>2011-09-03T09:33:34Z</time>
      </trkpt>
      <trkpt lat="41.824673" lon="2.240236">
        <ele>578.4</ele>
        <time>2011-09-03T09:33:36Z</time>
      </trkpt>
      <trkpt lat="41.824349" lon="2.240641">
        <ele>575.5</ele>
        <time>2011-09-03T09:33:42Z</time>
      </trkpt>
      <trkpt lat="41.824100" lon="2.241070">
        <ele>572.1</ele>
        <time>2011-09-03T09:33:50Z</time>
      </trkpt>
      <trkpt lat="41.824122" lon="2.241096">
        <ele>571.6</ele>
        <time>2011-09-03T09:33:59Z</time>
      </trkpt>
      <trkpt lat="41.824156" lon="2.241103">
        <ele>571.6</ele>
        <time>2011-09-03T09:34:08Z</time>
      </trkpt>
      <trkpt lat="41.824171" lon="2.241604">
        <ele>568.8</ele>
        <time>2011-09-03T09:34:14Z</time>
      </trkpt>
      <trkpt lat="41.824172" lon="2.241740">
        <ele>568.8</ele>
        <time>2011-09-03T09:34:15Z</time>
      </trkpt>
      <trkpt lat="41.824224" lon="2.242015">
        <ele>567.8</ele>
        <time>2011-09-03T09:34:21Z</time>
      </trkpt>
      <trkpt lat="41.824358" lon="2.242105">
        <ele>567.8</ele>
        <time>2011-09-03T09:34:28Z</time>
      </trkpt>
      <trkpt lat="41.824371" lon="2.242118">
        <ele>567.8</ele>
        <time>2011-09-03T09:34:38Z</time>
      </trkpt>
      <trkpt lat="41.824368" lon="2.242110">
        <ele>567.8</ele>
        <time>2011-09-03T09:34:45Z</time>
      </trkpt>
      <trkpt lat="41.824198" lon="2.241978">
        <ele>567.8</ele>
        <time>2011-09-03T09:34:54Z</time>
      </trkpt>
      <trkpt lat="41.824199" lon="2.241978">
        <ele>567.8</ele>
        <time>2011-09-03T09:35:10Z</time>
      </trkpt>
      <trkpt lat="41.824185" lon="2.241494">
        <ele>568.8</ele>
        <time>2011-09-03T09:35:17Z</time>
      </trkpt>
      <trkpt lat="41.824176" lon="2.241408">
        <ele>568.8</ele>
        <time>2011-09-03T09:35:23Z</time>
      </trkpt>
      <trkpt lat="41.824175" lon="2.241315">
        <ele>569.2</ele>
        <time>2011-09-03T09:35:31Z</time>
      </trkpt>
      <trkpt lat="41.824044" lon="2.241180">
        <ele>569.7</ele>
        <time>2011-09-03T09:35:35Z</time>
      </trkpt>
      <trkpt lat="41.823245" lon="2.240981">
        <ele>571.2</ele>
        <time>2011-09-03T09:35:46Z</time>
      </trkpt>
      <trkpt lat="41.822552" lon="2.240812">
        <ele>573.1</ele>
        <time>2011-09-03T09:35:55Z</time>
      </trkpt>
      <trkpt lat="41.822004" lon="2.240536">
        <ele>573.1</ele>
        <time>2011-09-03T09:36:04Z</time>
      </trkpt>
      <trkpt lat="41.821393" lon="2.240093">
        <ele>570.2</ele>
        <time>2011-09-03T09:36:12Z</time>
      </trkpt>
      <trkpt lat="41.820822" lon="2.239663">
        <ele>566.8</ele>
        <time>2011-09-03T09:36:21Z</time>
      </trkpt>
      <trkpt lat="41.820530" lon="2.239931">
        <ele>569.7</ele>
        <time>2011-09-03T09:36:27Z</time>
      </trkpt>
      <trkpt lat="41.820254" lon="2.240574">
        <ele>571.2</ele>
        <time>2011-09-03T09:36:32Z</time>
      </trkpt>
      <trkpt lat="41.820173" lon="2.240864">
        <ele>572.1</ele>
        <time>2011-09-03T09:36:34Z</time>
      </trkpt>
      <trkpt lat="41.819990" lon="2.241942">
        <ele>569.7</ele>
        <time>2011-09-03T09:36:42Z</time>
      </trkpt>
      <trkpt lat="41.819976" lon="2.242081">
        <ele>568.8</ele>
        <time>2011-09-03T09:36:43Z</time>
      </trkpt>
      <trkpt lat="41.820001" lon="2.242506">
        <ele>567.3</ele>
        <time>2011-09-03T09:36:46Z</time>
      </trkpt>
      <trkpt lat="41.820028" lon="2.242638">
        <ele>566.8</ele>
        <time>2011-09-03T09:36:47Z</time>
      </trkpt>
      <trkpt lat="41.820107" lon="2.243075">
        <ele>567.3</ele>
        <time>2011-09-03T09:36:51Z</time>
      </trkpt>
      <trkpt lat="41.820297" lon="2.243444">
        <ele>568.3</ele>
        <time>2011-09-03T09:36:55Z</time>
      </trkpt>
      <trkpt lat="41.820817" lon="2.244231">
        <ele>567.8</ele>
        <time>2011-09-03T09:37:03Z</time>
      </trkpt>
      <trkpt lat="41.821007" lon="2.244489">
        <ele>567.8</ele>
        <time>2011-09-03T09:37:07Z</time>
      </trkpt>
      <trkpt lat="41.821476" lon="2.244838">
        <ele>571.6</ele>
        <time>2011-09-03T09:37:12Z</time>
      </trkpt>
      <trkpt lat="41.821762" lon="2.245056">
        <ele>575.0</ele>
        <time>2011-09-03T09:37:15Z</time>
      </trkpt>
      <trkpt lat="41.822021" lon="2.245376">
        <ele>576.4</ele>
        <time>2011-09-03T09:37:18Z</time>
      </trkpt>
      <trkpt lat="41.822247" lon="2.245822">
        <ele>577.4</ele>
        <time>2011-09-03T09:37:22Z</time>
      </trkpt>
      <trkpt lat="41.822662" lon="2.246019">
        <ele>579.8</ele>
        <time>2011-09-03T09:37:28Z</time>
      </trkpt>
      <trkpt lat="41.822838" lon="2.245931">
        <ele>577.9</ele>
        <time>2011-09-03T09:37:30Z</time>
      </trkpt>
      <trkpt lat="41.823509" lon="2.246019">
        <ele>576.4</ele>
        <time>2011-09-03T09:37:37Z</time>
      </trkpt>
      <trkpt lat="41.824226" lon="2.246072">
        <ele>574.0</ele>
        <time>2011-09-03T09:37:45Z</time>
      </trkpt>
      <trkpt lat="41.824356" lon="2.246123">
        <ele>573.1</ele>
        <time>2011-09-03T09:37:53Z</time>
      </trkpt>
      <trkpt lat="41.824353" lon="2.246120">
        <ele>573.6</ele>
        <time>2011-09-03T09:39:47Z</time>
      </trkpt>
      <trkpt lat="41.824462" lon="2.246315">
        <ele>573.6</ele>
        <time>2011-09-03T09:39:51Z</time>
      </trkpt>
      <trkpt lat="41.824645" lon="2.246884">
        <ele>576.0</ele>
        <time>2011-09-03T09:39:57Z</time>
      </trkpt>
      <trkpt lat="41.824904" lon="2.247125">
        <ele>576.0</ele>
        <time>2011-09-03T09:40:02Z</time>
      </trkpt>
      <trkpt lat="41.825146" lon="2.247219">
        <ele>576.4</ele>
        <time>2011-09-03T09:40:05Z</time>
      </trkpt>
      <trkpt lat="41.825534" lon="2.247639">
        <ele>579.3</ele>
        <time>2011-09-03T09:40:11Z</time>
      </trkpt>
      <trkpt lat="41.825765" lon="2.248377">
        <ele>584.1</ele>
        <time>2011-09-03T09:40:16Z</time>
      </trkpt>
      <trkpt lat="41.825778" lon="2.248531">
        <ele>585.1</ele>
        <time>2011-09-03T09:40:17Z</time>
      </trkpt>
      <trkpt lat="41.826011" lon="2.248928">
        <ele>587.0</ele>
        <time>2011-09-03T09:40:22Z</time>
      </trkpt>
      <trkpt lat="41.826194" lon="2.249088">
        <ele>588.0</ele>
        <time>2011-09-03T09:40:26Z</time>
      </trkpt>
      <trkpt lat="41.826059" lon="2.249672">
        <ele>589.4</ele>
        <time>2011-09-03T09:40:31Z</time>
      </trkpt>
      <trkpt lat="41.826156" lon="2.250014">
        <ele>591.3</ele>
        <time>2011-09-03T09:40:36Z</time>
      </trkpt>
      <trkpt lat="41.826239" lon="2.250339">
        <ele>594.2</ele>
        <time>2011-09-03T09:40:39Z</time>
      </trkpt>
      <trkpt lat="41.826371" lon="2.250865">
        <ele>598.1</ele>
        <time>2011-09-03T09:40:43Z</time>
      </trkpt>
      <trkpt lat="41.826493" lon="2.251456">
        <ele>600.5</ele>
        <time>2011-09-03T09:40:47Z</time>
      </trkpt>
      <trkpt lat="41.826499" lon="2.251715">
        <ele>602.4</ele>
        <time>2011-09-03T09:40:49Z</time>
      </trkpt>
      <trkpt lat="41.826890" lon="2.252530">
        <ele>604.3</ele>
        <time>2011-09-03T09:40:57Z</time>
      </trkpt>
      <trkpt lat="41.827283" lon="2.252909">
        <ele>607.7</ele>
        <time>2011-09-03T09:41:04Z</time>
      </trkpt>
      <trkpt lat="41.827533" lon="2.253160">
        <ele>609.6</ele>
        <time>2011-09-03T09:41:09Z</time>
      </trkpt>
      <trkpt lat="41.828374" lon="2.253989">
        <ele>612.0</ele>
        <time>2011-09-03T09:41:19Z</time>
      </trkpt>
      <trkpt lat="41.828553" lon="2.254220">
        <ele>611.5</ele>
        <time>2011-09-03T09:41:21Z</time>
      </trkpt>
      <trkpt lat="41.828853" lon="2.254731">
        <ele>609.6</ele>
        <time>2011-09-03T09:41:25Z</time>
      </trkpt>
      <trkpt lat="41.829233" lon="2.255060">
        <ele>609.6</ele>
        <time>2011-09-03T09:41:29Z</time>
      </trkpt>
      <trkpt lat="41.829681" lon="2.255308">
        <ele>610.1</ele>
        <time>2011-09-03T09:41:33Z</time>
      </trkpt>
      <trkpt lat="41.829979" lon="2.255734">
        <ele>607.2</ele>
        <time>2011-09-03T09:41:37Z</time>
      </trkpt>
      <trkpt lat="41.830021" lon="2.255983">
        <ele>605.3</ele>
        <time>2011-09-03T09:41:39Z</time>
      </trkpt>
      <trkpt lat="41.830185" lon="2.256280">
        <ele>602.4</ele>
        <time>2011-09-03T09:41:43Z</time>
      </trkpt>
      <trkpt lat="41.830402" lon="2.256405">
        <ele>599.5</ele>
        <time>2011-09-03T09:41:46Z</time>
      </trkpt>
      <trkpt lat="41.830492" lon="2.256629">
        <ele>599.5</ele>
        <time>2011-09-03T09:41:51Z</time>
      </trkpt>
      <trkpt lat="41.830344" lon="2.257171">
        <ele>603.8</ele>
        <time>2011-09-03T09:41:58Z</time>
      </trkpt>
      <trkpt lat="41.830242" lon="2.257638">
        <ele>607.7</ele>
        <time>2011-09-03T09:42:02Z</time>
      </trkpt>
      <trkpt lat="41.830204" lon="2.257763">
        <ele>608.7</ele>
        <time>2011-09-03T09:42:03Z</time>
      </trkpt>
      <trkpt lat="41.829977" lon="2.258227">
        <ele>613.0</ele>
        <time>2011-09-03T09:42:07Z</time>
      </trkpt>
      <trkpt lat="41.829919" lon="2.258337">
        <ele>614.4</ele>
        <time>2011-09-03T09:42:08Z</time>
      </trkpt>
      <trkpt lat="41.829832" lon="2.258750">
        <ele>616.8</ele>
        <time>2011-09-03T09:42:12Z</time>
      </trkpt>
      <trkpt lat="41.830056" lon="2.258851">
        <ele>620.2</ele>
        <time>2011-09-03T09:42:17Z</time>
      </trkpt>
      <trkpt lat="41.830191" lon="2.259255">
        <ele>623.6</ele>
        <time>2011-09-03T09:42:22Z</time>
      </trkpt>
      <trkpt lat="41.830175" lon="2.259472">
        <ele>624.0</ele>
        <time>2011-09-03T09:42:24Z</time>
      </trkpt>
      <trkpt lat="41.829912" lon="2.259818">
        <ele>626.0</ele>
        <time>2011-09-03T09:42:29Z</time>
      </trkpt>
      <trkpt lat="41.829812" lon="2.259878">
        <ele>626.4</ele>
        <time>2011-09-03T09:42:31Z</time>
      </trkpt>
      <trkpt lat="41.829647" lon="2.260059">
        <ele>628.4</ele>
        <time>2011-09-03T09:42:35Z</time>
      </trkpt>
      <trkpt lat="41.829572" lon="2.260191">
        <ele>629.8</ele>
        <time>2011-09-03T09:42:37Z</time>
      </trkpt>
      <trkpt lat="41.829483" lon="2.260408">
        <ele>632.7</ele>
        <time>2011-09-03T09:42:40Z</time>
      </trkpt>
      <trkpt lat="41.829420" lon="2.260711">
        <ele>634.1</ele>
        <time>2011-09-03T09:42:43Z</time>
      </trkpt>
      <trkpt lat="41.829444" lon="2.260948">
        <ele>635.1</ele>
        <time>2011-09-03T09:42:47Z</time>
      </trkpt>
      <trkpt lat="41.829491" lon="2.261034">
        <ele>635.6</ele>
        <time>2011-09-03T09:42:49Z</time>
      </trkpt>
      <trkpt lat="41.829480" lon="2.261638">
        <ele>637.0</ele>
        <time>2011-09-03T09:42:55Z</time>
      </trkpt>
      <trkpt lat="41.829291" lon="2.262203">
        <ele>638.5</ele>
        <time>2011-09-03T09:43:00Z</time>
      </trkpt>
      <trkpt lat="41.829375" lon="2.263651">
        <ele>648.5</ele>
        <time>2011-09-03T09:50:21Z</time>
      </trkpt>
      <trkpt lat="41.829506" lon="2.263971">
        <ele>651.4</ele>
        <time>2011-09-03T09:50:27Z</time>
      </trkpt>
      <trkpt lat="41.829571" lon="2.264160">
        <ele>652.9</ele>
        <time>2011-09-03T09:50:30Z</time>
      </trkpt>
      <trkpt lat="41.829602" lon="2.264230">
        <ele>652.9</ele>
        <time>2011-09-03T09:50:31Z</time>
      </trkpt>
      <trkpt lat="41.829751" lon="2.264652">
        <ele>654.8</ele>
        <time>2011-09-03T09:50:36Z</time>
      </trkpt>
      <trkpt lat="41.829989" lon="2.265333">
        <ele>658.2</ele>
        <time>2011-09-03T09:50:44Z</time>
      </trkpt>
      <trkpt lat="41.830033" lon="2.265483">
        <ele>658.6</ele>
        <time>2011-09-03T09:50:46Z</time>
      </trkpt>
      <trkpt lat="41.830242" lon="2.266116">
        <ele>661.5</ele>
        <time>2011-09-03T09:50:54Z</time>
      </trkpt>
      <trkpt lat="41.830335" lon="2.266382">
        <ele>661.5</ele>
        <time>2011-09-03T09:50:58Z</time>
      </trkpt>
      <trkpt lat="41.830616" lon="2.266824">
        <ele>661.5</ele>
        <time>2011-09-03T09:51:04Z</time>
      </trkpt>
      <trkpt lat="41.830979" lon="2.267257">
        <ele>661.5</ele>
        <time>2011-09-03T09:51:10Z</time>
      </trkpt>
      <trkpt lat="41.831403" lon="2.268238">
        <ele>663.4</ele>
        <time>2011-09-03T09:51:20Z</time>
      </trkpt>
      <trkpt lat="41.831499" lon="2.268603">
        <ele>665.4</ele>
        <time>2011-09-03T09:51:27Z</time>
      </trkpt>
      <trkpt lat="41.831573" lon="2.268819">
        <ele>664.9</ele>
        <time>2011-09-03T09:51:32Z</time>
      </trkpt>
      <trkpt lat="41.831651" lon="2.268992">
        <ele>665.4</ele>
        <time>2011-09-03T09:51:35Z</time>
      </trkpt>
      <trkpt lat="41.831909" lon="2.269516">
        <ele>664.9</ele>
        <time>2011-09-03T09:51:41Z</time>
      </trkpt>
      <trkpt lat="41.832195" lon="2.269964">
        <ele>663.9</ele>
        <time>2011-09-03T09:51:47Z</time>
      </trkpt>
      <trkpt lat="41.832263" lon="2.270296">
        <ele>663.4</ele>
        <time>2011-09-03T09:51:56Z</time>
      </trkpt>
      <trkpt lat="41.832258" lon="2.270316">
        <ele>663.4</ele>
        <time>2011-09-03T09:52:10Z</time>
      </trkpt>
      <trkpt lat="41.832227" lon="2.270477">
        <ele>663.0</ele>
        <time>2011-09-03T09:52:19Z</time>
      </trkpt>
      <trkpt lat="41.832179" lon="2.270673">
        <ele>662.5</ele>
        <time>2011-09-03T09:52:22Z</time>
      </trkpt>
      <trkpt lat="41.832015" lon="2.270937">
        <ele>660.1</ele>
        <time>2011-09-03T09:52:28Z</time>
      </trkpt>
      <trkpt lat="41.831937" lon="2.271008">
        <ele>659.6</ele>
        <time>2011-09-03T09:52:30Z</time>
      </trkpt>
      <trkpt lat="41.832066" lon="2.271370">
        <ele>661.0</ele>
        <time>2011-09-03T09:52:38Z</time>
      </trkpt>
      <trkpt lat="41.832314" lon="2.271481">
        <ele>661.0</ele>
        <time>2011-09-03T09:52:43Z</time>
      </trkpt>
      <trkpt lat="41.832406" lon="2.271510">
        <ele>661.0</ele>
        <time>2011-09-03T09:52:45Z</time>
      </trkpt>
      <trkpt lat="41.832805" lon="2.271570">
        <ele>660.1</ele>
        <time>2011-09-03T09:52:51Z</time>
      </trkpt>
      <trkpt lat="41.832953" lon="2.271549">
        <ele>659.6</ele>
        <time>2011-09-03T09:52:53Z</time>
      </trkpt>
      <trkpt lat="41.833284" lon="2.271474">
        <ele>660.1</ele>
        <time>2011-09-03T09:52:57Z</time>
      </trkpt>
      <trkpt lat="41.833474" lon="2.271618">
        <ele>659.6</ele>
        <time>2011-09-03T09:53:01Z</time>
      </trkpt>
      <trkpt lat="41.833636" lon="2.271923">
        <ele>659.6</ele>
        <time>2011-09-03T09:53:09Z</time>
      </trkpt>
      <trkpt lat="41.833911" lon="2.272131">
        <ele>659.6</ele>
        <time>2011-09-03T09:53:14Z</time>
      </trkpt>
      <trkpt lat="41.834070" lon="2.272340">
        <ele>658.2</ele>
        <time>2011-09-03T09:53:17Z</time>
      </trkpt>
      <trkpt lat="41.834163" lon="2.272457">
        <ele>657.2</ele>
        <time>2011-09-03T09:53:19Z</time>
      </trkpt>
      <trkpt lat="41.834332" lon="2.272597">
        <ele>655.8</ele>
        <time>2011-09-03T09:53:27Z</time>
      </trkpt>
      <trkpt lat="41.834328" lon="2.272594">
        <ele>655.3</ele>
        <time>2011-09-03T09:53:46Z</time>
      </trkpt>
      <trkpt lat="41.834392" lon="2.272733">
        <ele>655.8</ele>
        <time>2011-09-03T09:53:49Z</time>
      </trkpt>
      <trkpt lat="41.834618" lon="2.273402">
        <ele>659.1</ele>
        <time>2011-09-03T09:53:54Z</time>
      </trkpt>
      <trkpt lat="41.835203" lon="2.274915">
        <ele>658.6</ele>
        <time>2011-09-03T09:54:04Z</time>
      </trkpt>
      <trkpt lat="41.835687" lon="2.276701">
        <ele>660.1</ele>
        <time>2011-09-03T09:54:14Z</time>
      </trkpt>
      <trkpt lat="41.836202" lon="2.278165">
        <ele>661.5</ele>
        <time>2011-09-03T09:54:23Z</time>
      </trkpt>
      <trkpt lat="41.837498" lon="2.281400">
        <ele>665.9</ele>
        <time>2011-09-03T12:12:09Z</time>
      </trkpt>
      <trkpt lat="41.837607" lon="2.281699">
        <ele>667.3</ele>
        <time>2011-09-03T12:12:12Z</time>
      </trkpt>
      <trkpt lat="41.837819" lon="2.282220">
        <ele>668.7</ele>
        <time>2011-09-03T12:12:16Z</time>
      </trkpt>
      <trkpt lat="41.838342" lon="2.283555">
        <ele>671.6</ele>
        <time>2011-09-03T12:12:26Z</time>
      </trkpt>
      <trkpt lat="41.838703" lon="2.284402">
        <ele>673.1</ele>
        <time>2011-09-03T12:12:34Z</time>
      </trkpt>
      <trkpt lat="41.838981" lon="2.284413">
        <ele>672.1</ele>
        <time>2011-09-03T12:12:39Z</time>
      </trkpt>
      <trkpt lat="41.839280" lon="2.284010">
        <ele>669.7</ele>
        <time>2011-09-03T12:12:45Z</time>
      </trkpt>
      <trkpt lat="41.839765" lon="2.283609">
        <ele>666.3</ele>
        <time>2011-09-03T12:12:55Z</time>
      </trkpt>
      <trkpt lat="41.839842" lon="2.283541">
        <ele>665.9</ele>
        <time>2011-09-03T12:12:57Z</time>
      </trkpt>
      <trkpt lat="41.840164" lon="2.283315">
        <ele>664.4</ele>
        <time>2011-09-03T12:13:03Z</time>
      </trkpt>
      <trkpt lat="41.840838" lon="2.283031">
        <ele>661.0</ele>
        <time>2011-09-03T12:13:11Z</time>
      </trkpt>
      <trkpt lat="41.841236" lon="2.282992">
        <ele>658.6</ele>
        <time>2011-09-03T12:13:16Z</time>
      </trkpt>
      <trkpt lat="41.841371" lon="2.283016">
        <ele>658.2</ele>
        <time>2011-09-03T12:13:18Z</time>
      </trkpt>
      <trkpt lat="41.841738" lon="2.283138">
        <ele>656.7</ele>
        <time>2011-09-03T12:13:22Z</time>
      </trkpt>
      <trkpt lat="41.841988" lon="2.283086">
        <ele>655.8</ele>
        <time>2011-09-03T12:13:25Z</time>
      </trkpt>
      <trkpt lat="41.842191" lon="2.283012">
        <ele>655.3</ele>
        <time>2011-09-03T12:13:27Z</time>
      </trkpt>
      <trkpt lat="41.842823" lon="2.282691">
        <ele>652.9</ele>
        <time>2011-09-03T12:13:33Z</time>
      </trkpt>
      <trkpt lat="41.843001" lon="2.282612">
        <ele>651.9</ele>
        <time>2011-09-03T12:13:35Z</time>
      </trkpt>
      <trkpt lat="41.843426" lon="2.282547">
        <ele>649.5</ele>
        <time>2011-09-03T12:13:40Z</time>
      </trkpt>
      <trkpt lat="41.843865" lon="2.282333">
        <ele>647.6</ele>
        <time>2011-09-03T12:13:46Z</time>
      </trkpt>
      <trkpt lat="41.843977" lon="2.282166">
        <ele>646.6</ele>
        <time>2011-09-03T12:13:48Z</time>
      </trkpt>
      <trkpt lat="41.844093" lon="2.282024">
        <ele>646.1</ele>
        <time>2011-09-03T12:13:50Z</time>
      </trkpt>
      <trkpt lat="41.844269" lon="2.281907">
        <ele>644.7</ele>
        <time>2011-09-03T12:13:53Z</time>
      </trkpt>
      <trkpt lat="41.844509" lon="2.281921">
        <ele>644.7</ele>
        <time>2011-09-03T12:13:56Z</time>
      </trkpt>
      <trkpt lat="41.845489" lon="2.282000">
        <ele>640.9</ele>
        <time>2011-09-03T12:14:04Z</time>
      </trkpt>
      <trkpt lat="41.846011" lon="2.281760">
        <ele>639.9</ele>
        <time>2011-09-03T12:14:09Z</time>
      </trkpt>
      <trkpt lat="41.846200" lon="2.281689">
        <ele>639.9</ele>
        <time>2011-09-03T12:14:11Z</time>
      </trkpt>
      <trkpt lat="41.846665" lon="2.281569">
        <ele>638.0</ele>
        <time>2011-09-03T12:14:15Z</time>
      </trkpt>
      <trkpt lat="41.847462" lon="2.280969">
        <ele>636.5</ele>
        <time>2011-09-03T12:14:23Z</time>
      </trkpt>
      <trkpt lat="41.847700" lon="2.280885">
        <ele>635.1</ele>
        <time>2011-09-03T12:14:27Z</time>
      </trkpt>
      <trkpt lat="41.847760" lon="2.280893">
        <ele>634.1</ele>
        <time>2011-09-03T12:14:28Z</time>
      </trkpt>
      <trkpt lat="41.848078" lon="2.281007">
        <ele>632.2</ele>
        <time>2011-09-03T12:14:32Z</time>
      </trkpt>
      <trkpt lat="41.848197" lon="2.281080">
        <ele>631.2</ele>
        <time>2011-09-03T12:14:34Z</time>
      </trkpt>
      <trkpt lat="41.848341" lon="2.281132">
        <ele>630.3</ele>
        <time>2011-09-03T12:14:41Z</time>
      </trkpt>
      <trkpt lat="41.848435" lon="2.281100">
        <ele>630.3</ele>
        <time>2011-09-03T12:14:45Z</time>
      </trkpt>
      <trkpt lat="41.848749" lon="2.280971">
        <ele>626.0</ele>
        <time>2011-09-03T12:14:52Z</time>
      </trkpt>
      <trkpt lat="41.848772" lon="2.280939">
        <ele>625.0</ele>
        <time>2011-09-03T12:14:53Z</time>
      </trkpt>
      <trkpt lat="41.848868" lon="2.280625">
        <ele>621.1</ele>
        <time>2011-09-03T12:14:58Z</time>
      </trkpt>
      <trkpt lat="41.848942" lon="2.280391">
        <ele>619.7</ele>
        <time>2011-09-03T12:15:01Z</time>
      </trkpt>
      <trkpt lat="41.848993" lon="2.280208">
        <ele>618.3</ele>
        <time>2011-09-03T12:15:03Z</time>
      </trkpt>
      <trkpt lat="41.849075" lon="2.280035">
        <ele>617.8</ele>
        <time>2011-09-03T12:15:05Z</time>
      </trkpt>
      <trkpt lat="41.849275" lon="2.279776">
        <ele>614.9</ele>
        <time>2011-09-03T12:15:10Z</time>
      </trkpt>
      <trkpt lat="41.849311" lon="2.279619">
        <ele>612.5</ele>
        <time>2011-09-03T12:15:13Z</time>
      </trkpt>
      <trkpt lat="41.849327" lon="2.279515">
        <ele>610.6</ele>
        <time>2011-09-03T12:15:15Z</time>
      </trkpt>
      <trkpt lat="41.849343" lon="2.279321">
        <ele>608.7</ele>
        <time>2011-09-03T12:15:18Z</time>
      </trkpt>
      <trkpt lat="41.849363" lon="2.279127">
        <ele>606.7</ele>
        <time>2011-09-03T12:15:21Z</time>
      </trkpt>
      <trkpt lat="41.849402" lon="2.278888">
        <ele>604.8</ele>
        <time>2011-09-03T12:15:24Z</time>
      </trkpt>
      <trkpt lat="41.849536" lon="2.278524">
        <ele>601.4</ele>
        <time>2011-09-03T12:15:28Z</time>
      </trkpt>
      <trkpt lat="41.849594" lon="2.278356">
        <ele>600.5</ele>
        <time>2011-09-03T12:15:30Z</time>
      </trkpt>
      <trkpt lat="41.849766" lon="2.277994">
        <ele>597.1</ele>
        <time>2011-09-03T12:15:34Z</time>
      </trkpt>
      <trkpt lat="41.849923" lon="2.277610">
        <ele>594.2</ele>
        <time>2011-09-03T12:15:39Z</time>
      </trkpt>
      <trkpt lat="41.850023" lon="2.277273">
        <ele>592.3</ele>
        <time>2011-09-03T12:15:43Z</time>
      </trkpt>
      <trkpt lat="41.850249" lon="2.276980">
        <ele>590.4</ele>
        <time>2011-09-03T12:15:48Z</time>
      </trkpt>
      <trkpt lat="41.850309" lon="2.276956">
        <ele>588.5</ele>
        <time>2011-09-03T12:15:54Z</time>
      </trkpt>
      <trkpt lat="41.850321" lon="2.276990">
        <ele>588.5</ele>
        <time>2011-09-03T12:15:56Z</time>
      </trkpt>
      <trkpt lat="41.850374" lon="2.277053">
        <ele>587.0</ele>
        <time>2011-09-03T12:16:01Z</time>
      </trkpt>
      <trkpt lat="41.850410" lon="2.277085">
        <ele>586.5</ele>
        <time>2011-09-03T12:16:03Z</time>
      </trkpt>
      <trkpt lat="41.850513" lon="2.277203">
        <ele>585.1</ele>
        <time>2011-09-03T12:16:06Z</time>
      </trkpt>
      <trkpt lat="41.850663" lon="2.277374">
        <ele>584.1</ele>
        <time>2011-09-03T12:16:09Z</time>
      </trkpt>
      <trkpt lat="41.850780" lon="2.277907">
        <ele>581.7</ele>
        <time>2011-09-03T12:16:19Z</time>
      </trkpt>
      <trkpt lat="41.850775" lon="2.278079">
        <ele>581.3</ele>
        <time>2011-09-03T12:16:22Z</time>
      </trkpt>
      <trkpt lat="41.850774" lon="2.278653">
        <ele>579.3</ele>
        <time>2011-09-03T12:16:32Z</time>
      </trkpt>
      <trkpt lat="41.850673" lon="2.279040">
        <ele>582.2</ele>
        <time>2011-09-03T12:16:42Z</time>
      </trkpt>
      <trkpt lat="41.850603" lon="2.279407">
        <ele>584.6</ele>
        <time>2011-09-03T12:16:52Z</time>
      </trkpt>
      <trkpt lat="41.850598" lon="2.279434">
        <ele>585.6</ele>
        <time>2011-09-03T12:16:54Z</time>
      </trkpt>
      <trkpt lat="41.850457" lon="2.279672">
        <ele>588.5</ele>
        <time>2011-09-03T12:17:05Z</time>
      </trkpt>
      <trkpt lat="41.850378" lon="2.279898">
        <ele>591.3</ele>
        <time>2011-09-03T12:17:12Z</time>
      </trkpt>
      <trkpt lat="41.850360" lon="2.280101">
        <ele>593.3</ele>
        <time>2011-09-03T12:17:17Z</time>
      </trkpt>
      <trkpt lat="41.850404" lon="2.280228">
        <ele>594.7</ele>
        <time>2011-09-03T12:17:23Z</time>
      </trkpt>
      <trkpt lat="41.850606" lon="2.280468">
        <ele>597.1</ele>
        <time>2011-09-03T12:17:34Z</time>
      </trkpt>
      <trkpt lat="41.850678" lon="2.280572">
        <ele>598.1</ele>
        <time>2011-09-03T12:17:37Z</time>
      </trkpt>
      <trkpt lat="41.850782" lon="2.280662">
        <ele>599.5</ele>
        <time>2011-09-03T12:17:40Z</time>
      </trkpt>
      <trkpt lat="41.850844" lon="2.280624">
        <ele>599.5</ele>
        <time>2011-09-03T12:17:48Z</time>
      </trkpt>
      <trkpt lat="41.850836" lon="2.280619">
        <ele>599.5</ele>
        <time>2011-09-03T12:17:49Z</time>
      </trkpt>
      <trkpt lat="41.850722" lon="2.280632">
        <ele>598.1</ele>
        <time>2011-09-03T12:17:54Z</time>
      </trkpt>
      <trkpt lat="41.850629" lon="2.280654">
        <ele>596.6</ele>
        <time>2011-09-03T12:17:57Z</time>
      </trkpt>
      <trkpt lat="41.850533" lon="2.280685">
        <ele>597.1</ele>
        <time>2011-09-03T12:17:59Z</time>
      </trkpt>
      <trkpt lat="41.850336" lon="2.280687">
        <ele>598.1</ele>
        <time>2011-09-03T12:18:03Z</time>
      </trkpt>
      <trkpt lat="41.850130" lon="2.280697">
        <ele>599.5</ele>
        <time>2011-09-03T12:18:07Z</time>
      </trkpt>
      <trkpt lat="41.850019" lon="2.280719">
        <ele>600.5</ele>
        <time>2011-09-03T12:18:09Z</time>
      </trkpt>
      <trkpt lat="41.849975" lon="2.280729">
        <ele>601.0</ele>
        <time>2011-09-03T12:18:10Z</time>
      </trkpt>
      <trkpt lat="41.849827" lon="2.280988">
        <ele>604.8</ele>
        <time>2011-09-03T12:18:16Z</time>
      </trkpt>
      <trkpt lat="41.849800" lon="2.281126">
        <ele>606.7</ele>
        <time>2011-09-03T12:18:18Z</time>
      </trkpt>
      <trkpt lat="41.849764" lon="2.281248">
        <ele>608.2</ele>
        <time>2011-09-03T12:18:20Z</time>
      </trkpt>
      <trkpt lat="41.849724" lon="2.281402">
        <ele>610.1</ele>
        <time>2011-09-03T12:18:23Z</time>
      </trkpt>
      <trkpt lat="41.849592" lon="2.281736">
        <ele>613.9</ele>
        <time>2011-09-03T12:18:29Z</time>
      </trkpt>
      <trkpt lat="41.849510" lon="2.281934">
        <ele>617.3</ele>
        <time>2011-09-03T12:18:32Z</time>
      </trkpt>
      <trkpt lat="41.849482" lon="2.281977">
        <ele>618.3</ele>
        <time>2011-09-03T12:18:33Z</time>
      </trkpt>
      <trkpt lat="41.849406" lon="2.282171">
        <ele>620.2</ele>
        <time>2011-09-03T12:18:36Z</time>
      </trkpt>
      <trkpt lat="41.849382" lon="2.282401">
        <ele>622.1</ele>
        <time>2011-09-03T12:18:40Z</time>
      </trkpt>
      <trkpt lat="41.849411" lon="2.282748">
        <ele>626.0</ele>
        <time>2011-09-03T12:18:48Z</time>
      </trkpt>
      <trkpt lat="41.849430" lon="2.282820">
        <ele>626.9</ele>
        <time>2011-09-03T12:18:50Z</time>
      </trkpt>
      <trkpt lat="41.849382" lon="2.283067">
        <ele>628.8</ele>
        <time>2011-09-03T12:18:59Z</time>
      </trkpt>
      <trkpt lat="41.849451" lon="2.283292">
        <ele>632.2</ele>
        <time>2011-09-03T12:19:04Z</time>
      </trkpt>
      <trkpt lat="41.849519" lon="2.283419">
        <ele>634.1</ele>
        <time>2011-09-03T12:19:07Z</time>
      </trkpt>
      <trkpt lat="41.849507" lon="2.283527">
        <ele>634.6</ele>
        <time>2011-09-03T12:19:15Z</time>
      </trkpt>
      <trkpt lat="41.849524" lon="2.283508">
        <ele>634.6</ele>
        <time>2011-09-03T12:20:27Z</time>
      </trkpt>
      <trkpt lat="41.849357" lon="2.283725">
        <ele>635.6</ele>
        <time>2011-09-03T12:20:32Z</time>
      </trkpt>
      <trkpt lat="41.849253" lon="2.283790">
        <ele>635.6</ele>
        <time>2011-09-03T12:20:34Z</time>
      </trkpt>
      <trkpt lat="41.849022" lon="2.284105">
        <ele>636.5</ele>
        <time>2011-09-03T12:20:40Z</time>
      </trkpt>
      <trkpt lat="41.848919" lon="2.284288">
        <ele>636.5</ele>
        <time>2011-09-03T12:20:43Z</time>
      </trkpt>
      <trkpt lat="41.848744" lon="2.284901">
        <ele>636.5</ele>
        <time>2011-09-03T12:20:51Z</time>
      </trkpt>
      <trkpt lat="41.848568" lon="2.285219">
        <ele>637.0</ele>
        <time>2011-09-03T12:20:59Z</time>
      </trkpt>
      <trkpt lat="41.848506" lon="2.285317">
        <ele>637.0</ele>
        <time>2011-09-03T12:21:03Z</time>
      </trkpt>
      <trkpt lat="41.848436" lon="2.285515">
        <ele>637.5</ele>
        <time>2011-09-03T12:21:10Z</time>
      </trkpt>
      <trkpt lat="41.848411" lon="2.285583">
        <ele>637.5</ele>
        <time>2011-09-03T12:21:20Z</time>
      </trkpt>
      <trkpt lat="41.848399" lon="2.285701">
        <ele>637.5</ele>
        <time>2011-09-03T12:21:24Z</time>
      </trkpt>
      <trkpt lat="41.848375" lon="2.285994">
        <ele>637.0</ele>
        <time>2011-09-03T12:21:27Z</time>
      </trkpt>
      <trkpt lat="41.848291" lon="2.286317">
        <ele>636.0</ele>
        <time>2011-09-03T12:21:31Z</time>
      </trkpt>
      <trkpt lat="41.847960" lon="2.286552">
        <ele>636.0</ele>
        <time>2011-09-03T12:21:37Z</time>
      </trkpt>
      <trkpt lat="41.847872" lon="2.286742">
        <ele>636.0</ele>
        <time>2011-09-03T12:21:39Z</time>
      </trkpt>
      <trkpt lat="41.847747" lon="2.286996">
        <ele>635.1</ele>
        <time>2011-09-03T12:21:42Z</time>
      </trkpt>
      <trkpt lat="41.847710" lon="2.287320">
        <ele>634.6</ele>
        <time>2011-09-03T12:21:46Z</time>
      </trkpt>
      <trkpt lat="41.847595" lon="2.287568">
        <ele>634.6</ele>
        <time>2011-09-03T12:21:50Z</time>
      </trkpt>
      <trkpt lat="41.847721" lon="2.287714">
        <ele>636.0</ele>
        <time>2011-09-03T12:21:56Z</time>
      </trkpt>
      <trkpt lat="41.847841" lon="2.287728">
        <ele>637.5</ele>
        <time>2011-09-03T12:21:58Z</time>
      </trkpt>
      <trkpt lat="41.847987" lon="2.287771">
        <ele>639.9</ele>
        <time>2011-09-03T12:22:00Z</time>
      </trkpt>
      <trkpt lat="41.848258" lon="2.287796">
        <ele>642.8</ele>
        <time>2011-09-03T12:22:03Z</time>
      </trkpt>
      <trkpt lat="41.848387" lon="2.287761">
        <ele>644.7</ele>
        <time>2011-09-03T12:22:05Z</time>
      </trkpt>
      <trkpt lat="41.848607" lon="2.287730">
        <ele>649.0</ele>
        <time>2011-09-03T12:22:08Z</time>
      </trkpt>
      <trkpt lat="41.848787" lon="2.287734">
        <ele>652.4</ele>
        <time>2011-09-03T12:22:10Z</time>
      </trkpt>
      <trkpt lat="41.849060" lon="2.287851">
        <ele>657.2</ele>
        <time>2011-09-03T12:22:13Z</time>
      </trkpt>
      <trkpt lat="41.849421" lon="2.288032">
        <ele>661.0</ele>
        <time>2011-09-03T12:22:16Z</time>
      </trkpt>
      <trkpt lat="41.849525" lon="2.288245">
        <ele>662.5</ele>
        <time>2011-09-03T12:22:18Z</time>
      </trkpt>
      <trkpt lat="41.849592" lon="2.288574">
        <ele>663.0</ele>
        <time>2011-09-03T12:22:21Z</time>
      </trkpt>
      <trkpt lat="41.849457" lon="2.289065">
        <ele>662.5</ele>
        <time>2011-09-03T12:22:27Z</time>
      </trkpt>
      <trkpt lat="41.849261" lon="2.289246">
        <ele>663.0</ele>
        <time>2011-09-03T12:22:33Z</time>
      </trkpt>
      <trkpt lat="41.849421" lon="2.289278">
        <ele>666.8</ele>
        <time>2011-09-03T12:22:36Z</time>
      </trkpt>
      <trkpt lat="41.849567" lon="2.289443">
        <ele>670.7</ele>
        <time>2011-09-03T12:22:39Z</time>
      </trkpt>
      <trkpt lat="41.849657" lon="2.289796">
        <ele>674.5</ele>
        <time>2011-09-03T12:22:42Z</time>
      </trkpt>
      <trkpt lat="41.849710" lon="2.289909">
        <ele>675.9</ele>
        <time>2011-09-03T12:22:43Z</time>
      </trkpt>
      <trkpt lat="41.850076" lon="2.290317">
        <ele>681.2</ele>
        <time>2011-09-03T12:22:49Z</time>
      </trkpt>
      <trkpt lat="41.850167" lon="2.290515">
        <ele>682.2</ele>
        <time>2011-09-03T12:22:51Z</time>
      </trkpt>
      <trkpt lat="41.850155" lon="2.291058">
        <ele>685.1</ele>
        <time>2011-09-03T12:22:55Z</time>
      </trkpt>
      <trkpt lat="41.850107" lon="2.291307">
        <ele>686.5</ele>
        <time>2011-09-03T12:22:58Z</time>
      </trkpt>
      <trkpt lat="41.850104" lon="2.291502">
        <ele>687.5</ele>
        <time>2011-09-03T12:23:02Z</time>
      </trkpt>
      <trkpt lat="41.850093" lon="2.291596">
        <ele>688.0</ele>
        <time>2011-09-03T12:23:14Z</time>
      </trkpt>
      <trkpt lat="41.850069" lon="2.292428">
        <ele>688.9</ele>
        <time>2011-09-03T12:23:20Z</time>
      </trkpt>
      <trkpt lat="41.850073" lon="2.292610">
        <ele>689.4</ele>
        <time>2011-09-03T12:23:21Z</time>
      </trkpt>
      <trkpt lat="41.850117" lon="2.293784">
        <ele>692.8</ele>
        <time>2011-09-03T12:23:27Z</time>
      </trkpt>
      <trkpt lat="41.850147" lon="2.294145">
        <ele>693.7</ele>
        <time>2011-09-03T12:23:29Z</time>
      </trkpt>
      <trkpt lat="41.850128" lon="2.294636">
        <ele>698.5</ele>
        <time>2011-09-03T12:23:32Z</time>
      </trkpt>
      <trkpt lat="41.850107" lon="2.295102">
        <ele>703.3</ele>
        <time>2011-09-03T12:23:36Z</time>
      </trkpt>
      <trkpt lat="41.850099" lon="2.295691">
        <ele>707.7</ele>
        <time>2011-09-03T12:23:40Z</time>
      </trkpt>
      <trkpt lat="41.850110" lon="2.296361">
        <ele>712.0</ele>
        <time>2011-09-03T12:23:44Z</time>
      </trkpt>
      <trkpt lat="41.850103" lon="2.296521">
        <ele>712.0</ele>
        <time>2011-09-03T12:23:45Z</time>
      </trkpt>
      <trkpt lat="41.850405" lon="2.297430">
        <ele>715.8</ele>
        <time>2011-09-03T12:23:52Z</time>
      </trkpt>
      <trkpt lat="41.850466" lon="2.297532">
        <ele>716.8</ele>
        <time>2011-09-03T12:23:53Z</time>
      </trkpt>
      <trkpt lat="41.850538" lon="2.298021">
        <ele>718.7</ele>
        <time>2011-09-03T12:23:57Z</time>
      </trkpt>
      <trkpt lat="41.850476" lon="2.298310">
        <ele>721.1</ele>
        <time>2011-09-03T12:23:59Z</time>
      </trkpt>
      <trkpt lat="41.850403" lon="2.298590">
        <ele>724.0</ele>
        <time>2011-09-03T12:24:01Z</time>
      </trkpt>
      <trkpt lat="41.850315" lon="2.298836">
        <ele>726.4</ele>
        <time>2011-09-03T12:24:03Z</time>
      </trkpt>
      <trkpt lat="41.850167" lon="2.299066">
        <ele>731.7</ele>
        <time>2011-09-03T12:24:06Z</time>
      </trkpt>
      <trkpt lat="41.850115" lon="2.299133">
        <ele>733.1</ele>
        <time>2011-09-03T12:24:07Z</time>
      </trkpt>
      <trkpt lat="41.850043" lon="2.299422">
        <ele>734.1</ele>
        <time>2011-09-03T12:24:10Z</time>
      </trkpt>
      <trkpt lat="41.850066" lon="2.299963">
        <ele>735.1</ele>
        <time>2011-09-03T12:24:14Z</time>
      </trkpt>
      <trkpt lat="41.850017" lon="2.300165">
        <ele>737.0</ele>
        <time>2011-09-03T12:24:16Z</time>
      </trkpt>
      <trkpt lat="41.849985" lon="2.300406">
        <ele>739.4</ele>
        <time>2011-09-03T12:24:19Z</time>
      </trkpt>
      <trkpt lat="41.850336" lon="2.300851">
        <ele>741.3</ele>
        <time>2011-09-03T12:24:25Z</time>
      </trkpt>
      <trkpt lat="41.851031" lon="2.301473">
        <ele>744.7</ele>
        <time>2011-09-03T12:24:31Z</time>
      </trkpt>
      <trkpt lat="41.851336" lon="2.301744">
        <ele>746.6</ele>
        <time>2011-09-03T12:24:34Z</time>
      </trkpt>
      <trkpt lat="41.851935" lon="2.302121">
        <ele>748.0</ele>
        <time>2011-09-03T12:24:39Z</time>
      </trkpt>
      <trkpt lat="41.852169" lon="2.302413">
        <ele>750.4</ele>
        <time>2011-09-03T12:24:42Z</time>
      </trkpt>
      <trkpt lat="41.852334" lon="2.302652">
        <ele>753.3</ele>
        <time>2011-09-03T12:24:44Z</time>
      </trkpt>
      <trkpt lat="41.852618" lon="2.303082">
        <ele>756.7</ele>
        <time>2011-09-03T12:24:48Z</time>
      </trkpt>
      <trkpt lat="41.852822" lon="2.303526">
        <ele>759.6</ele>
        <time>2011-09-03T12:24:52Z</time>
      </trkpt>
      <trkpt lat="41.852896" lon="2.303863">
        <ele>763.9</ele>
        <time>2011-09-03T12:24:55Z</time>
      </trkpt>
      <trkpt lat="41.852891" lon="2.303987">
        <ele>764.4</ele>
        <time>2011-09-03T12:24:56Z</time>
      </trkpt>
      <trkpt lat="41.852906" lon="2.304296">
        <ele>765.8</ele>
        <time>2011-09-03T12:24:58Z</time>
      </trkpt>
      <trkpt lat="41.852823" lon="2.304866">
        <ele>770.2</ele>
        <time>2011-09-03T12:25:04Z</time>
      </trkpt>
      <trkpt lat="41.853199" lon="2.304996">
        <ele>772.6</ele>
        <time>2011-09-03T12:25:09Z</time>
      </trkpt>
      <trkpt lat="41.853656" lon="2.305089">
        <ele>774.0</ele>
        <time>2011-09-03T12:25:14Z</time>
      </trkpt>
      <trkpt lat="41.853949" lon="2.305422">
        <ele>774.0</ele>
        <time>2011-09-03T12:25:19Z</time>
      </trkpt>
      <trkpt lat="41.854111" lon="2.305560">
        <ele>774.5</ele>
        <time>2011-09-03T12:25:26Z</time>
      </trkpt>
      <trkpt lat="41.854142" lon="2.305592">
        <ele>775.0</ele>
        <time>2011-09-03T12:25:36Z</time>
      </trkpt>
      <trkpt lat="41.854130" lon="2.305586">
        <ele>774.5</ele>
        <time>2011-09-03T12:29:10Z</time>
      </trkpt>
      <trkpt lat="41.854274" lon="2.305553">
        <ele>777.4</ele>
        <time>2011-09-03T12:29:16Z</time>
      </trkpt>
      <trkpt lat="41.854311" lon="2.305556">
        <ele>778.3</ele>
        <time>2011-09-03T12:29:17Z</time>
      </trkpt>
      <trkpt lat="41.854497" lon="2.305644">
        <ele>780.7</ele>
        <time>2011-09-03T12:29:21Z</time>
      </trkpt>
      <trkpt lat="41.854759" lon="2.305640">
        <ele>780.7</ele>
        <time>2011-09-03T12:29:24Z</time>
      </trkpt>
      <trkpt lat="41.855152" lon="2.305571">
        <ele>780.7</ele>
        <time>2011-09-03T12:29:28Z</time>
      </trkpt>
      <trkpt lat="41.855295" lon="2.305762">
        <ele>782.7</ele>
        <time>2011-09-03T12:29:34Z</time>
      </trkpt>
      <trkpt lat="41.855177" lon="2.306626">
        <ele>782.2</ele>
        <time>2011-09-03T12:29:41Z</time>
      </trkpt>
      <trkpt lat="41.855065" lon="2.308106">
        <ele>781.2</ele>
        <time>2011-09-03T12:29:50Z</time>
      </trkpt>
      <trkpt lat="41.855204" lon="2.308552">
        <ele>781.2</ele>
        <time>2011-09-03T12:29:54Z</time>
      </trkpt>
      <trkpt lat="41.855506" lon="2.309031">
        <ele>784.6</ele>
        <time>2011-09-03T12:29:58Z</time>
      </trkpt>
      <trkpt lat="41.855793" lon="2.309449">
        <ele>787.5</ele>
        <time>2011-09-03T12:30:01Z</time>
      </trkpt>
      <trkpt lat="41.856714" lon="2.310410">
        <ele>791.3</ele>
        <time>2011-09-03T12:30:09Z</time>
      </trkpt>
      <trkpt lat="41.857392" lon="2.311327">
        <ele>795.1</ele>
        <time>2011-09-03T12:30:16Z</time>
      </trkpt>
      <trkpt lat="41.857684" lon="2.311813">
        <ele>797.6</ele>
        <time>2011-09-03T12:30:19Z</time>
      </trkpt>
      <trkpt lat="41.857853" lon="2.312132">
        <ele>799.5</ele>
        <time>2011-09-03T12:30:21Z</time>
      </trkpt>
      <trkpt lat="41.858186" lon="2.312648">
        <ele>801.4</ele>
        <time>2011-09-03T12:30:25Z</time>
      </trkpt>
      <trkpt lat="41.858335" lon="2.312879">
        <ele>801.9</ele>
        <time>2011-09-03T12:30:27Z</time>
      </trkpt>
      <trkpt lat="41.858470" lon="2.313351">
        <ele>801.4</ele>
        <time>2011-09-03T12:30:31Z</time>
      </trkpt>
      <trkpt lat="41.858681" lon="2.313855">
        <ele>801.9</ele>
        <time>2011-09-03T12:30:35Z</time>
      </trkpt>
      <trkpt lat="41.858813" lon="2.314582">
        <ele>803.8</ele>
        <time>2011-09-03T12:30:40Z</time>
      </trkpt>
      <trkpt lat="41.858797" lon="2.314697">
        <ele>804.3</ele>
        <time>2011-09-03T12:30:41Z</time>
      </trkpt>
      <trkpt lat="41.858743" lon="2.315055">
        <ele>805.2</ele>
        <time>2011-09-03T12:30:50Z</time>
      </trkpt>
      <trkpt lat="41.858745" lon="2.315126">
        <ele>805.2</ele>
        <time>2011-09-03T12:30:52Z</time>
      </trkpt>
      <trkpt lat="41.858696" lon="2.315665">
        <ele>800.9</ele>
        <time>2011-09-03T12:30:56Z</time>
      </trkpt>
      <trkpt lat="41.858615" lon="2.316013">
        <ele>800.0</ele>
        <time>2011-09-03T12:30:58Z</time>
      </trkpt>
      <trkpt lat="41.858406" lon="2.316469">
        <ele>799.5</ele>
        <time>2011-09-03T12:31:01Z</time>
      </trkpt>
      <trkpt lat="41.858204" lon="2.316774">
        <ele>798.0</ele>
        <time>2011-09-03T12:31:04Z</time>
      </trkpt>
      <trkpt lat="41.858100" lon="2.317425">
        <ele>794.7</ele>
        <time>2011-09-03T12:31:10Z</time>
      </trkpt>
      <trkpt lat="41.858091" lon="2.317554">
        <ele>794.7</ele>
        <time>2011-09-03T12:31:11Z</time>
      </trkpt>
      <trkpt lat="41.858056" lon="2.318208">
        <ele>795.1</ele>
        <time>2011-09-03T12:31:16Z</time>
      </trkpt>
      <trkpt lat="41.858040" lon="2.318683">
        <ele>794.7</ele>
        <time>2011-09-03T12:31:19Z</time>
      </trkpt>
      <trkpt lat="41.858118" lon="2.319195">
        <ele>796.6</ele>
        <time>2011-09-03T12:31:25Z</time>
      </trkpt>
      <trkpt lat="41.858177" lon="2.319195">
        <ele>797.1</ele>
        <time>2011-09-03T12:31:26Z</time>
      </trkpt>
      <trkpt lat="41.858397" lon="2.319211">
        <ele>796.1</ele>
        <time>2011-09-03T12:31:35Z</time>
      </trkpt>
      <trkpt lat="41.858396" lon="2.319211">
        <ele>796.1</ele>
        <time>2011-09-03T12:31:44Z</time>
      </trkpt>
      <trkpt lat="41.858438" lon="2.319244">
        <ele>795.1</ele>
        <time>2011-09-03T12:31:49Z</time>
      </trkpt>
      <trkpt lat="41.858330" lon="2.319164">
        <ele>797.1</ele>
        <time>2011-09-03T12:31:55Z</time>
      </trkpt>
      <trkpt lat="41.858495" lon="2.318947">
        <ele>800.9</ele>
        <time>2011-09-03T12:32:01Z</time>
      </trkpt>
      <trkpt lat="41.858741" lon="2.318856">
        <ele>803.8</ele>
        <time>2011-09-03T12:32:05Z</time>
      </trkpt>
      <trkpt lat="41.859109" lon="2.319063">
        <ele>807.2</ele>
        <time>2011-09-03T12:32:11Z</time>
      </trkpt>
      <trkpt lat="41.859263" lon="2.319234">
        <ele>809.6</ele>
        <time>2011-09-03T12:32:14Z</time>
      </trkpt>
      <trkpt lat="41.859480" lon="2.319354">
        <ele>812.5</ele>
        <time>2011-09-03T12:32:18Z</time>
      </trkpt>
      <trkpt lat="41.859776" lon="2.319172">
        <ele>810.5</ele>
        <time>2011-09-03T12:32:24Z</time>
      </trkpt>
      <trkpt lat="41.859924" lon="2.319148">
        <ele>810.0</ele>
        <time>2011-09-03T12:32:26Z</time>
      </trkpt>
      <trkpt lat="41.860202" lon="2.319232">
        <ele>806.7</ele>
        <time>2011-09-03T12:32:31Z</time>
      </trkpt>
      <trkpt lat="41.860776" lon="2.319523">
        <ele>803.3</ele>
        <time>2011-09-03T12:32:39Z</time>
      </trkpt>
      <trkpt lat="41.861549" lon="2.319729">
        <ele>800.9</ele>
        <time>2011-09-03T12:32:47Z</time>
      </trkpt>
      <trkpt lat="41.861767" lon="2.319774">
        <ele>799.5</ele>
        <time>2011-09-03T12:32:50Z</time>
      </trkpt>
      <trkpt lat="41.861896" lon="2.319841">
        <ele>799.5</ele>
        <time>2011-09-03T12:32:56Z</time>
      </trkpt>
      <trkpt lat="41.861926" lon="2.319861">
        <ele>799.5</ele>
        <time>2011-09-03T12:33:10Z</time>
      </trkpt>
      <trkpt lat="41.862294" lon="2.319948">
        <ele>802.4</ele>
        <time>2011-09-03T12:33:16Z</time>
      </trkpt>
      <trkpt lat="41.862455" lon="2.319936">
        <ele>806.2</ele>
        <time>2011-09-03T12:33:19Z</time>
      </trkpt>
      <trkpt lat="41.862553" lon="2.319920">
        <ele>808.6</ele>
        <time>2011-09-03T12:33:21Z</time>
      </trkpt>
      <trkpt lat="41.862714" lon="2.319959">
        <ele>812.9</ele>
        <time>2011-09-03T12:33:24Z</time>
      </trkpt>
      <trkpt lat="41.862845" lon="2.320024">
        <ele>816.8</ele>
        <time>2011-09-03T12:33:27Z</time>
      </trkpt>
      <trkpt lat="41.862985" lon="2.320036">
        <ele>821.1</ele>
        <time>2011-09-03T12:33:30Z</time>
      </trkpt>
      <trkpt lat="41.863118" lon="2.319999">
        <ele>824.0</ele>
        <time>2011-09-03T12:33:33Z</time>
      </trkpt>
      <trkpt lat="41.863250" lon="2.320003">
        <ele>825.9</ele>
        <time>2011-09-03T12:33:36Z</time>
      </trkpt>
      <trkpt lat="41.863379" lon="2.320060">
        <ele>824.5</ele>
        <time>2011-09-03T12:33:43Z</time>
      </trkpt>
      <trkpt lat="41.863530" lon="2.320167">
        <ele>821.1</ele>
        <time>2011-09-03T12:33:49Z</time>
      </trkpt>
      <trkpt lat="41.863547" lon="2.320187">
        <ele>820.6</ele>
        <time>2011-09-03T12:33:50Z</time>
      </trkpt>
      <trkpt lat="41.863635" lon="2.320283">
        <ele>817.7</ele>
        <time>2011-09-03T12:33:54Z</time>
      </trkpt>
      <trkpt lat="41.863744" lon="2.320428">
        <ele>813.9</ele>
        <time>2011-09-03T12:33:59Z</time>
      </trkpt>
      <trkpt lat="41.863897" lon="2.320538">
        <ele>810.5</ele>
        <time>2011-09-03T12:34:04Z</time>
      </trkpt>
      <trkpt lat="41.864065" lon="2.320627">
        <ele>807.2</ele>
        <time>2011-09-03T12:34:10Z</time>
      </trkpt>
      <trkpt lat="41.864194" lon="2.320734">
        <ele>803.8</ele>
        <time>2011-09-03T12:34:14Z</time>
      </trkpt>
      <trkpt lat="41.864315" lon="2.320862">
        <ele>800.4</ele>
        <time>2011-09-03T12:34:17Z</time>
      </trkpt>
      <trkpt lat="41.864432" lon="2.321017">
        <ele>798.5</ele>
        <time>2011-09-03T12:34:20Z</time>
      </trkpt>
      <trkpt lat="41.864565" lon="2.321138">
        <ele>796.6</ele>
        <time>2011-09-03T12:34:23Z</time>
      </trkpt>
      <trkpt lat="41.864601" lon="2.321163">
        <ele>795.6</ele>
        <time>2011-09-03T12:34:24Z</time>
      </trkpt>
      <trkpt lat="41.864834" lon="2.321207">
        <ele>790.8</ele>
        <time>2011-09-03T12:34:29Z</time>
      </trkpt>
      <trkpt lat="41.864900" lon="2.321206">
        <ele>789.4</ele>
        <time>2011-09-03T12:34:30Z</time>
      </trkpt>
      <trkpt lat="41.865246" lon="2.321276">
        <ele>784.1</ele>
        <time>2011-09-03T12:34:37Z</time>
      </trkpt>
      <trkpt lat="41.865462" lon="2.321396">
        <ele>780.2</ele>
        <time>2011-09-03T12:34:41Z</time>
      </trkpt>
      <trkpt lat="41.865587" lon="2.321478">
        <ele>778.3</ele>
        <time>2011-09-03T12:34:44Z</time>
      </trkpt>
      <trkpt lat="41.865677" lon="2.321488">
        <ele>777.4</ele>
        <time>2011-09-03T12:34:46Z</time>
      </trkpt>
      <trkpt lat="41.865802" lon="2.321490">
        <ele>774.0</ele>
        <time>2011-09-03T12:34:49Z</time>
      </trkpt>
      <trkpt lat="41.865845" lon="2.321502">
        <ele>773.5</ele>
        <time>2011-09-03T12:34:50Z</time>
      </trkpt>
      <trkpt lat="41.865889" lon="2.321507">
        <ele>773.0</ele>
        <time>2011-09-03T12:34:51Z</time>
      </trkpt>
      <trkpt lat="41.866084" lon="2.321523">
        <ele>769.7</ele>
        <time>2011-09-03T12:34:56Z</time>
      </trkpt>
      <trkpt lat="41.866116" lon="2.321548">
        <ele>769.7</ele>
        <time>2011-09-03T12:35:05Z</time>
      </trkpt>
      <trkpt lat="41.866216" lon="2.321686">
        <ele>768.7</ele>
        <time>2011-09-03T12:35:26Z</time>
      </trkpt>
      <trkpt lat="41.866388" lon="2.322020">
        <ele>765.8</ele>
        <time>2011-09-03T12:35:34Z</time>
      </trkpt>
      <trkpt lat="41.866576" lon="2.322439">
        <ele>762.9</ele>
        <time>2011-09-03T12:35:38Z</time>
      </trkpt>
      <trkpt lat="41.866734" lon="2.322757">
        <ele>759.6</ele>
        <time>2011-09-03T12:35:41Z</time>
      </trkpt>
      <trkpt lat="41.866839" lon="2.322916">
        <ele>758.6</ele>
        <time>2011-09-03T12:35:43Z</time>
      </trkpt>
      <trkpt lat="41.866968" lon="2.323547">
        <ele>756.2</ele>
        <time>2011-09-03T12:35:49Z</time>
      </trkpt>
      <trkpt lat="41.867034" lon="2.323834">
        <ele>753.8</ele>
        <time>2011-09-03T12:35:52Z</time>
      </trkpt>
      <trkpt lat="41.867230" lon="2.323996">
        <ele>752.8</ele>
        <time>2011-09-03T12:35:55Z</time>
      </trkpt>
      <trkpt lat="41.867290" lon="2.324242">
        <ele>749.0</ele>
        <time>2011-09-03T12:36:00Z</time>
      </trkpt>
      <trkpt lat="41.867126" lon="2.324659">
        <ele>745.2</ele>
        <time>2011-09-03T12:36:11Z</time>
      </trkpt>
      <trkpt lat="41.866962" lon="2.325019">
        <ele>742.8</ele>
        <time>2011-09-03T12:36:16Z</time>
      </trkpt>
      <trkpt lat="41.866899" lon="2.325488">
        <ele>738.4</ele>
        <time>2011-09-03T12:36:21Z</time>
      </trkpt>
      <trkpt lat="41.867061" lon="2.325755">
        <ele>735.5</ele>
        <time>2011-09-03T12:36:24Z</time>
      </trkpt>
      <trkpt lat="41.867408" lon="2.326109">
        <ele>731.7</ele>
        <time>2011-09-03T12:36:30Z</time>
      </trkpt>
      <trkpt lat="41.867668" lon="2.326385">
        <ele>732.2</ele>
        <time>2011-09-03T12:36:35Z</time>
      </trkpt>
      <trkpt lat="41.867696" lon="2.326658">
        <ele>733.1</ele>
        <time>2011-09-03T12:36:37Z</time>
      </trkpt>
      <trkpt lat="41.867705" lon="2.326793">
        <ele>732.2</ele>
        <time>2011-09-03T12:36:38Z</time>
      </trkpt>
      <trkpt lat="41.867704" lon="2.327007">
        <ele>731.2</ele>
        <time>2011-09-03T12:36:40Z</time>
      </trkpt>
      <trkpt lat="41.867793" lon="2.327395">
        <ele>728.8</ele>
        <time>2011-09-03T12:36:46Z</time>
      </trkpt>
      <trkpt lat="41.867945" lon="2.327695">
        <ele>726.9</ele>
        <time>2011-09-03T12:36:53Z</time>
      </trkpt>
      <trkpt lat="41.868078" lon="2.327846">
        <ele>726.4</ele>
        <time>2011-09-03T12:37:01Z</time>
      </trkpt>
      <trkpt lat="41.868372" lon="2.327843">
        <ele>724.0</ele>
        <time>2011-09-03T12:37:06Z</time>
      </trkpt>
      <trkpt lat="41.868503" lon="2.327723">
        <ele>723.0</ele>
        <time>2011-09-03T12:37:08Z</time>
      </trkpt>
      <trkpt lat="41.868664" lon="2.327646">
        <ele>722.1</ele>
        <time>2011-09-03T12:37:10Z</time>
      </trkpt>
      <trkpt lat="41.869401" lon="2.326965">
        <ele>723.5</ele>
        <time>2011-09-03T12:37:18Z</time>
      </trkpt>
      <trkpt lat="41.869522" lon="2.326815">
        <ele>724.0</ele>
        <time>2011-09-03T12:37:20Z</time>
      </trkpt>
      <trkpt lat="41.869776" lon="2.326709">
        <ele>725.5</ele>
        <time>2011-09-03T12:37:24Z</time>
      </trkpt>
      <trkpt lat="41.869920" lon="2.326725">
        <ele>725.5</ele>
        <time>2011-09-03T12:37:26Z</time>
      </trkpt>
      <trkpt lat="41.870275" lon="2.326571">
        <ele>727.4</ele>
        <time>2011-09-03T12:37:31Z</time>
      </trkpt>
      <trkpt lat="41.870528" lon="2.325837">
        <ele>729.3</ele>
        <time>2011-09-03T12:37:39Z</time>
      </trkpt>
      <trkpt lat="41.870782" lon="2.325767">
        <ele>729.3</ele>
        <time>2011-09-03T12:37:43Z</time>
      </trkpt>
      <trkpt lat="41.871171" lon="2.325588">
        <ele>731.7</ele>
        <time>2011-09-03T12:37:49Z</time>
      </trkpt>
      <trkpt lat="41.871390" lon="2.325376">
        <ele>733.6</ele>
        <time>2011-09-03T12:37:52Z</time>
      </trkpt>
      <trkpt lat="41.871812" lon="2.324752">
        <ele>731.2</ele>
        <time>2011-09-03T12:37:58Z</time>
      </trkpt>
      <trkpt lat="41.871860" lon="2.324566">
        <ele>730.7</ele>
        <time>2011-09-03T12:38:00Z</time>
      </trkpt>
      <trkpt lat="41.871955" lon="2.324392">
        <ele>730.7</ele>
        <time>2011-09-03T12:38:08Z</time>
      </trkpt>
      <trkpt lat="41.872380" lon="2.324575">
        <ele>732.7</ele>
        <time>2011-09-03T12:38:15Z</time>
      </trkpt>
      <trkpt lat="41.872451" lon="2.324568">
        <ele>733.6</ele>
        <time>2011-09-03T12:38:16Z</time>
      </trkpt>
      <trkpt lat="41.872745" lon="2.324720">
        <ele>734.6</ele>
        <time>2011-09-03T12:38:23Z</time>
      </trkpt>
      <trkpt lat="41.872869" lon="2.325244">
        <ele>733.6</ele>
        <time>2011-09-03T12:38:31Z</time>
      </trkpt>
      <trkpt lat="41.873023" lon="2.325595">
        <ele>729.3</ele>
        <time>2011-09-03T12:38:36Z</time>
      </trkpt>
      <trkpt lat="41.873064" lon="2.325679">
        <ele>728.8</ele>
        <time>2011-09-03T12:38:37Z</time>
      </trkpt>
      <trkpt lat="41.873148" lon="2.325964">
        <ele>726.4</ele>
        <time>2011-09-03T12:38:40Z</time>
      </trkpt>
      <trkpt lat="41.873468" lon="2.326591">
        <ele>722.6</ele>
        <time>2011-09-03T12:38:47Z</time>
      </trkpt>
      <trkpt lat="41.873772" lon="2.327358">
        <ele>718.7</ele>
        <time>2011-09-03T12:38:54Z</time>
      </trkpt>
      <trkpt lat="41.873899" lon="2.327607">
        <ele>716.3</ele>
        <time>2011-09-03T12:38:57Z</time>
      </trkpt>
      <trkpt lat="41.874185" lon="2.327874">
        <ele>713.0</ele>
        <time>2011-09-03T12:39:04Z</time>
      </trkpt>
      <trkpt lat="41.874295" lon="2.328048">
        <ele>711.0</ele>
        <time>2011-09-03T12:39:07Z</time>
      </trkpt>
      <trkpt lat="41.874340" lon="2.328218">
        <ele>709.1</ele>
        <time>2011-09-03T12:39:09Z</time>
      </trkpt>
      <trkpt lat="41.874507" lon="2.328546">
        <ele>705.3</ele>
        <time>2011-09-03T12:39:15Z</time>
      </trkpt>
      <trkpt lat="41.874579" lon="2.328672">
        <ele>702.9</ele>
        <time>2011-09-03T12:39:19Z</time>
      </trkpt>
      <trkpt lat="41.874753" lon="2.328666">
        <ele>700.5</ele>
        <time>2011-09-03T12:39:24Z</time>
      </trkpt>
      <trkpt lat="41.875047" lon="2.328303">
        <ele>696.6</ele>
        <time>2011-09-03T12:39:31Z</time>
      </trkpt>
      <trkpt lat="41.875285" lon="2.328088">
        <ele>693.7</ele>
        <time>2011-09-03T12:39:39Z</time>
      </trkpt>
      <trkpt lat="41.875519" lon="2.328457">
        <ele>694.2</ele>
        <time>2011-09-03T12:39:46Z</time>
      </trkpt>
      <trkpt lat="41.875671" lon="2.328892">
        <ele>693.7</ele>
        <time>2011-09-03T12:39:51Z</time>
      </trkpt>
      <trkpt lat="41.875810" lon="2.329233">
        <ele>690.4</ele>
        <time>2011-09-03T12:39:57Z</time>
      </trkpt>
      <trkpt lat="41.875830" lon="2.329313">
        <ele>689.9</ele>
        <time>2011-09-03T12:39:58Z</time>
      </trkpt>
      <trkpt lat="41.875867" lon="2.329564">
        <ele>688.4</ele>
        <time>2011-09-03T12:40:01Z</time>
      </trkpt>
      <trkpt lat="41.875890" lon="2.329728">
        <ele>687.0</ele>
        <time>2011-09-03T12:40:03Z</time>
      </trkpt>
      <trkpt lat="41.875919" lon="2.330127">
        <ele>684.6</ele>
        <time>2011-09-03T12:40:08Z</time>
      </trkpt>
      <trkpt lat="41.875993" lon="2.330512">
        <ele>683.2</ele>
        <time>2011-09-03T12:40:13Z</time>
      </trkpt>
      <trkpt lat="41.876194" lon="2.330822">
        <ele>681.2</ele>
        <time>2011-09-03T12:40:17Z</time>
      </trkpt>
      <trkpt lat="41.876186" lon="2.331376">
        <ele>679.8</ele>
        <time>2011-09-03T12:40:24Z</time>
      </trkpt>
      <trkpt lat="41.876112" lon="2.331897">
        <ele>677.9</ele>
        <time>2011-09-03T12:40:29Z</time>
      </trkpt>
      <trkpt lat="41.876122" lon="2.332417">
        <ele>676.9</ele>
        <time>2011-09-03T12:40:34Z</time>
      </trkpt>
      <trkpt lat="41.876098" lon="2.333031">
        <ele>674.5</ele>
        <time>2011-09-03T12:40:40Z</time>
      </trkpt>
      <trkpt lat="41.876153" lon="2.333224">
        <ele>673.5</ele>
        <time>2011-09-03T12:40:42Z</time>
      </trkpt>
      <trkpt lat="41.876207" lon="2.333609">
        <ele>671.6</ele>
        <time>2011-09-03T12:40:46Z</time>
      </trkpt>
      <trkpt lat="41.876068" lon="2.334081">
        <ele>668.3</ele>
        <time>2011-09-03T12:40:52Z</time>
      </trkpt>
      <trkpt lat="41.876081" lon="2.334151">
        <ele>668.3</ele>
        <time>2011-09-03T12:40:53Z</time>
      </trkpt>
      <trkpt lat="41.876319" lon="2.334114">
        <ele>665.4</ele>
        <time>2011-09-03T12:40:58Z</time>
      </trkpt>
      <trkpt lat="41.876401" lon="2.334008">
        <ele>663.9</ele>
        <time>2011-09-03T12:41:00Z</time>
      </trkpt>
      <trkpt lat="41.876511" lon="2.333929">
        <ele>662.5</ele>
        <time>2011-09-03T12:41:03Z</time>
      </trkpt>
      <trkpt lat="41.876646" lon="2.334125">
        <ele>663.4</ele>
        <time>2011-09-03T12:41:09Z</time>
      </trkpt>
      <trkpt lat="41.876669" lon="2.334344">
        <ele>664.9</ele>
        <time>2011-09-03T12:41:11Z</time>
      </trkpt>
      <trkpt lat="41.876730" lon="2.334632">
        <ele>665.9</ele>
        <time>2011-09-03T12:41:14Z</time>
      </trkpt>
      <trkpt lat="41.876688" lon="2.335029">
        <ele>666.8</ele>
        <time>2011-09-03T12:41:18Z</time>
      </trkpt>
      <trkpt lat="41.876605" lon="2.335470">
        <ele>668.3</ele>
        <time>2011-09-03T12:41:22Z</time>
      </trkpt>
      <trkpt lat="41.876566" lon="2.335672">
        <ele>668.7</ele>
        <time>2011-09-03T12:41:28Z</time>
      </trkpt>
      <trkpt lat="41.876557" lon="2.335680">
        <ele>668.7</ele>
        <time>2011-09-03T12:41:44Z</time>
      </trkpt>
      <trkpt lat="41.876552" lon="2.335719">
        <ele>668.7</ele>
        <time>2011-09-03T12:41:46Z</time>
      </trkpt>
      <trkpt lat="41.876060" lon="2.336451">
        <ele>665.4</ele>
        <time>2011-09-03T12:41:53Z</time>
      </trkpt>
      <trkpt lat="41.875753" lon="2.336822">
        <ele>661.5</ele>
        <time>2011-09-03T12:41:56Z</time>
      </trkpt>
      <trkpt lat="41.875522" lon="2.337034">
        <ele>658.6</ele>
        <time>2011-09-03T12:41:58Z</time>
      </trkpt>
      <trkpt lat="41.875213" lon="2.337319">
        <ele>654.8</ele>
        <time>2011-09-03T12:42:01Z</time>
      </trkpt>
      <trkpt lat="41.875046" lon="2.337446">
        <ele>651.4</ele>
        <time>2011-09-03T12:42:03Z</time>
      </trkpt>
      <trkpt lat="41.874819" lon="2.337836">
        <ele>646.6</ele>
        <time>2011-09-03T12:42:08Z</time>
      </trkpt>
      <trkpt lat="41.875067" lon="2.338340">
        <ele>644.7</ele>
        <time>2011-09-03T12:42:13Z</time>
      </trkpt>
      <trkpt lat="41.875268" lon="2.338339">
        <ele>643.7</ele>
        <time>2011-09-03T12:42:16Z</time>
      </trkpt>
      <trkpt lat="41.875426" lon="2.338166">
        <ele>642.8</ele>
        <time>2011-09-03T12:42:18Z</time>
      </trkpt>
      <trkpt lat="41.875659" lon="2.338066">
        <ele>641.3</ele>
        <time>2011-09-03T12:42:21Z</time>
      </trkpt>
      <trkpt lat="41.875846" lon="2.338365">
        <ele>638.0</ele>
        <time>2011-09-03T12:42:26Z</time>
      </trkpt>
      <trkpt lat="41.875848" lon="2.338640">
        <ele>635.6</ele>
        <time>2011-09-03T12:42:28Z</time>
      </trkpt>
      <trkpt lat="41.875676" lon="2.339201">
        <ele>630.8</ele>
        <time>2011-09-03T12:42:32Z</time>
      </trkpt>
      <trkpt lat="41.875623" lon="2.339711">
        <ele>626.0</ele>
        <time>2011-09-03T12:42:36Z</time>
      </trkpt>
      <trkpt lat="41.875676" lon="2.339927">
        <ele>624.5</ele>
        <time>2011-09-03T12:42:38Z</time>
      </trkpt>
      <trkpt lat="41.875728" lon="2.340126">
        <ele>624.0</ele>
        <time>2011-09-03T12:42:40Z</time>
      </trkpt>
      <trkpt lat="41.875834" lon="2.340479">
        <ele>623.6</ele>
        <time>2011-09-03T12:42:47Z</time>
      </trkpt>
      <trkpt lat="41.875879" lon="2.340485">
        <ele>624.0</ele>
        <time>2011-09-03T12:42:48Z</time>
      </trkpt>
      <trkpt lat="41.876075" lon="2.340815">
        <ele>627.4</ele>
        <time>2011-09-03T12:42:54Z</time>
      </trkpt>
      <trkpt lat="41.876248" lon="2.341460">
        <ele>631.7</ele>
        <time>2011-09-03T12:42:59Z</time>
      </trkpt>
      <trkpt lat="41.876267" lon="2.341545">
        <ele>632.2</ele>
        <time>2011-09-03T12:43:00Z</time>
      </trkpt>
      <trkpt lat="41.876257" lon="2.341835">
        <ele>632.7</ele>
        <time>2011-09-03T12:43:04Z</time>
      </trkpt>
      <trkpt lat="41.876157" lon="2.342117">
        <ele>634.1</ele>
        <time>2011-09-03T12:43:07Z</time>
      </trkpt>
      <trkpt lat="41.876132" lon="2.342254">
        <ele>634.6</ele>
        <time>2011-09-03T12:43:09Z</time>
      </trkpt>
      <trkpt lat="41.876190" lon="2.342393">
        <ele>635.6</ele>
        <time>2011-09-03T12:43:11Z</time>
      </trkpt>
      <trkpt lat="41.876525" lon="2.343164">
        <ele>638.9</ele>
        <time>2011-09-03T12:43:18Z</time>
      </trkpt>
      <trkpt lat="41.876553" lon="2.343252">
        <ele>639.4</ele>
        <time>2011-09-03T12:43:19Z</time>
      </trkpt>
      <trkpt lat="41.876693" lon="2.343528">
        <ele>638.9</ele>
        <time>2011-09-03T12:43:22Z</time>
      </trkpt>
      <trkpt lat="41.877114" lon="2.343711">
        <ele>638.0</ele>
        <time>2011-09-03T12:43:28Z</time>
      </trkpt>
      <trkpt lat="41.877169" lon="2.344204">
        <ele>635.6</ele>
        <time>2011-09-03T12:43:33Z</time>
      </trkpt>
      <trkpt lat="41.877046" lon="2.344886">
        <ele>633.6</ele>
        <time>2011-09-03T12:43:38Z</time>
      </trkpt>
      <trkpt lat="41.876877" lon="2.345421">
        <ele>632.7</ele>
        <time>2011-09-03T12:43:42Z</time>
      </trkpt>
      <trkpt lat="41.876636" lon="2.346678">
        <ele>628.8</ele>
        <time>2011-09-03T12:43:50Z</time>
      </trkpt>
      <trkpt lat="41.876596" lon="2.347277">
        <ele>625.5</ele>
        <time>2011-09-03T12:43:54Z</time>
      </trkpt>
      <trkpt lat="41.876697" lon="2.347809">
        <ele>620.2</ele>
        <time>2011-09-03T12:43:58Z</time>
      </trkpt>
      <trkpt lat="41.876974" lon="2.348035">
        <ele>616.8</ele>
        <time>2011-09-03T12:44:01Z</time>
      </trkpt>
      <trkpt lat="41.877373" lon="2.348172">
        <ele>612.0</ele>
        <time>2011-09-03T12:44:04Z</time>
      </trkpt>
      <trkpt lat="41.877667" lon="2.348240">
        <ele>610.6</ele>
        <time>2011-09-03T12:44:06Z</time>
      </trkpt>
      <trkpt lat="41.878271" lon="2.348631">
        <ele>608.7</ele>
        <time>2011-09-03T12:44:12Z</time>
      </trkpt>
      <trkpt lat="41.878402" lon="2.348942">
        <ele>609.1</ele>
        <time>2011-09-03T12:44:14Z</time>
      </trkpt>
      <trkpt lat="41.878743" lon="2.349609">
        <ele>607.7</ele>
        <time>2011-09-03T12:44:18Z</time>
      </trkpt>
      <trkpt lat="41.878894" lon="2.350187">
        <ele>604.8</ele>
        <time>2011-09-03T12:44:22Z</time>
      </trkpt>
      <trkpt lat="41.879016" lon="2.351233">
        <ele>602.4</ele>
        <time>2011-09-03T12:44:29Z</time>
      </trkpt>
      <trkpt lat="41.879211" lon="2.351420">
        <ele>602.4</ele>
        <time>2011-09-03T12:44:31Z</time>
      </trkpt>
      <trkpt lat="41.879474" lon="2.351958">
        <ele>600.0</ele>
        <time>2011-09-03T12:44:35Z</time>
      </trkpt>
      <trkpt lat="41.879511" lon="2.352414">
        <ele>597.1</ele>
        <time>2011-09-03T12:44:38Z</time>
      </trkpt>
      <trkpt lat="41.879761" lon="2.352602">
        <ele>593.8</ele>
        <time>2011-09-03T12:44:43Z</time>
      </trkpt>
      <trkpt lat="41.879957" lon="2.352429">
        <ele>591.3</ele>
        <time>2011-09-03T12:44:45Z</time>
      </trkpt>
      <trkpt lat="41.880535" lon="2.352330">
        <ele>587.5</ele>
        <time>2011-09-03T12:44:52Z</time>
      </trkpt>
      <trkpt lat="41.880523" lon="2.352894">
        <ele>590.9</ele>
        <time>2011-09-03T12:44:57Z</time>
      </trkpt>
      <trkpt lat="41.880457" lon="2.353110">
        <ele>591.3</ele>
        <time>2011-09-03T12:44:59Z</time>
      </trkpt>
      <trkpt lat="41.880442" lon="2.353168">
        <ele>591.8</ele>
        <time>2011-09-03T12:45:00Z</time>
      </trkpt>
      <trkpt lat="41.880233" lon="2.353342">
        <ele>591.3</ele>
        <time>2011-09-03T12:45:04Z</time>
      </trkpt>
      <trkpt lat="41.879947" lon="2.353747">
        <ele>588.0</ele>
        <time>2011-09-03T12:45:08Z</time>
      </trkpt>
      <trkpt lat="41.879842" lon="2.354200">
        <ele>585.6</ele>
        <time>2011-09-03T12:45:11Z</time>
      </trkpt>
      <trkpt lat="41.879932" lon="2.354475">
        <ele>584.1</ele>
        <time>2011-09-03T12:45:13Z</time>
      </trkpt>
      <trkpt lat="41.880242" lon="2.355077">
        <ele>580.3</ele>
        <time>2011-09-03T12:45:18Z</time>
      </trkpt>
      <trkpt lat="41.880426" lon="2.355490">
        <ele>577.4</ele>
        <time>2011-09-03T12:45:22Z</time>
      </trkpt>
      <trkpt lat="41.880475" lon="2.355825">
        <ele>576.9</ele>
        <time>2011-09-03T12:45:30Z</time>
      </trkpt>
      <trkpt lat="41.880474" lon="2.355832">
        <ele>576.9</ele>
        <time>2011-09-03T12:47:31Z</time>
      </trkpt>
      <trkpt lat="41.880621" lon="2.355822">
        <ele>577.4</ele>
        <time>2011-09-03T12:47:36Z</time>
      </trkpt>
      <trkpt lat="41.880685" lon="2.355855">
        <ele>577.4</ele>
        <time>2011-09-03T12:47:48Z</time>
      </trkpt>
      <trkpt lat="41.880783" lon="2.355929">
        <ele>577.4</ele>
        <time>2011-09-03T12:47:56Z</time>
      </trkpt>
      <trkpt lat="41.880885" lon="2.356276">
        <ele>576.9</ele>
        <time>2011-09-03T12:48:01Z</time>
      </trkpt>
      <trkpt lat="41.880864" lon="2.356846">
        <ele>576.0</ele>
        <time>2011-09-03T12:48:10Z</time>
      </trkpt>
      <trkpt lat="41.881107" lon="2.357274">
        <ele>576.0</ele>
        <time>2011-09-03T12:48:19Z</time>
      </trkpt>
      <trkpt lat="41.881117" lon="2.357322">
        <ele>575.5</ele>
        <time>2011-09-03T12:48:20Z</time>
      </trkpt>
      <trkpt lat="41.881143" lon="2.357397">
        <ele>575.0</ele>
        <time>2011-09-03T12:48:31Z</time>
      </trkpt>
      <trkpt lat="41.881213" lon="2.357642">
        <ele>578.9</ele>
        <time>2011-09-03T12:48:37Z</time>
      </trkpt>
      <trkpt lat="41.881172" lon="2.357979">
        <ele>583.7</ele>
        <time>2011-09-03T12:48:42Z</time>
      </trkpt>
      <trkpt lat="41.880911" lon="2.358327">
        <ele>588.5</ele>
        <time>2011-09-03T12:48:48Z</time>
      </trkpt>
      <trkpt lat="41.880814" lon="2.358451">
        <ele>589.9</ele>
        <time>2011-09-03T12:48:50Z</time>
      </trkpt>
      <trkpt lat="41.880672" lon="2.358593">
        <ele>590.4</ele>
        <time>2011-09-03T12:48:52Z</time>
      </trkpt>
      <trkpt lat="41.880532" lon="2.358757">
        <ele>591.3</ele>
        <time>2011-09-03T12:48:54Z</time>
      </trkpt>
      <trkpt lat="41.880420" lon="2.358883">
        <ele>593.3</ele>
        <time>2011-09-03T12:48:56Z</time>
      </trkpt>
      <trkpt lat="41.880232" lon="2.359312">
        <ele>596.6</ele>
        <time>2011-09-03T12:49:03Z</time>
      </trkpt>
      <trkpt lat="41.880163" lon="2.359426">
        <ele>597.6</ele>
        <time>2011-09-03T12:49:05Z</time>
      </trkpt>
      <trkpt lat="41.880123" lon="2.359560">
        <ele>599.0</ele>
        <time>2011-09-03T12:49:07Z</time>
      </trkpt>
      <trkpt lat="41.879917" lon="2.359983">
        <ele>602.4</ele>
        <time>2011-09-03T12:49:15Z</time>
      </trkpt>
      <trkpt lat="41.879996" lon="2.360011">
        <ele>603.4</ele>
        <time>2011-09-03T12:49:17Z</time>
      </trkpt>
      <trkpt lat="41.880080" lon="2.360018">
        <ele>605.3</ele>
        <time>2011-09-03T12:49:19Z</time>
      </trkpt>
      <trkpt lat="41.880239" lon="2.360014">
        <ele>608.2</ele>
        <time>2011-09-03T12:49:23Z</time>
      </trkpt>
      <trkpt lat="41.880397" lon="2.359888">
        <ele>611.5</ele>
        <time>2011-09-03T12:49:27Z</time>
      </trkpt>
      <trkpt lat="41.880631" lon="2.359667">
        <ele>615.9</ele>
        <time>2011-09-03T12:49:32Z</time>
      </trkpt>
      <trkpt lat="41.880999" lon="2.359473">
        <ele>619.2</ele>
        <time>2011-09-03T12:49:38Z</time>
      </trkpt>
      <trkpt lat="41.881244" lon="2.359428">
        <ele>622.1</ele>
        <time>2011-09-03T12:49:42Z</time>
      </trkpt>
      <trkpt lat="41.881417" lon="2.359521">
        <ele>624.5</ele>
        <time>2011-09-03T12:49:46Z</time>
      </trkpt>
      <trkpt lat="41.881460" lon="2.359693">
        <ele>626.0</ele>
        <time>2011-09-03T12:49:48Z</time>
      </trkpt>
      <trkpt lat="41.881473" lon="2.359884">
        <ele>626.9</ele>
        <time>2011-09-03T12:49:50Z</time>
      </trkpt>
      <trkpt lat="41.881418" lon="2.360312">
        <ele>631.2</ele>
        <time>2011-09-03T12:49:55Z</time>
      </trkpt>
      <trkpt lat="41.881425" lon="2.360477">
        <ele>633.2</ele>
        <time>2011-09-03T12:49:57Z</time>
      </trkpt>
      <trkpt lat="41.881451" lon="2.360836">
        <ele>637.0</ele>
        <time>2011-09-03T12:50:04Z</time>
      </trkpt>
      <trkpt lat="41.881417" lon="2.360808">
        <ele>637.5</ele>
        <time>2011-09-03T12:50:05Z</time>
      </trkpt>
      <trkpt lat="41.881339" lon="2.360726">
        <ele>638.9</ele>
        <time>2011-09-03T12:50:07Z</time>
      </trkpt>
      <trkpt lat="41.881048" lon="2.360731">
        <ele>641.3</ele>
        <time>2011-09-03T12:50:12Z</time>
      </trkpt>
      <trkpt lat="41.880858" lon="2.360847">
        <ele>643.3</ele>
        <time>2011-09-03T12:50:15Z</time>
      </trkpt>
      <trkpt lat="41.880811" lon="2.360893">
        <ele>643.3</ele>
        <time>2011-09-03T12:50:16Z</time>
      </trkpt>
      <trkpt lat="41.880489" lon="2.361138">
        <ele>646.6</ele>
        <time>2011-09-03T12:50:21Z</time>
      </trkpt>
      <trkpt lat="41.880394" lon="2.361668">
        <ele>648.1</ele>
        <time>2011-09-03T12:50:26Z</time>
      </trkpt>
      <trkpt lat="41.880257" lon="2.362122">
        <ele>650.0</ele>
        <time>2011-09-03T12:50:31Z</time>
      </trkpt>
      <trkpt lat="41.880110" lon="2.362542">
        <ele>649.5</ele>
        <time>2011-09-03T12:50:36Z</time>
      </trkpt>
      <trkpt lat="41.879931" lon="2.363119">
        <ele>650.0</ele>
        <time>2011-09-03T12:50:43Z</time>
      </trkpt>
      <trkpt lat="41.879843" lon="2.363367">
        <ele>650.0</ele>
        <time>2011-09-03T12:50:47Z</time>
      </trkpt>
      <trkpt lat="41.879768" lon="2.363663">
        <ele>653.4</ele>
        <time>2011-09-03T12:50:51Z</time>
      </trkpt>
      <trkpt lat="41.879808" lon="2.363854">
        <ele>653.4</ele>
        <time>2011-09-03T12:50:53Z</time>
      </trkpt>
      <trkpt lat="41.879920" lon="2.363875">
        <ele>653.4</ele>
        <time>2011-09-03T12:50:57Z</time>
      </trkpt>
      <trkpt lat="41.880449" lon="2.363392">
        <ele>653.4</ele>
        <time>2011-09-03T12:51:06Z</time>
      </trkpt>
      <trkpt lat="41.880767" lon="2.363384">
        <ele>653.8</ele>
        <time>2011-09-03T12:51:11Z</time>
      </trkpt>
      <trkpt lat="41.880891" lon="2.363338">
        <ele>654.3</ele>
        <time>2011-09-03T12:51:13Z</time>
      </trkpt>
      <trkpt lat="41.881024" lon="2.363399">
        <ele>655.8</ele>
        <time>2011-09-03T12:51:16Z</time>
      </trkpt>
      <trkpt lat="41.880917" lon="2.363749">
        <ele>659.1</ele>
        <time>2011-09-03T12:51:21Z</time>
      </trkpt>
      <trkpt lat="41.880897" lon="2.363824">
        <ele>658.6</ele>
        <time>2011-09-03T12:51:22Z</time>
      </trkpt>
      <trkpt lat="41.880859" lon="2.364014">
        <ele>660.6</ele>
        <time>2011-09-03T12:51:24Z</time>
      </trkpt>
      <trkpt lat="41.880825" lon="2.364314">
        <ele>663.9</ele>
        <time>2011-09-03T12:51:27Z</time>
      </trkpt>
      <trkpt lat="41.880671" lon="2.364751">
        <ele>668.3</ele>
        <time>2011-09-03T12:51:32Z</time>
      </trkpt>
      <trkpt lat="41.880545" lon="2.365053">
        <ele>669.2</ele>
        <time>2011-09-03T12:51:34Z</time>
      </trkpt>
      <trkpt lat="41.880446" lon="2.365317">
        <ele>672.6</ele>
        <time>2011-09-03T12:51:39Z</time>
      </trkpt>
      <trkpt lat="41.880424" lon="2.365242">
        <ele>673.1</ele>
        <time>2011-09-03T12:51:40Z</time>
      </trkpt>
      <trkpt lat="41.880382" lon="2.364943">
        <ele>676.4</ele>
        <time>2011-09-03T12:51:43Z</time>
      </trkpt>
      <trkpt lat="41.880428" lon="2.364687">
        <ele>677.9</ele>
        <time>2011-09-03T12:51:46Z</time>
      </trkpt>
      <trkpt lat="41.880319" lon="2.364827">
        <ele>679.8</ele>
        <time>2011-09-03T12:51:50Z</time>
      </trkpt>
      <trkpt lat="41.880262" lon="2.364878">
        <ele>680.3</ele>
        <time>2011-09-03T12:51:51Z</time>
      </trkpt>
      <trkpt lat="41.880013" lon="2.365320">
        <ele>685.1</ele>
        <time>2011-09-03T12:51:57Z</time>
      </trkpt>
      <trkpt lat="41.880003" lon="2.365401">
        <ele>685.6</ele>
        <time>2011-09-03T12:51:58Z</time>
      </trkpt>
      <trkpt lat="41.879860" lon="2.365663">
        <ele>688.4</ele>
        <time>2011-09-03T12:52:03Z</time>
      </trkpt>
      <trkpt lat="41.879910" lon="2.365702">
        <ele>689.4</ele>
        <time>2011-09-03T12:52:05Z</time>
      </trkpt>
      <trkpt lat="41.880107" lon="2.366026">
        <ele>693.7</ele>
        <time>2011-09-03T12:52:12Z</time>
      </trkpt>
      <trkpt lat="41.880121" lon="2.366108">
        <ele>695.2</ele>
        <time>2011-09-03T12:52:13Z</time>
      </trkpt>
      <trkpt lat="41.880148" lon="2.366285">
        <ele>697.1</ele>
        <time>2011-09-03T12:52:15Z</time>
      </trkpt>
      <trkpt lat="41.880137" lon="2.366686">
        <ele>696.1</ele>
        <time>2011-09-03T12:52:19Z</time>
      </trkpt>
      <trkpt lat="41.879937" lon="2.367263">
        <ele>699.0</ele>
        <time>2011-09-03T12:52:27Z</time>
      </trkpt>
      <trkpt lat="41.880051" lon="2.367408">
        <ele>700.0</ele>
        <time>2011-09-03T12:52:30Z</time>
      </trkpt>
      <trkpt lat="41.880155" lon="2.367463">
        <ele>700.5</ele>
        <time>2011-09-03T12:52:32Z</time>
      </trkpt>
      <trkpt lat="41.880309" lon="2.367804">
        <ele>702.4</ele>
        <time>2011-09-03T12:52:36Z</time>
      </trkpt>
      <trkpt lat="41.880325" lon="2.367896">
        <ele>702.9</ele>
        <time>2011-09-03T12:52:37Z</time>
      </trkpt>
      <trkpt lat="41.880323" lon="2.368483">
        <ele>706.2</ele>
        <time>2011-09-03T12:52:43Z</time>
      </trkpt>
      <trkpt lat="41.880162" lon="2.368615">
        <ele>707.2</ele>
        <time>2011-09-03T12:52:46Z</time>
      </trkpt>
      <trkpt lat="41.879842" lon="2.368608">
        <ele>708.1</ele>
        <time>2011-09-03T12:52:50Z</time>
      </trkpt>
      <trkpt lat="41.879473" lon="2.369076">
        <ele>707.7</ele>
        <time>2011-09-03T12:52:57Z</time>
      </trkpt>
      <trkpt lat="41.879267" lon="2.369425">
        <ele>709.6</ele>
        <time>2011-09-03T12:53:02Z</time>
      </trkpt>
      <trkpt lat="41.879173" lon="2.369401">
        <ele>710.6</ele>
        <time>2011-09-03T12:53:04Z</time>
      </trkpt>
      <trkpt lat="41.878872" lon="2.369156">
        <ele>712.0</ele>
        <time>2011-09-03T12:53:08Z</time>
      </trkpt>
      <trkpt lat="41.878454" lon="2.368962">
        <ele>714.9</ele>
        <time>2011-09-03T12:53:13Z</time>
      </trkpt>
      <trkpt lat="41.878291" lon="2.368951">
        <ele>715.8</ele>
        <time>2011-09-03T12:53:15Z</time>
      </trkpt>
      <trkpt lat="41.877940" lon="2.369059">
        <ele>717.3</ele>
        <time>2011-09-03T12:53:19Z</time>
      </trkpt>
      <trkpt lat="41.877702" lon="2.369117">
        <ele>718.7</ele>
        <time>2011-09-03T12:53:22Z</time>
      </trkpt>
      <trkpt lat="41.877549" lon="2.369136">
        <ele>718.7</ele>
        <time>2011-09-03T12:53:24Z</time>
      </trkpt>
      <trkpt lat="41.877239" lon="2.368775">
        <ele>720.2</ele>
        <time>2011-09-03T12:53:31Z</time>
      </trkpt>
      <trkpt lat="41.877163" lon="2.368578">
        <ele>720.6</ele>
        <time>2011-09-03T12:53:33Z</time>
      </trkpt>
      <trkpt lat="41.876967" lon="2.368081">
        <ele>721.1</ele>
        <time>2011-09-03T12:53:39Z</time>
      </trkpt>
      <trkpt lat="41.876748" lon="2.367769">
        <ele>722.1</ele>
        <time>2011-09-03T12:53:43Z</time>
      </trkpt>
      <trkpt lat="41.876434" lon="2.367669">
        <ele>721.6</ele>
        <time>2011-09-03T12:53:49Z</time>
      </trkpt>
      <trkpt lat="41.876346" lon="2.367627">
        <ele>722.1</ele>
        <time>2011-09-03T12:54:06Z</time>
      </trkpt>
      <trkpt lat="41.876255" lon="2.367562">
        <ele>723.0</ele>
        <time>2011-09-03T12:54:08Z</time>
      </trkpt>
      <trkpt lat="41.876154" lon="2.367305">
        <ele>724.5</ele>
        <time>2011-09-03T12:54:11Z</time>
      </trkpt>
      <trkpt lat="41.876063" lon="2.366727">
        <ele>729.8</ele>
        <time>2011-09-03T12:54:16Z</time>
      </trkpt>
      <trkpt lat="41.875682" lon="2.366582">
        <ele>734.1</ele>
        <time>2011-09-03T12:54:22Z</time>
      </trkpt>
      <trkpt lat="41.875525" lon="2.366649">
        <ele>736.0</ele>
        <time>2011-09-03T12:54:24Z</time>
      </trkpt>
      <trkpt lat="41.874896" lon="2.366578">
        <ele>740.4</ele>
        <time>2011-09-03T12:54:31Z</time>
      </trkpt>
      <trkpt lat="41.874666" lon="2.366676">
        <ele>742.8</ele>
        <time>2011-09-03T12:54:34Z</time>
      </trkpt>
      <trkpt lat="41.874429" lon="2.366635">
        <ele>746.1</ele>
        <time>2011-09-03T12:54:38Z</time>
      </trkpt>
      <trkpt lat="41.874227" lon="2.366595">
        <ele>747.6</ele>
        <time>2011-09-03T12:54:41Z</time>
      </trkpt>
      <trkpt lat="41.873899" lon="2.366666">
        <ele>751.4</ele>
        <time>2011-09-03T12:54:45Z</time>
      </trkpt>
      <trkpt lat="41.873739" lon="2.366713">
        <ele>752.8</ele>
        <time>2011-09-03T12:54:47Z</time>
      </trkpt>
      <trkpt lat="41.873242" lon="2.366599">
        <ele>757.7</ele>
        <time>2011-09-03T12:54:53Z</time>
      </trkpt>
      <trkpt lat="41.873179" lon="2.366542">
        <ele>759.6</ele>
        <time>2011-09-03T12:54:54Z</time>
      </trkpt>
      <trkpt lat="41.872926" lon="2.366530">
        <ele>762.0</ele>
        <time>2011-09-03T12:54:58Z</time>
      </trkpt>
      <trkpt lat="41.872683" lon="2.366503">
        <ele>764.4</ele>
        <time>2011-09-03T12:55:01Z</time>
      </trkpt>
      <trkpt lat="41.872338" lon="2.366438">
        <ele>766.8</ele>
        <time>2011-09-03T12:55:05Z</time>
      </trkpt>
      <trkpt lat="41.872250" lon="2.366418">
        <ele>767.8</ele>
        <time>2011-09-03T12:55:06Z</time>
      </trkpt>
      <trkpt lat="41.871946" lon="2.366296">
        <ele>772.1</ele>
        <time>2011-09-03T12:55:10Z</time>
      </trkpt>
      <trkpt lat="41.871892" lon="2.366266">
        <ele>773.0</ele>
        <time>2011-09-03T12:55:11Z</time>
      </trkpt>
      <trkpt lat="41.871643" lon="2.365753">
        <ele>775.4</ele>
        <time>2011-09-03T12:55:18Z</time>
      </trkpt>
      <trkpt lat="41.871615" lon="2.365111">
        <ele>775.0</ele>
        <time>2011-09-03T12:55:26Z</time>
      </trkpt>
      <trkpt lat="41.871477" lon="2.364733">
        <ele>775.4</ele>
        <time>2011-09-03T12:55:31Z</time>
      </trkpt>
      <trkpt lat="41.871464" lon="2.364562">
        <ele>775.0</ele>
        <time>2011-09-03T12:55:33Z</time>
      </trkpt>
      <trkpt lat="41.871325" lon="2.364286">
        <ele>773.5</ele>
        <time>2011-09-03T12:55:38Z</time>
      </trkpt>
      <trkpt lat="41.871006" lon="2.364074">
        <ele>771.6</ele>
        <time>2011-09-03T12:55:42Z</time>
      </trkpt>
      <trkpt lat="41.870770" lon="2.363748">
        <ele>772.6</ele>
        <time>2011-09-03T12:55:46Z</time>
      </trkpt>
      <trkpt lat="41.870498" lon="2.363473">
        <ele>769.7</ele>
        <time>2011-09-03T12:55:54Z</time>
      </trkpt>
      <trkpt lat="41.870440" lon="2.363510">
        <ele>769.7</ele>
        <time>2011-09-03T12:55:55Z</time>
      </trkpt>
      <trkpt lat="41.870333" lon="2.363547">
        <ele>769.2</ele>
        <time>2011-09-03T12:55:56Z</time>
      </trkpt>
      <trkpt lat="41.870195" lon="2.363579">
        <ele>767.8</ele>
        <time>2011-09-03T12:55:58Z</time>
      </trkpt>
      <trkpt lat="41.869922" lon="2.363514">
        <ele>764.4</ele>
        <time>2011-09-03T12:56:02Z</time>
      </trkpt>
      <trkpt lat="41.869788" lon="2.363473">
        <ele>763.4</ele>
        <time>2011-09-03T12:56:04Z</time>
      </trkpt>
      <trkpt lat="41.869603" lon="2.363582">
        <ele>760.5</ele>
        <time>2011-09-03T12:56:08Z</time>
      </trkpt>
      <trkpt lat="41.869513" lon="2.363745">
        <ele>760.1</ele>
        <time>2011-09-03T12:56:10Z</time>
      </trkpt>
      <trkpt lat="41.869343" lon="2.364003">
        <ele>759.1</ele>
        <time>2011-09-03T12:56:13Z</time>
      </trkpt>
      <trkpt lat="41.869142" lon="2.364208">
        <ele>758.1</ele>
        <time>2011-09-03T12:56:20Z</time>
      </trkpt>
      <trkpt lat="41.869068" lon="2.364334">
        <ele>758.1</ele>
        <time>2011-09-03T12:56:25Z</time>
      </trkpt>
      <trkpt lat="41.868960" lon="2.364475">
        <ele>758.1</ele>
        <time>2011-09-03T12:56:32Z</time>
      </trkpt>
      <trkpt lat="41.868962" lon="2.364468">
        <ele>758.1</ele>
        <time>2011-09-03T12:56:45Z</time>
      </trkpt>
      <trkpt lat="41.868991" lon="2.364440">
        <ele>758.1</ele>
        <time>2011-09-03T12:56:47Z</time>
      </trkpt>
      <trkpt lat="41.869125" lon="2.364173">
        <ele>758.6</ele>
        <time>2011-09-03T12:56:55Z</time>
      </trkpt>
      <trkpt lat="41.869028" lon="2.364232">
        <ele>760.1</ele>
        <time>2011-09-03T12:56:58Z</time>
      </trkpt>
      <trkpt lat="41.868782" lon="2.364424">
        <ele>764.4</ele>
        <time>2011-09-03T12:57:03Z</time>
      </trkpt>
      <trkpt lat="41.868611" lon="2.364631">
        <ele>768.2</ele>
        <time>2011-09-03T12:57:07Z</time>
      </trkpt>
      <trkpt lat="41.868575" lon="2.365048">
        <ele>773.0</ele>
        <time>2011-09-03T12:57:12Z</time>
      </trkpt>
      <trkpt lat="41.868529" lon="2.365529">
        <ele>778.8</ele>
        <time>2011-09-03T12:57:20Z</time>
      </trkpt>
      <trkpt lat="41.868487" lon="2.365519">
        <ele>779.8</ele>
        <time>2011-09-03T12:57:21Z</time>
      </trkpt>
      <trkpt lat="41.868256" lon="2.365397">
        <ele>781.2</ele>
        <time>2011-09-03T12:57:24Z</time>
      </trkpt>
      <trkpt lat="41.867853" lon="2.365537">
        <ele>781.7</ele>
        <time>2011-09-03T12:57:30Z</time>
      </trkpt>
      <trkpt lat="41.867679" lon="2.365703">
        <ele>783.1</ele>
        <time>2011-09-03T12:57:33Z</time>
      </trkpt>
      <trkpt lat="41.867500" lon="2.366027">
        <ele>783.1</ele>
        <time>2011-09-03T12:57:36Z</time>
      </trkpt>
      <trkpt lat="41.867137" lon="2.366088">
        <ele>784.6</ele>
        <time>2011-09-03T12:57:42Z</time>
      </trkpt>
      <trkpt lat="41.867059" lon="2.366023">
        <ele>784.6</ele>
        <time>2011-09-03T12:57:43Z</time>
      </trkpt>
      <trkpt lat="41.866792" lon="2.366046">
        <ele>785.1</ele>
        <time>2011-09-03T12:57:48Z</time>
      </trkpt>
      <trkpt lat="41.866673" lon="2.366491">
        <ele>785.1</ele>
        <time>2011-09-03T12:57:52Z</time>
      </trkpt>
      <trkpt lat="41.866431" lon="2.366973">
        <ele>785.1</ele>
        <time>2011-09-03T12:57:58Z</time>
      </trkpt>
      <trkpt lat="41.866235" lon="2.367023">
        <ele>784.1</ele>
        <time>2011-09-03T12:58:00Z</time>
      </trkpt>
      <trkpt lat="41.865785" lon="2.367312">
        <ele>781.2</ele>
        <time>2011-09-03T12:58:08Z</time>
      </trkpt>
      <trkpt lat="41.865599" lon="2.367503">
        <ele>779.3</ele>
        <time>2011-09-03T12:58:13Z</time>
      </trkpt>
      <trkpt lat="41.865291" lon="2.367683">
        <ele>778.3</ele>
        <time>2011-09-03T12:58:19Z</time>
      </trkpt>
      <trkpt lat="41.865130" lon="2.367735">
        <ele>776.9</ele>
        <time>2011-09-03T12:58:21Z</time>
      </trkpt>
      <trkpt lat="41.864835" lon="2.368138">
        <ele>775.9</ele>
        <time>2011-09-03T12:58:26Z</time>
      </trkpt>
      <trkpt lat="41.864670" lon="2.368521">
        <ele>776.4</ele>
        <time>2011-09-03T12:58:30Z</time>
      </trkpt>
      <trkpt lat="41.864541" lon="2.368636">
        <ele>775.0</ele>
        <time>2011-09-03T12:58:33Z</time>
      </trkpt>
      <trkpt lat="41.864387" lon="2.368758">
        <ele>773.5</ele>
        <time>2011-09-03T12:58:38Z</time>
      </trkpt>
      <trkpt lat="41.864302" lon="2.368885">
        <ele>772.6</ele>
        <time>2011-09-03T12:58:43Z</time>
      </trkpt>
      <trkpt lat="41.864089" lon="2.368950">
        <ele>769.7</ele>
        <time>2011-09-03T12:58:47Z</time>
      </trkpt>
      <trkpt lat="41.863814" lon="2.368768">
        <ele>766.8</ele>
        <time>2011-09-03T12:58:52Z</time>
      </trkpt>
      <trkpt lat="41.863537" lon="2.368549">
        <ele>762.0</ele>
        <time>2011-09-03T12:58:59Z</time>
      </trkpt>
      <trkpt lat="41.863442" lon="2.368733">
        <ele>760.1</ele>
        <time>2011-09-03T12:59:04Z</time>
      </trkpt>
      <trkpt lat="41.863408" lon="2.368949">
        <ele>760.1</ele>
        <time>2011-09-03T12:59:09Z</time>
      </trkpt>
      <trkpt lat="41.863231" lon="2.369300">
        <ele>762.0</ele>
        <time>2011-09-03T12:59:16Z</time>
      </trkpt>
      <trkpt lat="41.863044" lon="2.369582">
        <ele>764.9</ele>
        <time>2011-09-03T12:59:21Z</time>
      </trkpt>
      <trkpt lat="41.862993" lon="2.369592">
        <ele>765.3</ele>
        <time>2011-09-03T12:59:22Z</time>
      </trkpt>
      <trkpt lat="41.862684" lon="2.369463">
        <ele>770.6</ele>
        <time>2011-09-03T12:59:28Z</time>
      </trkpt>
      <trkpt lat="41.862568" lon="2.369393">
        <ele>773.5</ele>
        <time>2011-09-03T12:59:31Z</time>
      </trkpt>
      <trkpt lat="41.862399" lon="2.369185">
        <ele>776.4</ele>
        <time>2011-09-03T12:59:34Z</time>
      </trkpt>
      <trkpt lat="41.862053" lon="2.369167">
        <ele>780.2</ele>
        <time>2011-09-03T12:59:38Z</time>
      </trkpt>
      <trkpt lat="41.862021" lon="2.369307">
        <ele>783.1</ele>
        <time>2011-09-03T12:59:40Z</time>
      </trkpt>
      <trkpt lat="41.861959" lon="2.369361">
        <ele>783.6</ele>
        <time>2011-09-03T12:59:41Z</time>
      </trkpt>
      <trkpt lat="41.861793" lon="2.369562">
        <ele>785.5</ele>
        <time>2011-09-03T12:59:43Z</time>
      </trkpt>
      <trkpt lat="41.861577" lon="2.369659">
        <ele>789.4</ele>
        <time>2011-09-03T12:59:48Z</time>
      </trkpt>
      <trkpt lat="41.861366" lon="2.369539">
        <ele>788.4</ele>
        <time>2011-09-03T12:59:51Z</time>
      </trkpt>
      <trkpt lat="41.861207" lon="2.369435">
        <ele>785.5</ele>
        <time>2011-09-03T12:59:54Z</time>
      </trkpt>
      <trkpt lat="41.861000" lon="2.369315">
        <ele>785.1</ele>
        <time>2011-09-03T12:59:58Z</time>
      </trkpt>
      <trkpt lat="41.860882" lon="2.369623">
        <ele>787.9</ele>
        <time>2011-09-03T13:00:03Z</time>
      </trkpt>
      <trkpt lat="41.860748" lon="2.369853">
        <ele>792.7</ele>
        <time>2011-09-03T13:00:07Z</time>
      </trkpt>
      <trkpt lat="41.860569" lon="2.370059">
        <ele>797.6</ele>
        <time>2011-09-03T13:00:12Z</time>
      </trkpt>
      <trkpt lat="41.860424" lon="2.369897">
        <ele>801.4</ele>
        <time>2011-09-03T13:00:15Z</time>
      </trkpt>
      <trkpt lat="41.860388" lon="2.369814">
        <ele>802.4</ele>
        <time>2011-09-03T13:00:16Z</time>
      </trkpt>
      <trkpt lat="41.860318" lon="2.369641">
        <ele>802.8</ele>
        <time>2011-09-03T13:00:18Z</time>
      </trkpt>
      <trkpt lat="41.860065" lon="2.369515">
        <ele>807.2</ele>
        <time>2011-09-03T13:00:24Z</time>
      </trkpt>
      <trkpt lat="41.859933" lon="2.369437">
        <ele>810.0</ele>
        <time>2011-09-03T13:00:26Z</time>
      </trkpt>
      <trkpt lat="41.859725" lon="2.369165">
        <ele>813.4</ele>
        <time>2011-09-03T13:00:30Z</time>
      </trkpt>
      <trkpt lat="41.859511" lon="2.369237">
        <ele>815.8</ele>
        <time>2011-09-03T13:00:34Z</time>
      </trkpt>
      <trkpt lat="41.859420" lon="2.369366">
        <ele>817.3</ele>
        <time>2011-09-03T13:00:37Z</time>
      </trkpt>
      <trkpt lat="41.859410" lon="2.369411">
        <ele>817.3</ele>
        <time>2011-09-03T13:00:44Z</time>
      </trkpt>
      <trkpt lat="41.859369" lon="2.369612">
        <ele>813.9</ele>
        <time>2011-09-03T13:00:49Z</time>
      </trkpt>
      <trkpt lat="41.859408" lon="2.369705">
        <ele>812.5</ele>
        <time>2011-09-03T13:00:51Z</time>
      </trkpt>
      <trkpt lat="41.859567" lon="2.369903">
        <ele>812.9</ele>
        <time>2011-09-03T13:00:54Z</time>
      </trkpt>
      <trkpt lat="41.859516" lon="2.370669">
        <ele>816.3</ele>
        <time>2011-09-03T13:01:02Z</time>
      </trkpt>
      <trkpt lat="41.859120" lon="2.370886">
        <ele>818.2</ele>
        <time>2011-09-03T13:01:06Z</time>
      </trkpt>
      <trkpt lat="41.858894" lon="2.370728">
        <ele>819.7</ele>
        <time>2011-09-03T13:01:09Z</time>
      </trkpt>
      <trkpt lat="41.858787" lon="2.370610">
        <ele>819.7</ele>
        <time>2011-09-03T13:01:11Z</time>
      </trkpt>
      <trkpt lat="41.858502" lon="2.370273">
        <ele>819.7</ele>
        <time>2011-09-03T13:01:17Z</time>
      </trkpt>
      <trkpt lat="41.858444" lon="2.370516">
        <ele>822.5</ele>
        <time>2011-09-03T13:01:22Z</time>
      </trkpt>
      <trkpt lat="41.858307" lon="2.371146">
        <ele>824.5</ele>
        <time>2011-09-03T13:01:29Z</time>
      </trkpt>
      <trkpt lat="41.858001" lon="2.371087">
        <ele>820.6</ele>
        <time>2011-09-03T13:01:32Z</time>
      </trkpt>
      <trkpt lat="41.857873" lon="2.371082">
        <ele>818.2</ele>
        <time>2011-09-03T13:01:35Z</time>
      </trkpt>
      <trkpt lat="41.857859" lon="2.371225">
        <ele>819.2</ele>
        <time>2011-09-03T13:01:37Z</time>
      </trkpt>
      <trkpt lat="41.857781" lon="2.371730">
        <ele>821.1</ele>
        <time>2011-09-03T13:01:42Z</time>
      </trkpt>
      <trkpt lat="41.857710" lon="2.371959">
        <ele>823.5</ele>
        <time>2011-09-03T13:01:46Z</time>
      </trkpt>
      <trkpt lat="41.857531" lon="2.371831">
        <ele>824.5</ele>
        <time>2011-09-03T13:01:49Z</time>
      </trkpt>
      <trkpt lat="41.857410" lon="2.371733">
        <ele>826.4</ele>
        <time>2011-09-03T13:01:51Z</time>
      </trkpt>
      <trkpt lat="41.857187" lon="2.371429">
        <ele>832.2</ele>
        <time>2011-09-03T13:01:56Z</time>
      </trkpt>
      <trkpt lat="41.856748" lon="2.371395">
        <ele>836.5</ele>
        <time>2011-09-03T13:02:03Z</time>
      </trkpt>
      <trkpt lat="41.856686" lon="2.371406">
        <ele>836.5</ele>
        <time>2011-09-03T13:02:04Z</time>
      </trkpt>
      <trkpt lat="41.856563" lon="2.371943">
        <ele>838.4</ele>
        <time>2011-09-03T13:02:09Z</time>
      </trkpt>
      <trkpt lat="41.856457" lon="2.372335">
        <ele>838.9</ele>
        <time>2011-09-03T13:02:12Z</time>
      </trkpt>
      <trkpt lat="41.856099" lon="2.372519">
        <ele>836.5</ele>
        <time>2011-09-03T13:02:18Z</time>
      </trkpt>
      <trkpt lat="41.855838" lon="2.372319">
        <ele>836.0</ele>
        <time>2011-09-03T13:02:23Z</time>
      </trkpt>
      <trkpt lat="41.855793" lon="2.372066">
        <ele>835.5</ele>
        <time>2011-09-03T13:02:29Z</time>
      </trkpt>
      <trkpt lat="41.855792" lon="2.372062">
        <ele>835.0</ele>
        <time>2011-09-03T13:03:06Z</time>
      </trkpt>
      <trkpt lat="41.855700" lon="2.372233">
        <ele>835.0</ele>
        <time>2011-09-03T13:03:10Z</time>
      </trkpt>
      <trkpt lat="41.855357" lon="2.372536">
        <ele>835.5</ele>
        <time>2011-09-03T13:03:16Z</time>
      </trkpt>
      <trkpt lat="41.855336" lon="2.372536">
        <ele>835.5</ele>
        <time>2011-09-03T13:03:20Z</time>
      </trkpt>
      <trkpt lat="41.855279" lon="2.372677">
        <ele>836.0</ele>
        <time>2011-09-03T13:03:24Z</time>
      </trkpt>
      <trkpt lat="41.855072" lon="2.373345">
        <ele>840.3</ele>
        <time>2011-09-03T13:03:32Z</time>
      </trkpt>
      <trkpt lat="41.854925" lon="2.373564">
        <ele>842.7</ele>
        <time>2011-09-03T13:03:36Z</time>
      </trkpt>
      <trkpt lat="41.854889" lon="2.373667">
        <ele>844.2</ele>
        <time>2011-09-03T13:03:38Z</time>
      </trkpt>
      <trkpt lat="41.854862" lon="2.373811">
        <ele>847.1</ele>
        <time>2011-09-03T13:03:40Z</time>
      </trkpt>
      <trkpt lat="41.854747" lon="2.374090">
        <ele>850.9</ele>
        <time>2011-09-03T13:03:45Z</time>
      </trkpt>
      <trkpt lat="41.854619" lon="2.374223">
        <ele>852.8</ele>
        <time>2011-09-03T13:03:48Z</time>
      </trkpt>
      <trkpt lat="41.854433" lon="2.374610">
        <ele>853.3</ele>
        <time>2011-09-03T13:03:53Z</time>
      </trkpt>
      <trkpt lat="41.854411" lon="2.374896">
        <ele>855.2</ele>
        <time>2011-09-03T13:03:57Z</time>
      </trkpt>
      <trkpt lat="41.854426" lon="2.374970">
        <ele>855.2</ele>
        <time>2011-09-03T13:03:58Z</time>
      </trkpt>
      <trkpt lat="41.854466" lon="2.375133">
        <ele>856.2</ele>
        <time>2011-09-03T13:04:00Z</time>
      </trkpt>
      <trkpt lat="41.854434" lon="2.375778">
        <ele>857.2</ele>
        <time>2011-09-03T13:04:08Z</time>
      </trkpt>
      <trkpt lat="41.854426" lon="2.375830">
        <ele>856.2</ele>
        <time>2011-09-03T13:04:09Z</time>
      </trkpt>
      <trkpt lat="41.854364" lon="2.376025">
        <ele>854.3</ele>
        <time>2011-09-03T13:04:12Z</time>
      </trkpt>
      <trkpt lat="41.854335" lon="2.376128">
        <ele>853.3</ele>
        <time>2011-09-03T13:04:14Z</time>
      </trkpt>
      <trkpt lat="41.854314" lon="2.376333">
        <ele>851.4</ele>
        <time>2011-09-03T13:04:18Z</time>
      </trkpt>
      <trkpt lat="41.854299" lon="2.376541">
        <ele>847.5</ele>
        <time>2011-09-03T13:04:22Z</time>
      </trkpt>
      <trkpt lat="41.854339" lon="2.376773">
        <ele>846.1</ele>
        <time>2011-09-03T13:04:25Z</time>
      </trkpt>
      <trkpt lat="41.854256" lon="2.377097">
        <ele>843.7</ele>
        <time>2011-09-03T13:04:30Z</time>
      </trkpt>
      <trkpt lat="41.854207" lon="2.377359">
        <ele>842.3</ele>
        <time>2011-09-03T13:04:33Z</time>
      </trkpt>
      <trkpt lat="41.854078" lon="2.377607">
        <ele>840.3</ele>
        <time>2011-09-03T13:04:38Z</time>
      </trkpt>
      <trkpt lat="41.853754" lon="2.377838">
        <ele>835.5</ele>
        <time>2011-09-03T13:04:46Z</time>
      </trkpt>
      <trkpt lat="41.853658" lon="2.378003">
        <ele>835.0</ele>
        <time>2011-09-03T13:04:48Z</time>
      </trkpt>
      <trkpt lat="41.853425" lon="2.378396">
        <ele>833.1</ele>
        <time>2011-09-03T13:04:54Z</time>
      </trkpt>
      <trkpt lat="41.853363" lon="2.378657">
        <ele>831.2</ele>
        <time>2011-09-03T13:04:59Z</time>
      </trkpt>
      <trkpt lat="41.853369" lon="2.378688">
        <ele>831.2</ele>
        <time>2011-09-03T13:05:13Z</time>
      </trkpt>
      <trkpt lat="41.853369" lon="2.378695">
        <ele>831.7</ele>
        <time>2011-09-03T13:05:36Z</time>
      </trkpt>
      <trkpt lat="41.853368" lon="2.379012">
        <ele>832.2</ele>
        <time>2011-09-03T13:05:41Z</time>
      </trkpt>
      <trkpt lat="41.853328" lon="2.379218">
        <ele>830.7</ele>
        <time>2011-09-03T13:05:43Z</time>
      </trkpt>
      <trkpt lat="41.853008" lon="2.379695">
        <ele>829.3</ele>
        <time>2011-09-03T13:05:50Z</time>
      </trkpt>
      <trkpt lat="41.852875" lon="2.379774">
        <ele>828.3</ele>
        <time>2011-09-03T13:05:52Z</time>
      </trkpt>
      <trkpt lat="41.852678" lon="2.379951">
        <ele>828.3</ele>
        <time>2011-09-03T13:05:55Z</time>
      </trkpt>
      <trkpt lat="41.852419" lon="2.380171">
        <ele>826.9</ele>
        <time>2011-09-03T13:05:59Z</time>
      </trkpt>
      <trkpt lat="41.852296" lon="2.380264">
        <ele>826.4</ele>
        <time>2011-09-03T13:06:01Z</time>
      </trkpt>
      <trkpt lat="41.852183" lon="2.380609">
        <ele>822.5</ele>
        <time>2011-09-03T13:06:05Z</time>
      </trkpt>
      <trkpt lat="41.851941" lon="2.380876">
        <ele>820.1</ele>
        <time>2011-09-03T13:06:09Z</time>
      </trkpt>
      <trkpt lat="41.851837" lon="2.380899">
        <ele>819.7</ele>
        <time>2011-09-03T13:06:10Z</time>
      </trkpt>
      <trkpt lat="41.851353" lon="2.381171">
        <ele>819.2</ele>
        <time>2011-09-03T13:06:16Z</time>
      </trkpt>
      <trkpt lat="41.850777" lon="2.382269">
        <ele>822.5</ele>
        <time>2011-09-03T13:06:27Z</time>
      </trkpt>
      <trkpt lat="41.850634" lon="2.382652">
        <ele>822.5</ele>
        <time>2011-09-03T13:06:30Z</time>
      </trkpt>
      <trkpt lat="41.850520" lon="2.383123">
        <ele>820.6</ele>
        <time>2011-09-03T13:06:34Z</time>
      </trkpt>
      <trkpt lat="41.850406" lon="2.383410">
        <ele>819.2</ele>
        <time>2011-09-03T13:06:37Z</time>
      </trkpt>
      <trkpt lat="41.850162" lon="2.383766">
        <ele>815.3</ele>
        <time>2011-09-03T13:06:41Z</time>
      </trkpt>
      <trkpt lat="41.849888" lon="2.384117">
        <ele>812.0</ele>
        <time>2011-09-03T13:06:45Z</time>
      </trkpt>
      <trkpt lat="41.849774" lon="2.384380">
        <ele>810.0</ele>
        <time>2011-09-03T13:06:48Z</time>
      </trkpt>
      <trkpt lat="41.849825" lon="2.385165">
        <ele>807.6</ele>
        <time>2011-09-03T13:06:54Z</time>
      </trkpt>
      <trkpt lat="41.849879" lon="2.386849">
        <ele>808.1</ele>
        <time>2011-09-03T13:07:06Z</time>
      </trkpt>
      <trkpt lat="41.849731" lon="2.387892">
        <ele>807.2</ele>
        <time>2011-09-03T13:07:15Z</time>
      </trkpt>
      <trkpt lat="41.849594" lon="2.388450">
        <ele>804.8</ele>
        <time>2011-09-03T13:07:21Z</time>
      </trkpt>
      <trkpt lat="41.849253" lon="2.388966">
        <ele>801.4</ele>
        <time>2011-09-03T13:07:28Z</time>
      </trkpt>
      <trkpt lat="41.849160" lon="2.389041">
        <ele>800.4</ele>
        <time>2011-09-03T13:07:33Z</time>
      </trkpt>
      <trkpt lat="41.849186" lon="2.389474">
        <ele>801.9</ele>
        <time>2011-09-03T13:07:40Z</time>
      </trkpt>
      <trkpt lat="41.849143" lon="2.389575">
        <ele>802.8</ele>
        <time>2011-09-03T13:07:41Z</time>
      </trkpt>
      <trkpt lat="41.848723" lon="2.390435">
        <ele>805.7</ele>
        <time>2011-09-03T13:07:50Z</time>
      </trkpt>
      <trkpt lat="41.848923" lon="2.391055">
        <ele>807.2</ele>
        <time>2011-09-03T13:08:00Z</time>
      </trkpt>
      <trkpt lat="41.849038" lon="2.390972">
        <ele>806.7</ele>
        <time>2011-09-03T13:08:35Z</time>
      </trkpt>
      <trkpt lat="41.849259" lon="2.390746">
        <ele>802.4</ele>
        <time>2011-09-03T13:08:40Z</time>
      </trkpt>
      <trkpt lat="41.849363" lon="2.390927">
        <ele>799.0</ele>
        <time>2011-09-03T13:08:44Z</time>
      </trkpt>
      <trkpt lat="41.849547" lon="2.390999">
        <ele>795.6</ele>
        <time>2011-09-03T13:08:47Z</time>
      </trkpt>
      <trkpt lat="41.849626" lon="2.390998">
        <ele>794.7</ele>
        <time>2011-09-03T13:08:48Z</time>
      </trkpt>
      <trkpt lat="41.850107" lon="2.391057">
        <ele>790.3</ele>
        <time>2011-09-03T13:08:54Z</time>
      </trkpt>
      <trkpt lat="41.850364" lon="2.391297">
        <ele>785.5</ele>
        <time>2011-09-03T13:08:59Z</time>
      </trkpt>
      <trkpt lat="41.850432" lon="2.391325">
        <ele>784.6</ele>
        <time>2011-09-03T13:09:01Z</time>
      </trkpt>
      <trkpt lat="41.850706" lon="2.391151">
        <ele>780.7</ele>
        <time>2011-09-03T13:09:06Z</time>
      </trkpt>
      <trkpt lat="41.850871" lon="2.391129">
        <ele>779.3</ele>
        <time>2011-09-03T13:09:08Z</time>
      </trkpt>
      <trkpt lat="41.850947" lon="2.391137">
        <ele>778.3</ele>
        <time>2011-09-03T13:09:09Z</time>
      </trkpt>
      <trkpt lat="41.851204" lon="2.391142">
        <ele>775.4</ele>
        <time>2011-09-03T13:09:12Z</time>
      </trkpt>
      <trkpt lat="41.851571" lon="2.391243">
        <ele>771.1</ele>
        <time>2011-09-03T13:09:16Z</time>
      </trkpt>
      <trkpt lat="41.851957" lon="2.391408">
        <ele>767.8</ele>
        <time>2011-09-03T13:09:20Z</time>
      </trkpt>
      <trkpt lat="41.852267" lon="2.391514">
        <ele>764.4</ele>
        <time>2011-09-03T13:09:24Z</time>
      </trkpt>
      <trkpt lat="41.852314" lon="2.391527">
        <ele>763.4</ele>
        <time>2011-09-03T13:09:25Z</time>
      </trkpt>
      <trkpt lat="41.852229" lon="2.391877">
        <ele>762.9</ele>
        <time>2011-09-03T13:09:32Z</time>
      </trkpt>
      <trkpt lat="41.852292" lon="2.392086">
        <ele>762.0</ele>
        <time>2011-09-03T13:09:35Z</time>
      </trkpt>
      <trkpt lat="41.852389" lon="2.392219">
        <ele>761.5</ele>
        <time>2011-09-03T13:09:37Z</time>
      </trkpt>
      <trkpt lat="41.852475" lon="2.392508">
        <ele>758.1</ele>
        <time>2011-09-03T13:09:42Z</time>
      </trkpt>
      <trkpt lat="41.852485" lon="2.392572">
        <ele>758.6</ele>
        <time>2011-09-03T13:09:43Z</time>
      </trkpt>
      <trkpt lat="41.852507" lon="2.392625">
        <ele>759.1</ele>
        <time>2011-09-03T13:09:44Z</time>
      </trkpt>
      <trkpt lat="41.852552" lon="2.392712">
        <ele>759.6</ele>
        <time>2011-09-03T13:09:46Z</time>
      </trkpt>
      <trkpt lat="41.852570" lon="2.392878">
        <ele>759.6</ele>
        <time>2011-09-03T13:09:49Z</time>
      </trkpt>
      <trkpt lat="41.852564" lon="2.393121">
        <ele>759.1</ele>
        <time>2011-09-03T13:09:52Z</time>
      </trkpt>
      <trkpt lat="41.852574" lon="2.393296">
        <ele>759.1</ele>
        <time>2011-09-03T13:09:54Z</time>
      </trkpt>
      <trkpt lat="41.852647" lon="2.393726">
        <ele>759.1</ele>
        <time>2011-09-03T13:09:58Z</time>
      </trkpt>
      <trkpt lat="41.852634" lon="2.394477">
        <ele>761.0</ele>
        <time>2011-09-03T13:10:04Z</time>
      </trkpt>
      <trkpt lat="41.852607" lon="2.394750">
        <ele>762.5</ele>
        <time>2011-09-03T13:10:07Z</time>
      </trkpt>
      <trkpt lat="41.852555" lon="2.395139">
        <ele>764.9</ele>
        <time>2011-09-03T13:10:10Z</time>
      </trkpt>
      <trkpt lat="41.852502" lon="2.395801">
        <ele>769.7</ele>
        <time>2011-09-03T13:10:16Z</time>
      </trkpt>
      <trkpt lat="41.852491" lon="2.395988">
        <ele>770.6</ele>
        <time>2011-09-03T13:10:18Z</time>
      </trkpt>
      <trkpt lat="41.852431" lon="2.396493">
        <ele>770.2</ele>
        <time>2011-09-03T13:10:23Z</time>
      </trkpt>
      <trkpt lat="41.852329" lon="2.396656">
        <ele>771.1</ele>
        <time>2011-09-03T13:10:25Z</time>
      </trkpt>
      <trkpt lat="41.852154" lon="2.396995">
        <ele>771.6</ele>
        <time>2011-09-03T13:10:29Z</time>
      </trkpt>
      <trkpt lat="41.852066" lon="2.397108">
        <ele>772.1</ele>
        <time>2011-09-03T13:10:31Z</time>
      </trkpt>
      <trkpt lat="41.851988" lon="2.397152">
        <ele>771.6</ele>
        <time>2011-09-03T13:10:33Z</time>
      </trkpt>
      <trkpt lat="41.851927" lon="2.397179">
        <ele>771.1</ele>
        <time>2011-09-03T13:10:36Z</time>
      </trkpt>
      <trkpt lat="41.852131" lon="2.397398">
        <ele>772.6</ele>
        <time>2011-09-03T13:10:45Z</time>
      </trkpt>
      <trkpt lat="41.852240" lon="2.397674">
        <ele>773.5</ele>
        <time>2011-09-03T13:10:49Z</time>
      </trkpt>
      <trkpt lat="41.852233" lon="2.398078">
        <ele>774.0</ele>
        <time>2011-09-03T13:10:53Z</time>
      </trkpt>
      <trkpt lat="41.852190" lon="2.398432">
        <ele>778.3</ele>
        <time>2011-09-03T13:10:57Z</time>
      </trkpt>
      <trkpt lat="41.852085" lon="2.398757">
        <ele>779.3</ele>
        <time>2011-09-03T13:11:01Z</time>
      </trkpt>
      <trkpt lat="41.852139" lon="2.399101">
        <ele>778.8</ele>
        <time>2011-09-03T13:11:07Z</time>
      </trkpt>
      <trkpt lat="41.852294" lon="2.398999">
        <ele>779.8</ele>
        <time>2011-09-03T13:11:10Z</time>
      </trkpt>
      <trkpt lat="41.852888" lon="2.398793">
        <ele>783.6</ele>
        <time>2011-09-03T13:11:18Z</time>
      </trkpt>
      <trkpt lat="41.852982" lon="2.398721">
        <ele>783.1</ele>
        <time>2011-09-03T13:11:20Z</time>
      </trkpt>
      <trkpt lat="41.853022" lon="2.398627">
        <ele>782.7</ele>
        <time>2011-09-03T13:11:22Z</time>
      </trkpt>
      <trkpt lat="41.853038" lon="2.398178">
        <ele>782.7</ele>
        <time>2011-09-03T13:11:27Z</time>
      </trkpt>
      <trkpt lat="41.853096" lon="2.398101">
        <ele>783.1</ele>
        <time>2011-09-03T13:11:28Z</time>
      </trkpt>
      <trkpt lat="41.853312" lon="2.397891">
        <ele>784.1</ele>
        <time>2011-09-03T13:11:31Z</time>
      </trkpt>
      <trkpt lat="41.853773" lon="2.397821">
        <ele>787.0</ele>
        <time>2011-09-03T13:11:37Z</time>
      </trkpt>
      <trkpt lat="41.853919" lon="2.397874">
        <ele>787.9</ele>
        <time>2011-09-03T13:11:39Z</time>
      </trkpt>
      <trkpt lat="41.854257" lon="2.397848">
        <ele>790.3</ele>
        <time>2011-09-03T13:11:44Z</time>
      </trkpt>
      <trkpt lat="41.854379" lon="2.397954">
        <ele>792.3</ele>
        <time>2011-09-03T13:11:47Z</time>
      </trkpt>
      <trkpt lat="41.854474" lon="2.398088">
        <ele>794.7</ele>
        <time>2011-09-03T13:11:49Z</time>
      </trkpt>
      <trkpt lat="41.854671" lon="2.398360">
        <ele>798.0</ele>
        <time>2011-09-03T13:11:52Z</time>
      </trkpt>
      <trkpt lat="41.854947" lon="2.398591">
        <ele>803.3</ele>
        <time>2011-09-03T13:11:56Z</time>
      </trkpt>
      <trkpt lat="41.855267" lon="2.398523">
        <ele>808.6</ele>
        <time>2011-09-03T13:12:00Z</time>
      </trkpt>
      <trkpt lat="41.855525" lon="2.398264">
        <ele>811.0</ele>
        <time>2011-09-03T13:12:04Z</time>
      </trkpt>
      <trkpt lat="41.855838" lon="2.397985">
        <ele>815.3</ele>
        <time>2011-09-03T13:12:08Z</time>
      </trkpt>
      <trkpt lat="41.856163" lon="2.397676">
        <ele>819.2</ele>
        <time>2011-09-03T13:12:12Z</time>
      </trkpt>
      <trkpt lat="41.856233" lon="2.397616">
        <ele>820.1</ele>
        <time>2011-09-03T13:12:13Z</time>
      </trkpt>
      <trkpt lat="41.856492" lon="2.397566">
        <ele>821.1</ele>
        <time>2011-09-03T13:12:17Z</time>
      </trkpt>
      <trkpt lat="41.856656" lon="2.397606">
        <ele>821.6</ele>
        <time>2011-09-03T13:12:19Z</time>
      </trkpt>
      <trkpt lat="41.856885" lon="2.397748">
        <ele>824.5</ele>
        <time>2011-09-03T13:12:22Z</time>
      </trkpt>
      <trkpt lat="41.857102" lon="2.398214">
        <ele>827.4</ele>
        <time>2011-09-03T13:12:28Z</time>
      </trkpt>
      <trkpt lat="41.857113" lon="2.398351">
        <ele>828.3</ele>
        <time>2011-09-03T13:12:32Z</time>
      </trkpt>
      <trkpt lat="41.857130" lon="2.398404">
        <ele>829.3</ele>
        <time>2011-09-03T13:12:42Z</time>
      </trkpt>
      <trkpt lat="41.857130" lon="2.398406">
        <ele>829.8</ele>
        <time>2011-09-03T13:12:48Z</time>
      </trkpt>
      <trkpt lat="41.857093" lon="2.398496">
        <ele>830.2</ele>
        <time>2011-09-03T13:12:51Z</time>
      </trkpt>
      <trkpt lat="41.856964" lon="2.398688">
        <ele>831.7</ele>
        <time>2011-09-03T13:12:54Z</time>
      </trkpt>
      <trkpt lat="41.856861" lon="2.398796">
        <ele>831.7</ele>
        <time>2011-09-03T13:12:56Z</time>
      </trkpt>
      <trkpt lat="41.856810" lon="2.399169">
        <ele>835.5</ele>
        <time>2011-09-03T13:13:01Z</time>
      </trkpt>
      <trkpt lat="41.856901" lon="2.399467">
        <ele>836.5</ele>
        <time>2011-09-03T13:13:04Z</time>
      </trkpt>
      <trkpt lat="41.856920" lon="2.400184">
        <ele>836.5</ele>
        <time>2011-09-03T13:13:12Z</time>
      </trkpt>
      <trkpt lat="41.856828" lon="2.400357">
        <ele>834.1</ele>
        <time>2011-09-03T13:13:14Z</time>
      </trkpt>
      <trkpt lat="41.856729" lon="2.400624">
        <ele>832.6</ele>
        <time>2011-09-03T13:13:17Z</time>
      </trkpt>
      <trkpt lat="41.856716" lon="2.400792">
        <ele>831.7</ele>
        <time>2011-09-03T13:13:19Z</time>
      </trkpt>
      <trkpt lat="41.856328" lon="2.401139">
        <ele>831.2</ele>
        <time>2011-09-03T13:13:26Z</time>
      </trkpt>
      <trkpt lat="41.856100" lon="2.401328">
        <ele>829.3</ele>
        <time>2011-09-03T13:13:29Z</time>
      </trkpt>
      <trkpt lat="41.855854" lon="2.401518">
        <ele>827.4</ele>
        <time>2011-09-03T13:13:33Z</time>
      </trkpt>
      <trkpt lat="41.855746" lon="2.401519">
        <ele>826.4</ele>
        <time>2011-09-03T13:13:35Z</time>
      </trkpt>
      <trkpt lat="41.855581" lon="2.401642">
        <ele>824.5</ele>
        <time>2011-09-03T13:13:39Z</time>
      </trkpt>
      <trkpt lat="41.855604" lon="2.401778">
        <ele>824.0</ele>
        <time>2011-09-03T13:13:41Z</time>
      </trkpt>
      <trkpt lat="41.855802" lon="2.402072">
        <ele>823.0</ele>
        <time>2011-09-03T13:13:47Z</time>
      </trkpt>
      <trkpt lat="41.856272" lon="2.402172">
        <ele>823.0</ele>
        <time>2011-09-03T13:13:53Z</time>
      </trkpt>
      <trkpt lat="41.856583" lon="2.402931">
        <ele>822.5</ele>
        <time>2011-09-03T13:13:59Z</time>
      </trkpt>
      <trkpt lat="41.856645" lon="2.403377">
        <ele>820.6</ele>
        <time>2011-09-03T13:14:03Z</time>
      </trkpt>
      <trkpt lat="41.856518" lon="2.403928">
        <ele>818.2</ele>
        <time>2011-09-03T13:14:08Z</time>
      </trkpt>
      <trkpt lat="41.856548" lon="2.404349">
        <ele>818.2</ele>
        <time>2011-09-03T13:14:15Z</time>
      </trkpt>
      <trkpt lat="41.856624" lon="2.404659">
        <ele>819.7</ele>
        <time>2011-09-03T13:14:18Z</time>
      </trkpt>
      <trkpt lat="41.856658" lon="2.404985">
        <ele>819.7</ele>
        <time>2011-09-03T13:14:21Z</time>
      </trkpt>
      <trkpt lat="41.857023" lon="2.405423">
        <ele>821.6</ele>
        <time>2011-09-03T13:14:27Z</time>
      </trkpt>
      <trkpt lat="41.857205" lon="2.405485">
        <ele>822.1</ele>
        <time>2011-09-03T13:14:29Z</time>
      </trkpt>
      <trkpt lat="41.857585" lon="2.405554">
        <ele>826.9</ele>
        <time>2011-09-03T13:14:34Z</time>
      </trkpt>
      <trkpt lat="41.857809" lon="2.405839">
        <ele>826.9</ele>
        <time>2011-09-03T13:14:37Z</time>
      </trkpt>
      <trkpt lat="41.857859" lon="2.406057">
        <ele>826.4</ele>
        <time>2011-09-03T13:14:39Z</time>
      </trkpt>
      <trkpt lat="41.857918" lon="2.406338">
        <ele>824.9</ele>
        <time>2011-09-03T13:14:41Z</time>
      </trkpt>
      <trkpt lat="41.857857" lon="2.406603">
        <ele>824.5</ele>
        <time>2011-09-03T13:14:44Z</time>
      </trkpt>
      <trkpt lat="41.857959" lon="2.406922">
        <ele>825.4</ele>
        <time>2011-09-03T13:14:48Z</time>
      </trkpt>
      <trkpt lat="41.858232" lon="2.407124">
        <ele>827.4</ele>
        <time>2011-09-03T13:14:52Z</time>
      </trkpt>
      <trkpt lat="41.858347" lon="2.407289">
        <ele>825.9</ele>
        <time>2011-09-03T13:14:54Z</time>
      </trkpt>
      <trkpt lat="41.858711" lon="2.407475">
        <ele>827.4</ele>
        <time>2011-09-03T13:14:58Z</time>
      </trkpt>
      <trkpt lat="41.859076" lon="2.407325">
        <ele>831.7</ele>
        <time>2011-09-03T13:15:02Z</time>
      </trkpt>
      <trkpt lat="41.859497" lon="2.407511">
        <ele>830.7</ele>
        <time>2011-09-03T13:15:08Z</time>
      </trkpt>
      <trkpt lat="41.859571" lon="2.407559">
        <ele>830.2</ele>
        <time>2011-09-03T13:15:14Z</time>
      </trkpt>
      <trkpt lat="41.859591" lon="2.407571">
        <ele>830.2</ele>
        <time>2011-09-03T13:15:15Z</time>
      </trkpt>
      <trkpt lat="41.859792" lon="2.407730">
        <ele>828.3</ele>
        <time>2011-09-03T13:15:19Z</time>
      </trkpt>
      <trkpt lat="41.859858" lon="2.407865">
        <ele>826.4</ele>
        <time>2011-09-03T13:15:21Z</time>
      </trkpt>
      <trkpt lat="41.860017" lon="2.408122">
        <ele>822.1</ele>
        <time>2011-09-03T13:15:25Z</time>
      </trkpt>
      <trkpt lat="41.860111" lon="2.408288">
        <ele>820.1</ele>
        <time>2011-09-03T13:15:27Z</time>
      </trkpt>
      <trkpt lat="41.860372" lon="2.408961">
        <ele>817.3</ele>
        <time>2011-09-03T13:15:33Z</time>
      </trkpt>
      <trkpt lat="41.860466" lon="2.409327">
        <ele>814.9</ele>
        <time>2011-09-03T13:15:37Z</time>
      </trkpt>
      <trkpt lat="41.860542" lon="2.409662">
        <ele>812.9</ele>
        <time>2011-09-03T13:15:41Z</time>
      </trkpt>
      <trkpt lat="41.860737" lon="2.410329">
        <ele>808.6</ele>
        <time>2011-09-03T13:15:50Z</time>
      </trkpt>
      <trkpt lat="41.860788" lon="2.410896">
        <ele>807.6</ele>
        <time>2011-09-03T13:15:55Z</time>
      </trkpt>
      <trkpt lat="41.860892" lon="2.411401">
        <ele>804.3</ele>
        <time>2011-09-03T13:16:00Z</time>
      </trkpt>
      <trkpt lat="41.860936" lon="2.412122">
        <ele>801.4</ele>
        <time>2011-09-03T13:16:08Z</time>
      </trkpt>
      <trkpt lat="41.860943" lon="2.412489">
        <ele>800.4</ele>
        <time>2011-09-03T13:16:11Z</time>
      </trkpt>
      <trkpt lat="41.861025" lon="2.412883">
        <ele>799.5</ele>
        <time>2011-09-03T13:16:15Z</time>
      </trkpt>
      <trkpt lat="41.861106" lon="2.413393">
        <ele>797.1</ele>
        <time>2011-09-03T13:16:20Z</time>
      </trkpt>
      <trkpt lat="41.861155" lon="2.413607">
        <ele>796.1</ele>
        <time>2011-09-03T13:16:22Z</time>
      </trkpt>
      <trkpt lat="41.861340" lon="2.414024">
        <ele>795.6</ele>
        <time>2011-09-03T13:16:26Z</time>
      </trkpt>
      <trkpt lat="41.861463" lon="2.414451">
        <ele>795.1</ele>
        <time>2011-09-03T13:16:30Z</time>
      </trkpt>
      <trkpt lat="41.861471" lon="2.414707">
        <ele>795.1</ele>
        <time>2011-09-03T13:16:32Z</time>
      </trkpt>
      <trkpt lat="41.861511" lon="2.415083">
        <ele>794.7</ele>
        <time>2011-09-03T13:16:35Z</time>
      </trkpt>
      <trkpt lat="41.861707" lon="2.415576">
        <ele>794.2</ele>
        <time>2011-09-03T13:16:39Z</time>
      </trkpt>
      <trkpt lat="41.861636" lon="2.416191">
        <ele>796.1</ele>
        <time>2011-09-03T13:16:45Z</time>
      </trkpt>
      <trkpt lat="41.861563" lon="2.416568">
        <ele>797.1</ele>
        <time>2011-09-03T13:16:49Z</time>
      </trkpt>
      <trkpt lat="41.861695" lon="2.417091">
        <ele>795.1</ele>
        <time>2011-09-03T13:16:53Z</time>
      </trkpt>
      <trkpt lat="41.861783" lon="2.417189">
        <ele>794.7</ele>
        <time>2011-09-03T13:16:55Z</time>
      </trkpt>
      <trkpt lat="41.861804" lon="2.417498">
        <ele>794.2</ele>
        <time>2011-09-03T13:16:58Z</time>
      </trkpt>
      <trkpt lat="41.861731" lon="2.417762">
        <ele>789.9</ele>
        <time>2011-09-03T13:17:01Z</time>
      </trkpt>
      <trkpt lat="41.861673" lon="2.417951">
        <ele>787.0</ele>
        <time>2011-09-03T13:17:03Z</time>
      </trkpt>
      <trkpt lat="41.861602" lon="2.418148">
        <ele>784.6</ele>
        <time>2011-09-03T13:17:05Z</time>
      </trkpt>
      <trkpt lat="41.861476" lon="2.418431">
        <ele>781.7</ele>
        <time>2011-09-03T13:17:08Z</time>
      </trkpt>
      <trkpt lat="41.861418" lon="2.418613">
        <ele>780.7</ele>
        <time>2011-09-03T13:17:10Z</time>
      </trkpt>
      <trkpt lat="41.861333" lon="2.418803">
        <ele>778.3</ele>
        <time>2011-09-03T13:17:12Z</time>
      </trkpt>
      <trkpt lat="41.861234" lon="2.419129">
        <ele>775.4</ele>
        <time>2011-09-03T13:17:15Z</time>
      </trkpt>
      <trkpt lat="41.861081" lon="2.419587">
        <ele>771.1</ele>
        <time>2011-09-03T13:17:20Z</time>
      </trkpt>
      <trkpt lat="41.861051" lon="2.420101">
        <ele>766.8</ele>
        <time>2011-09-03T13:17:24Z</time>
      </trkpt>
      <trkpt lat="41.860976" lon="2.420604">
        <ele>763.4</ele>
        <time>2011-09-03T13:17:29Z</time>
      </trkpt>
      <trkpt lat="41.860960" lon="2.420747">
        <ele>762.5</ele>
        <time>2011-09-03T13:17:31Z</time>
      </trkpt>
      <trkpt lat="41.860956" lon="2.420971">
        <ele>760.5</ele>
        <time>2011-09-03T13:17:34Z</time>
      </trkpt>
      <trkpt lat="41.860828" lon="2.421214">
        <ele>756.2</ele>
        <time>2011-09-03T13:17:38Z</time>
      </trkpt>
      <trkpt lat="41.860656" lon="2.421128">
        <ele>751.9</ele>
        <time>2011-09-03T13:17:42Z</time>
      </trkpt>
      <trkpt lat="41.860602" lon="2.421103">
        <ele>750.4</ele>
        <time>2011-09-03T13:17:43Z</time>
      </trkpt>
      <trkpt lat="41.860493" lon="2.421089">
        <ele>747.6</ele>
        <time>2011-09-03T13:17:46Z</time>
      </trkpt>
      <trkpt lat="41.860365" lon="2.421268">
        <ele>743.2</ele>
        <time>2011-09-03T13:17:52Z</time>
      </trkpt>
      <trkpt lat="41.860212" lon="2.421437">
        <ele>740.4</ele>
        <time>2011-09-03T13:17:57Z</time>
      </trkpt>
      <trkpt lat="41.860175" lon="2.421459">
        <ele>739.9</ele>
        <time>2011-09-03T13:17:58Z</time>
      </trkpt>
      <trkpt lat="41.860067" lon="2.421505">
        <ele>738.9</ele>
        <time>2011-09-03T13:18:00Z</time>
      </trkpt>
      <trkpt lat="41.859872" lon="2.421530">
        <ele>735.5</ele>
        <time>2011-09-03T13:18:04Z</time>
      </trkpt>
      <trkpt lat="41.859798" lon="2.421408">
        <ele>735.5</ele>
        <time>2011-09-03T13:18:07Z</time>
      </trkpt>
      <trkpt lat="41.859736" lon="2.421181">
        <ele>735.1</ele>
        <time>2011-09-03T13:18:10Z</time>
      </trkpt>
      <trkpt lat="41.859538" lon="2.421142">
        <ele>733.1</ele>
        <time>2011-09-03T13:18:17Z</time>
      </trkpt>
      <trkpt lat="41.859503" lon="2.421251">
        <ele>733.1</ele>
        <time>2011-09-03T13:18:19Z</time>
      </trkpt>
      <trkpt lat="41.859546" lon="2.421954">
        <ele>733.1</ele>
        <time>2011-09-03T13:18:24Z</time>
      </trkpt>
      <trkpt lat="41.859344" lon="2.422469">
        <ele>736.0</ele>
        <time>2011-09-03T13:18:30Z</time>
      </trkpt>
      <trkpt lat="41.859245" lon="2.422535">
        <ele>736.0</ele>
        <time>2011-09-03T13:18:31Z</time>
      </trkpt>
      <trkpt lat="41.859147" lon="2.422592">
        <ele>736.5</ele>
        <time>2011-09-03T13:18:32Z</time>
      </trkpt>
      <trkpt lat="41.858619" lon="2.422941">
        <ele>736.0</ele>
        <time>2011-09-03T13:18:41Z</time>
      </trkpt>
      <trkpt lat="41.858612" lon="2.422930">
        <ele>736.0</ele>
        <time>2011-09-03T13:18:52Z</time>
      </trkpt>
      <trkpt lat="41.858567" lon="2.422899">
        <ele>736.0</ele>
        <time>2011-09-03T13:22:07Z</time>
      </trkpt>
      <trkpt lat="41.858601" lon="2.423078">
        <ele>736.0</ele>
        <time>2011-09-03T13:22:10Z</time>
      </trkpt>
      <trkpt lat="41.858683" lon="2.423519">
        <ele>736.0</ele>
        <time>2011-09-03T13:22:14Z</time>
      </trkpt>
      <trkpt lat="41.858901" lon="2.423660">
        <ele>736.0</ele>
        <time>2011-09-03T13:22:19Z</time>
      </trkpt>
      <trkpt lat="41.875796" lon="2.403067">
        <ele>686.5</ele>
        <time>2011-09-06T19:39:58Z</time>
      </trkpt>
      <trkpt lat="41.876004" lon="2.402935">
        <ele>690.4</ele>
        <time>2011-09-06T19:39:55Z</time>
      </trkpt>
      <trkpt lat="41.876273" lon="2.402963">
        <ele>695.2</ele>
        <time>2011-09-06T19:39:50Z</time>
      </trkpt>
      <trkpt lat="41.876365" lon="2.403177">
        <ele>695.2</ele>
        <time>2011-09-06T19:39:44Z</time>
      </trkpt>
      <trkpt lat="41.876097" lon="2.403181">
        <ele>694.2</ele>
        <time>2011-09-06T19:39:37Z</time>
      </trkpt>
      <trkpt lat="41.876093" lon="2.403303">
        <ele>691.8</ele>
        <time>2011-09-06T19:39:34Z</time>
      </trkpt>
      <trkpt lat="41.876347" lon="2.403381">
        <ele>692.3</ele>
        <time>2011-09-06T19:39:29Z</time>
      </trkpt>
      <trkpt lat="41.876543" lon="2.403499">
        <ele>694.7</ele>
        <time>2011-09-06T19:39:25Z</time>
      </trkpt>
      <trkpt lat="41.876801" lon="2.404342">
        <ele>697.1</ele>
        <time>2011-09-06T19:39:13Z</time>
      </trkpt>
      <trkpt lat="41.877093" lon="2.404916">
        <ele>700.0</ele>
        <time>2011-09-06T19:39:04Z</time>
      </trkpt>
      <trkpt lat="41.877146" lon="2.405053">
        <ele>701.9</ele>
        <time>2011-09-06T19:39:02Z</time>
      </trkpt>
      <trkpt lat="41.877249" lon="2.405456">
        <ele>706.2</ele>
        <time>2011-09-06T19:38:56Z</time>
      </trkpt>
      <trkpt lat="41.877252" lon="2.405540">
        <ele>707.7</ele>
        <time>2011-09-06T19:38:54Z</time>
      </trkpt>
      <trkpt lat="41.877301" lon="2.405628">
        <ele>710.1</ele>
        <time>2011-09-06T19:38:50Z</time>
      </trkpt>
      <trkpt lat="41.877418" lon="2.405420">
        <ele>711.5</ele>
        <time>2011-09-06T19:38:45Z</time>
      </trkpt>
      <trkpt lat="41.877429" lon="2.405209">
        <ele>712.0</ele>
        <time>2011-09-06T19:38:42Z</time>
      </trkpt>
      <trkpt lat="41.877462" lon="2.404880">
        <ele>713.0</ele>
        <time>2011-09-06T19:38:38Z</time>
      </trkpt>
      <trkpt lat="41.877509" lon="2.404724">
        <ele>713.4</ele>
        <time>2011-09-06T19:38:36Z</time>
      </trkpt>
      <trkpt lat="41.877743" lon="2.404601">
        <ele>718.7</ele>
        <time>2011-09-06T19:38:30Z</time>
      </trkpt>
      <trkpt lat="41.877832" lon="2.404610">
        <ele>720.2</ele>
        <time>2011-09-06T19:38:28Z</time>
      </trkpt>
      <trkpt lat="41.877966" lon="2.404529">
        <ele>725.0</ele>
        <time>2011-09-06T19:38:23Z</time>
      </trkpt>
      <trkpt lat="41.877970" lon="2.404142">
        <ele>728.8</ele>
        <time>2011-09-06T19:38:18Z</time>
      </trkpt>
      <trkpt lat="41.878070" lon="2.403757">
        <ele>732.7</ele>
        <time>2011-09-06T19:38:14Z</time>
      </trkpt>
      <trkpt lat="41.878157" lon="2.403606">
        <ele>733.1</ele>
        <time>2011-09-06T19:38:12Z</time>
      </trkpt>
      <trkpt lat="41.878253" lon="2.403281">
        <ele>737.0</ele>
        <time>2011-09-06T19:38:08Z</time>
      </trkpt>
      <trkpt lat="41.878250" lon="2.402705">
        <ele>739.9</ele>
        <time>2011-09-06T19:38:02Z</time>
      </trkpt>
      <trkpt lat="41.878490" lon="2.402364">
        <ele>745.2</ele>
        <time>2011-09-06T19:37:56Z</time>
      </trkpt>
      <trkpt lat="41.878674" lon="2.402355">
        <ele>748.5</ele>
        <time>2011-09-06T19:37:53Z</time>
      </trkpt>
      <trkpt lat="41.879032" lon="2.402286">
        <ele>754.8</ele>
        <time>2011-09-06T19:37:48Z</time>
      </trkpt>
      <trkpt lat="41.879252" lon="2.402109">
        <ele>758.6</ele>
        <time>2011-09-06T19:37:44Z</time>
      </trkpt>
      <trkpt lat="41.879554" lon="2.401576">
        <ele>763.9</ele>
        <time>2011-09-06T19:37:37Z</time>
      </trkpt>
      <trkpt lat="41.879710" lon="2.401421">
        <ele>766.8</ele>
        <time>2011-09-06T19:37:34Z</time>
      </trkpt>
      <trkpt lat="41.879826" lon="2.401280">
        <ele>767.8</ele>
        <time>2011-09-06T19:37:31Z</time>
      </trkpt>
      <trkpt lat="41.879846" lon="2.401262">
        <ele>768.7</ele>
        <time>2011-09-06T19:37:20Z</time>
      </trkpt>
      <trkpt lat="41.880063" lon="2.401146">
        <ele>773.5</ele>
        <time>2011-09-06T19:37:13Z</time>
      </trkpt>
      <trkpt lat="41.880253" lon="2.401123">
        <ele>776.9</ele>
        <time>2011-09-06T19:37:10Z</time>
      </trkpt>
      <trkpt lat="41.880498" lon="2.401023">
        <ele>783.6</ele>
        <time>2011-09-06T19:37:06Z</time>
      </trkpt>
      <trkpt lat="41.880731" lon="2.401184">
        <ele>784.6</ele>
        <time>2011-09-06T19:37:01Z</time>
      </trkpt>
      <trkpt lat="41.880967" lon="2.401745">
        <ele>778.8</ele>
        <time>2011-09-06T19:36:57Z</time>
      </trkpt>
      <trkpt lat="41.881161" lon="2.402150">
        <ele>775.0</ele>
        <time>2011-09-06T19:36:53Z</time>
      </trkpt>
      <trkpt lat="41.881397" lon="2.402361">
        <ele>770.6</ele>
        <time>2011-09-06T19:36:49Z</time>
      </trkpt>
      <trkpt lat="41.881434" lon="2.402572">
        <ele>767.8</ele>
        <time>2011-09-06T19:36:47Z</time>
      </trkpt>
      <trkpt lat="41.881607" lon="2.402982">
        <ele>763.4</ele>
        <time>2011-09-06T19:36:42Z</time>
      </trkpt>
      <trkpt lat="41.882084" lon="2.403061">
        <ele>766.3</ele>
        <time>2011-09-06T19:36:36Z</time>
      </trkpt>
      <trkpt lat="41.882435" lon="2.403579">
        <ele>769.7</ele>
        <time>2011-09-06T19:36:29Z</time>
      </trkpt>
      <trkpt lat="41.882554" lon="2.403647">
        <ele>771.6</ele>
        <time>2011-09-06T19:36:27Z</time>
      </trkpt>
      <trkpt lat="41.882653" lon="2.403744">
        <ele>773.5</ele>
        <time>2011-09-06T19:36:25Z</time>
      </trkpt>
      <trkpt lat="41.882792" lon="2.403758">
        <ele>776.4</ele>
        <time>2011-09-06T19:36:20Z</time>
      </trkpt>
      <trkpt lat="41.882879" lon="2.403342">
        <ele>780.3</ele>
        <time>2011-09-06T19:36:15Z</time>
      </trkpt>
      <trkpt lat="41.882929" lon="2.402967">
        <ele>780.3</ele>
        <time>2011-09-06T19:36:12Z</time>
      </trkpt>
      <trkpt lat="41.882971" lon="2.402563">
        <ele>779.8</ele>
        <time>2011-09-06T19:36:08Z</time>
      </trkpt>
      <trkpt lat="41.882902" lon="2.402335">
        <ele>780.3</ele>
        <time>2011-09-06T19:36:05Z</time>
      </trkpt>
      <trkpt lat="41.882920" lon="2.401953">
        <ele>781.7</ele>
        <time>2011-09-06T19:36:01Z</time>
      </trkpt>
      <trkpt lat="41.882996" lon="2.401698">
        <ele>785.5</ele>
        <time>2011-09-06T19:35:58Z</time>
      </trkpt>
      <trkpt lat="41.883151" lon="2.401346">
        <ele>793.2</ele>
        <time>2011-09-06T19:35:53Z</time>
      </trkpt>
      <trkpt lat="41.883364" lon="2.401118">
        <ele>797.1</ele>
        <time>2011-09-06T19:35:49Z</time>
      </trkpt>
      <trkpt lat="41.883489" lon="2.400898">
        <ele>801.4</ele>
        <time>2011-09-06T19:35:46Z</time>
      </trkpt>
      <trkpt lat="41.883575" lon="2.400647">
        <ele>805.2</ele>
        <time>2011-09-06T19:35:43Z</time>
      </trkpt>
      <trkpt lat="41.883721" lon="2.400475">
        <ele>808.6</ele>
        <time>2011-09-06T19:35:39Z</time>
      </trkpt>
      <trkpt lat="41.883833" lon="2.400655">
        <ele>808.6</ele>
        <time>2011-09-06T19:35:36Z</time>
      </trkpt>
      <trkpt lat="41.883948" lon="2.400813">
        <ele>808.6</ele>
        <time>2011-09-06T19:35:33Z</time>
      </trkpt>
      <trkpt lat="41.884115" lon="2.401083">
        <ele>807.6</ele>
        <time>2011-09-06T19:35:29Z</time>
      </trkpt>
      <trkpt lat="41.884147" lon="2.401284">
        <ele>806.7</ele>
        <time>2011-09-06T19:35:27Z</time>
      </trkpt>
      <trkpt lat="41.884465" lon="2.401989">
        <ele>803.3</ele>
        <time>2011-09-06T19:35:19Z</time>
      </trkpt>
      <trkpt lat="41.884598" lon="2.402146">
        <ele>803.3</ele>
        <time>2011-09-06T19:35:17Z</time>
      </trkpt>
      <trkpt lat="41.884828" lon="2.402717">
        <ele>801.9</ele>
        <time>2011-09-06T19:35:10Z</time>
      </trkpt>
      <trkpt lat="41.884837" lon="2.403039">
        <ele>798.0</ele>
        <time>2011-09-06T19:35:06Z</time>
      </trkpt>
      <trkpt lat="41.885059" lon="2.403398">
        <ele>794.7</ele>
        <time>2011-09-06T19:35:01Z</time>
      </trkpt>
      <trkpt lat="41.885375" lon="2.403629">
        <ele>792.7</ele>
        <time>2011-09-06T19:34:56Z</time>
      </trkpt>
      <trkpt lat="41.885541" lon="2.403978">
        <ele>790.8</ele>
        <time>2011-09-06T19:34:51Z</time>
      </trkpt>
      <trkpt lat="41.885813" lon="2.404135">
        <ele>788.9</ele>
        <time>2011-09-06T19:34:46Z</time>
      </trkpt>
      <trkpt lat="41.886074" lon="2.404094">
        <ele>787.5</ele>
        <time>2011-09-06T19:34:43Z</time>
      </trkpt>
      <trkpt lat="41.886153" lon="2.404090">
        <ele>787.0</ele>
        <time>2011-09-06T19:34:42Z</time>
      </trkpt>
      <trkpt lat="41.886462" lon="2.403877">
        <ele>780.3</ele>
        <time>2011-09-06T19:34:33Z</time>
      </trkpt>
      <trkpt lat="41.886498" lon="2.403807">
        <ele>778.8</ele>
        <time>2011-09-06T19:33:42Z</time>
      </trkpt>
      <trkpt lat="41.886540" lon="2.403703">
        <ele>780.3</ele>
        <time>2011-09-06T19:33:34Z</time>
      </trkpt>
      <trkpt lat="41.886708" lon="2.403598">
        <ele>779.8</ele>
        <time>2011-09-06T19:33:29Z</time>
      </trkpt>
      <trkpt lat="41.886663" lon="2.404193">
        <ele>776.9</ele>
        <time>2011-09-06T19:33:24Z</time>
      </trkpt>
      <trkpt lat="41.886655" lon="2.404452">
        <ele>768.7</ele>
        <time>2011-09-06T19:33:22Z</time>
      </trkpt>
      <trkpt lat="41.886637" lon="2.404899">
        <ele>762.5</ele>
        <time>2011-09-06T19:33:16Z</time>
      </trkpt>
      <trkpt lat="41.886941" lon="2.404902">
        <ele>759.6</ele>
        <time>2011-09-06T19:33:12Z</time>
      </trkpt>
      <trkpt lat="41.887486" lon="2.405290">
        <ele>744.7</ele>
        <time>2011-09-06T19:33:07Z</time>
      </trkpt>
      <trkpt lat="41.887650" lon="2.405551">
        <ele>746.1</ele>
        <time>2011-09-06T19:33:05Z</time>
      </trkpt>
      <trkpt lat="41.887845" lon="2.405962">
        <ele>745.6</ele>
        <time>2011-09-06T19:33:00Z</time>
      </trkpt>
      <trkpt lat="41.887671" lon="2.406136">
        <ele>739.9</ele>
        <time>2011-09-06T19:32:56Z</time>
      </trkpt>
      <trkpt lat="41.887577" lon="2.406374">
        <ele>734.6</ele>
        <time>2011-09-06T19:32:53Z</time>
      </trkpt>
      <trkpt lat="41.887275" lon="2.406909">
        <ele>720.2</ele>
        <time>2011-09-06T19:32:44Z</time>
      </trkpt>
      <trkpt lat="41.887120" lon="2.407183">
        <ele>703.8</ele>
        <time>2011-09-06T19:32:35Z</time>
      </trkpt>
      <trkpt lat="41.887306" lon="2.407096">
        <ele>707.2</ele>
        <time>2011-09-06T19:32:29Z</time>
      </trkpt>
      <trkpt lat="41.887416" lon="2.406881">
        <ele>709.6</ele>
        <time>2011-09-06T19:32:25Z</time>
      </trkpt>
      <trkpt lat="41.887840" lon="2.406255">
        <ele>715.8</ele>
        <time>2011-09-06T19:32:16Z</time>
      </trkpt>
      <trkpt lat="41.887999" lon="2.406028">
        <ele>718.7</ele>
        <time>2011-09-06T19:32:12Z</time>
      </trkpt>
      <trkpt lat="41.888260" lon="2.405853">
        <ele>721.1</ele>
        <time>2011-09-06T19:32:09Z</time>
      </trkpt>
      <trkpt lat="41.888496" lon="2.405585">
        <ele>724.5</ele>
        <time>2011-09-06T19:32:05Z</time>
      </trkpt>
      <trkpt lat="41.888602" lon="2.405466">
        <ele>727.4</ele>
        <time>2011-09-06T19:32:03Z</time>
      </trkpt>
      <trkpt lat="41.888858" lon="2.405460">
        <ele>729.3</ele>
        <time>2011-09-06T19:31:59Z</time>
      </trkpt>
      <trkpt lat="41.889160" lon="2.405795">
        <ele>731.7</ele>
        <time>2011-09-06T19:31:54Z</time>
      </trkpt>
      <trkpt lat="41.889324" lon="2.406122">
        <ele>731.2</ele>
        <time>2011-09-06T19:31:51Z</time>
      </trkpt>
      <trkpt lat="41.889408" lon="2.406480">
        <ele>731.2</ele>
        <time>2011-09-06T19:31:48Z</time>
      </trkpt>
      <trkpt lat="41.889627" lon="2.407361">
        <ele>737.0</ele>
        <time>2011-09-06T19:31:40Z</time>
      </trkpt>
      <trkpt lat="41.889665" lon="2.407912">
        <ele>736.0</ele>
        <time>2011-09-06T19:31:33Z</time>
      </trkpt>
      <trkpt lat="41.889793" lon="2.408198">
        <ele>735.1</ele>
        <time>2011-09-06T19:31:27Z</time>
      </trkpt>
      <trkpt lat="41.889774" lon="2.408226">
        <ele>737.5</ele>
        <time>2011-09-06T19:31:25Z</time>
      </trkpt>
      <trkpt lat="41.889799" lon="2.408336">
        <ele>743.2</ele>
        <time>2011-09-06T19:31:21Z</time>
      </trkpt>
      <trkpt lat="41.889667" lon="2.408573">
        <ele>752.9</ele>
        <time>2011-09-06T19:31:16Z</time>
      </trkpt>
      <trkpt lat="41.889607" lon="2.408831">
        <ele>767.3</ele>
        <time>2011-09-06T19:31:12Z</time>
      </trkpt>
      <trkpt lat="41.889667" lon="2.409154">
        <ele>779.3</ele>
        <time>2011-09-06T19:31:08Z</time>
      </trkpt>
      <trkpt lat="41.889681" lon="2.409554">
        <ele>786.5</ele>
        <time>2011-09-06T19:31:03Z</time>
      </trkpt>
      <trkpt lat="41.889552" lon="2.409790">
        <ele>788.9</ele>
        <time>2011-09-06T19:30:59Z</time>
      </trkpt>
      <trkpt lat="41.889451" lon="2.409821">
        <ele>792.3</ele>
        <time>2011-09-06T19:30:57Z</time>
      </trkpt>
      <trkpt lat="41.889251" lon="2.410060">
        <ele>792.3</ele>
        <time>2011-09-06T19:30:53Z</time>
      </trkpt>
      <trkpt lat="41.888951" lon="2.410701">
        <ele>793.7</ele>
        <time>2011-09-06T19:30:46Z</time>
      </trkpt>
      <trkpt lat="41.888447" lon="2.411379">
        <ele>792.7</ele>
        <time>2011-09-06T19:30:37Z</time>
      </trkpt>
      <trkpt lat="41.888162" lon="2.411817">
        <ele>797.1</ele>
        <time>2011-09-06T19:30:32Z</time>
      </trkpt>
      <trkpt lat="41.887782" lon="2.412109">
        <ele>797.1</ele>
        <time>2011-09-06T19:30:27Z</time>
      </trkpt>
      <trkpt lat="41.887298" lon="2.412757">
        <ele>806.7</ele>
        <time>2011-09-06T19:30:19Z</time>
      </trkpt>
      <trkpt lat="41.887247" lon="2.413202">
        <ele>808.6</ele>
        <time>2011-09-06T19:30:15Z</time>
      </trkpt>
      <trkpt lat="41.887104" lon="2.413308">
        <ele>805.7</ele>
        <time>2011-09-06T19:30:12Z</time>
      </trkpt>
      <trkpt lat="41.886927" lon="2.413323">
        <ele>807.2</ele>
        <time>2011-09-06T19:30:09Z</time>
      </trkpt>
      <trkpt lat="41.886819" lon="2.413390">
        <ele>806.7</ele>
        <time>2011-09-06T19:30:07Z</time>
      </trkpt>
      <trkpt lat="41.886580" lon="2.413446">
        <ele>807.6</ele>
        <time>2011-09-06T19:30:02Z</time>
      </trkpt>
      <trkpt lat="41.886306" lon="2.413699">
        <ele>805.2</ele>
        <time>2011-09-06T19:29:56Z</time>
      </trkpt>
      <trkpt lat="41.886222" lon="2.413796">
        <ele>807.6</ele>
        <time>2011-09-06T19:29:54Z</time>
      </trkpt>
      <trkpt lat="41.886072" lon="2.414007">
        <ele>806.7</ele>
        <time>2011-09-06T19:29:50Z</time>
      </trkpt>
      <trkpt lat="41.885844" lon="2.414054">
        <ele>805.2</ele>
        <time>2011-09-06T19:29:46Z</time>
      </trkpt>
      <trkpt lat="41.885611" lon="2.414060">
        <ele>802.4</ele>
        <time>2011-09-06T19:29:40Z</time>
      </trkpt>
      <trkpt lat="41.885391" lon="2.414241">
        <ele>800.4</ele>
        <time>2011-09-06T19:29:33Z</time>
      </trkpt>
      <trkpt lat="41.885097" lon="2.414811">
        <ele>799.0</ele>
        <time>2011-09-06T19:29:24Z</time>
      </trkpt>
      <trkpt lat="41.885101" lon="2.415130">
        <ele>801.4</ele>
        <time>2011-09-06T19:29:20Z</time>
      </trkpt>
      <trkpt lat="41.885148" lon="2.415438">
        <ele>803.8</ele>
        <time>2011-09-06T19:29:17Z</time>
      </trkpt>
      <trkpt lat="41.885188" lon="2.415530">
        <ele>804.8</ele>
        <time>2011-09-06T19:29:16Z</time>
      </trkpt>
      <trkpt lat="41.885143" lon="2.416197">
        <ele>803.8</ele>
        <time>2011-09-06T19:29:09Z</time>
      </trkpt>
      <trkpt lat="41.885312" lon="2.416920">
        <ele>807.2</ele>
        <time>2011-09-06T19:29:02Z</time>
      </trkpt>
      <trkpt lat="41.885319" lon="2.417381">
        <ele>810.1</ele>
        <time>2011-09-06T19:28:57Z</time>
      </trkpt>
      <trkpt lat="41.885283" lon="2.417729">
        <ele>813.4</ele>
        <time>2011-09-06T19:28:53Z</time>
      </trkpt>
      <trkpt lat="41.885156" lon="2.418053">
        <ele>815.8</ele>
        <time>2011-09-06T19:28:48Z</time>
      </trkpt>
      <trkpt lat="41.885238" lon="2.418334">
        <ele>821.1</ele>
        <time>2011-09-06T19:28:44Z</time>
      </trkpt>
      <trkpt lat="41.885383" lon="2.419069">
        <ele>823.0</ele>
        <time>2011-09-06T19:28:37Z</time>
      </trkpt>
      <trkpt lat="41.885196" lon="2.419684">
        <ele>826.4</ele>
        <time>2011-09-06T19:28:30Z</time>
      </trkpt>
      <trkpt lat="41.885174" lon="2.419946">
        <ele>827.8</ele>
        <time>2011-09-06T19:28:27Z</time>
      </trkpt>
      <trkpt lat="41.885075" lon="2.420671">
        <ele>834.1</ele>
        <time>2011-09-06T19:28:19Z</time>
      </trkpt>
      <trkpt lat="41.884961" lon="2.420928">
        <ele>835.0</ele>
        <time>2011-09-06T19:28:15Z</time>
      </trkpt>
      <trkpt lat="41.884958" lon="2.421177">
        <ele>837.0</ele>
        <time>2011-09-06T19:28:12Z</time>
      </trkpt>
      <trkpt lat="41.884934" lon="2.421697">
        <ele>845.1</ele>
        <time>2011-09-06T19:28:06Z</time>
      </trkpt>
      <trkpt lat="41.885161" lon="2.422202">
        <ele>850.4</ele>
        <time>2011-09-06T19:28:01Z</time>
      </trkpt>
      <trkpt lat="41.885200" lon="2.422351">
        <ele>852.8</ele>
        <time>2011-09-06T19:27:59Z</time>
      </trkpt>
      <trkpt lat="41.885423" lon="2.423274">
        <ele>870.1</ele>
        <time>2011-09-06T19:27:48Z</time>
      </trkpt>
      <trkpt lat="41.885450" lon="2.423438">
        <ele>872.5</ele>
        <time>2011-09-06T19:27:46Z</time>
      </trkpt>
      <trkpt lat="41.885516" lon="2.423707">
        <ele>875.9</ele>
        <time>2011-09-06T19:27:43Z</time>
      </trkpt>
      <trkpt lat="41.885520" lon="2.423873">
        <ele>877.8</ele>
        <time>2011-09-06T19:27:41Z</time>
      </trkpt>
      <trkpt lat="41.885437" lon="2.424465">
        <ele>880.7</ele>
        <time>2011-09-06T19:27:36Z</time>
      </trkpt>
      <trkpt lat="41.885464" lon="2.424738">
        <ele>882.6</ele>
        <time>2011-09-06T19:27:33Z</time>
      </trkpt>
      <trkpt lat="41.885507" lon="2.424816">
        <ele>883.6</ele>
        <time>2011-09-06T19:27:32Z</time>
      </trkpt>
      <trkpt lat="41.885933" lon="2.425793">
        <ele>892.2</ele>
        <time>2011-09-06T19:27:21Z</time>
      </trkpt>
      <trkpt lat="41.886302" lon="2.426048">
        <ele>894.6</ele>
        <time>2011-09-06T19:27:15Z</time>
      </trkpt>
      <trkpt lat="41.886481" lon="2.426116">
        <ele>894.6</ele>
        <time>2011-09-06T19:27:12Z</time>
      </trkpt>
      <trkpt lat="41.886720" lon="2.426331">
        <ele>895.1</ele>
        <time>2011-09-06T19:27:08Z</time>
      </trkpt>
      <trkpt lat="41.886747" lon="2.426474">
        <ele>895.1</ele>
        <time>2011-09-06T19:27:06Z</time>
      </trkpt>
      <trkpt lat="41.886879" lon="2.426624">
        <ele>895.6</ele>
        <time>2011-09-06T19:27:03Z</time>
      </trkpt>
      <trkpt lat="41.887063" lon="2.427015">
        <ele>896.1</ele>
        <time>2011-09-06T19:26:58Z</time>
      </trkpt>
      <trkpt lat="41.887053" lon="2.427366">
        <ele>897.1</ele>
        <time>2011-09-06T19:26:54Z</time>
      </trkpt>
      <trkpt lat="41.886952" lon="2.428350">
        <ele>898.0</ele>
        <time>2011-09-06T19:26:46Z</time>
      </trkpt>
      <trkpt lat="41.886919" lon="2.428461">
        <ele>898.5</ele>
        <time>2011-09-06T19:26:45Z</time>
      </trkpt>
      <trkpt lat="41.886805" lon="2.428982">
        <ele>898.5</ele>
        <time>2011-09-06T19:26:36Z</time>
      </trkpt>
      <trkpt lat="41.886804" lon="2.428990">
        <ele>898.5</ele>
        <time>2011-09-06T19:26:35Z</time>
      </trkpt>
      <trkpt lat="41.886798" lon="2.429038">
        <ele>895.6</ele>
        <time>2011-09-06T19:26:21Z</time>
      </trkpt>
      <trkpt lat="41.886819" lon="2.429096">
        <ele>897.1</ele>
        <time>2011-09-06T19:26:19Z</time>
      </trkpt>
      <trkpt lat="41.886947" lon="2.429000">
        <ele>900.4</ele>
        <time>2011-09-06T19:26:15Z</time>
      </trkpt>
      <trkpt lat="41.887124" lon="2.428377">
        <ele>905.7</ele>
        <time>2011-09-06T19:26:09Z</time>
      </trkpt>
      <trkpt lat="41.887250" lon="2.428016">
        <ele>907.1</ele>
        <time>2011-09-06T19:26:05Z</time>
      </trkpt>
      <trkpt lat="41.887366" lon="2.427947">
        <ele>907.6</ele>
        <time>2011-09-06T19:26:03Z</time>
      </trkpt>
      <trkpt lat="41.887621" lon="2.427644">
        <ele>909.5</ele>
        <time>2011-09-06T19:25:58Z</time>
      </trkpt>
      <trkpt lat="41.887800" lon="2.427338">
        <ele>910.5</ele>
        <time>2011-09-06T19:25:54Z</time>
      </trkpt>
      <trkpt lat="41.887963" lon="2.427231">
        <ele>911.5</ele>
        <time>2011-09-06T19:25:52Z</time>
      </trkpt>
      <trkpt lat="41.888259" lon="2.426773">
        <ele>913.4</ele>
        <time>2011-09-06T19:25:46Z</time>
      </trkpt>
      <trkpt lat="41.888272" lon="2.426564">
        <ele>914.8</ele>
        <time>2011-09-06T19:25:44Z</time>
      </trkpt>
      <trkpt lat="41.888279" lon="2.426471">
        <ele>914.8</ele>
        <time>2011-09-06T19:25:43Z</time>
      </trkpt>
      <trkpt lat="41.888431" lon="2.426577">
        <ele>918.7</ele>
        <time>2011-09-06T19:25:37Z</time>
      </trkpt>
      <trkpt lat="41.888417" lon="2.426805">
        <ele>920.1</ele>
        <time>2011-09-06T19:25:35Z</time>
      </trkpt>
      <trkpt lat="41.888324" lon="2.427268">
        <ele>922.0</ele>
        <time>2011-09-06T19:25:31Z</time>
      </trkpt>
      <trkpt lat="41.888019" lon="2.427731">
        <ele>922.0</ele>
        <time>2011-09-06T19:25:26Z</time>
      </trkpt>
      <trkpt lat="41.887935" lon="2.428244">
        <ele>926.9</ele>
        <time>2011-09-06T19:25:22Z</time>
      </trkpt>
      <trkpt lat="41.887967" lon="2.428464">
        <ele>928.3</ele>
        <time>2011-09-06T19:25:20Z</time>
      </trkpt>
      <trkpt lat="41.887914" lon="2.428863">
        <ele>930.7</ele>
        <time>2011-09-06T19:25:16Z</time>
      </trkpt>
      <trkpt lat="41.887931" lon="2.429067">
        <ele>934.1</ele>
        <time>2011-09-06T19:25:14Z</time>
      </trkpt>
      <trkpt lat="41.887954" lon="2.429618">
        <ele>937.9</ele>
        <time>2011-09-06T19:25:09Z</time>
      </trkpt>
      <trkpt lat="41.887789" lon="2.429822">
        <ele>936.9</ele>
        <time>2011-09-06T19:25:06Z</time>
      </trkpt>
      <trkpt lat="41.887662" lon="2.430116">
        <ele>935.0</ele>
        <time>2011-09-06T19:25:03Z</time>
      </trkpt>
      <trkpt lat="41.887601" lon="2.430201">
        <ele>934.1</ele>
        <time>2011-09-06T19:25:02Z</time>
      </trkpt>
      <trkpt lat="41.887646" lon="2.430727">
        <ele>936.9</ele>
        <time>2011-09-06T19:24:55Z</time>
      </trkpt>
      <trkpt lat="41.887655" lon="2.431012">
        <ele>945.1</ele>
        <time>2011-09-06T19:24:52Z</time>
      </trkpt>
      <trkpt lat="41.887530" lon="2.431146">
        <ele>947.5</ele>
        <time>2011-09-06T19:24:49Z</time>
      </trkpt>
      <trkpt lat="41.887308" lon="2.431451">
        <ele>946.1</ele>
        <time>2011-09-06T19:24:44Z</time>
      </trkpt>
      <trkpt lat="41.887265" lon="2.431769">
        <ele>950.4</ele>
        <time>2011-09-06T19:24:40Z</time>
      </trkpt>
      <trkpt lat="41.886939" lon="2.431864">
        <ele>947.5</ele>
        <time>2011-09-06T19:24:34Z</time>
      </trkpt>
      <trkpt lat="41.886892" lon="2.432078">
        <ele>947.0</ele>
        <time>2011-09-06T19:24:32Z</time>
      </trkpt>
      <trkpt lat="41.886517" lon="2.432412">
        <ele>947.0</ele>
        <time>2011-09-06T19:24:26Z</time>
      </trkpt>
      <trkpt lat="41.885921" lon="2.432879">
        <ele>940.8</ele>
        <time>2011-09-06T19:24:18Z</time>
      </trkpt>
      <trkpt lat="41.885776" lon="2.433370">
        <ele>933.1</ele>
        <time>2011-09-06T19:24:13Z</time>
      </trkpt>
      <trkpt lat="41.885713" lon="2.433434">
        <ele>930.7</ele>
        <time>2011-09-06T19:24:12Z</time>
      </trkpt>
      <trkpt lat="41.885699" lon="2.433748">
        <ele>919.2</ele>
        <time>2011-09-06T19:24:06Z</time>
      </trkpt>
      <trkpt lat="41.885926" lon="2.433771">
        <ele>919.2</ele>
        <time>2011-09-06T19:24:02Z</time>
      </trkpt>
      <trkpt lat="41.886537" lon="2.433662">
        <ele>925.4</ele>
        <time>2011-09-06T19:23:53Z</time>
      </trkpt>
      <trkpt lat="41.886639" lon="2.433512">
        <ele>927.8</ele>
        <time>2011-09-06T19:23:51Z</time>
      </trkpt>
      <trkpt lat="41.887211" lon="2.433367">
        <ele>934.5</ele>
        <time>2011-09-06T19:23:44Z</time>
      </trkpt>
      <trkpt lat="41.887404" lon="2.433461">
        <ele>936.0</ele>
        <time>2011-09-06T19:23:42Z</time>
      </trkpt>
      <trkpt lat="41.887596" lon="2.433713">
        <ele>938.9</ele>
        <time>2011-09-06T19:23:39Z</time>
      </trkpt>
      <trkpt lat="41.887851" lon="2.433813">
        <ele>941.8</ele>
        <time>2011-09-06T19:23:34Z</time>
      </trkpt>
      <trkpt lat="41.887966" lon="2.433680">
        <ele>942.2</ele>
        <time>2011-09-06T19:23:32Z</time>
      </trkpt>
      <trkpt lat="41.888425" lon="2.433840">
        <ele>944.6</ele>
        <time>2011-09-06T19:23:24Z</time>
      </trkpt>
      <trkpt lat="41.888796" lon="2.434248">
        <ele>948.5</ele>
        <time>2011-09-06T19:23:18Z</time>
      </trkpt>
      <trkpt lat="41.889024" lon="2.434205">
        <ele>949.0</ele>
        <time>2011-09-06T19:23:15Z</time>
      </trkpt>
      <trkpt lat="41.889141" lon="2.434138">
        <ele>949.4</ele>
        <time>2011-09-06T19:23:13Z</time>
      </trkpt>
      <trkpt lat="41.889252" lon="2.434036">
        <ele>949.9</ele>
        <time>2011-09-06T19:23:11Z</time>
      </trkpt>
      <trkpt lat="41.889403" lon="2.433985">
        <ele>949.9</ele>
        <time>2011-09-06T19:23:09Z</time>
      </trkpt>
      <trkpt lat="41.889563" lon="2.433974">
        <ele>950.4</ele>
        <time>2011-09-06T19:23:07Z</time>
      </trkpt>
      <trkpt lat="41.889882" lon="2.433898">
        <ele>951.4</ele>
        <time>2011-09-06T19:23:02Z</time>
      </trkpt>
      <trkpt lat="41.890057" lon="2.434107">
        <ele>950.9</ele>
        <time>2011-09-06T19:22:58Z</time>
      </trkpt>
      <trkpt lat="41.890083" lon="2.434143">
        <ele>950.4</ele>
        <time>2011-09-06T19:22:57Z</time>
      </trkpt>
      <trkpt lat="41.890124" lon="2.434063">
        <ele>950.4</ele>
        <time>2011-09-06T19:22:06Z</time>
      </trkpt>
      <trkpt lat="41.890181" lon="2.434123">
        <ele>950.9</ele>
        <time>2011-09-06T19:21:59Z</time>
      </trkpt>
      <trkpt lat="41.889671" lon="2.434488">
        <ele>954.7</ele>
        <time>2011-09-06T19:21:52Z</time>
      </trkpt>
      <trkpt lat="41.889557" lon="2.434501">
        <ele>955.7</ele>
        <time>2011-09-06T19:21:51Z</time>
      </trkpt>
      <trkpt lat="41.889358" lon="2.434979">
        <ele>958.6</ele>
        <time>2011-09-06T19:21:47Z</time>
      </trkpt>
      <trkpt lat="41.889008" lon="2.435351">
        <ele>958.1</ele>
        <time>2011-09-06T19:21:43Z</time>
      </trkpt>
      <trkpt lat="41.888761" lon="2.436264">
        <ele>956.2</ele>
        <time>2011-09-06T19:21:37Z</time>
      </trkpt>
      <trkpt lat="41.888644" lon="2.436482">
        <ele>956.2</ele>
        <time>2011-09-06T19:21:35Z</time>
      </trkpt>
      <trkpt lat="41.888634" lon="2.437267">
        <ele>957.1</ele>
        <time>2011-09-06T19:21:31Z</time>
      </trkpt>
      <trkpt lat="41.888757" lon="2.437928">
        <ele>957.1</ele>
        <time>2011-09-06T19:21:27Z</time>
      </trkpt>
      <trkpt lat="41.888385" lon="2.438419">
        <ele>957.1</ele>
        <time>2011-09-06T19:21:23Z</time>
      </trkpt>
      <trkpt lat="41.887903" lon="2.438881">
        <ele>955.7</ele>
        <time>2011-09-06T19:21:18Z</time>
      </trkpt>
      <trkpt lat="41.887839" lon="2.439370">
        <ele>954.7</ele>
        <time>2011-09-06T19:21:15Z</time>
      </trkpt>
      <trkpt lat="41.888006" lon="2.439670">
        <ele>956.2</ele>
        <time>2011-09-06T19:21:13Z</time>
      </trkpt>
      <trkpt lat="41.888098" lon="2.439850">
        <ele>956.7</ele>
        <time>2011-09-06T19:21:12Z</time>
      </trkpt>
      <trkpt lat="41.888121" lon="2.440605">
        <ele>961.5</ele>
        <time>2011-09-06T19:21:08Z</time>
      </trkpt>
      <trkpt lat="41.887560" lon="2.441614">
        <ele>950.9</ele>
        <time>2011-09-06T19:21:03Z</time>
      </trkpt>
      <trkpt lat="41.887418" lon="2.442256">
        <ele>946.1</ele>
        <time>2011-09-06T19:21:00Z</time>
      </trkpt>
      <trkpt lat="41.887665" lon="2.442551">
        <ele>942.2</ele>
        <time>2011-09-06T19:20:56Z</time>
      </trkpt>
      <trkpt lat="41.887892" lon="2.442533">
        <ele>941.8</ele>
        <time>2011-09-06T19:20:54Z</time>
      </trkpt>
      <trkpt lat="41.888630" lon="2.442894">
        <ele>936.5</ele>
        <time>2011-09-06T19:20:48Z</time>
      </trkpt>
      <trkpt lat="41.888765" lon="2.443483">
        <ele>930.7</ele>
        <time>2011-09-06T19:20:43Z</time>
      </trkpt>
      <trkpt lat="41.888719" lon="2.444289">
        <ele>926.9</ele>
        <time>2011-09-06T19:20:39Z</time>
      </trkpt>
      <trkpt lat="41.888857" lon="2.445074">
        <ele>923.5</ele>
        <time>2011-09-06T19:20:36Z</time>
      </trkpt>
      <trkpt lat="41.889754" lon="2.447241">
        <ele>914.4</ele>
        <time>2011-09-06T19:20:27Z</time>
      </trkpt>
      <trkpt lat="41.890664" lon="2.448166">
        <ele>910.5</ele>
        <time>2011-09-06T19:20:21Z</time>
      </trkpt>
      <trkpt lat="41.891196" lon="2.448311">
        <ele>908.1</ele>
        <time>2011-09-06T19:20:17Z</time>
      </trkpt>
      <trkpt lat="41.891712" lon="2.448456">
        <ele>905.7</ele>
        <time>2011-09-06T19:20:13Z</time>
      </trkpt>
      <trkpt lat="41.892038" lon="2.449180">
        <ele>901.9</ele>
        <time>2011-09-06T19:20:07Z</time>
      </trkpt>
      <trkpt lat="41.892319" lon="2.449368">
        <ele>900.9</ele>
        <time>2011-09-06T19:20:05Z</time>
      </trkpt>
      <trkpt lat="41.892503" lon="2.450006">
        <ele>896.6</ele>
        <time>2011-09-06T19:20:01Z</time>
      </trkpt>
      <trkpt lat="41.892685" lon="2.451024">
        <ele>896.6</ele>
        <time>2011-09-06T19:19:56Z</time>
      </trkpt>
      <trkpt lat="41.892199" lon="2.452268">
        <ele>895.6</ele>
        <time>2011-09-06T19:19:50Z</time>
      </trkpt>
      <trkpt lat="41.891944" lon="2.453085">
        <ele>896.1</ele>
        <time>2011-09-06T19:19:46Z</time>
      </trkpt>
      <trkpt lat="41.891961" lon="2.454676">
        <ele>896.1</ele>
        <time>2011-09-06T19:19:39Z</time>
      </trkpt>
      <trkpt lat="41.891785" lon="2.455771">
        <ele>896.1</ele>
        <time>2011-09-06T19:19:34Z</time>
      </trkpt>
      <trkpt lat="41.891642" lon="2.456141">
        <ele>896.1</ele>
        <time>2011-09-06T19:19:32Z</time>
      </trkpt>
      <trkpt lat="41.891509" lon="2.456400">
        <ele>896.6</ele>
        <time>2011-09-06T19:19:30Z</time>
      </trkpt>
      <trkpt lat="41.890962" lon="2.456510">
        <ele>898.0</ele>
        <time>2011-09-06T19:19:25Z</time>
      </trkpt>
      <trkpt lat="41.890360" lon="2.456925">
        <ele>900.9</ele>
        <time>2011-09-06T19:19:20Z</time>
      </trkpt>
      <trkpt lat="41.889600" lon="2.456696">
        <ele>906.2</ele>
        <time>2011-09-06T19:19:15Z</time>
      </trkpt>
      <trkpt lat="41.889298" lon="2.456669">
        <ele>906.7</ele>
        <time>2011-09-06T19:19:13Z</time>
      </trkpt>
      <trkpt lat="41.888927" lon="2.457163">
        <ele>907.1</ele>
        <time>2011-09-06T19:19:08Z</time>
      </trkpt>
      <trkpt lat="41.888892" lon="2.457331">
        <ele>908.6</ele>
        <time>2011-09-06T19:19:07Z</time>
      </trkpt>
      <trkpt lat="41.888476" lon="2.457934">
        <ele>909.5</ele>
        <time>2011-09-06T19:19:03Z</time>
      </trkpt>
      <trkpt lat="41.887922" lon="2.458076">
        <ele>909.1</ele>
        <time>2011-09-06T19:18:59Z</time>
      </trkpt>
      <trkpt lat="41.887386" lon="2.458358">
        <ele>909.1</ele>
        <time>2011-09-06T19:18:53Z</time>
      </trkpt>
      <trkpt lat="41.887037" lon="2.458816">
        <ele>909.5</ele>
        <time>2011-09-06T19:18:49Z</time>
      </trkpt>
      <trkpt lat="41.886121" lon="2.459127">
        <ele>909.1</ele>
        <time>2011-09-06T19:18:43Z</time>
      </trkpt>
      <trkpt lat="41.885975" lon="2.459296">
        <ele>909.5</ele>
        <time>2011-09-06T19:18:41Z</time>
      </trkpt>
      <trkpt lat="41.885742" lon="2.459505">
        <ele>909.5</ele>
        <time>2011-09-06T19:18:38Z</time>
      </trkpt>
      <trkpt lat="41.885131" lon="2.459743">
        <ele>907.6</ele>
        <time>2011-09-06T19:18:32Z</time>
      </trkpt>
      <trkpt lat="41.885114" lon="2.459957">
        <ele>902.3</ele>
        <time>2011-09-06T19:18:26Z</time>
      </trkpt>
      <trkpt lat="41.885336" lon="2.459952">
        <ele>901.9</ele>
        <time>2011-09-06T19:18:22Z</time>
      </trkpt>
      <trkpt lat="41.885476" lon="2.459943">
        <ele>903.3</ele>
        <time>2011-09-06T19:18:20Z</time>
      </trkpt>
      <trkpt lat="41.886139" lon="2.459906">
        <ele>914.4</ele>
        <time>2011-09-06T19:18:10Z</time>
      </trkpt>
      <trkpt lat="41.886452" lon="2.459726">
        <ele>919.6</ele>
        <time>2011-09-06T19:18:04Z</time>
      </trkpt>
      <trkpt lat="41.886564" lon="2.459681">
        <ele>924.0</ele>
        <time>2011-09-06T19:18:02Z</time>
      </trkpt>
      <trkpt lat="41.886876" lon="2.459594">
        <ele>932.6</ele>
        <time>2011-09-06T19:17:56Z</time>
      </trkpt>
      <trkpt lat="41.887172" lon="2.459721">
        <ele>937.4</ele>
        <time>2011-09-06T19:17:50Z</time>
      </trkpt>
      <trkpt lat="41.887309" lon="2.460077">
        <ele>938.4</ele>
        <time>2011-09-06T19:17:46Z</time>
      </trkpt>
      <trkpt lat="41.887397" lon="2.460168">
        <ele>941.3</ele>
        <time>2011-09-06T19:17:44Z</time>
      </trkpt>
      <trkpt lat="41.887461" lon="2.460228">
        <ele>942.2</ele>
        <time>2011-09-06T19:17:43Z</time>
      </trkpt>
      <trkpt lat="41.887770" lon="2.460924">
        <ele>950.9</ele>
        <time>2011-09-06T19:17:34Z</time>
      </trkpt>
      <trkpt lat="41.887833" lon="2.461273">
        <ele>957.1</ele>
        <time>2011-09-06T19:17:30Z</time>
      </trkpt>
      <trkpt lat="41.887943" lon="2.461518">
        <ele>961.0</ele>
        <time>2011-09-06T19:17:27Z</time>
      </trkpt>
      <trkpt lat="41.888097" lon="2.461692">
        <ele>963.9</ele>
        <time>2011-09-06T19:17:24Z</time>
      </trkpt>
      <trkpt lat="41.888146" lon="2.461727">
        <ele>964.3</ele>
        <time>2011-09-06T19:17:23Z</time>
      </trkpt>
      <trkpt lat="41.888591" lon="2.462109">
        <ele>967.7</ele>
        <time>2011-09-06T19:17:14Z</time>
      </trkpt>
      <trkpt lat="41.888659" lon="2.462236">
        <ele>963.9</ele>
        <time>2011-09-06T19:17:10Z</time>
      </trkpt>
      <trkpt lat="41.888547" lon="2.462231">
        <ele>959.5</ele>
        <time>2011-09-06T19:17:07Z</time>
      </trkpt>
      <trkpt lat="41.888390" lon="2.462090">
        <ele>961.9</ele>
        <time>2011-09-06T19:17:03Z</time>
      </trkpt>
      <trkpt lat="41.888251" lon="2.462056">
        <ele>962.4</ele>
        <time>2011-09-06T19:17:01Z</time>
      </trkpt>
      <trkpt lat="41.888122" lon="2.462061">
        <ele>961.9</ele>
        <time>2011-09-06T19:16:59Z</time>
      </trkpt>
      <trkpt lat="41.887803" lon="2.462016">
        <ele>955.7</ele>
        <time>2011-09-06T19:16:55Z</time>
      </trkpt>
      <trkpt lat="41.887589" lon="2.461661">
        <ele>961.0</ele>
        <time>2011-09-06T19:16:49Z</time>
      </trkpt>
      <trkpt lat="41.887530" lon="2.461561">
        <ele>961.9</ele>
        <time>2011-09-06T19:16:47Z</time>
      </trkpt>
      <trkpt lat="41.887381" lon="2.461461">
        <ele>962.4</ele>
        <time>2011-09-06T19:16:43Z</time>
      </trkpt>
      <trkpt lat="41.887149" lon="2.461902">
        <ele>960.5</ele>
        <time>2011-09-06T19:16:35Z</time>
      </trkpt>
      <trkpt lat="41.887138" lon="2.462629">
        <ele>965.3</ele>
        <time>2011-09-06T19:16:27Z</time>
      </trkpt>
      <trkpt lat="41.887040" lon="2.462937">
        <ele>968.2</ele>
        <time>2011-09-06T19:16:21Z</time>
      </trkpt>
      <trkpt lat="41.887074" lon="2.463091">
        <ele>971.6</ele>
        <time>2011-09-06T19:16:18Z</time>
      </trkpt>
      <trkpt lat="41.887333" lon="2.463471">
        <ele>982.1</ele>
        <time>2011-09-06T19:16:06Z</time>
      </trkpt>
      <trkpt lat="41.887512" lon="2.463714">
        <ele>983.1</ele>
        <time>2011-09-06T19:15:59Z</time>
      </trkpt>
      <trkpt lat="41.887512" lon="2.463715">
        <ele>983.1</ele>
        <time>2011-09-06T19:15:27Z</time>
      </trkpt>
      <trkpt lat="41.887510" lon="2.463715">
        <ele>982.6</ele>
        <time>2011-09-06T19:13:52Z</time>
      </trkpt>
      <trkpt lat="41.887509" lon="2.463716">
        <ele>982.1</ele>
        <time>2011-09-06T19:11:53Z</time>
      </trkpt>
      <trkpt lat="41.887508" lon="2.463717">
        <ele>981.2</ele>
        <time>2011-09-06T19:09:41Z</time>
      </trkpt>
      <trkpt lat="41.887509" lon="2.463718">
        <ele>980.7</ele>
        <time>2011-09-06T19:08:18Z</time>
      </trkpt>
      <trkpt lat="41.887510" lon="2.463724">
        <ele>980.2</ele>
        <time>2011-09-06T19:06:56Z</time>
      </trkpt>
      <trkpt lat="41.887581" lon="2.463668">
        <ele>980.2</ele>
        <time>2011-09-06T19:06:49Z</time>
      </trkpt>
      <trkpt lat="41.887635" lon="2.463355">
        <ele>981.6</ele>
        <time>2011-09-06T19:06:44Z</time>
      </trkpt>
      <trkpt lat="41.887801" lon="2.463260">
        <ele>986.5</ele>
        <time>2011-09-06T19:06:40Z</time>
      </trkpt>
      <trkpt lat="41.888008" lon="2.463398">
        <ele>989.3</ele>
        <time>2011-09-06T19:06:36Z</time>
      </trkpt>
      <trkpt lat="41.888134" lon="2.463562">
        <ele>990.8</ele>
        <time>2011-09-06T19:06:33Z</time>
      </trkpt>
      <trkpt lat="41.888314" lon="2.463740">
        <ele>993.7</ele>
        <time>2011-09-06T19:06:29Z</time>
      </trkpt>
      <trkpt lat="41.888585" lon="2.464080">
        <ele>995.6</ele>
        <time>2011-09-06T19:06:23Z</time>
      </trkpt>
      <trkpt lat="41.888867" lon="2.464331">
        <ele>990.8</ele>
        <time>2011-09-06T19:06:17Z</time>
      </trkpt>
      <trkpt lat="41.889367" lon="2.464401">
        <ele>991.3</ele>
        <time>2011-09-06T19:06:07Z</time>
      </trkpt>
      <trkpt lat="41.889475" lon="2.464406">
        <ele>992.2</ele>
        <time>2011-09-06T19:06:05Z</time>
      </trkpt>
      <trkpt lat="41.889555" lon="2.464757">
        <ele>999.0</ele>
        <time>2011-09-06T19:05:58Z</time>
      </trkpt>
      <trkpt lat="41.889482" lon="2.464924">
        <ele>1004.7</ele>
        <time>2011-09-06T19:05:55Z</time>
      </trkpt>
      <trkpt lat="41.889337" lon="2.465499">
        <ele>1004.7</ele>
        <time>2011-09-06T19:05:46Z</time>
      </trkpt>
      <trkpt lat="41.889411" lon="2.465749">
        <ele>1006.6</ele>
        <time>2011-09-06T19:05:43Z</time>
      </trkpt>
      <trkpt lat="41.889439" lon="2.466060">
        <ele>1009.0</ele>
        <time>2011-09-06T19:05:39Z</time>
      </trkpt>
      <trkpt lat="41.889497" lon="2.466322">
        <ele>1011.4</ele>
        <time>2011-09-06T19:05:36Z</time>
      </trkpt>
      <trkpt lat="41.889443" lon="2.466714">
        <ele>1011.9</ele>
        <time>2011-09-06T19:05:31Z</time>
      </trkpt>
      <trkpt lat="41.889388" lon="2.466790">
        <ele>1012.4</ele>
        <time>2011-09-06T19:05:30Z</time>
      </trkpt>
      <trkpt lat="41.889113" lon="2.467490">
        <ele>1011.4</ele>
        <time>2011-09-06T19:05:23Z</time>
      </trkpt>
      <trkpt lat="41.889176" lon="2.467791">
        <ele>1012.9</ele>
        <time>2011-09-06T19:05:20Z</time>
      </trkpt>
      <trkpt lat="41.889298" lon="2.468294">
        <ele>1016.7</ele>
        <time>2011-09-06T19:05:15Z</time>
      </trkpt>
      <trkpt lat="41.889166" lon="2.468441">
        <ele>1017.2</ele>
        <time>2011-09-06T19:05:12Z</time>
      </trkpt>
      <trkpt lat="41.889017" lon="2.468501">
        <ele>1017.2</ele>
        <time>2011-09-06T19:05:10Z</time>
      </trkpt>
      <trkpt lat="41.888676" lon="2.468642">
        <ele>1016.7</ele>
        <time>2011-09-06T19:05:05Z</time>
      </trkpt>
      <trkpt lat="41.888505" lon="2.468881">
        <ele>1015.8</ele>
        <time>2011-09-06T19:05:02Z</time>
      </trkpt>
      <trkpt lat="41.888414" lon="2.468958">
        <ele>1015.3</ele>
        <time>2011-09-06T19:05:00Z</time>
      </trkpt>
      <trkpt lat="41.888299" lon="2.469329">
        <ele>1013.9</ele>
        <time>2011-09-06T19:04:55Z</time>
      </trkpt>
      <trkpt lat="41.888376" lon="2.469473">
        <ele>1012.9</ele>
        <time>2011-09-06T19:04:53Z</time>
      </trkpt>
      <trkpt lat="41.888579" lon="2.469914">
        <ele>1012.9</ele>
        <time>2011-09-06T19:04:48Z</time>
      </trkpt>
      <trkpt lat="41.888509" lon="2.470297">
        <ele>1017.2</ele>
        <time>2011-09-06T19:04:44Z</time>
      </trkpt>
      <trkpt lat="41.888409" lon="2.470424">
        <ele>1015.3</ele>
        <time>2011-09-06T19:04:42Z</time>
      </trkpt>
      <trkpt lat="41.888353" lon="2.470473">
        <ele>1014.8</ele>
        <time>2011-09-06T19:04:41Z</time>
      </trkpt>
      <trkpt lat="41.888523" lon="2.470879">
        <ele>1011.4</ele>
        <time>2011-09-06T19:04:35Z</time>
      </trkpt>
      <trkpt lat="41.888826" lon="2.471166">
        <ele>1010.5</ele>
        <time>2011-09-06T19:04:31Z</time>
      </trkpt>
      <trkpt lat="41.889100" lon="2.471523">
        <ele>1004.2</ele>
        <time>2011-09-06T19:04:24Z</time>
      </trkpt>
      <trkpt lat="41.889126" lon="2.471852">
        <ele>999.4</ele>
        <time>2011-09-06T19:04:20Z</time>
      </trkpt>
      <trkpt lat="41.889221" lon="2.471988">
        <ele>999.9</ele>
        <time>2011-09-06T19:04:17Z</time>
      </trkpt>
      <trkpt lat="41.889278" lon="2.472104">
        <ele>999.9</ele>
        <time>2011-09-06T19:04:15Z</time>
      </trkpt>
      <trkpt lat="41.889451" lon="2.472348">
        <ele>1002.8</ele>
        <time>2011-09-06T19:04:11Z</time>
      </trkpt>
      <trkpt lat="41.889624" lon="2.472864">
        <ele>1010.5</ele>
        <time>2011-09-06T19:04:04Z</time>
      </trkpt>
      <trkpt lat="41.888922" lon="2.473711">
        <ele>1007.6</ele>
        <time>2011-09-06T19:03:52Z</time>
      </trkpt>
      <trkpt lat="41.888750" lon="2.474129">
        <ele>1002.3</ele>
        <time>2011-09-06T19:03:47Z</time>
      </trkpt>
      <trkpt lat="41.888895" lon="2.474326">
        <ele>999.0</ele>
        <time>2011-09-06T19:03:44Z</time>
      </trkpt>
      <trkpt lat="41.888990" lon="2.474579">
        <ele>995.6</ele>
        <time>2011-09-06T19:03:40Z</time>
      </trkpt>
      <trkpt lat="41.889126" lon="2.475218">
        <ele>991.7</ele>
        <time>2011-09-06T19:03:33Z</time>
      </trkpt>
      <trkpt lat="41.889350" lon="2.475709">
        <ele>990.3</ele>
        <time>2011-09-06T19:03:28Z</time>
      </trkpt>
      <trkpt lat="41.889575" lon="2.476042">
        <ele>990.3</ele>
        <time>2011-09-06T19:03:24Z</time>
      </trkpt>
      <trkpt lat="41.889625" lon="2.476420">
        <ele>989.3</ele>
        <time>2011-09-06T19:03:20Z</time>
      </trkpt>
      <trkpt lat="41.889564" lon="2.476878">
        <ele>990.3</ele>
        <time>2011-09-06T19:03:16Z</time>
      </trkpt>
      <trkpt lat="41.889350" lon="2.477063">
        <ele>992.7</ele>
        <time>2011-09-06T19:03:10Z</time>
      </trkpt>
      <trkpt lat="41.889007" lon="2.476700">
        <ele>991.7</ele>
        <time>2011-09-06T19:03:05Z</time>
      </trkpt>
      <trkpt lat="41.888825" lon="2.476254">
        <ele>988.9</ele>
        <time>2011-09-06T19:03:01Z</time>
      </trkpt>
      <trkpt lat="41.888661" lon="2.475971">
        <ele>987.4</ele>
        <time>2011-09-06T19:02:58Z</time>
      </trkpt>
      <trkpt lat="41.888485" lon="2.475545">
        <ele>984.5</ele>
        <time>2011-09-06T19:02:54Z</time>
      </trkpt>
      <trkpt lat="41.888276" lon="2.475359">
        <ele>981.6</ele>
        <time>2011-09-06T19:02:50Z</time>
      </trkpt>
      <trkpt lat="41.888167" lon="2.475384">
        <ele>980.2</ele>
        <time>2011-09-06T19:02:48Z</time>
      </trkpt>
      <trkpt lat="41.888010" lon="2.475373">
        <ele>977.8</ele>
        <time>2011-09-06T19:02:45Z</time>
      </trkpt>
      <trkpt lat="41.887778" lon="2.475770">
        <ele>976.4</ele>
        <time>2011-09-06T19:02:39Z</time>
      </trkpt>
      <trkpt lat="41.887523" lon="2.476051">
        <ele>975.9</ele>
        <time>2011-09-06T19:02:35Z</time>
      </trkpt>
      <trkpt lat="41.887390" lon="2.476233">
        <ele>974.0</ele>
        <time>2011-09-06T19:02:32Z</time>
      </trkpt>
      <trkpt lat="41.887056" lon="2.476277">
        <ele>972.0</ele>
        <time>2011-09-06T19:02:27Z</time>
      </trkpt>
      <trkpt lat="41.886887" lon="2.476224">
        <ele>971.6</ele>
        <time>2011-09-06T19:02:25Z</time>
      </trkpt>
      <trkpt lat="41.886594" lon="2.476349">
        <ele>974.0</ele>
        <time>2011-09-06T19:02:20Z</time>
      </trkpt>
      <trkpt lat="41.886599" lon="2.476511">
        <ele>975.4</ele>
        <time>2011-09-06T19:02:18Z</time>
      </trkpt>
      <trkpt lat="41.886557" lon="2.476814">
        <ele>973.5</ele>
        <time>2011-09-06T19:02:15Z</time>
      </trkpt>
      <trkpt lat="41.886540" lon="2.476894">
        <ele>973.0</ele>
        <time>2011-09-06T19:02:14Z</time>
      </trkpt>
      <trkpt lat="41.886252" lon="2.477124">
        <ele>967.2</ele>
        <time>2011-09-06T19:02:08Z</time>
      </trkpt>
      <trkpt lat="41.886230" lon="2.477519">
        <ele>970.6</ele>
        <time>2011-09-06T19:02:03Z</time>
      </trkpt>
      <trkpt lat="41.885944" lon="2.477976">
        <ele>975.9</ele>
        <time>2011-09-06T19:01:55Z</time>
      </trkpt>
      <trkpt lat="41.885800" lon="2.478173">
        <ele>976.4</ele>
        <time>2011-09-06T19:01:51Z</time>
      </trkpt>
      <trkpt lat="41.885809" lon="2.478364">
        <ele>978.8</ele>
        <time>2011-09-06T19:01:49Z</time>
      </trkpt>
      <trkpt lat="41.885932" lon="2.478996">
        <ele>976.8</ele>
        <time>2011-09-06T19:01:41Z</time>
      </trkpt>
      <trkpt lat="41.886074" lon="2.479146">
        <ele>976.4</ele>
        <time>2011-09-06T19:01:38Z</time>
      </trkpt>
      <trkpt lat="41.885766" lon="2.479196">
        <ele>968.7</ele>
        <time>2011-09-06T19:01:30Z</time>
      </trkpt>
      <trkpt lat="41.885109" lon="2.478705">
        <ele>962.4</ele>
        <time>2011-09-06T19:01:21Z</time>
      </trkpt>
      <trkpt lat="41.885072" lon="2.478596">
        <ele>961.9</ele>
        <time>2011-09-06T19:01:19Z</time>
      </trkpt>
      <trkpt lat="41.884863" lon="2.478735">
        <ele>961.9</ele>
        <time>2011-09-06T19:01:14Z</time>
      </trkpt>
      <trkpt lat="41.884522" lon="2.478716">
        <ele>961.0</ele>
        <time>2011-09-06T19:01:08Z</time>
      </trkpt>
      <trkpt lat="41.884196" lon="2.478995">
        <ele>962.9</ele>
        <time>2011-09-06T19:01:02Z</time>
      </trkpt>
      <trkpt lat="41.884037" lon="2.479213">
        <ele>961.9</ele>
        <time>2011-09-06T19:00:58Z</time>
      </trkpt>
      <trkpt lat="41.884021" lon="2.479356">
        <ele>959.5</ele>
        <time>2011-09-06T19:00:55Z</time>
      </trkpt>
      <trkpt lat="41.884024" lon="2.479368">
        <ele>958.1</ele>
        <time>2011-09-06T19:00:37Z</time>
      </trkpt>
      <trkpt lat="41.883881" lon="2.479606">
        <ele>955.2</ele>
        <time>2011-09-06T19:00:30Z</time>
      </trkpt>
      <trkpt lat="41.883528" lon="2.479719">
        <ele>953.8</ele>
        <time>2011-09-06T19:00:25Z</time>
      </trkpt>
      <trkpt lat="41.883299" lon="2.479729">
        <ele>952.8</ele>
        <time>2011-09-06T19:00:22Z</time>
      </trkpt>
      <trkpt lat="41.882899" lon="2.479980">
        <ele>947.0</ele>
        <time>2011-09-06T19:00:16Z</time>
      </trkpt>
      <trkpt lat="41.882865" lon="2.480123">
        <ele>946.1</ele>
        <time>2011-09-06T19:00:15Z</time>
      </trkpt>
      <trkpt lat="41.882805" lon="2.480998">
        <ele>945.1</ele>
        <time>2011-09-06T19:00:08Z</time>
      </trkpt>
      <trkpt lat="41.883102" lon="2.481753">
        <ele>944.6</ele>
        <time>2011-09-06T19:00:00Z</time>
      </trkpt>
      <trkpt lat="41.882993" lon="2.482280">
        <ele>943.2</ele>
        <time>2011-09-06T18:59:53Z</time>
      </trkpt>
      <trkpt lat="41.882784" lon="2.482391">
        <ele>942.2</ele>
        <time>2011-09-06T18:59:50Z</time>
      </trkpt>
      <trkpt lat="41.882456" lon="2.482322">
        <ele>941.3</ele>
        <time>2011-09-06T18:59:45Z</time>
      </trkpt>
      <trkpt lat="41.882057" lon="2.481911">
        <ele>941.8</ele>
        <time>2011-09-06T18:59:39Z</time>
      </trkpt>
      <trkpt lat="41.882017" lon="2.481559">
        <ele>942.2</ele>
        <time>2011-09-06T18:59:35Z</time>
      </trkpt>
      <trkpt lat="41.881835" lon="2.481177">
        <ele>942.7</ele>
        <time>2011-09-06T18:59:31Z</time>
      </trkpt>
      <trkpt lat="41.881825" lon="2.481093">
        <ele>942.7</ele>
        <time>2011-09-06T18:59:30Z</time>
      </trkpt>
      <trkpt lat="41.881798" lon="2.481418">
        <ele>941.3</ele>
        <time>2011-09-06T18:59:23Z</time>
      </trkpt>
      <trkpt lat="41.881815" lon="2.482030">
        <ele>941.8</ele>
        <time>2011-09-06T18:59:17Z</time>
      </trkpt>
      <trkpt lat="41.881836" lon="2.482913">
        <ele>939.8</ele>
        <time>2011-09-06T18:59:09Z</time>
      </trkpt>
      <trkpt lat="41.881811" lon="2.483390">
        <ele>939.4</ele>
        <time>2011-09-06T18:59:04Z</time>
      </trkpt>
      <trkpt lat="41.881769" lon="2.484028">
        <ele>937.9</ele>
        <time>2011-09-06T18:58:57Z</time>
      </trkpt>
      <trkpt lat="41.882025" lon="2.484671">
        <ele>937.4</ele>
        <time>2011-09-06T18:58:51Z</time>
      </trkpt>
      <trkpt lat="41.882353" lon="2.485212">
        <ele>936.5</ele>
        <time>2011-09-06T18:58:46Z</time>
      </trkpt>
      <trkpt lat="41.882574" lon="2.485512">
        <ele>937.9</ele>
        <time>2011-09-06T18:58:43Z</time>
      </trkpt>
      <trkpt lat="41.882766" lon="2.485844">
        <ele>938.9</ele>
        <time>2011-09-06T18:58:39Z</time>
      </trkpt>
      <trkpt lat="41.882955" lon="2.486099">
        <ele>938.9</ele>
        <time>2011-09-06T18:58:36Z</time>
      </trkpt>
      <trkpt lat="41.883096" lon="2.486635">
        <ele>937.9</ele>
        <time>2011-09-06T18:58:31Z</time>
      </trkpt>
      <trkpt lat="41.883043" lon="2.486992">
        <ele>935.0</ele>
        <time>2011-09-06T18:58:27Z</time>
      </trkpt>
      <trkpt lat="41.883105" lon="2.487387">
        <ele>932.1</ele>
        <time>2011-09-06T18:58:22Z</time>
      </trkpt>
      <trkpt lat="41.883297" lon="2.487907">
        <ele>929.3</ele>
        <time>2011-09-06T18:58:17Z</time>
      </trkpt>
      <trkpt lat="41.883706" lon="2.488669">
        <ele>927.8</ele>
        <time>2011-09-06T18:58:11Z</time>
      </trkpt>
      <trkpt lat="41.883966" lon="2.489053">
        <ele>926.4</ele>
        <time>2011-09-06T18:58:07Z</time>
      </trkpt>
      <trkpt lat="41.884390" lon="2.489821">
        <ele>924.5</ele>
        <time>2011-09-06T18:58:00Z</time>
      </trkpt>
      <trkpt lat="41.884770" lon="2.490746">
        <ele>925.4</ele>
        <time>2011-09-06T18:57:53Z</time>
      </trkpt>
      <trkpt lat="41.884864" lon="2.491178">
        <ele>927.8</ele>
        <time>2011-09-06T18:57:49Z</time>
      </trkpt>
      <trkpt lat="41.884905" lon="2.491337">
        <ele>924.5</ele>
        <time>2011-09-06T18:57:47Z</time>
      </trkpt>
      <trkpt lat="41.884862" lon="2.491966">
        <ele>919.2</ele>
        <time>2011-09-06T18:57:40Z</time>
      </trkpt>
      <trkpt lat="41.884805" lon="2.492941">
        <ele>909.1</ele>
        <time>2011-09-06T18:57:31Z</time>
      </trkpt>
      <trkpt lat="41.884796" lon="2.493254">
        <ele>905.7</ele>
        <time>2011-09-06T18:57:28Z</time>
      </trkpt>
      <trkpt lat="41.884774" lon="2.493372">
        <ele>902.8</ele>
        <time>2011-09-06T18:57:26Z</time>
      </trkpt>
      <trkpt lat="41.884627" lon="2.493502">
        <ele>898.0</ele>
        <time>2011-09-06T18:57:21Z</time>
      </trkpt>
      <trkpt lat="41.884250" lon="2.493710">
        <ele>896.1</ele>
        <time>2011-09-06T18:57:16Z</time>
      </trkpt>
      <trkpt lat="41.883948" lon="2.493942">
        <ele>892.7</ele>
        <time>2011-09-06T18:57:12Z</time>
      </trkpt>
      <trkpt lat="41.883810" lon="2.494158">
        <ele>892.2</ele>
        <time>2011-09-06T18:57:10Z</time>
      </trkpt>
      <trkpt lat="41.883657" lon="2.494587">
        <ele>890.8</ele>
        <time>2011-09-06T18:57:06Z</time>
      </trkpt>
      <trkpt lat="41.883711" lon="2.494756">
        <ele>889.8</ele>
        <time>2011-09-06T18:57:04Z</time>
      </trkpt>
      <trkpt lat="41.883750" lon="2.495148">
        <ele>889.8</ele>
        <time>2011-09-06T18:56:59Z</time>
      </trkpt>
      <trkpt lat="41.883575" lon="2.495372">
        <ele>889.8</ele>
        <time>2011-09-06T18:56:56Z</time>
      </trkpt>
      <trkpt lat="41.883415" lon="2.495470">
        <ele>889.4</ele>
        <time>2011-09-06T18:56:54Z</time>
      </trkpt>
      <trkpt lat="41.883278" lon="2.495852">
        <ele>887.4</ele>
        <time>2011-09-06T18:56:50Z</time>
      </trkpt>
      <trkpt lat="41.883352" lon="2.496479">
        <ele>884.6</ele>
        <time>2011-09-06T18:56:46Z</time>
      </trkpt>
      <trkpt lat="41.883300" lon="2.496885">
        <ele>882.6</ele>
        <time>2011-09-06T18:56:43Z</time>
      </trkpt>
      <trkpt lat="41.883224" lon="2.497263">
        <ele>878.8</ele>
        <time>2011-09-06T18:56:39Z</time>
      </trkpt>
      <trkpt lat="41.883414" lon="2.497922">
        <ele>874.9</ele>
        <time>2011-09-06T18:56:34Z</time>
      </trkpt>
      <trkpt lat="41.883590" lon="2.498900">
        <ele>870.6</ele>
        <time>2011-09-06T18:56:27Z</time>
      </trkpt>
      <trkpt lat="41.883584" lon="2.499673">
        <ele>866.8</ele>
        <time>2011-09-06T18:56:21Z</time>
      </trkpt>
      <trkpt lat="41.883745" lon="2.500149">
        <ele>865.3</ele>
        <time>2011-09-06T18:56:17Z</time>
      </trkpt>
      <trkpt lat="41.883727" lon="2.500395">
        <ele>864.8</ele>
        <time>2011-09-06T18:56:15Z</time>
      </trkpt>
      <trkpt lat="41.883660" lon="2.500811">
        <ele>862.4</ele>
        <time>2011-09-06T18:56:11Z</time>
      </trkpt>
      <trkpt lat="41.883686" lon="2.501063">
        <ele>860.5</ele>
        <time>2011-09-06T18:56:08Z</time>
      </trkpt>
      <trkpt lat="41.883797" lon="2.501371">
        <ele>858.6</ele>
        <time>2011-09-06T18:56:04Z</time>
      </trkpt>
      <trkpt lat="41.883926" lon="2.501508">
        <ele>857.2</ele>
        <time>2011-09-06T18:56:02Z</time>
      </trkpt>
      <trkpt lat="41.884122" lon="2.502041">
        <ele>853.8</ele>
        <time>2011-09-06T18:55:56Z</time>
      </trkpt>
      <trkpt lat="41.883852" lon="2.502271">
        <ele>852.4</ele>
        <time>2011-09-06T18:55:50Z</time>
      </trkpt>
      <trkpt lat="41.883501" lon="2.502008">
        <ele>848.5</ele>
        <time>2011-09-06T18:55:45Z</time>
      </trkpt>
      <trkpt lat="41.883218" lon="2.501931">
        <ele>846.1</ele>
        <time>2011-09-06T18:55:42Z</time>
      </trkpt>
      <trkpt lat="41.882757" lon="2.501941">
        <ele>841.3</ele>
        <time>2011-09-06T18:55:36Z</time>
      </trkpt>
      <trkpt lat="41.882358" lon="2.502286">
        <ele>837.9</ele>
        <time>2011-09-06T18:55:29Z</time>
      </trkpt>
      <trkpt lat="41.882302" lon="2.502523">
        <ele>836.5</ele>
        <time>2011-09-06T18:55:27Z</time>
      </trkpt>
      <trkpt lat="41.882257" lon="2.502835">
        <ele>834.1</ele>
        <time>2011-09-06T18:55:24Z</time>
      </trkpt>
      <trkpt lat="41.882238" lon="2.502923">
        <ele>833.6</ele>
        <time>2011-09-06T18:55:23Z</time>
      </trkpt>
      <trkpt lat="41.881995" lon="2.503165">
        <ele>828.8</ele>
        <time>2011-09-06T18:55:17Z</time>
      </trkpt>
      <trkpt lat="41.881819" lon="2.503136">
        <ele>827.8</ele>
        <time>2011-09-06T18:55:15Z</time>
      </trkpt>
      <trkpt lat="41.881574" lon="2.503305">
        <ele>825.4</ele>
        <time>2011-09-06T18:55:11Z</time>
      </trkpt>
      <trkpt lat="41.881446" lon="2.503535">
        <ele>824.0</ele>
        <time>2011-09-06T18:55:09Z</time>
      </trkpt>
      <trkpt lat="41.881081" lon="2.504542">
        <ele>820.1</ele>
        <time>2011-09-06T18:55:02Z</time>
      </trkpt>
      <trkpt lat="41.880744" lon="2.505218">
        <ele>820.1</ele>
        <time>2011-09-06T18:54:57Z</time>
      </trkpt>
      <trkpt lat="41.880283" lon="2.505223">
        <ele>817.3</ele>
        <time>2011-09-06T18:54:53Z</time>
      </trkpt>
      <trkpt lat="41.880120" lon="2.504492">
        <ele>816.8</ele>
        <time>2011-09-06T18:54:48Z</time>
      </trkpt>
      <trkpt lat="41.880346" lon="2.503829">
        <ele>815.8</ele>
        <time>2011-09-06T18:54:44Z</time>
      </trkpt>
      <trkpt lat="41.880402" lon="2.503511">
        <ele>814.9</ele>
        <time>2011-09-06T18:54:42Z</time>
      </trkpt>
      <trkpt lat="41.879973" lon="2.503164">
        <ele>811.0</ele>
        <time>2011-09-06T18:54:37Z</time>
      </trkpt>
      <trkpt lat="41.879757" lon="2.503229">
        <ele>810.1</ele>
        <time>2011-09-06T18:54:35Z</time>
      </trkpt>
      <trkpt lat="41.879510" lon="2.503519">
        <ele>806.2</ele>
        <time>2011-09-06T18:54:31Z</time>
      </trkpt>
      <trkpt lat="41.879498" lon="2.503906">
        <ele>803.3</ele>
        <time>2011-09-06T18:54:27Z</time>
      </trkpt>
      <trkpt lat="41.879443" lon="2.504276">
        <ele>801.9</ele>
        <time>2011-09-06T18:54:23Z</time>
      </trkpt>
      <trkpt lat="41.879411" lon="2.504703">
        <ele>799.5</ele>
        <time>2011-09-06T18:54:18Z</time>
      </trkpt>
      <trkpt lat="41.879223" lon="2.505150">
        <ele>797.6</ele>
        <time>2011-09-06T18:54:13Z</time>
      </trkpt>
      <trkpt lat="41.878954" lon="2.505481">
        <ele>795.6</ele>
        <time>2011-09-06T18:54:09Z</time>
      </trkpt>
      <trkpt lat="41.878499" lon="2.505847">
        <ele>792.3</ele>
        <time>2011-09-06T18:54:03Z</time>
      </trkpt>
      <trkpt lat="41.877950" lon="2.506856">
        <ele>788.9</ele>
        <time>2011-09-06T18:53:53Z</time>
      </trkpt>
      <trkpt lat="41.877640" lon="2.507342">
        <ele>785.5</ele>
        <time>2011-09-06T18:53:48Z</time>
      </trkpt>
      <trkpt lat="41.877625" lon="2.507774">
        <ele>784.1</ele>
        <time>2011-09-06T18:53:44Z</time>
      </trkpt>
      <trkpt lat="41.877816" lon="2.508520">
        <ele>783.1</ele>
        <time>2011-09-06T18:53:37Z</time>
      </trkpt>
      <trkpt lat="41.877984" lon="2.508867">
        <ele>781.7</ele>
        <time>2011-09-06T18:53:34Z</time>
      </trkpt>
      <trkpt lat="41.878179" lon="2.509447">
        <ele>778.3</ele>
        <time>2011-09-06T18:53:29Z</time>
      </trkpt>
      <trkpt lat="41.878360" lon="2.509739">
        <ele>775.0</ele>
        <time>2011-09-06T18:53:26Z</time>
      </trkpt>
      <trkpt lat="41.878747" lon="2.510537">
        <ele>778.3</ele>
        <time>2011-09-06T18:53:15Z</time>
      </trkpt>
      <trkpt lat="41.878913" lon="2.510769">
        <ele>781.7</ele>
        <time>2011-09-06T18:53:10Z</time>
      </trkpt>
      <trkpt lat="41.878936" lon="2.510760">
        <ele>782.7</ele>
        <time>2011-09-06T18:53:09Z</time>
      </trkpt>
      <trkpt lat="41.879221" lon="2.510710">
        <ele>781.7</ele>
        <time>2011-09-06T18:53:04Z</time>
      </trkpt>
      <trkpt lat="41.880367" lon="2.510428">
        <ele>776.9</ele>
        <time>2011-09-06T18:52:57Z</time>
      </trkpt>
      <trkpt lat="41.882226" lon="2.509902">
        <ele>770.2</ele>
        <time>2011-09-06T18:52:47Z</time>
      </trkpt>
      <trkpt lat="41.883875" lon="2.509215">
        <ele>766.3</ele>
        <time>2011-09-06T18:52:38Z</time>
      </trkpt>
      <trkpt lat="41.886224" lon="2.508302">
        <ele>763.9</ele>
        <time>2011-09-06T18:52:26Z</time>
      </trkpt>
      <trkpt lat="41.887418" lon="2.507729">
        <ele>759.1</ele>
        <time>2011-09-06T18:52:19Z</time>
      </trkpt>
      <trkpt lat="41.889109" lon="2.505881">
        <ele>754.3</ele>
        <time>2011-09-06T18:52:09Z</time>
      </trkpt>
      <trkpt lat="41.890118" lon="2.504708">
        <ele>752.9</ele>
        <time>2011-09-06T18:52:02Z</time>
      </trkpt>
      <trkpt lat="41.890484" lon="2.503890">
        <ele>754.3</ele>
        <time>2011-09-06T18:51:58Z</time>
      </trkpt>
      <trkpt lat="41.890941" lon="2.503703">
        <ele>753.8</ele>
        <time>2011-09-06T18:51:53Z</time>
      </trkpt>
      <trkpt lat="41.891419" lon="2.504346">
        <ele>752.4</ele>
        <time>2011-09-06T18:51:49Z</time>
      </trkpt>
      <trkpt lat="41.891635" lon="2.504837">
        <ele>753.8</ele>
        <time>2011-09-06T18:51:46Z</time>
      </trkpt>
      <trkpt lat="41.892015" lon="2.505189">
        <ele>753.3</ele>
        <time>2011-09-06T18:51:43Z</time>
      </trkpt>
      <trkpt lat="41.892171" lon="2.505348">
        <ele>751.4</ele>
        <time>2011-09-06T18:51:42Z</time>
      </trkpt>
      <trkpt lat="41.892816" lon="2.505321">
        <ele>753.3</ele>
        <time>2011-09-06T18:51:37Z</time>
      </trkpt>
      <trkpt lat="41.893072" lon="2.505042">
        <ele>751.9</ele>
        <time>2011-09-06T18:51:35Z</time>
      </trkpt>
      <trkpt lat="41.893493" lon="2.504687">
        <ele>750.5</ele>
        <time>2011-09-06T18:51:32Z</time>
      </trkpt>
      <trkpt lat="41.893959" lon="2.504351">
        <ele>747.1</ele>
        <time>2011-09-06T18:51:28Z</time>
      </trkpt>
      <trkpt lat="41.894320" lon="2.503944">
        <ele>744.7</ele>
        <time>2011-09-06T18:51:24Z</time>
      </trkpt>
      <trkpt lat="41.894849" lon="2.503882">
        <ele>743.7</ele>
        <time>2011-09-06T18:51:21Z</time>
      </trkpt>
      <trkpt lat="41.895216" lon="2.503762">
        <ele>743.2</ele>
        <time>2011-09-06T18:51:19Z</time>
      </trkpt>
      <trkpt lat="41.895851" lon="2.502684">
        <ele>742.3</ele>
        <time>2011-09-06T18:51:13Z</time>
      </trkpt>
      <trkpt lat="41.895942" lon="2.502353">
        <ele>741.8</ele>
        <time>2011-09-06T18:51:11Z</time>
      </trkpt>
      <trkpt lat="41.896299" lon="2.502493">
        <ele>742.3</ele>
        <time>2011-09-06T18:51:07Z</time>
      </trkpt>
      <trkpt lat="41.896502" lon="2.502833">
        <ele>741.8</ele>
        <time>2011-09-06T18:51:05Z</time>
      </trkpt>
      <trkpt lat="41.896599" lon="2.502994">
        <ele>741.3</ele>
        <time>2011-09-06T18:51:04Z</time>
      </trkpt>
      <trkpt lat="41.897241" lon="2.502797">
        <ele>737.5</ele>
        <time>2011-09-06T18:50:57Z</time>
      </trkpt>
      <trkpt lat="41.897417" lon="2.502511">
        <ele>736.5</ele>
        <time>2011-09-06T18:50:54Z</time>
      </trkpt>
      <trkpt lat="41.897933" lon="2.502346">
        <ele>734.1</ele>
        <time>2011-09-06T18:50:49Z</time>
      </trkpt>
      <trkpt lat="41.898170" lon="2.502046">
        <ele>731.2</ele>
        <time>2011-09-06T18:50:47Z</time>
      </trkpt>
      <trkpt lat="41.898896" lon="2.501514">
        <ele>728.8</ele>
        <time>2011-09-06T18:50:42Z</time>
      </trkpt>
      <trkpt lat="41.899504" lon="2.500702">
        <ele>725.0</ele>
        <time>2011-09-06T18:50:37Z</time>
      </trkpt>
      <trkpt lat="41.899923" lon="2.498961">
        <ele>721.6</ele>
        <time>2011-09-06T18:50:30Z</time>
      </trkpt>
      <trkpt lat="41.900325" lon="2.498152">
        <ele>720.2</ele>
        <time>2011-09-06T18:50:26Z</time>
      </trkpt>
      <trkpt lat="41.900471" lon="2.498026">
        <ele>719.7</ele>
        <time>2011-09-06T18:50:25Z</time>
      </trkpt>
      <trkpt lat="41.901210" lon="2.497867">
        <ele>720.7</ele>
        <time>2011-09-06T18:50:20Z</time>
      </trkpt>
      <trkpt lat="41.901465" lon="2.498129">
        <ele>721.6</ele>
        <time>2011-09-06T18:50:18Z</time>
      </trkpt>
      <trkpt lat="41.901716" lon="2.498372">
        <ele>721.1</ele>
        <time>2011-09-06T18:50:16Z</time>
      </trkpt>
      <trkpt lat="41.902296" lon="2.498189">
        <ele>719.7</ele>
        <time>2011-09-06T18:50:11Z</time>
      </trkpt>
      <trkpt lat="41.902682" lon="2.498133">
        <ele>720.2</ele>
        <time>2011-09-06T18:50:08Z</time>
      </trkpt>
      <trkpt lat="41.902904" lon="2.499066">
        <ele>720.2</ele>
        <time>2011-09-06T18:50:03Z</time>
      </trkpt>
      <trkpt lat="41.902832" lon="2.499487">
        <ele>719.7</ele>
        <time>2011-09-06T18:50:01Z</time>
      </trkpt>
      <trkpt lat="41.902892" lon="2.500196">
        <ele>718.2</ele>
        <time>2011-09-06T18:49:57Z</time>
      </trkpt>
      <trkpt lat="41.903280" lon="2.500844">
        <ele>716.3</ele>
        <time>2011-09-06T18:49:53Z</time>
      </trkpt>
      <trkpt lat="41.903341" lon="2.501473">
        <ele>715.8</ele>
        <time>2011-09-06T18:49:49Z</time>
      </trkpt>
      <trkpt lat="41.903030" lon="2.502171">
        <ele>713.9</ele>
        <time>2011-09-06T18:49:45Z</time>
      </trkpt>
      <trkpt lat="41.902198" lon="2.502973">
        <ele>709.1</ele>
        <time>2011-09-06T18:49:39Z</time>
      </trkpt>
      <trkpt lat="41.901731" lon="2.504194">
        <ele>705.8</ele>
        <time>2011-09-06T18:49:33Z</time>
      </trkpt>
      <trkpt lat="41.901795" lon="2.504975">
        <ele>700.5</ele>
        <time>2011-09-06T18:49:28Z</time>
      </trkpt>
      <trkpt lat="41.902909" lon="2.506283">
        <ele>692.8</ele>
        <time>2011-09-06T18:49:20Z</time>
      </trkpt>
      <trkpt lat="41.903186" lon="2.506517">
        <ele>691.8</ele>
        <time>2011-09-06T18:49:18Z</time>
      </trkpt>
      <trkpt lat="41.903774" lon="2.506534">
        <ele>690.4</ele>
        <time>2011-09-06T18:49:14Z</time>
      </trkpt>
      <trkpt lat="41.904157" lon="2.506108">
        <ele>686.5</ele>
        <time>2011-09-06T18:49:10Z</time>
      </trkpt>
      <trkpt lat="41.904912" lon="2.506350">
        <ele>683.6</ele>
        <time>2011-09-06T18:49:05Z</time>
      </trkpt>
      <trkpt lat="41.905314" lon="2.507139">
        <ele>681.7</ele>
        <time>2011-09-06T18:49:00Z</time>
      </trkpt>
      <trkpt lat="41.904970" lon="2.507661">
        <ele>680.8</ele>
        <time>2011-09-06T18:48:55Z</time>
      </trkpt>
      <trkpt lat="41.904757" lon="2.507861">
        <ele>676.4</ele>
        <time>2011-09-06T18:48:53Z</time>
      </trkpt>
      <trkpt lat="41.904684" lon="2.508110">
        <ele>674.0</ele>
        <time>2011-09-06T18:48:51Z</time>
      </trkpt>
      <trkpt lat="41.904409" lon="2.508780">
        <ele>668.3</ele>
        <time>2011-09-06T18:48:46Z</time>
      </trkpt>
      <trkpt lat="41.904564" lon="2.509420">
        <ele>664.4</ele>
        <time>2011-09-06T18:48:43Z</time>
      </trkpt>
      <trkpt lat="41.904652" lon="2.509672">
        <ele>663.5</ele>
        <time>2011-09-06T18:48:42Z</time>
      </trkpt>
      <trkpt lat="41.905440" lon="2.510869">
        <ele>661.5</ele>
        <time>2011-09-06T18:48:36Z</time>
      </trkpt>
      <trkpt lat="41.905773" lon="2.511104">
        <ele>661.0</ele>
        <time>2011-09-06T18:48:34Z</time>
      </trkpt>
      <trkpt lat="41.906456" lon="2.511341">
        <ele>660.6</ele>
        <time>2011-09-06T18:48:30Z</time>
      </trkpt>
      <trkpt lat="41.907292" lon="2.511012">
        <ele>659.1</ele>
        <time>2011-09-06T18:48:25Z</time>
      </trkpt>
      <trkpt lat="41.907648" lon="2.511312">
        <ele>658.6</ele>
        <time>2011-09-06T18:48:20Z</time>
      </trkpt>
      <trkpt lat="41.907652" lon="2.511505">
        <ele>658.6</ele>
        <time>2011-09-06T18:48:19Z</time>
      </trkpt>
      <trkpt lat="41.907840" lon="2.513122">
        <ele>658.2</ele>
        <time>2011-09-06T18:48:13Z</time>
      </trkpt>
      <trkpt lat="41.908096" lon="2.513879">
        <ele>656.2</ele>
        <time>2011-09-06T18:48:09Z</time>
      </trkpt>
      <trkpt lat="41.908965" lon="2.514469">
        <ele>655.8</ele>
        <time>2011-09-06T18:48:04Z</time>
      </trkpt>
      <trkpt lat="41.909680" lon="2.515140">
        <ele>654.8</ele>
        <time>2011-09-06T18:48:00Z</time>
      </trkpt>
      <trkpt lat="41.910377" lon="2.515430">
        <ele>653.8</ele>
        <time>2011-09-06T18:47:56Z</time>
      </trkpt>
      <trkpt lat="41.910718" lon="2.515372">
        <ele>653.8</ele>
        <time>2011-09-06T18:47:54Z</time>
      </trkpt>
      <trkpt lat="41.911410" lon="2.515240">
        <ele>655.3</ele>
        <time>2011-09-06T18:47:49Z</time>
      </trkpt>
      <trkpt lat="41.911655" lon="2.514967">
        <ele>656.2</ele>
        <time>2011-09-06T18:47:46Z</time>
      </trkpt>
      <trkpt lat="41.911992" lon="2.515038">
        <ele>655.8</ele>
        <time>2011-09-06T18:47:43Z</time>
      </trkpt>
      <trkpt lat="41.912561" lon="2.515042">
        <ele>656.7</ele>
        <time>2011-09-06T18:47:39Z</time>
      </trkpt>
      <trkpt lat="41.913615" lon="2.514569">
        <ele>657.2</ele>
        <time>2011-09-06T18:47:30Z</time>
      </trkpt>
      <trkpt lat="41.914058" lon="2.514365">
        <ele>657.7</ele>
        <time>2011-09-06T18:47:26Z</time>
      </trkpt>
      <trkpt lat="41.914617" lon="2.513767">
        <ele>655.8</ele>
        <time>2011-09-06T18:47:20Z</time>
      </trkpt>
      <trkpt lat="41.914819" lon="2.513636">
        <ele>654.8</ele>
        <time>2011-09-06T18:47:18Z</time>
      </trkpt>
      <trkpt lat="41.915058" lon="2.513400">
        <ele>652.9</ele>
        <time>2011-09-06T18:47:15Z</time>
      </trkpt>
      <trkpt lat="41.915128" lon="2.512927">
        <ele>651.4</ele>
        <time>2011-09-06T18:47:10Z</time>
      </trkpt>
      <trkpt lat="41.914655" lon="2.512392">
        <ele>651.0</ele>
        <time>2011-09-06T18:47:05Z</time>
      </trkpt>
      <trkpt lat="41.914578" lon="2.511875">
        <ele>651.4</ele>
        <time>2011-09-06T18:47:01Z</time>
      </trkpt>
      <trkpt lat="41.914935" lon="2.511332">
        <ele>652.4</ele>
        <time>2011-09-06T18:46:56Z</time>
      </trkpt>
      <trkpt lat="41.915432" lon="2.511306">
        <ele>652.9</ele>
        <time>2011-09-06T18:46:52Z</time>
      </trkpt>
      <trkpt lat="41.915761" lon="2.511284">
        <ele>653.8</ele>
        <time>2011-09-06T18:46:49Z</time>
      </trkpt>
      <trkpt lat="41.916632" lon="2.511813">
        <ele>655.3</ele>
        <time>2011-09-06T18:46:39Z</time>
      </trkpt>
      <trkpt lat="41.916788" lon="2.511836">
        <ele>655.3</ele>
        <time>2011-09-06T18:46:35Z</time>
      </trkpt>
      <trkpt lat="41.916788" lon="2.511835">
        <ele>655.3</ele>
        <time>2011-09-06T18:46:13Z</time>
      </trkpt>
      <trkpt lat="41.916773" lon="2.511838">
        <ele>654.3</ele>
        <time>2011-09-06T18:45:19Z</time>
      </trkpt>
      <trkpt lat="41.916958" lon="2.511781">
        <ele>651.4</ele>
        <time>2011-09-06T18:45:10Z</time>
      </trkpt>
      <trkpt lat="41.917307" lon="2.511879">
        <ele>651.9</ele>
        <time>2011-09-06T18:45:07Z</time>
      </trkpt>
      <trkpt lat="41.917720" lon="2.511935">
        <ele>651.0</ele>
        <time>2011-09-06T18:45:04Z</time>
      </trkpt>
      <trkpt lat="41.917918" lon="2.511919">
        <ele>650.5</ele>
        <time>2011-09-06T18:45:02Z</time>
      </trkpt>
      <trkpt lat="41.917992" lon="2.511906">
        <ele>650.0</ele>
        <time>2011-09-06T18:45:01Z</time>
      </trkpt>
      <trkpt lat="41.917973" lon="2.511720">
        <ele>646.1</ele>
        <time>2011-09-06T18:44:55Z</time>
      </trkpt>
      <trkpt lat="41.917705" lon="2.511720">
        <ele>644.7</ele>
        <time>2011-09-06T18:44:52Z</time>
      </trkpt>
      <trkpt lat="41.917327" lon="2.511585">
        <ele>643.3</ele>
        <time>2011-09-06T18:44:48Z</time>
      </trkpt>
      <trkpt lat="41.917250" lon="2.511540">
        <ele>642.3</ele>
        <time>2011-09-06T18:44:47Z</time>
      </trkpt>
      <trkpt lat="41.917063" lon="2.511127">
        <ele>645.2</ele>
        <time>2011-09-06T18:44:41Z</time>
      </trkpt>
      <trkpt lat="41.917296" lon="2.510777">
        <ele>646.1</ele>
        <time>2011-09-06T18:44:35Z</time>
      </trkpt>
      <trkpt lat="41.917531" lon="2.510752">
        <ele>647.1</ele>
        <time>2011-09-06T18:44:32Z</time>
      </trkpt>
      <trkpt lat="41.917881" lon="2.510381">
        <ele>647.6</ele>
        <time>2011-09-06T18:44:26Z</time>
      </trkpt>
      <trkpt lat="41.917893" lon="2.510054">
        <ele>648.1</ele>
        <time>2011-09-06T18:44:22Z</time>
      </trkpt>
      <trkpt lat="41.917931" lon="2.509686">
        <ele>648.6</ele>
        <time>2011-09-06T18:44:16Z</time>
      </trkpt>
      <trkpt lat="41.917939" lon="2.509640">
        <ele>649.5</ele>
        <time>2011-09-06T18:44:03Z</time>
      </trkpt>
      <trkpt lat="41.917976" lon="2.509441">
        <ele>648.6</ele>
        <time>2011-09-06T18:44:00Z</time>
      </trkpt>
      <trkpt lat="41.918077" lon="2.509201">
        <ele>646.1</ele>
        <time>2011-09-06T18:43:56Z</time>
      </trkpt>
      <trkpt lat="41.918509" lon="2.509142">
        <ele>643.7</ele>
        <time>2011-09-06T18:43:51Z</time>
      </trkpt>
      <trkpt lat="41.919359" lon="2.508600">
        <ele>640.4</ele>
        <time>2011-09-06T18:43:43Z</time>
      </trkpt>
      <trkpt lat="41.920182" lon="2.507883">
        <ele>641.8</ele>
        <time>2011-09-06T18:43:34Z</time>
      </trkpt>
      <trkpt lat="41.920352" lon="2.507586">
        <ele>642.8</ele>
        <time>2011-09-06T18:43:31Z</time>
      </trkpt>
      <trkpt lat="41.920448" lon="2.507179">
        <ele>645.2</ele>
        <time>2011-09-06T18:43:26Z</time>
      </trkpt>
      <trkpt lat="41.920564" lon="2.507043">
        <ele>646.1</ele>
        <time>2011-09-06T18:43:24Z</time>
      </trkpt>
      <trkpt lat="41.920733" lon="2.506794">
        <ele>648.1</ele>
        <time>2011-09-06T18:43:21Z</time>
      </trkpt>
      <trkpt lat="41.921376" lon="2.506097">
        <ele>659.6</ele>
        <time>2011-09-06T18:43:08Z</time>
      </trkpt>
      <trkpt lat="41.921581" lon="2.505746">
        <ele>664.9</ele>
        <time>2011-09-06T18:43:02Z</time>
      </trkpt>
      <trkpt lat="41.921767" lon="2.505491">
        <ele>670.7</ele>
        <time>2011-09-06T18:42:56Z</time>
      </trkpt>
      <trkpt lat="41.921878" lon="2.505434">
        <ele>672.1</ele>
        <time>2011-09-06T18:42:54Z</time>
      </trkpt>
      <trkpt lat="41.922381" lon="2.505013">
        <ele>681.2</ele>
        <time>2011-09-06T18:42:44Z</time>
      </trkpt>
      <trkpt lat="41.922448" lon="2.504888">
        <ele>682.7</ele>
        <time>2011-09-06T18:42:42Z</time>
      </trkpt>
      <trkpt lat="41.922542" lon="2.504546">
        <ele>685.6</ele>
        <time>2011-09-06T18:42:38Z</time>
      </trkpt>
      <trkpt lat="41.922606" lon="2.504414">
        <ele>687.0</ele>
        <time>2011-09-06T18:42:36Z</time>
      </trkpt>
      <trkpt lat="41.922772" lon="2.504192">
        <ele>691.3</ele>
        <time>2011-09-06T18:42:32Z</time>
      </trkpt>
      <trkpt lat="41.922958" lon="2.504025">
        <ele>695.2</ele>
        <time>2011-09-06T18:42:28Z</time>
      </trkpt>
      <trkpt lat="41.923035" lon="2.503847">
        <ele>697.1</ele>
        <time>2011-09-06T18:42:25Z</time>
      </trkpt>
      <trkpt lat="41.923428" lon="2.503529">
        <ele>706.2</ele>
        <time>2011-09-06T18:42:16Z</time>
      </trkpt>
      <trkpt lat="41.923577" lon="2.503432">
        <ele>710.1</ele>
        <time>2011-09-06T18:42:12Z</time>
      </trkpt>
      <trkpt lat="41.923717" lon="2.503378">
        <ele>711.0</ele>
        <time>2011-09-06T18:42:09Z</time>
      </trkpt>
      <trkpt lat="41.923816" lon="2.503381">
        <ele>713.0</ele>
        <time>2011-09-06T18:42:07Z</time>
      </trkpt>
      <trkpt lat="41.923983" lon="2.503326">
        <ele>716.8</ele>
        <time>2011-09-06T18:42:03Z</time>
      </trkpt>
      <trkpt lat="41.924053" lon="2.503168">
        <ele>718.7</ele>
        <time>2011-09-06T18:42:00Z</time>
      </trkpt>
      <trkpt lat="41.924246" lon="2.503016">
        <ele>722.1</ele>
        <time>2011-09-06T18:41:55Z</time>
      </trkpt>
      <trkpt lat="41.924411" lon="2.503108">
        <ele>726.9</ele>
        <time>2011-09-06T18:41:52Z</time>
      </trkpt>
      <trkpt lat="41.924881" lon="2.503279">
        <ele>730.7</ele>
        <time>2011-09-06T18:41:46Z</time>
      </trkpt>
      <trkpt lat="41.925040" lon="2.503271">
        <ele>731.2</ele>
        <time>2011-09-06T18:41:44Z</time>
      </trkpt>
      <trkpt lat="41.925286" lon="2.503063">
        <ele>736.5</ele>
        <time>2011-09-06T18:41:39Z</time>
      </trkpt>
      <trkpt lat="41.925294" lon="2.502361">
        <ele>738.9</ele>
        <time>2011-09-06T18:41:33Z</time>
      </trkpt>
      <trkpt lat="41.925495" lon="2.501552">
        <ele>744.2</ele>
        <time>2011-09-06T18:41:26Z</time>
      </trkpt>
      <trkpt lat="41.925733" lon="2.500907">
        <ele>745.2</ele>
        <time>2011-09-06T18:41:21Z</time>
      </trkpt>
      <trkpt lat="41.925989" lon="2.500488">
        <ele>746.1</ele>
        <time>2011-09-06T18:41:16Z</time>
      </trkpt>
      <trkpt lat="41.926113" lon="2.500002">
        <ele>747.6</ele>
        <time>2011-09-06T18:41:12Z</time>
      </trkpt>
      <trkpt lat="41.926220" lon="2.499389">
        <ele>749.0</ele>
        <time>2011-09-06T18:41:07Z</time>
      </trkpt>
      <trkpt lat="41.926381" lon="2.499066">
        <ele>749.0</ele>
        <time>2011-09-06T18:41:04Z</time>
      </trkpt>
      <trkpt lat="41.926486" lon="2.498641">
        <ele>750.9</ele>
        <time>2011-09-06T18:41:00Z</time>
      </trkpt>
      <trkpt lat="41.926419" lon="2.498200">
        <ele>752.4</ele>
        <time>2011-09-06T18:40:56Z</time>
      </trkpt>
      <trkpt lat="41.926392" lon="2.497874">
        <ele>751.4</ele>
        <time>2011-09-06T18:40:52Z</time>
      </trkpt>
      <trkpt lat="41.926614" lon="2.498022">
        <ele>754.8</ele>
        <time>2011-09-06T18:40:45Z</time>
      </trkpt>
      <trkpt lat="41.926695" lon="2.498192">
        <ele>755.7</ele>
        <time>2011-09-06T18:40:43Z</time>
      </trkpt>
      <trkpt lat="41.926774" lon="2.498432">
        <ele>756.7</ele>
        <time>2011-09-06T18:40:41Z</time>
      </trkpt>
      <trkpt lat="41.927087" lon="2.499454">
        <ele>761.0</ele>
        <time>2011-09-06T18:40:34Z</time>
      </trkpt>
      <trkpt lat="41.927278" lon="2.499705">
        <ele>763.9</ele>
        <time>2011-09-06T18:40:30Z</time>
      </trkpt>
      <trkpt lat="41.927370" lon="2.499959">
        <ele>767.3</ele>
        <time>2011-09-06T18:40:26Z</time>
      </trkpt>
      <trkpt lat="41.927322" lon="2.500129">
        <ele>769.2</ele>
        <time>2011-09-06T18:40:24Z</time>
      </trkpt>
      <trkpt lat="41.927292" lon="2.500213">
        <ele>769.7</ele>
        <time>2011-09-06T18:40:23Z</time>
      </trkpt>
      <trkpt lat="41.927423" lon="2.500435">
        <ele>775.0</ele>
        <time>2011-09-06T18:40:17Z</time>
      </trkpt>
      <trkpt lat="41.927546" lon="2.500294">
        <ele>776.4</ele>
        <time>2011-09-06T18:40:14Z</time>
      </trkpt>
      <trkpt lat="41.927582" lon="2.500263">
        <ele>776.4</ele>
        <time>2011-09-06T18:40:13Z</time>
      </trkpt>
      <trkpt lat="41.927946" lon="2.500052">
        <ele>781.7</ele>
        <time>2011-09-06T18:40:06Z</time>
      </trkpt>
      <trkpt lat="41.928380" lon="2.499304">
        <ele>787.9</ele>
        <time>2011-09-06T18:39:57Z</time>
      </trkpt>
      <trkpt lat="41.928510" lon="2.499427">
        <ele>791.3</ele>
        <time>2011-09-06T18:39:50Z</time>
      </trkpt>
      <trkpt lat="41.928482" lon="2.499822">
        <ele>794.2</ele>
        <time>2011-09-06T18:39:46Z</time>
      </trkpt>
      <trkpt lat="41.928558" lon="2.500075">
        <ele>793.2</ele>
        <time>2011-09-06T18:39:42Z</time>
      </trkpt>
      <trkpt lat="41.928552" lon="2.500680">
        <ele>796.1</ele>
        <time>2011-09-06T18:39:36Z</time>
      </trkpt>
      <trkpt lat="41.928428" lon="2.500986">
        <ele>799.5</ele>
        <time>2011-09-06T18:39:32Z</time>
      </trkpt>
      <trkpt lat="41.928501" lon="2.501200">
        <ele>802.8</ele>
        <time>2011-09-06T18:39:26Z</time>
      </trkpt>
      <trkpt lat="41.928579" lon="2.501084">
        <ele>804.8</ele>
        <time>2011-09-06T18:39:24Z</time>
      </trkpt>
      <trkpt lat="41.928999" lon="2.500767">
        <ele>808.1</ele>
        <time>2011-09-06T18:39:18Z</time>
      </trkpt>
      <trkpt lat="41.929324" lon="2.500557">
        <ele>810.5</ele>
        <time>2011-09-06T18:39:13Z</time>
      </trkpt>
      <trkpt lat="41.929550" lon="2.500142">
        <ele>814.4</ele>
        <time>2011-09-06T18:39:07Z</time>
      </trkpt>
      <trkpt lat="41.929557" lon="2.499957">
        <ele>815.8</ele>
        <time>2011-09-06T18:39:05Z</time>
      </trkpt>
      <trkpt lat="41.929746" lon="2.499403">
        <ele>819.2</ele>
        <time>2011-09-06T18:38:59Z</time>
      </trkpt>
      <trkpt lat="41.929995" lon="2.499213">
        <ele>823.0</ele>
        <time>2011-09-06T18:38:56Z</time>
      </trkpt>
      <trkpt lat="41.930125" lon="2.498783">
        <ele>823.0</ele>
        <time>2011-09-06T18:38:52Z</time>
      </trkpt>
      <trkpt lat="41.930104" lon="2.498373">
        <ele>824.0</ele>
        <time>2011-09-06T18:38:47Z</time>
      </trkpt>
      <trkpt lat="41.929896" lon="2.498004">
        <ele>826.4</ele>
        <time>2011-09-06T18:38:42Z</time>
      </trkpt>
      <trkpt lat="41.929749" lon="2.497697">
        <ele>828.8</ele>
        <time>2011-09-06T18:38:39Z</time>
      </trkpt>
      <trkpt lat="41.929714" lon="2.497310">
        <ele>830.2</ele>
        <time>2011-09-06T18:38:35Z</time>
      </trkpt>
      <trkpt lat="41.929732" lon="2.497072">
        <ele>830.7</ele>
        <time>2011-09-06T18:38:32Z</time>
      </trkpt>
      <trkpt lat="41.929790" lon="2.497013">
        <ele>831.7</ele>
        <time>2011-09-06T18:38:28Z</time>
      </trkpt>
      <trkpt lat="41.929901" lon="2.497465">
        <ele>832.6</ele>
        <time>2011-09-06T18:38:23Z</time>
      </trkpt>
      <trkpt lat="41.930004" lon="2.497731">
        <ele>833.1</ele>
        <time>2011-09-06T18:38:20Z</time>
      </trkpt>
      <trkpt lat="41.930136" lon="2.497966">
        <ele>835.0</ele>
        <time>2011-09-06T18:38:17Z</time>
      </trkpt>
      <trkpt lat="41.930191" lon="2.498036">
        <ele>835.5</ele>
        <time>2011-09-06T18:38:16Z</time>
      </trkpt>
      <trkpt lat="41.930709" lon="2.498756">
        <ele>841.3</ele>
        <time>2011-09-06T18:38:05Z</time>
      </trkpt>
      <trkpt lat="41.930732" lon="2.499239">
        <ele>845.6</ele>
        <time>2011-09-06T18:37:57Z</time>
      </trkpt>
      <trkpt lat="41.930670" lon="2.499418">
        <ele>847.1</ele>
        <time>2011-09-06T18:37:54Z</time>
      </trkpt>
      <trkpt lat="41.930592" lon="2.499600">
        <ele>849.5</ele>
        <time>2011-09-06T18:37:51Z</time>
      </trkpt>
      <trkpt lat="41.930498" lon="2.499815">
        <ele>851.4</ele>
        <time>2011-09-06T18:37:47Z</time>
      </trkpt>
      <trkpt lat="41.930439" lon="2.500184">
        <ele>855.7</ele>
        <time>2011-09-06T18:37:43Z</time>
      </trkpt>
      <trkpt lat="41.930612" lon="2.500862">
        <ele>858.6</ele>
        <time>2011-09-06T18:37:35Z</time>
      </trkpt>
      <trkpt lat="41.930556" lon="2.501161">
        <ele>860.5</ele>
        <time>2011-09-06T18:37:30Z</time>
      </trkpt>
      <trkpt lat="41.930379" lon="2.501380">
        <ele>861.5</ele>
        <time>2011-09-06T18:37:27Z</time>
      </trkpt>
      <trkpt lat="41.930338" lon="2.501536">
        <ele>862.4</ele>
        <time>2011-09-06T18:37:21Z</time>
      </trkpt>
      <trkpt lat="41.930381" lon="2.501421">
        <ele>863.4</ele>
        <time>2011-09-06T18:37:19Z</time>
      </trkpt>
      <trkpt lat="41.930538" lon="2.501219">
        <ele>865.3</ele>
        <time>2011-09-06T18:37:15Z</time>
      </trkpt>
      <trkpt lat="41.930702" lon="2.501027">
        <ele>867.3</ele>
        <time>2011-09-06T18:37:11Z</time>
      </trkpt>
      <trkpt lat="41.930714" lon="2.500967">
        <ele>867.3</ele>
        <time>2011-09-06T18:37:10Z</time>
      </trkpt>
      <trkpt lat="41.930829" lon="2.500458">
        <ele>867.7</ele>
        <time>2011-09-06T18:36:59Z</time>
      </trkpt>
      <trkpt lat="41.930852" lon="2.500440">
        <ele>867.3</ele>
        <time>2011-09-06T18:36:53Z</time>
      </trkpt>
      <trkpt lat="41.930821" lon="2.500491">
        <ele>867.3</ele>
        <time>2011-09-06T18:36:51Z</time>
      </trkpt>
      <trkpt lat="41.930757" lon="2.500817">
        <ele>867.3</ele>
        <time>2011-09-06T18:36:47Z</time>
      </trkpt>
      <trkpt lat="41.930754" lon="2.501199">
        <ele>867.3</ele>
        <time>2011-09-06T18:36:43Z</time>
      </trkpt>
      <trkpt lat="41.930553" lon="2.501621">
        <ele>866.3</ele>
        <time>2011-09-06T18:36:37Z</time>
      </trkpt>
      <trkpt lat="41.930422" lon="2.502068">
        <ele>864.8</ele>
        <time>2011-09-06T18:36:31Z</time>
      </trkpt>
      <trkpt lat="41.930335" lon="2.502204">
        <ele>863.9</ele>
        <time>2011-09-06T18:36:29Z</time>
      </trkpt>
      <trkpt lat="41.930095" lon="2.502419">
        <ele>862.4</ele>
        <time>2011-09-06T18:36:24Z</time>
      </trkpt>
      <trkpt lat="41.929886" lon="2.502463">
        <ele>862.0</ele>
        <time>2011-09-06T18:36:20Z</time>
      </trkpt>
      <trkpt lat="41.929699" lon="2.502862">
        <ele>862.0</ele>
        <time>2011-09-06T18:36:13Z</time>
      </trkpt>
      <trkpt lat="41.929949" lon="2.503454">
        <ele>861.0</ele>
        <time>2011-09-06T18:36:07Z</time>
      </trkpt>
      <trkpt lat="41.930303" lon="2.503798">
        <ele>860.5</ele>
        <time>2011-09-06T18:36:02Z</time>
      </trkpt>
      <trkpt lat="41.930909" lon="2.504505">
        <ele>861.0</ele>
        <time>2011-09-06T18:35:53Z</time>
      </trkpt>
      <trkpt lat="41.930997" lon="2.504568">
        <ele>860.5</ele>
        <time>2011-09-06T18:35:51Z</time>
      </trkpt>
      <trkpt lat="41.931057" lon="2.504640">
        <ele>859.1</ele>
        <time>2011-09-06T18:35:49Z</time>
      </trkpt>
      <trkpt lat="41.930900" lon="2.504756">
        <ele>855.2</ele>
        <time>2011-09-06T18:35:43Z</time>
      </trkpt>
      <trkpt lat="41.930750" lon="2.504602">
        <ele>853.8</ele>
        <time>2011-09-06T18:35:40Z</time>
      </trkpt>
      <trkpt lat="41.930650" lon="2.504528">
        <ele>851.9</ele>
        <time>2011-09-06T18:35:38Z</time>
      </trkpt>
      <trkpt lat="41.930197" lon="2.504104">
        <ele>844.2</ele>
        <time>2011-09-06T18:35:29Z</time>
      </trkpt>
      <trkpt lat="41.930039" lon="2.504049">
        <ele>842.7</ele>
        <time>2011-09-06T18:35:26Z</time>
      </trkpt>
      <trkpt lat="41.929862" lon="2.504018">
        <ele>841.8</ele>
        <time>2011-09-06T18:35:22Z</time>
      </trkpt>
      <trkpt lat="41.929684" lon="2.503997">
        <ele>839.4</ele>
        <time>2011-09-06T18:35:18Z</time>
      </trkpt>
      <trkpt lat="41.929325" lon="2.504136">
        <ele>833.6</ele>
        <time>2011-09-06T18:35:11Z</time>
      </trkpt>
      <trkpt lat="41.929233" lon="2.504169">
        <ele>833.6</ele>
        <time>2011-09-06T18:35:09Z</time>
      </trkpt>
      <trkpt lat="41.929187" lon="2.504290">
        <ele>831.7</ele>
        <time>2011-09-06T18:35:04Z</time>
      </trkpt>
      <trkpt lat="41.929247" lon="2.504279">
        <ele>830.2</ele>
        <time>2011-09-06T18:35:02Z</time>
      </trkpt>
      <trkpt lat="41.929669" lon="2.504261">
        <ele>825.0</ele>
        <time>2011-09-06T18:34:54Z</time>
      </trkpt>
      <trkpt lat="41.929758" lon="2.504326">
        <ele>824.0</ele>
        <time>2011-09-06T18:34:52Z</time>
      </trkpt>
      <trkpt lat="41.930119" lon="2.504573">
        <ele>819.7</ele>
        <time>2011-09-06T18:34:44Z</time>
      </trkpt>
      <trkpt lat="41.930230" lon="2.504709">
        <ele>817.7</ele>
        <time>2011-09-06T18:34:40Z</time>
      </trkpt>
      <trkpt lat="41.930300" lon="2.504933">
        <ele>814.4</ele>
        <time>2011-09-06T18:34:35Z</time>
      </trkpt>
      <trkpt lat="41.930490" lon="2.505342">
        <ele>809.6</ele>
        <time>2011-09-06T18:34:25Z</time>
      </trkpt>
      <trkpt lat="41.930894" lon="2.505748">
        <ele>804.8</ele>
        <time>2011-09-06T18:34:17Z</time>
      </trkpt>
      <trkpt lat="41.931097" lon="2.505876">
        <ele>804.3</ele>
        <time>2011-09-06T18:34:13Z</time>
      </trkpt>
      <trkpt lat="41.931333" lon="2.505952">
        <ele>800.9</ele>
        <time>2011-09-06T18:34:07Z</time>
      </trkpt>
      <trkpt lat="41.931604" lon="2.505919">
        <ele>797.1</ele>
        <time>2011-09-06T18:34:01Z</time>
      </trkpt>
      <trkpt lat="41.931742" lon="2.505819">
        <ele>795.2</ele>
        <time>2011-09-06T18:33:57Z</time>
      </trkpt>
      <trkpt lat="41.931773" lon="2.505797">
        <ele>794.7</ele>
        <time>2011-09-06T18:33:14Z</time>
      </trkpt>
      <trkpt lat="41.931761" lon="2.505799">
        <ele>793.7</ele>
        <time>2011-09-06T18:32:48Z</time>
      </trkpt>
      <trkpt lat="41.932009" lon="2.505565">
        <ele>788.9</ele>
        <time>2011-09-06T18:32:37Z</time>
      </trkpt>
      <trkpt lat="41.932094" lon="2.505549">
        <ele>787.5</ele>
        <time>2011-09-06T18:32:34Z</time>
      </trkpt>
      <trkpt lat="41.932245" lon="2.505583">
        <ele>784.1</ele>
        <time>2011-09-06T18:32:23Z</time>
      </trkpt>
      <trkpt lat="41.932251" lon="2.505570">
        <ele>784.1</ele>
        <time>2011-09-06T18:32:04Z</time>
      </trkpt>
      <trkpt lat="41.932330" lon="2.505617">
        <ele>783.6</ele>
        <time>2011-09-06T18:31:50Z</time>
      </trkpt>
      <trkpt lat="41.932327" lon="2.505626">
        <ele>783.1</ele>
        <time>2011-09-06T18:30:38Z</time>
      </trkpt>
      <trkpt lat="41.932307" lon="2.505615">
        <ele>782.7</ele>
        <time>2011-09-06T18:29:56Z</time>
      </trkpt>
      <trkpt lat="41.932376" lon="2.505675">
        <ele>782.2</ele>
        <time>2011-09-06T18:29:47Z</time>
      </trkpt>
      <trkpt lat="41.932623" lon="2.505849">
        <ele>780.3</ele>
        <time>2011-09-06T18:29:38Z</time>
      </trkpt>
      <trkpt lat="41.932780" lon="2.506371">
        <ele>774.5</ele>
        <time>2011-09-06T18:29:27Z</time>
      </trkpt>
      <trkpt lat="41.932883" lon="2.506666">
        <ele>772.1</ele>
        <time>2011-09-06T18:29:22Z</time>
      </trkpt>
      <trkpt lat="41.932928" lon="2.506748">
        <ele>770.6</ele>
        <time>2011-09-06T18:29:20Z</time>
      </trkpt>
      <trkpt lat="41.933067" lon="2.506876">
        <ele>769.2</ele>
        <time>2011-09-06T18:29:16Z</time>
      </trkpt>
      <trkpt lat="41.933308" lon="2.506992">
        <ele>766.3</ele>
        <time>2011-09-06T18:29:10Z</time>
      </trkpt>
      <trkpt lat="41.933362" lon="2.507000">
        <ele>766.3</ele>
        <time>2011-09-06T18:29:09Z</time>
      </trkpt>
      <trkpt lat="41.933664" lon="2.507253">
        <ele>766.8</ele>
        <time>2011-09-06T18:29:00Z</time>
      </trkpt>
      <trkpt lat="41.933758" lon="2.507356">
        <ele>767.3</ele>
        <time>2011-09-06T18:28:58Z</time>
      </trkpt>
      <trkpt lat="41.933874" lon="2.507446">
        <ele>767.8</ele>
        <time>2011-09-06T18:28:56Z</time>
      </trkpt>
      <trkpt lat="41.934071" lon="2.507606">
        <ele>769.7</ele>
        <time>2011-09-06T18:28:51Z</time>
      </trkpt>
      <trkpt lat="41.934102" lon="2.507898">
        <ele>771.1</ele>
        <time>2011-09-06T18:28:45Z</time>
      </trkpt>
      <trkpt lat="41.934311" lon="2.508347">
        <ele>774.5</ele>
        <time>2011-09-06T18:28:35Z</time>
      </trkpt>
      <trkpt lat="41.934400" lon="2.508670">
        <ele>776.4</ele>
        <time>2011-09-06T18:28:28Z</time>
      </trkpt>
      <trkpt lat="41.934431" lon="2.509097">
        <ele>779.3</ele>
        <time>2011-09-06T18:28:23Z</time>
      </trkpt>
      <trkpt lat="41.934676" lon="2.509717">
        <ele>784.1</ele>
        <time>2011-09-06T18:28:15Z</time>
      </trkpt>
      <trkpt lat="41.934985" lon="2.509924">
        <ele>784.1</ele>
        <time>2011-09-06T18:28:10Z</time>
      </trkpt>
      <trkpt lat="41.935230" lon="2.509969">
        <ele>785.1</ele>
        <time>2011-09-06T18:28:04Z</time>
      </trkpt>
      <trkpt lat="41.935396" lon="2.510127">
        <ele>787.0</ele>
        <time>2011-09-06T18:27:59Z</time>
      </trkpt>
      <trkpt lat="41.935488" lon="2.510418">
        <ele>787.9</ele>
        <time>2011-09-06T18:27:54Z</time>
      </trkpt>
      <trkpt lat="41.935486" lon="2.510432">
        <ele>788.4</ele>
        <time>2011-09-06T18:27:37Z</time>
      </trkpt>
      <trkpt lat="41.935671" lon="2.510767">
        <ele>792.7</ele>
        <time>2011-09-06T18:27:27Z</time>
      </trkpt>
      <trkpt lat="41.935978" lon="2.510892">
        <ele>797.6</ele>
        <time>2011-09-06T18:27:21Z</time>
      </trkpt>
      <trkpt lat="41.936164" lon="2.510873">
        <ele>801.9</ele>
        <time>2011-09-06T18:27:18Z</time>
      </trkpt>
      <trkpt lat="41.936278" lon="2.510657">
        <ele>807.6</ele>
        <time>2011-09-06T18:27:13Z</time>
      </trkpt>
      <trkpt lat="41.936308" lon="2.510354">
        <ele>810.1</ele>
        <time>2011-09-06T18:27:09Z</time>
      </trkpt>
      <trkpt lat="41.936488" lon="2.510197">
        <ele>811.5</ele>
        <time>2011-09-06T18:27:05Z</time>
      </trkpt>
      <trkpt lat="41.936666" lon="2.510151">
        <ele>812.9</ele>
        <time>2011-09-06T18:27:02Z</time>
      </trkpt>
      <trkpt lat="41.937066" lon="2.509992">
        <ele>816.8</ele>
        <time>2011-09-06T18:26:55Z</time>
      </trkpt>
      <trkpt lat="41.937190" lon="2.509981">
        <ele>817.3</ele>
        <time>2011-09-06T18:26:53Z</time>
      </trkpt>
      <trkpt lat="41.937436" lon="2.509567">
        <ele>821.1</ele>
        <time>2011-09-06T18:26:45Z</time>
      </trkpt>
      <trkpt lat="41.937457" lon="2.508947">
        <ele>825.0</ele>
        <time>2011-09-06T18:26:37Z</time>
      </trkpt>
      <trkpt lat="41.937469" lon="2.508842">
        <ele>826.4</ele>
        <time>2011-09-06T18:26:35Z</time>
      </trkpt>
      <trkpt lat="41.937404" lon="2.508918">
        <ele>829.3</ele>
        <time>2011-09-06T18:26:29Z</time>
      </trkpt>
      <trkpt lat="41.937406" lon="2.509089">
        <ele>831.2</ele>
        <time>2011-09-06T18:26:27Z</time>
      </trkpt>
      <trkpt lat="41.937378" lon="2.509264">
        <ele>833.1</ele>
        <time>2011-09-06T18:26:25Z</time>
      </trkpt>
      <trkpt lat="41.936942" lon="2.509610">
        <ele>840.8</ele>
        <time>2011-09-06T18:26:17Z</time>
      </trkpt>
      <trkpt lat="41.936630" lon="2.509607">
        <ele>842.7</ele>
        <time>2011-09-06T18:26:12Z</time>
      </trkpt>
      <trkpt lat="41.936447" lon="2.509487">
        <ele>845.1</ele>
        <time>2011-09-06T18:26:08Z</time>
      </trkpt>
      <trkpt lat="41.936165" lon="2.509419">
        <ele>848.5</ele>
        <time>2011-09-06T18:26:03Z</time>
      </trkpt>
      <trkpt lat="41.936119" lon="2.509375">
        <ele>848.0</ele>
        <time>2011-09-06T18:26:02Z</time>
      </trkpt>
      <trkpt lat="41.935682" lon="2.508890">
        <ele>851.9</ele>
        <time>2011-09-06T18:25:53Z</time>
      </trkpt>
      <trkpt lat="41.935582" lon="2.508855">
        <ele>851.9</ele>
        <time>2011-09-06T18:25:51Z</time>
      </trkpt>
      <trkpt lat="41.935405" lon="2.508654">
        <ele>852.8</ele>
        <time>2011-09-06T18:25:44Z</time>
      </trkpt>
      <trkpt lat="41.935535" lon="2.508732">
        <ele>854.3</ele>
        <time>2011-09-06T18:25:41Z</time>
      </trkpt>
      <trkpt lat="41.935780" lon="2.508828">
        <ele>857.6</ele>
        <time>2011-09-06T18:25:37Z</time>
      </trkpt>
      <trkpt lat="41.935973" lon="2.508952">
        <ele>859.6</ele>
        <time>2011-09-06T18:25:34Z</time>
      </trkpt>
      <trkpt lat="41.936268" lon="2.509051">
        <ele>861.5</ele>
        <time>2011-09-06T18:25:29Z</time>
      </trkpt>
      <trkpt lat="41.936365" lon="2.509050">
        <ele>862.9</ele>
        <time>2011-09-06T18:25:27Z</time>
      </trkpt>
      <trkpt lat="41.936652" lon="2.509043">
        <ele>867.3</ele>
        <time>2011-09-06T18:25:21Z</time>
      </trkpt>
      <trkpt lat="41.936843" lon="2.508928">
        <ele>870.1</ele>
        <time>2011-09-06T18:25:15Z</time>
      </trkpt>
      <trkpt lat="41.936840" lon="2.508556">
        <ele>872.1</ele>
        <time>2011-09-06T18:25:10Z</time>
      </trkpt>
      <trkpt lat="41.936860" lon="2.508100">
        <ele>875.4</ele>
        <time>2011-09-06T18:25:04Z</time>
      </trkpt>
      <trkpt lat="41.936740" lon="2.507846">
        <ele>876.9</ele>
        <time>2011-09-06T18:25:00Z</time>
      </trkpt>
      <trkpt lat="41.936450" lon="2.507177">
        <ele>882.2</ele>
        <time>2011-09-06T18:24:51Z</time>
      </trkpt>
      <trkpt lat="41.936385" lon="2.506920">
        <ele>882.6</ele>
        <time>2011-09-06T18:24:47Z</time>
      </trkpt>
      <trkpt lat="41.936485" lon="2.506600">
        <ele>884.1</ele>
        <time>2011-09-06T18:24:42Z</time>
      </trkpt>
      <trkpt lat="41.936875" lon="2.506138">
        <ele>888.4</ele>
        <time>2011-09-06T18:24:33Z</time>
      </trkpt>
      <trkpt lat="41.937125" lon="2.505989">
        <ele>892.2</ele>
        <time>2011-09-06T18:24:28Z</time>
      </trkpt>
      <trkpt lat="41.937251" lon="2.505862">
        <ele>892.7</ele>
        <time>2011-09-06T18:24:24Z</time>
      </trkpt>
      <trkpt lat="41.937413" lon="2.505974">
        <ele>895.1</ele>
        <time>2011-09-06T18:24:20Z</time>
      </trkpt>
      <trkpt lat="41.937584" lon="2.506023">
        <ele>898.0</ele>
        <time>2011-09-06T18:24:16Z</time>
      </trkpt>
      <trkpt lat="41.937687" lon="2.505988">
        <ele>898.5</ele>
        <time>2011-09-06T18:24:14Z</time>
      </trkpt>
      <trkpt lat="41.937928" lon="2.505972">
        <ele>900.4</ele>
        <time>2011-09-06T18:24:10Z</time>
      </trkpt>
      <trkpt lat="41.938126" lon="2.506060">
        <ele>902.3</ele>
        <time>2011-09-06T18:24:06Z</time>
      </trkpt>
      <trkpt lat="41.938329" lon="2.506192">
        <ele>903.3</ele>
        <time>2011-09-06T18:24:02Z</time>
      </trkpt>
      <trkpt lat="41.938720" lon="2.506594">
        <ele>905.2</ele>
        <time>2011-09-06T18:23:55Z</time>
      </trkpt>
      <trkpt lat="41.938848" lon="2.506785">
        <ele>905.7</ele>
        <time>2011-09-06T18:23:52Z</time>
      </trkpt>
      <trkpt lat="41.939080" lon="2.506941">
        <ele>905.7</ele>
        <time>2011-09-06T18:23:47Z</time>
      </trkpt>
      <trkpt lat="41.939266" lon="2.506888">
        <ele>906.2</ele>
        <time>2011-09-06T18:23:44Z</time>
      </trkpt>
      <trkpt lat="41.939490" lon="2.506580">
        <ele>907.6</ele>
        <time>2011-09-06T18:23:39Z</time>
      </trkpt>
      <trkpt lat="41.939504" lon="2.506447">
        <ele>907.6</ele>
        <time>2011-09-06T18:23:37Z</time>
      </trkpt>
      <trkpt lat="41.939606" lon="2.506257">
        <ele>905.2</ele>
        <time>2011-09-06T18:23:32Z</time>
      </trkpt>
      <trkpt lat="41.939813" lon="2.506327">
        <ele>907.6</ele>
        <time>2011-09-06T18:23:28Z</time>
      </trkpt>
      <trkpt lat="41.940277" lon="2.506404">
        <ele>911.0</ele>
        <time>2011-09-06T18:23:21Z</time>
      </trkpt>
      <trkpt lat="41.940487" lon="2.506592">
        <ele>912.9</ele>
        <time>2011-09-06T18:23:16Z</time>
      </trkpt>
      <trkpt lat="41.940671" lon="2.507199">
        <ele>912.9</ele>
        <time>2011-09-06T18:23:11Z</time>
      </trkpt>
      <trkpt lat="41.940741" lon="2.507441">
        <ele>913.9</ele>
        <time>2011-09-06T18:23:09Z</time>
      </trkpt>
      <trkpt lat="41.940956" lon="2.507588">
        <ele>914.8</ele>
        <time>2011-09-06T18:23:04Z</time>
      </trkpt>
      <trkpt lat="41.941246" lon="2.507467">
        <ele>915.8</ele>
        <time>2011-09-06T18:23:00Z</time>
      </trkpt>
      <trkpt lat="41.941645" lon="2.507161">
        <ele>916.3</ele>
        <time>2011-09-06T18:22:54Z</time>
      </trkpt>
      <trkpt lat="41.941914" lon="2.507279">
        <ele>916.3</ele>
        <time>2011-09-06T18:22:48Z</time>
      </trkpt>
      <trkpt lat="41.942073" lon="2.507585">
        <ele>915.8</ele>
        <time>2011-09-06T18:22:44Z</time>
      </trkpt>
      <trkpt lat="41.942226" lon="2.507745">
        <ele>915.8</ele>
        <time>2011-09-06T18:22:41Z</time>
      </trkpt>
      <trkpt lat="41.942354" lon="2.507847">
        <ele>916.3</ele>
        <time>2011-09-06T18:22:38Z</time>
      </trkpt>
      <trkpt lat="41.942453" lon="2.507892">
        <ele>916.3</ele>
        <time>2011-09-06T18:22:36Z</time>
      </trkpt>
      <trkpt lat="41.942695" lon="2.508060">
        <ele>915.8</ele>
        <time>2011-09-06T18:22:31Z</time>
      </trkpt>
      <trkpt lat="41.942676" lon="2.508512">
        <ele>916.8</ele>
        <time>2011-09-06T18:22:24Z</time>
      </trkpt>
      <trkpt lat="41.942593" lon="2.509002">
        <ele>917.7</ele>
        <time>2011-09-06T18:22:19Z</time>
      </trkpt>
      <trkpt lat="41.942428" lon="2.509520">
        <ele>915.8</ele>
        <time>2011-09-06T18:22:14Z</time>
      </trkpt>
      <trkpt lat="41.942322" lon="2.510407">
        <ele>913.4</ele>
        <time>2011-09-06T18:22:05Z</time>
      </trkpt>
      <trkpt lat="41.942406" lon="2.510696">
        <ele>913.4</ele>
        <time>2011-09-06T18:22:00Z</time>
      </trkpt>
      <trkpt lat="41.942569" lon="2.510788">
        <ele>913.9</ele>
        <time>2011-09-06T18:21:57Z</time>
      </trkpt>
      <trkpt lat="41.942859" lon="2.510969">
        <ele>914.4</ele>
        <time>2011-09-06T18:21:53Z</time>
      </trkpt>
      <trkpt lat="41.943092" lon="2.511035">
        <ele>914.8</ele>
        <time>2011-09-06T18:21:50Z</time>
      </trkpt>
      <trkpt lat="41.943514" lon="2.511208">
        <ele>914.8</ele>
        <time>2011-09-06T18:21:43Z</time>
      </trkpt>
      <trkpt lat="41.943627" lon="2.511166">
        <ele>914.8</ele>
        <time>2011-09-06T18:21:41Z</time>
      </trkpt>
      <trkpt lat="41.943935" lon="2.511216">
        <ele>913.4</ele>
        <time>2011-09-06T18:21:35Z</time>
      </trkpt>
      <trkpt lat="41.944058" lon="2.511378">
        <ele>913.4</ele>
        <time>2011-09-06T18:21:32Z</time>
      </trkpt>
      <trkpt lat="41.944250" lon="2.511461">
        <ele>913.4</ele>
        <time>2011-09-06T18:21:28Z</time>
      </trkpt>
      <trkpt lat="41.944297" lon="2.511484">
        <ele>913.4</ele>
        <time>2011-09-06T18:21:27Z</time>
      </trkpt>
      <trkpt lat="41.944455" lon="2.511920">
        <ele>912.4</ele>
        <time>2011-09-06T18:21:19Z</time>
      </trkpt>
      <trkpt lat="41.944446" lon="2.512172">
        <ele>911.5</ele>
        <time>2011-09-06T18:21:16Z</time>
      </trkpt>
      <trkpt lat="41.944449" lon="2.512526">
        <ele>911.5</ele>
        <time>2011-09-06T18:21:09Z</time>
      </trkpt>
      <trkpt lat="41.944516" lon="2.512711">
        <ele>912.9</ele>
        <time>2011-09-06T18:21:00Z</time>
      </trkpt>
      <trkpt lat="41.944594" lon="2.512987">
        <ele>913.4</ele>
        <time>2011-09-06T18:20:55Z</time>
      </trkpt>
      <trkpt lat="41.944571" lon="2.513405">
        <ele>914.8</ele>
        <time>2011-09-06T18:20:49Z</time>
      </trkpt>
      <trkpt lat="41.944531" lon="2.513592">
        <ele>916.8</ele>
        <time>2011-09-06T18:20:46Z</time>
      </trkpt>
      <trkpt lat="41.944651" lon="2.514004">
        <ele>920.1</ele>
        <time>2011-09-06T18:20:38Z</time>
      </trkpt>
      <trkpt lat="41.944830" lon="2.514146">
        <ele>921.6</ele>
        <time>2011-09-06T18:20:34Z</time>
      </trkpt>
      <trkpt lat="41.944991" lon="2.514311">
        <ele>923.0</ele>
        <time>2011-09-06T18:20:30Z</time>
      </trkpt>
      <trkpt lat="41.945143" lon="2.514397">
        <ele>924.5</ele>
        <time>2011-09-06T18:20:26Z</time>
      </trkpt>
      <trkpt lat="41.945347" lon="2.514561">
        <ele>925.4</ele>
        <time>2011-09-06T18:20:21Z</time>
      </trkpt>
      <trkpt lat="41.945498" lon="2.514624">
        <ele>926.9</ele>
        <time>2011-09-06T18:20:17Z</time>
      </trkpt>
      <trkpt lat="41.945585" lon="2.514794">
        <ele>929.3</ele>
        <time>2011-09-06T18:20:11Z</time>
      </trkpt>
      <trkpt lat="41.945514" lon="2.514972">
        <ele>931.7</ele>
        <time>2011-09-06T18:20:06Z</time>
      </trkpt>
      <trkpt lat="41.945449" lon="2.515225">
        <ele>933.6</ele>
        <time>2011-09-06T18:20:01Z</time>
      </trkpt>
      <trkpt lat="41.945441" lon="2.515339">
        <ele>932.6</ele>
        <time>2011-09-06T18:19:59Z</time>
      </trkpt>
      <trkpt lat="41.945333" lon="2.515581">
        <ele>932.6</ele>
        <time>2011-09-06T18:19:55Z</time>
      </trkpt>
      <trkpt lat="41.945152" lon="2.516086">
        <ele>938.4</ele>
        <time>2011-09-06T18:19:44Z</time>
      </trkpt>
      <trkpt lat="41.945072" lon="2.516197">
        <ele>938.9</ele>
        <time>2011-09-06T18:19:42Z</time>
      </trkpt>
      <trkpt lat="41.944999" lon="2.516580">
        <ele>942.2</ele>
        <time>2011-09-06T18:19:36Z</time>
      </trkpt>
      <trkpt lat="41.945143" lon="2.517070">
        <ele>944.2</ele>
        <time>2011-09-06T18:19:29Z</time>
      </trkpt>
      <trkpt lat="41.945175" lon="2.517507">
        <ele>945.6</ele>
        <time>2011-09-06T18:19:22Z</time>
      </trkpt>
      <trkpt lat="41.945177" lon="2.517619">
        <ele>946.6</ele>
        <time>2011-09-06T18:19:20Z</time>
      </trkpt>
      <trkpt lat="41.945140" lon="2.518112">
        <ele>950.9</ele>
        <time>2011-09-06T18:19:10Z</time>
      </trkpt>
      <trkpt lat="41.945137" lon="2.518138">
        <ele>949.9</ele>
        <time>2011-09-06T18:18:51Z</time>
      </trkpt>
      <trkpt lat="41.945138" lon="2.518206">
        <ele>950.9</ele>
        <time>2011-09-06T18:18:48Z</time>
      </trkpt>
      <trkpt lat="41.945305" lon="2.518091">
        <ele>950.9</ele>
        <time>2011-09-06T18:18:42Z</time>
      </trkpt>
      <trkpt lat="41.945388" lon="2.517874">
        <ele>951.4</ele>
        <time>2011-09-06T18:18:39Z</time>
      </trkpt>
      <trkpt lat="41.945605" lon="2.517594">
        <ele>950.9</ele>
        <time>2011-09-06T18:18:33Z</time>
      </trkpt>
      <trkpt lat="41.946146" lon="2.517445">
        <ele>948.5</ele>
        <time>2011-09-06T18:18:25Z</time>
      </trkpt>
      <trkpt lat="41.946247" lon="2.517399">
        <ele>948.0</ele>
        <time>2011-09-06T18:18:23Z</time>
      </trkpt>
      <trkpt lat="41.946524" lon="2.517405">
        <ele>947.5</ele>
        <time>2011-09-06T18:18:18Z</time>
      </trkpt>
      <trkpt lat="41.946722" lon="2.517958">
        <ele>948.5</ele>
        <time>2011-09-06T18:18:10Z</time>
      </trkpt>
      <trkpt lat="41.946823" lon="2.518122">
        <ele>948.0</ele>
        <time>2011-09-06T18:18:07Z</time>
      </trkpt>
      <trkpt lat="41.946970" lon="2.518167">
        <ele>946.6</ele>
        <time>2011-09-06T18:18:03Z</time>
      </trkpt>
      <trkpt lat="41.947156" lon="2.518136">
        <ele>945.6</ele>
        <time>2011-09-06T18:17:59Z</time>
      </trkpt>
      <trkpt lat="41.947272" lon="2.518237">
        <ele>945.1</ele>
        <time>2011-09-06T18:17:55Z</time>
      </trkpt>
      <trkpt lat="41.947063" lon="2.518921">
        <ele>939.8</ele>
        <time>2011-09-06T18:17:46Z</time>
      </trkpt>
      <trkpt lat="41.946987" lon="2.519084">
        <ele>938.9</ele>
        <time>2011-09-06T18:17:44Z</time>
      </trkpt>
      <trkpt lat="41.947163" lon="2.519411">
        <ele>938.4</ele>
        <time>2011-09-06T18:17:38Z</time>
      </trkpt>
      <trkpt lat="41.947695" lon="2.519423">
        <ele>939.8</ele>
        <time>2011-09-06T18:17:33Z</time>
      </trkpt>
      <trkpt lat="41.947988" lon="2.519529">
        <ele>940.3</ele>
        <time>2011-09-06T18:17:30Z</time>
      </trkpt>
      <trkpt lat="41.948480" lon="2.519884">
        <ele>941.8</ele>
        <time>2011-09-06T18:17:24Z</time>
      </trkpt>
      <trkpt lat="41.948813" lon="2.519856">
        <ele>943.2</ele>
        <time>2011-09-06T18:17:18Z</time>
      </trkpt>
      <trkpt lat="41.948939" lon="2.519701">
        <ele>943.2</ele>
        <time>2011-09-06T18:17:16Z</time>
      </trkpt>
      <trkpt lat="41.949191" lon="2.519520">
        <ele>943.2</ele>
        <time>2011-09-06T18:17:12Z</time>
      </trkpt>
      <trkpt lat="41.949328" lon="2.519572">
        <ele>943.2</ele>
        <time>2011-09-06T18:17:10Z</time>
      </trkpt>
      <trkpt lat="41.949514" lon="2.519615">
        <ele>943.2</ele>
        <time>2011-09-06T18:17:08Z</time>
      </trkpt>
      <trkpt lat="41.950018" lon="2.519555">
        <ele>943.2</ele>
        <time>2011-09-06T18:17:02Z</time>
      </trkpt>
      <trkpt lat="41.950184" lon="2.519510">
        <ele>943.2</ele>
        <time>2011-09-06T18:17:00Z</time>
      </trkpt>
      <trkpt lat="41.950461" lon="2.519560">
        <ele>942.7</ele>
        <time>2011-09-06T18:16:55Z</time>
      </trkpt>
      <trkpt lat="41.950601" lon="2.519864">
        <ele>941.8</ele>
        <time>2011-09-06T18:16:51Z</time>
      </trkpt>
      <trkpt lat="41.950973" lon="2.520133">
        <ele>939.4</ele>
        <time>2011-09-06T18:16:45Z</time>
      </trkpt>
      <trkpt lat="41.951317" lon="2.520200">
        <ele>936.0</ele>
        <time>2011-09-06T18:16:40Z</time>
      </trkpt>
      <trkpt lat="41.951592" lon="2.520157">
        <ele>934.5</ele>
        <time>2011-09-06T18:16:32Z</time>
      </trkpt>
      <trkpt lat="41.951593" lon="2.520165">
        <ele>934.5</ele>
        <time>2011-09-06T18:16:28Z</time>
      </trkpt>
      <trkpt lat="41.951564" lon="2.520219">
        <ele>933.1</ele>
        <time>2011-09-06T18:16:18Z</time>
      </trkpt>
      <trkpt lat="41.951443" lon="2.520304">
        <ele>931.7</ele>
        <time>2011-09-06T18:16:15Z</time>
      </trkpt>
      <trkpt lat="41.951317" lon="2.520450">
        <ele>930.2</ele>
        <time>2011-09-06T18:16:13Z</time>
      </trkpt>
      <trkpt lat="41.950990" lon="2.520753">
        <ele>924.0</ele>
        <time>2011-09-06T18:16:08Z</time>
      </trkpt>
      <trkpt lat="41.950892" lon="2.521080">
        <ele>917.7</ele>
        <time>2011-09-06T18:16:02Z</time>
      </trkpt>
      <trkpt lat="41.951331" lon="2.520993">
        <ele>912.0</ele>
        <time>2011-09-06T18:15:56Z</time>
      </trkpt>
      <trkpt lat="41.951835" lon="2.520715">
        <ele>909.5</ele>
        <time>2011-09-06T18:15:52Z</time>
      </trkpt>
      <trkpt lat="41.952205" lon="2.520630">
        <ele>908.1</ele>
        <time>2011-09-06T18:15:49Z</time>
      </trkpt>
      <trkpt lat="41.952612" lon="2.520478">
        <ele>906.2</ele>
        <time>2011-09-06T18:15:45Z</time>
      </trkpt>
      <trkpt lat="41.952813" lon="2.520202">
        <ele>905.2</ele>
        <time>2011-09-06T18:15:41Z</time>
      </trkpt>
      <trkpt lat="41.952849" lon="2.520159">
        <ele>904.7</ele>
        <time>2011-09-06T18:15:40Z</time>
      </trkpt>
      <trkpt lat="41.952977" lon="2.520204">
        <ele>901.4</ele>
        <time>2011-09-06T18:15:33Z</time>
      </trkpt>
      <trkpt lat="41.953483" lon="2.520534">
        <ele>898.0</ele>
        <time>2011-09-06T18:15:28Z</time>
      </trkpt>
      <trkpt lat="41.954098" lon="2.521102">
        <ele>890.3</ele>
        <time>2011-09-06T18:15:22Z</time>
      </trkpt>
      <trkpt lat="41.954322" lon="2.521202">
        <ele>887.9</ele>
        <time>2011-09-06T18:15:20Z</time>
      </trkpt>
      <trkpt lat="41.954868" lon="2.521561">
        <ele>883.1</ele>
        <time>2011-09-06T18:15:15Z</time>
      </trkpt>
      <trkpt lat="41.955456" lon="2.522313">
        <ele>874.5</ele>
        <time>2011-09-06T18:15:08Z</time>
      </trkpt>
      <trkpt lat="41.955517" lon="2.522407">
        <ele>872.5</ele>
        <time>2011-09-06T18:15:07Z</time>
      </trkpt>
      <trkpt lat="41.955812" lon="2.522479">
        <ele>867.7</ele>
        <time>2011-09-06T18:15:02Z</time>
      </trkpt>
      <trkpt lat="41.955945" lon="2.522173">
        <ele>865.8</ele>
        <time>2011-09-06T18:14:59Z</time>
      </trkpt>
      <trkpt lat="41.956189" lon="2.521945">
        <ele>863.4</ele>
        <time>2011-09-06T18:14:56Z</time>
      </trkpt>
      <trkpt lat="41.956519" lon="2.521265">
        <ele>859.1</ele>
        <time>2011-09-06T18:14:50Z</time>
      </trkpt>
      <trkpt lat="41.956669" lon="2.520690">
        <ele>854.3</ele>
        <time>2011-09-06T18:14:46Z</time>
      </trkpt>
      <trkpt lat="41.957006" lon="2.520118">
        <ele>849.5</ele>
        <time>2011-09-06T18:14:41Z</time>
      </trkpt>
      <trkpt lat="41.957191" lon="2.520007">
        <ele>848.0</ele>
        <time>2011-09-06T18:14:39Z</time>
      </trkpt>
      <trkpt lat="41.957508" lon="2.520362">
        <ele>843.7</ele>
        <time>2011-09-06T18:14:31Z</time>
      </trkpt>
      <trkpt lat="41.957651" lon="2.520642">
        <ele>842.3</ele>
        <time>2011-09-06T18:14:27Z</time>
      </trkpt>
      <trkpt lat="41.957584" lon="2.521233">
        <ele>838.9</ele>
        <time>2011-09-06T18:14:23Z</time>
      </trkpt>
      <trkpt lat="41.957790" lon="2.522208">
        <ele>829.8</ele>
        <time>2011-09-06T18:14:17Z</time>
      </trkpt>
      <trkpt lat="41.957810" lon="2.523109">
        <ele>824.0</ele>
        <time>2011-09-06T18:14:11Z</time>
      </trkpt>
      <trkpt lat="41.957697" lon="2.523307">
        <ele>821.6</ele>
        <time>2011-09-06T18:14:09Z</time>
      </trkpt>
      <trkpt lat="41.957653" lon="2.523396">
        <ele>820.1</ele>
        <time>2011-09-06T18:14:08Z</time>
      </trkpt>
      <trkpt lat="41.957839" lon="2.523674">
        <ele>815.8</ele>
        <time>2011-09-06T18:14:03Z</time>
      </trkpt>
      <trkpt lat="41.958119" lon="2.523572">
        <ele>811.5</ele>
        <time>2011-09-06T18:14:00Z</time>
      </trkpt>
      <trkpt lat="41.958312" lon="2.522991">
        <ele>806.2</ele>
        <time>2011-09-06T18:13:53Z</time>
      </trkpt>
      <trkpt lat="41.958011" lon="2.521957">
        <ele>796.6</ele>
        <time>2011-09-06T18:13:44Z</time>
      </trkpt>
      <trkpt lat="41.958012" lon="2.521517">
        <ele>794.2</ele>
        <time>2011-09-06T18:13:41Z</time>
      </trkpt>
      <trkpt lat="41.958183" lon="2.521570">
        <ele>788.9</ele>
        <time>2011-09-06T18:13:35Z</time>
      </trkpt>
      <trkpt lat="41.958310" lon="2.522074">
        <ele>784.6</ele>
        <time>2011-09-06T18:13:31Z</time>
      </trkpt>
      <trkpt lat="41.958727" lon="2.522559">
        <ele>780.3</ele>
        <time>2011-09-06T18:13:27Z</time>
      </trkpt>
      <trkpt lat="41.959026" lon="2.522988">
        <ele>775.9</ele>
        <time>2011-09-06T18:13:23Z</time>
      </trkpt>
      <trkpt lat="41.958960" lon="2.523464">
        <ele>770.2</ele>
        <time>2011-09-06T18:13:20Z</time>
      </trkpt>
      <trkpt lat="41.958926" lon="2.523834">
        <ele>768.2</ele>
        <time>2011-09-06T18:13:18Z</time>
      </trkpt>
      <trkpt lat="41.958757" lon="2.524280">
        <ele>762.5</ele>
        <time>2011-09-06T18:13:14Z</time>
      </trkpt>
      <trkpt lat="41.958894" lon="2.524406">
        <ele>759.6</ele>
        <time>2011-09-06T18:13:09Z</time>
      </trkpt>
      <trkpt lat="41.959232" lon="2.524209">
        <ele>758.1</ele>
        <time>2011-09-06T18:13:06Z</time>
      </trkpt>
      <trkpt lat="41.959936" lon="2.524333">
        <ele>751.9</ele>
        <time>2011-09-06T18:13:00Z</time>
      </trkpt>
      <trkpt lat="41.960019" lon="2.524416">
        <ele>750.5</ele>
        <time>2011-09-06T18:12:59Z</time>
      </trkpt>
      <trkpt lat="41.959871" lon="2.524955">
        <ele>747.1</ele>
        <time>2011-09-06T18:12:54Z</time>
      </trkpt>
      <trkpt lat="41.959412" lon="2.525289">
        <ele>744.2</ele>
        <time>2011-09-06T18:12:50Z</time>
      </trkpt>
      <trkpt lat="41.959276" lon="2.525679">
        <ele>741.8</ele>
        <time>2011-09-06T18:12:46Z</time>
      </trkpt>
      <trkpt lat="41.959432" lon="2.526527">
        <ele>737.0</ele>
        <time>2011-09-06T18:12:41Z</time>
      </trkpt>
      <trkpt lat="41.959266" lon="2.527255">
        <ele>727.4</ele>
        <time>2011-09-06T18:12:35Z</time>
      </trkpt>
      <trkpt lat="41.959176" lon="2.527352">
        <ele>726.4</ele>
        <time>2011-09-06T18:12:34Z</time>
      </trkpt>
      <trkpt lat="41.959062" lon="2.528361">
        <ele>719.7</ele>
        <time>2011-09-06T18:12:28Z</time>
      </trkpt>
      <trkpt lat="41.959261" lon="2.529330">
        <ele>713.0</ele>
        <time>2011-09-06T18:12:22Z</time>
      </trkpt>
      <trkpt lat="41.959239" lon="2.530027">
        <ele>705.8</ele>
        <time>2011-09-06T18:12:17Z</time>
      </trkpt>
      <trkpt lat="41.959378" lon="2.530443">
        <ele>700.5</ele>
        <time>2011-09-06T18:12:14Z</time>
      </trkpt>
      <trkpt lat="41.959446" lon="2.530904">
        <ele>695.2</ele>
        <time>2011-09-06T18:12:11Z</time>
      </trkpt>
      <trkpt lat="41.959137" lon="2.531351">
        <ele>680.8</ele>
        <time>2011-09-06T18:12:05Z</time>
      </trkpt>
      <trkpt lat="41.959016" lon="2.531400">
        <ele>678.4</ele>
        <time>2011-09-06T18:12:03Z</time>
      </trkpt>
      <trkpt lat="41.959387" lon="2.531724">
        <ele>673.5</ele>
        <time>2011-09-06T18:11:58Z</time>
      </trkpt>
      <trkpt lat="41.959930" lon="2.531682">
        <ele>670.7</ele>
        <time>2011-09-06T18:11:54Z</time>
      </trkpt>
      <trkpt lat="41.960200" lon="2.530799">
        <ele>667.3</ele>
        <time>2011-09-06T18:11:48Z</time>
      </trkpt>
      <trkpt lat="41.960254" lon="2.530099">
        <ele>663.9</ele>
        <time>2011-09-06T18:11:44Z</time>
      </trkpt>
      <trkpt lat="41.960515" lon="2.528943">
        <ele>659.1</ele>
        <time>2011-09-06T18:11:38Z</time>
      </trkpt>
      <trkpt lat="41.960682" lon="2.528508">
        <ele>656.7</ele>
        <time>2011-09-06T18:11:35Z</time>
      </trkpt>
      <trkpt lat="41.960868" lon="2.528596">
        <ele>651.9</ele>
        <time>2011-09-06T18:11:30Z</time>
      </trkpt>
      <trkpt lat="41.960778" lon="2.529232">
        <ele>647.1</ele>
        <time>2011-09-06T18:11:26Z</time>
      </trkpt>
      <trkpt lat="41.960800" lon="2.529913">
        <ele>644.2</ele>
        <time>2011-09-06T18:11:22Z</time>
      </trkpt>
      <trkpt lat="41.960855" lon="2.530514">
        <ele>643.3</ele>
        <time>2011-09-06T18:11:18Z</time>
      </trkpt>
      <trkpt lat="41.960646" lon="2.531247">
        <ele>640.4</ele>
        <time>2011-09-06T18:11:14Z</time>
      </trkpt>
      <trkpt lat="41.960437" lon="2.532545">
        <ele>635.6</ele>
        <time>2011-09-06T18:11:07Z</time>
      </trkpt>
      <trkpt lat="41.960683" lon="2.534097">
        <ele>621.2</ele>
        <time>2011-09-06T18:10:58Z</time>
      </trkpt>
      <trkpt lat="41.960702" lon="2.534773">
        <ele>614.9</ele>
        <time>2011-09-06T18:10:53Z</time>
      </trkpt>
      <trkpt lat="41.960665" lon="2.535136">
        <ele>612.0</ele>
        <time>2011-09-06T18:10:50Z</time>
      </trkpt>
      <trkpt lat="41.960681" lon="2.535673">
        <ele>609.1</ele>
        <time>2011-09-06T18:10:46Z</time>
      </trkpt>
      <trkpt lat="41.960759" lon="2.536081">
        <ele>607.7</ele>
        <time>2011-09-06T18:10:43Z</time>
      </trkpt>
      <trkpt lat="41.960833" lon="2.536560">
        <ele>606.3</ele>
        <time>2011-09-06T18:10:37Z</time>
      </trkpt>
      <trkpt lat="41.960831" lon="2.536561">
        <ele>606.3</ele>
        <time>2011-09-06T18:10:09Z</time>
      </trkpt>
      <trkpt lat="41.960863" lon="2.536556">
        <ele>596.6</ele>
        <time>2011-09-06T17:53:13Z</time>
      </trkpt>
      <trkpt lat="41.960922" lon="2.536744">
        <ele>593.3</ele>
        <time>2011-09-06T17:53:03Z</time>
      </trkpt>
      <trkpt lat="41.960954" lon="2.536804">
        <ele>592.8</ele>
        <time>2011-09-06T17:53:01Z</time>
      </trkpt>
      <trkpt lat="41.961070" lon="2.536537">
        <ele>589.0</ele>
        <time>2011-09-06T17:52:56Z</time>
      </trkpt>
      <trkpt lat="41.961098" lon="2.536015">
        <ele>585.6</ele>
        <time>2011-09-06T17:52:52Z</time>
      </trkpt>
      <trkpt lat="41.961058" lon="2.535550">
        <ele>579.8</ele>
        <time>2011-09-06T17:52:45Z</time>
      </trkpt>
      <trkpt lat="41.961157" lon="2.534983">
        <ele>572.1</ele>
        <time>2011-09-06T17:52:38Z</time>
      </trkpt>
      <trkpt lat="41.961422" lon="2.534117">
        <ele>566.4</ele>
        <time>2011-09-06T17:52:33Z</time>
      </trkpt>
      <trkpt lat="41.962025" lon="2.533141">
        <ele>561.6</ele>
        <time>2011-09-06T17:52:27Z</time>
      </trkpt>
      <trkpt lat="41.962207" lon="2.532656">
        <ele>558.7</ele>
        <time>2011-09-06T17:52:23Z</time>
      </trkpt>
      <trkpt lat="41.962175" lon="2.532261">
        <ele>556.3</ele>
        <time>2011-09-06T17:52:20Z</time>
      </trkpt>
      <trkpt lat="41.962335" lon="2.531883">
        <ele>550.5</ele>
        <time>2011-09-06T17:52:14Z</time>
      </trkpt>
      <trkpt lat="41.962478" lon="2.531894">
        <ele>548.1</ele>
        <time>2011-09-06T17:52:12Z</time>
      </trkpt>
      <trkpt lat="41.962825" lon="2.531657">
        <ele>544.7</ele>
        <time>2011-09-06T17:52:08Z</time>
      </trkpt>
      <trkpt lat="41.963012" lon="2.531272">
        <ele>542.8</ele>
        <time>2011-09-06T17:52:05Z</time>
      </trkpt>
      <trkpt lat="41.963155" lon="2.530416">
        <ele>536.6</ele>
        <time>2011-09-06T17:51:58Z</time>
      </trkpt>
      <trkpt lat="41.963073" lon="2.529842">
        <ele>533.7</ele>
        <time>2011-09-06T17:51:54Z</time>
      </trkpt>
      <trkpt lat="41.963028" lon="2.529310">
        <ele>531.8</ele>
        <time>2011-09-06T17:51:49Z</time>
      </trkpt>
      <trkpt lat="41.963181" lon="2.529144">
        <ele>531.3</ele>
        <time>2011-09-06T17:51:47Z</time>
      </trkpt>
      <trkpt lat="41.963700" lon="2.528944">
        <ele>528.9</ele>
        <time>2011-09-06T17:51:42Z</time>
      </trkpt>
      <trkpt lat="41.963944" lon="2.529063">
        <ele>524.5</ele>
        <time>2011-09-06T17:51:40Z</time>
      </trkpt>
      <trkpt lat="41.964334" lon="2.528929">
        <ele>515.9</ele>
        <time>2011-09-06T17:51:34Z</time>
      </trkpt>
      <trkpt lat="41.964459" lon="2.528443">
        <ele>512.0</ele>
        <time>2011-09-06T17:51:31Z</time>
      </trkpt>
      <trkpt lat="41.964549" lon="2.527928">
        <ele>507.2</ele>
        <time>2011-09-06T17:51:28Z</time>
      </trkpt>
      <trkpt lat="41.964335" lon="2.527249">
        <ele>494.3</ele>
        <time>2011-09-06T17:51:22Z</time>
      </trkpt>
      <trkpt lat="41.964113" lon="2.526928">
        <ele>490.9</ele>
        <time>2011-09-06T17:51:19Z</time>
      </trkpt>
      <trkpt lat="41.964248" lon="2.526662">
        <ele>486.6</ele>
        <time>2011-09-06T17:51:14Z</time>
      </trkpt>
      <trkpt lat="41.964919" lon="2.526550">
        <ele>481.3</ele>
        <time>2011-09-06T17:51:09Z</time>
      </trkpt>
      <trkpt lat="41.965905" lon="2.526064">
        <ele>470.2</ele>
        <time>2011-09-06T17:51:03Z</time>
      </trkpt>
      <trkpt lat="41.966730" lon="2.525496">
        <ele>465.9</ele>
        <time>2011-09-06T17:50:57Z</time>
      </trkpt>
      <trkpt lat="41.966874" lon="2.525227">
        <ele>464.9</ele>
        <time>2011-09-06T17:50:55Z</time>
      </trkpt>
      <trkpt lat="41.967055" lon="2.524778">
        <ele>463.5</ele>
        <time>2011-09-06T17:50:52Z</time>
      </trkpt>
      <trkpt lat="41.967500" lon="2.524274">
        <ele>461.1</ele>
        <time>2011-09-06T17:50:47Z</time>
      </trkpt>
      <trkpt lat="41.967699" lon="2.524148">
        <ele>459.7</ele>
        <time>2011-09-06T17:50:45Z</time>
      </trkpt>
      <trkpt lat="41.967945" lon="2.523222">
        <ele>452.9</ele>
        <time>2011-09-06T17:50:37Z</time>
      </trkpt>
      <trkpt lat="41.967921" lon="2.523118">
        <ele>451.5</ele>
        <time>2011-09-06T17:50:36Z</time>
      </trkpt>
      <trkpt lat="41.968219" lon="2.523260">
        <ele>443.3</ele>
        <time>2011-09-06T17:50:30Z</time>
      </trkpt>
      <trkpt lat="41.968150" lon="2.524002">
        <ele>435.6</ele>
        <time>2011-09-06T17:50:24Z</time>
      </trkpt>
      <trkpt lat="41.967662" lon="2.524595">
        <ele>429.9</ele>
        <time>2011-09-06T17:50:19Z</time>
      </trkpt>
      <trkpt lat="41.967403" lon="2.525131">
        <ele>427.0</ele>
        <time>2011-09-06T17:50:15Z</time>
      </trkpt>
      <trkpt lat="41.967322" lon="2.525489">
        <ele>423.6</ele>
        <time>2011-09-06T17:50:13Z</time>
      </trkpt>
      <trkpt lat="41.967053" lon="2.526390">
        <ele>415.9</ele>
        <time>2011-09-06T17:50:07Z</time>
      </trkpt>
      <trkpt lat="41.966308" lon="2.527224">
        <ele>408.2</ele>
        <time>2011-09-06T17:50:00Z</time>
      </trkpt>
      <trkpt lat="41.966006" lon="2.527591">
        <ele>402.9</ele>
        <time>2011-09-06T17:49:55Z</time>
      </trkpt>
      <trkpt lat="41.965961" lon="2.528607">
        <ele>388.0</ele>
        <time>2011-09-06T17:49:48Z</time>
      </trkpt>
      <trkpt lat="41.965971" lon="2.529610">
        <ele>368.3</ele>
        <time>2011-09-06T17:49:42Z</time>
      </trkpt>
      <trkpt lat="41.966095" lon="2.529752">
        <ele>358.2</ele>
        <time>2011-09-06T17:49:38Z</time>
      </trkpt>
      <trkpt lat="41.966304" lon="2.529073">
        <ele>355.8</ele>
        <time>2011-09-06T17:49:32Z</time>
      </trkpt>
      <trkpt lat="41.966280" lon="2.528613">
        <ele>355.3</ele>
        <time>2011-09-06T17:49:29Z</time>
      </trkpt>
      <trkpt lat="41.966404" lon="2.528160">
        <ele>355.8</ele>
        <time>2011-09-06T17:49:25Z</time>
      </trkpt>
      <trkpt lat="41.966603" lon="2.527985">
        <ele>355.8</ele>
        <time>2011-09-06T17:49:23Z</time>
      </trkpt>
      <trkpt lat="41.966861" lon="2.527808">
        <ele>355.8</ele>
        <time>2011-09-06T17:49:21Z</time>
      </trkpt>
      <trkpt lat="41.967357" lon="2.527450">
        <ele>354.9</ele>
        <time>2011-09-06T17:49:17Z</time>
      </trkpt>
      <trkpt lat="41.967715" lon="2.527140">
        <ele>353.9</ele>
        <time>2011-09-06T17:49:13Z</time>
      </trkpt>
      <trkpt lat="41.968025" lon="2.526403">
        <ele>353.4</ele>
        <time>2011-09-06T17:49:08Z</time>
      </trkpt>
      <trkpt lat="41.968177" lon="2.525967">
        <ele>352.9</ele>
        <time>2011-09-06T17:49:05Z</time>
      </trkpt>
      <trkpt lat="41.968466" lon="2.525436">
        <ele>351.0</ele>
        <time>2011-09-06T17:49:01Z</time>
      </trkpt>
      <trkpt lat="41.968803" lon="2.525202">
        <ele>350.5</ele>
        <time>2011-09-06T17:48:58Z</time>
      </trkpt>
      <trkpt lat="41.969252" lon="2.525028">
        <ele>349.6</ele>
        <time>2011-09-06T17:48:54Z</time>
      </trkpt>
      <trkpt lat="41.969630" lon="2.524836">
        <ele>349.6</ele>
        <time>2011-09-06T17:48:50Z</time>
      </trkpt>
      <trkpt lat="41.969978" lon="2.524961">
        <ele>347.2</ele>
        <time>2011-09-06T17:48:44Z</time>
      </trkpt>
      <trkpt lat="41.970316" lon="2.525022">
        <ele>347.7</ele>
        <time>2011-09-06T17:48:38Z</time>
      </trkpt>
      <trkpt lat="41.970956" lon="2.524596">
        <ele>349.1</ele>
        <time>2011-09-06T17:48:32Z</time>
      </trkpt>
      <trkpt lat="41.971423" lon="2.524018">
        <ele>347.2</ele>
        <time>2011-09-06T17:48:27Z</time>
      </trkpt>
      <trkpt lat="41.971717" lon="2.523907">
        <ele>348.6</ele>
        <time>2011-09-06T17:48:23Z</time>
      </trkpt>
      <trkpt lat="41.971857" lon="2.523514">
        <ele>348.6</ele>
        <time>2011-09-06T17:48:20Z</time>
      </trkpt>
      <trkpt lat="41.972398" lon="2.522896">
        <ele>349.1</ele>
        <time>2011-09-06T17:48:14Z</time>
      </trkpt>
      <trkpt lat="41.972875" lon="2.522609">
        <ele>349.1</ele>
        <time>2011-09-06T17:48:10Z</time>
      </trkpt>
      <trkpt lat="41.973532" lon="2.522398">
        <ele>349.1</ele>
        <time>2011-09-06T17:48:05Z</time>
      </trkpt>
      <trkpt lat="41.973640" lon="2.522363">
        <ele>348.6</ele>
        <time>2011-09-06T17:48:04Z</time>
      </trkpt>
      <trkpt lat="41.974168" lon="2.522453">
        <ele>348.6</ele>
        <time>2011-09-06T17:47:59Z</time>
      </trkpt>
      <trkpt lat="41.974806" lon="2.522010">
        <ele>348.1</ele>
        <time>2011-09-06T17:47:53Z</time>
      </trkpt>
      <trkpt lat="41.975575" lon="2.522181">
        <ele>350.1</ele>
        <time>2011-09-06T17:47:46Z</time>
      </trkpt>
      <trkpt lat="41.975651" lon="2.522303">
        <ele>350.1</ele>
        <time>2011-09-06T17:47:45Z</time>
      </trkpt>
      <trkpt lat="41.976412" lon="2.522731">
        <ele>350.1</ele>
        <time>2011-09-06T17:47:38Z</time>
      </trkpt>
      <trkpt lat="41.976600" lon="2.522965">
        <ele>350.1</ele>
        <time>2011-09-06T17:47:35Z</time>
      </trkpt>
      <trkpt lat="41.976764" lon="2.523075">
        <ele>350.1</ele>
        <time>2011-09-06T17:47:33Z</time>
      </trkpt>
      <trkpt lat="41.977204" lon="2.523360">
        <ele>351.0</ele>
        <time>2011-09-06T17:47:28Z</time>
      </trkpt>
      <trkpt lat="41.977306" lon="2.523389">
        <ele>350.5</ele>
        <time>2011-09-06T17:47:27Z</time>
      </trkpt>
      <trkpt lat="41.977468" lon="2.523915">
        <ele>350.1</ele>
        <time>2011-09-06T17:47:21Z</time>
      </trkpt>
      <trkpt lat="41.977387" lon="2.524029">
        <ele>350.5</ele>
        <time>2011-09-06T17:47:20Z</time>
      </trkpt>
      <trkpt lat="41.977242" lon="2.524995">
        <ele>349.1</ele>
        <time>2011-09-06T17:47:14Z</time>
      </trkpt>
      <trkpt lat="41.977164" lon="2.525362">
        <ele>349.6</ele>
        <time>2011-09-06T17:47:11Z</time>
      </trkpt>
      <trkpt lat="41.977246" lon="2.526182">
        <ele>349.6</ele>
        <time>2011-09-06T17:47:05Z</time>
      </trkpt>
      <trkpt lat="41.977207" lon="2.526684">
        <ele>350.1</ele>
        <time>2011-09-06T17:47:01Z</time>
      </trkpt>
      <trkpt lat="41.977468" lon="2.527214">
        <ele>350.1</ele>
        <time>2011-09-06T17:46:56Z</time>
      </trkpt>
      <trkpt lat="41.977378" lon="2.527458">
        <ele>349.6</ele>
        <time>2011-09-06T17:46:54Z</time>
      </trkpt>
      <trkpt lat="41.977341" lon="2.527590">
        <ele>349.6</ele>
        <time>2011-09-06T17:46:53Z</time>
      </trkpt>
      <trkpt lat="41.977398" lon="2.528251">
        <ele>348.1</ele>
        <time>2011-09-06T17:46:47Z</time>
      </trkpt>
      <trkpt lat="41.977576" lon="2.528309">
        <ele>348.1</ele>
        <time>2011-09-06T17:46:45Z</time>
      </trkpt>
      <trkpt lat="41.978189" lon="2.528746">
        <ele>348.6</ele>
        <time>2011-09-06T17:46:38Z</time>
      </trkpt>
      <trkpt lat="41.978459" lon="2.529203">
        <ele>350.1</ele>
        <time>2011-09-06T17:46:34Z</time>
      </trkpt>
      <trkpt lat="41.978977" lon="2.529582">
        <ele>351.5</ele>
        <time>2011-09-06T17:46:28Z</time>
      </trkpt>
      <trkpt lat="41.978989" lon="2.529584">
        <ele>351.5</ele>
        <time>2011-09-06T17:46:27Z</time>
      </trkpt>
      <trkpt lat="41.979039" lon="2.529572">
        <ele>350.5</ele>
        <time>2011-09-06T17:46:18Z</time>
      </trkpt>
      <trkpt lat="41.979739" lon="2.529699">
        <ele>346.7</ele>
        <time>2011-09-06T17:46:05Z</time>
      </trkpt>
      <trkpt lat="41.980244" lon="2.529856">
        <ele>341.4</ele>
        <time>2011-09-06T17:45:56Z</time>
      </trkpt>
      <trkpt lat="41.980290" lon="2.529850">
        <ele>340.9</ele>
        <time>2011-09-06T17:45:55Z</time>
      </trkpt>
      <trkpt lat="41.981112" lon="2.529741">
        <ele>337.1</ele>
        <time>2011-09-06T17:45:49Z</time>
      </trkpt>
      <trkpt lat="41.981836" lon="2.529943">
        <ele>333.2</ele>
        <time>2011-09-06T17:45:45Z</time>
      </trkpt>
      <trkpt lat="41.982281" lon="2.530941">
        <ele>326.0</ele>
        <time>2011-09-06T17:45:40Z</time>
      </trkpt>
      <trkpt lat="41.982513" lon="2.531939">
        <ele>319.8</ele>
        <time>2011-09-06T17:45:36Z</time>
      </trkpt>
      <trkpt lat="41.982841" lon="2.532585">
        <ele>314.5</ele>
        <time>2011-09-06T17:45:33Z</time>
      </trkpt>
      <trkpt lat="41.982922" lon="2.532778">
        <ele>312.6</ele>
        <time>2011-09-06T17:45:32Z</time>
      </trkpt>
      <trkpt lat="41.982794" lon="2.533481">
        <ele>305.8</ele>
        <time>2011-09-06T17:45:27Z</time>
      </trkpt>
      <trkpt lat="41.982682" lon="2.534104">
        <ele>303.9</ele>
        <time>2011-09-06T17:45:22Z</time>
      </trkpt>
      <trkpt lat="41.983035" lon="2.534389">
        <ele>299.1</ele>
        <time>2011-09-06T17:45:19Z</time>
      </trkpt>
      <trkpt lat="41.983136" lon="2.534867">
        <ele>291.4</ele>
        <time>2011-09-06T17:45:15Z</time>
      </trkpt>
      <trkpt lat="41.982818" lon="2.535786">
        <ele>283.7</ele>
        <time>2011-09-06T17:45:10Z</time>
      </trkpt>
      <trkpt lat="41.982773" lon="2.536458">
        <ele>276.5</ele>
        <time>2011-09-06T17:45:07Z</time>
      </trkpt>
      <trkpt lat="41.982189" lon="2.538058">
        <ele>267.4</ele>
        <time>2011-09-06T17:45:00Z</time>
      </trkpt>
      <trkpt lat="41.981782" lon="2.538756">
        <ele>263.1</ele>
        <time>2011-09-06T17:44:56Z</time>
      </trkpt>
      <trkpt lat="41.981641" lon="2.539290">
        <ele>260.7</ele>
        <time>2011-09-06T17:44:52Z</time>
      </trkpt>
      <trkpt lat="41.981980" lon="2.540217">
        <ele>254.4</ele>
        <time>2011-09-06T17:44:47Z</time>
      </trkpt>
      <trkpt lat="41.982211" lon="2.540643">
        <ele>253.0</ele>
        <time>2011-09-06T17:44:44Z</time>
      </trkpt>
      <trkpt lat="41.982167" lon="2.541041">
        <ele>251.5</ele>
        <time>2011-09-06T17:44:41Z</time>
      </trkpt>
      <trkpt lat="41.982160" lon="2.541252">
        <ele>249.6</ele>
        <time>2011-09-06T17:44:39Z</time>
      </trkpt>
      <trkpt lat="41.982243" lon="2.540661">
        <ele>243.4</ele>
        <time>2011-09-06T17:44:33Z</time>
      </trkpt>
      <trkpt lat="41.982360" lon="2.539616">
        <ele>240.0</ele>
        <time>2011-09-06T17:44:27Z</time>
      </trkpt>
      <trkpt lat="41.982645" lon="2.539544">
        <ele>238.1</ele>
        <time>2011-09-06T17:44:24Z</time>
      </trkpt>
      <trkpt lat="41.982880" lon="2.540314">
        <ele>232.8</ele>
        <time>2011-09-06T17:44:19Z</time>
      </trkpt>
      <trkpt lat="41.982882" lon="2.540919">
        <ele>229.9</ele>
        <time>2011-09-06T17:44:17Z</time>
      </trkpt>
      <trkpt lat="41.982950" lon="2.541478">
        <ele>227.5</ele>
        <time>2011-09-06T17:44:15Z</time>
      </trkpt>
      <trkpt lat="41.983301" lon="2.542006">
        <ele>225.6</ele>
        <time>2011-09-06T17:44:10Z</time>
      </trkpt>
      <trkpt lat="41.984026" lon="2.541540">
        <ele>228.9</ele>
        <time>2011-09-06T17:44:03Z</time>
      </trkpt>
      <trkpt lat="41.984189" lon="2.541166">
        <ele>237.1</ele>
        <time>2011-09-06T17:43:57Z</time>
      </trkpt>
      <trkpt lat="41.984145" lon="2.540695">
        <ele>241.4</ele>
        <time>2011-09-06T17:43:53Z</time>
      </trkpt>
      <trkpt lat="41.984162" lon="2.540427">
        <ele>243.4</ele>
        <time>2011-09-06T17:43:51Z</time>
      </trkpt>
      <trkpt lat="41.984273" lon="2.539885">
        <ele>246.7</ele>
        <time>2011-09-06T17:43:47Z</time>
      </trkpt>
      <trkpt lat="41.984617" lon="2.538755">
        <ele>248.6</ele>
        <time>2011-09-06T17:43:39Z</time>
      </trkpt>
      <trkpt lat="41.985067" lon="2.537499">
        <ele>256.3</ele>
        <time>2011-09-06T17:43:31Z</time>
      </trkpt>
      <trkpt lat="41.985168" lon="2.536664">
        <ele>261.1</ele>
        <time>2011-09-06T17:43:26Z</time>
      </trkpt>
      <trkpt lat="41.985351" lon="2.535501">
        <ele>267.4</ele>
        <time>2011-09-06T17:43:19Z</time>
      </trkpt>
      <trkpt lat="41.985345" lon="2.535024">
        <ele>270.8</ele>
        <time>2011-09-06T17:43:16Z</time>
      </trkpt>
      <trkpt lat="41.985282" lon="2.534256">
        <ele>273.6</ele>
        <time>2011-09-06T17:43:11Z</time>
      </trkpt>
      <trkpt lat="41.985437" lon="2.533419">
        <ele>279.9</ele>
        <time>2011-09-06T17:43:05Z</time>
      </trkpt>
      <trkpt lat="41.985539" lon="2.533135">
        <ele>281.3</ele>
        <time>2011-09-06T17:43:03Z</time>
      </trkpt>
      <trkpt lat="41.985560" lon="2.532552">
        <ele>284.2</ele>
        <time>2011-09-06T17:42:59Z</time>
      </trkpt>
      <trkpt lat="41.985547" lon="2.531091">
        <ele>295.3</ele>
        <time>2011-09-06T17:42:50Z</time>
      </trkpt>
      <trkpt lat="41.985581" lon="2.530788">
        <ele>297.7</ele>
        <time>2011-09-06T17:42:48Z</time>
      </trkpt>
      <trkpt lat="41.985527" lon="2.530219">
        <ele>301.5</ele>
        <time>2011-09-06T17:42:44Z</time>
      </trkpt>
      <trkpt lat="41.985454" lon="2.529665">
        <ele>307.3</ele>
        <time>2011-09-06T17:42:40Z</time>
      </trkpt>
      <trkpt lat="41.985237" lon="2.529012">
        <ele>309.7</ele>
        <time>2011-09-06T17:42:35Z</time>
      </trkpt>
      <trkpt lat="41.985110" lon="2.528370">
        <ele>314.5</ele>
        <time>2011-09-06T17:42:30Z</time>
      </trkpt>
      <trkpt lat="41.984862" lon="2.527944">
        <ele>316.4</ele>
        <time>2011-09-06T17:42:26Z</time>
      </trkpt>
      <trkpt lat="41.984637" lon="2.527512">
        <ele>318.8</ele>
        <time>2011-09-06T17:42:22Z</time>
      </trkpt>
      <trkpt lat="41.984304" lon="2.527188">
        <ele>323.6</ele>
        <time>2011-09-06T17:42:18Z</time>
      </trkpt>
      <trkpt lat="41.984006" lon="2.526705">
        <ele>327.0</ele>
        <time>2011-09-06T17:42:14Z</time>
      </trkpt>
      <trkpt lat="41.983753" lon="2.526500">
        <ele>330.8</ele>
        <time>2011-09-06T17:42:11Z</time>
      </trkpt>
      <trkpt lat="41.983539" lon="2.526167">
        <ele>333.7</ele>
        <time>2011-09-06T17:42:07Z</time>
      </trkpt>
      <trkpt lat="41.983241" lon="2.526053">
        <ele>336.1</ele>
        <time>2011-09-06T17:42:04Z</time>
      </trkpt>
      <trkpt lat="41.982957" lon="2.525858">
        <ele>337.6</ele>
        <time>2011-09-06T17:42:01Z</time>
      </trkpt>
      <trkpt lat="41.982454" lon="2.525674">
        <ele>339.0</ele>
        <time>2011-09-06T17:41:56Z</time>
      </trkpt>
      <trkpt lat="41.981943" lon="2.525573">
        <ele>343.8</ele>
        <time>2011-09-06T17:41:51Z</time>
      </trkpt>
      <trkpt lat="41.981318" lon="2.525446">
        <ele>348.6</ele>
        <time>2011-09-06T17:41:45Z</time>
      </trkpt>
      <trkpt lat="41.981180" lon="2.524911">
        <ele>352.0</ele>
        <time>2011-09-06T17:41:39Z</time>
      </trkpt>
      <trkpt lat="41.981488" lon="2.524297">
        <ele>357.3</ele>
        <time>2011-09-06T17:41:34Z</time>
      </trkpt>
      <trkpt lat="41.981528" lon="2.523933">
        <ele>358.7</ele>
        <time>2011-09-06T17:41:31Z</time>
      </trkpt>
      <trkpt lat="41.981541" lon="2.523849">
        <ele>359.2</ele>
        <time>2011-09-06T17:41:30Z</time>
      </trkpt>
      <trkpt lat="41.981585" lon="2.524028">
        <ele>363.5</ele>
        <time>2011-09-06T17:41:25Z</time>
      </trkpt>
      <trkpt lat="41.981524" lon="2.524564">
        <ele>367.8</ele>
        <time>2011-09-06T17:41:21Z</time>
      </trkpt>
      <trkpt lat="41.981448" lon="2.524796">
        <ele>371.2</ele>
        <time>2011-09-06T17:41:19Z</time>
      </trkpt>
      <trkpt lat="41.981415" lon="2.524884">
        <ele>371.7</ele>
        <time>2011-09-06T17:41:18Z</time>
      </trkpt>
      <trkpt lat="41.981529" lon="2.524955">
        <ele>373.1</ele>
        <time>2011-09-06T17:41:12Z</time>
      </trkpt>
      <trkpt lat="41.981743" lon="2.523754">
        <ele>380.8</ele>
        <time>2011-09-06T17:41:01Z</time>
      </trkpt>
      <trkpt lat="41.981764" lon="2.523632">
        <ele>381.3</ele>
        <time>2011-09-06T17:41:00Z</time>
      </trkpt>
      <trkpt lat="41.982087" lon="2.523100">
        <ele>384.7</ele>
        <time>2011-09-06T17:40:53Z</time>
      </trkpt>
      <trkpt lat="41.982363" lon="2.523041">
        <ele>385.6</ele>
        <time>2011-09-06T17:40:50Z</time>
      </trkpt>
      <trkpt lat="41.982810" lon="2.522824">
        <ele>388.0</ele>
        <time>2011-09-06T17:40:45Z</time>
      </trkpt>
      <trkpt lat="41.983489" lon="2.522375">
        <ele>396.2</ele>
        <time>2011-09-06T17:40:36Z</time>
      </trkpt>
      <trkpt lat="41.983677" lon="2.522149">
        <ele>399.6</ele>
        <time>2011-09-06T17:40:32Z</time>
      </trkpt>
      <trkpt lat="41.983827" lon="2.521945">
        <ele>402.0</ele>
        <time>2011-09-06T17:40:29Z</time>
      </trkpt>
      <trkpt lat="41.984122" lon="2.521921">
        <ele>406.8</ele>
        <time>2011-09-06T17:40:22Z</time>
      </trkpt>
      <trkpt lat="41.984181" lon="2.522066">
        <ele>408.7</ele>
        <time>2011-09-06T17:40:20Z</time>
      </trkpt>
      <trkpt lat="41.984482" lon="2.522505">
        <ele>415.0</ele>
        <time>2011-09-06T17:40:13Z</time>
      </trkpt>
      <trkpt lat="41.984544" lon="2.522629">
        <ele>416.4</ele>
        <time>2011-09-06T17:40:10Z</time>
      </trkpt>
      <trkpt lat="41.984324" lon="2.522621">
        <ele>416.9</ele>
        <time>2011-09-06T17:40:04Z</time>
      </trkpt>
      <trkpt lat="41.984231" lon="2.522462">
        <ele>417.4</ele>
        <time>2011-09-06T17:40:02Z</time>
      </trkpt>
      <trkpt lat="41.984172" lon="2.522366">
        <ele>417.8</ele>
        <time>2011-09-06T17:40:01Z</time>
      </trkpt>
      <trkpt lat="41.983807" lon="2.522312">
        <ele>420.2</ele>
        <time>2011-09-06T17:39:54Z</time>
      </trkpt>
      <trkpt lat="41.983577" lon="2.522886">
        <ele>424.1</ele>
        <time>2011-09-06T17:39:48Z</time>
      </trkpt>
      <trkpt lat="41.983057" lon="2.523403">
        <ele>427.9</ele>
        <time>2011-09-06T17:39:41Z</time>
      </trkpt>
      <trkpt lat="41.982849" lon="2.523518">
        <ele>429.4</ele>
        <time>2011-09-06T17:39:38Z</time>
      </trkpt>
      <trkpt lat="41.982794" lon="2.523538">
        <ele>429.9</ele>
        <time>2011-09-06T17:39:37Z</time>
      </trkpt>
      <trkpt lat="41.982787" lon="2.523681">
        <ele>430.3</ele>
        <time>2011-09-06T17:39:30Z</time>
      </trkpt>
      <trkpt lat="41.983056" lon="2.523516">
        <ele>433.2</ele>
        <time>2011-09-06T17:39:26Z</time>
      </trkpt>
      <trkpt lat="41.983669" lon="2.522945">
        <ele>435.1</ele>
        <time>2011-09-06T17:39:19Z</time>
      </trkpt>
      <trkpt lat="41.983879" lon="2.522801">
        <ele>436.1</ele>
        <time>2011-09-06T17:39:15Z</time>
      </trkpt>
      <trkpt lat="41.983902" lon="2.523396">
        <ele>439.5</ele>
        <time>2011-09-06T17:39:08Z</time>
      </trkpt>
      <trkpt lat="41.983811" lon="2.523602">
        <ele>439.9</ele>
        <time>2011-09-06T17:39:06Z</time>
      </trkpt>
      <trkpt lat="41.983908" lon="2.524062">
        <ele>440.4</ele>
        <time>2011-09-06T17:39:00Z</time>
      </trkpt>
      <trkpt lat="41.984056" lon="2.524152">
        <ele>441.4</ele>
        <time>2011-09-06T17:38:58Z</time>
      </trkpt>
      <trkpt lat="41.984384" lon="2.524017">
        <ele>444.8</ele>
        <time>2011-09-06T17:38:52Z</time>
      </trkpt>
      <trkpt lat="41.984551" lon="2.523647">
        <ele>447.2</ele>
        <time>2011-09-06T17:38:48Z</time>
      </trkpt>
      <trkpt lat="41.984858" lon="2.523458">
        <ele>452.4</ele>
        <time>2011-09-06T17:38:42Z</time>
      </trkpt>
      <trkpt lat="41.984946" lon="2.523554">
        <ele>456.8</ele>
        <time>2011-09-06T17:38:40Z</time>
      </trkpt>
      <trkpt lat="41.985109" lon="2.523677">
        <ele>464.9</ele>
        <time>2011-09-06T17:38:36Z</time>
      </trkpt>
      <trkpt lat="41.985246" lon="2.523750">
        <ele>476.0</ele>
        <time>2011-09-06T17:38:33Z</time>
      </trkpt>
      <trkpt lat="41.985467" lon="2.523836">
        <ele>478.9</ele>
        <time>2011-09-06T17:38:28Z</time>
      </trkpt>
      <trkpt lat="41.985754" lon="2.523840">
        <ele>482.2</ele>
        <time>2011-09-06T17:38:24Z</time>
      </trkpt>
      <trkpt lat="41.985823" lon="2.523855">
        <ele>482.7</ele>
        <time>2011-09-06T17:38:23Z</time>
      </trkpt>
      <trkpt lat="41.985858" lon="2.524181">
        <ele>487.1</ele>
        <time>2011-09-06T17:38:17Z</time>
      </trkpt>
      <trkpt lat="41.985517" lon="2.524417">
        <ele>490.4</ele>
        <time>2011-09-06T17:38:12Z</time>
      </trkpt>
      <trkpt lat="41.985445" lon="2.524404">
        <ele>490.9</ele>
        <time>2011-09-06T17:38:11Z</time>
      </trkpt>
      <trkpt lat="41.985496" lon="2.524485">
        <ele>494.3</ele>
        <time>2011-09-06T17:38:05Z</time>
      </trkpt>
      <trkpt lat="41.985979" lon="2.524393">
        <ele>498.6</ele>
        <time>2011-09-06T17:38:00Z</time>
      </trkpt>
      <trkpt lat="41.986381" lon="2.524432">
        <ele>502.9</ele>
        <time>2011-09-06T17:37:56Z</time>
      </trkpt>
      <trkpt lat="41.986535" lon="2.524498">
        <ele>504.8</ele>
        <time>2011-09-06T17:37:53Z</time>
      </trkpt>
      <trkpt lat="41.986703" lon="2.524534">
        <ele>506.3</ele>
        <time>2011-09-06T17:37:50Z</time>
      </trkpt>
      <trkpt lat="41.986883" lon="2.524590">
        <ele>508.2</ele>
        <time>2011-09-06T17:37:47Z</time>
      </trkpt>
      <trkpt lat="41.987297" lon="2.524642">
        <ele>511.1</ele>
        <time>2011-09-06T17:37:42Z</time>
      </trkpt>
      <trkpt lat="41.987742" lon="2.524724">
        <ele>517.3</ele>
        <time>2011-09-06T17:37:34Z</time>
      </trkpt>
      <trkpt lat="41.987974" lon="2.524612">
        <ele>520.2</ele>
        <time>2011-09-06T17:37:30Z</time>
      </trkpt>
      <trkpt lat="41.988231" lon="2.524572">
        <ele>523.1</ele>
        <time>2011-09-06T17:37:26Z</time>
      </trkpt>
      <trkpt lat="41.988551" lon="2.524966">
        <ele>527.9</ele>
        <time>2011-09-06T17:37:18Z</time>
      </trkpt>
      <trkpt lat="41.988673" lon="2.525376">
        <ele>531.8</ele>
        <time>2011-09-06T17:37:14Z</time>
      </trkpt>
      <trkpt lat="41.988811" lon="2.525724">
        <ele>534.2</ele>
        <time>2011-09-06T17:37:10Z</time>
      </trkpt>
      <trkpt lat="41.988933" lon="2.525989">
        <ele>536.6</ele>
        <time>2011-09-06T17:37:07Z</time>
      </trkpt>
      <trkpt lat="41.988998" lon="2.526222">
        <ele>538.5</ele>
        <time>2011-09-06T17:37:04Z</time>
      </trkpt>
      <trkpt lat="41.989169" lon="2.526701">
        <ele>541.8</ele>
        <time>2011-09-06T17:36:58Z</time>
      </trkpt>
      <trkpt lat="41.989289" lon="2.526928">
        <ele>544.2</ele>
        <time>2011-09-06T17:36:55Z</time>
      </trkpt>
      <trkpt lat="41.989332" lon="2.527296">
        <ele>549.1</ele>
        <time>2011-09-06T17:36:49Z</time>
      </trkpt>
      <trkpt lat="41.989674" lon="2.527588">
        <ele>552.9</ele>
        <time>2011-09-06T17:36:43Z</time>
      </trkpt>
      <trkpt lat="41.990007" lon="2.527854">
        <ele>555.3</ele>
        <time>2011-09-06T17:36:38Z</time>
      </trkpt>
      <trkpt lat="41.990487" lon="2.528438">
        <ele>559.6</ele>
        <time>2011-09-06T17:36:31Z</time>
      </trkpt>
      <trkpt lat="41.990736" lon="2.528623">
        <ele>562.5</ele>
        <time>2011-09-06T17:36:28Z</time>
      </trkpt>
      <trkpt lat="41.991004" lon="2.528671">
        <ele>565.9</ele>
        <time>2011-09-06T17:36:24Z</time>
      </trkpt>
      <trkpt lat="41.991139" lon="2.528594">
        <ele>567.3</ele>
        <time>2011-09-06T17:36:22Z</time>
      </trkpt>
      <trkpt lat="41.991272" lon="2.528569">
        <ele>569.2</ele>
        <time>2011-09-06T17:36:20Z</time>
      </trkpt>
      <trkpt lat="41.991470" lon="2.528615">
        <ele>571.6</ele>
        <time>2011-09-06T17:36:17Z</time>
      </trkpt>
      <trkpt lat="41.991786" lon="2.528600">
        <ele>575.0</ele>
        <time>2011-09-06T17:36:13Z</time>
      </trkpt>
      <trkpt lat="41.992253" lon="2.528476">
        <ele>578.9</ele>
        <time>2011-09-06T17:36:07Z</time>
      </trkpt>
      <trkpt lat="41.992373" lon="2.528292">
        <ele>581.3</ele>
        <time>2011-09-06T17:36:04Z</time>
      </trkpt>
      <trkpt lat="41.992295" lon="2.528034">
        <ele>583.7</ele>
        <time>2011-09-06T17:36:01Z</time>
      </trkpt>
      <trkpt lat="41.992176" lon="2.527298">
        <ele>589.0</ele>
        <time>2011-09-06T17:35:54Z</time>
      </trkpt>
      <trkpt lat="41.992176" lon="2.527125">
        <ele>591.4</ele>
        <time>2011-09-06T17:35:52Z</time>
      </trkpt>
      <trkpt lat="41.992261" lon="2.527055">
        <ele>594.7</ele>
        <time>2011-09-06T17:35:46Z</time>
      </trkpt>
      <trkpt lat="41.992288" lon="2.527368">
        <ele>596.6</ele>
        <time>2011-09-06T17:35:42Z</time>
      </trkpt>
      <trkpt lat="41.992619" lon="2.527970">
        <ele>603.9</ele>
        <time>2011-09-06T17:35:36Z</time>
      </trkpt>
      <trkpt lat="41.992689" lon="2.528059">
        <ele>604.8</ele>
        <time>2011-09-06T17:35:35Z</time>
      </trkpt>
      <trkpt lat="41.992703" lon="2.528601">
        <ele>609.6</ele>
        <time>2011-09-06T17:35:29Z</time>
      </trkpt>
      <trkpt lat="41.992315" lon="2.529106">
        <ele>614.9</ele>
        <time>2011-09-06T17:35:24Z</time>
      </trkpt>
      <trkpt lat="41.992050" lon="2.529286">
        <ele>618.3</ele>
        <time>2011-09-06T17:35:20Z</time>
      </trkpt>
      <trkpt lat="41.991867" lon="2.529308">
        <ele>619.2</ele>
        <time>2011-09-06T17:35:16Z</time>
      </trkpt>
      <trkpt lat="41.991724" lon="2.529433">
        <ele>620.7</ele>
        <time>2011-09-06T17:35:09Z</time>
      </trkpt>
      <trkpt lat="41.991763" lon="2.529599">
        <ele>623.1</ele>
        <time>2011-09-06T17:35:06Z</time>
      </trkpt>
      <trkpt lat="41.991835" lon="2.530048">
        <ele>626.4</ele>
        <time>2011-09-06T17:35:02Z</time>
      </trkpt>
      <trkpt lat="41.992033" lon="2.530637">
        <ele>628.8</ele>
        <time>2011-09-06T17:34:57Z</time>
      </trkpt>
      <trkpt lat="41.992096" lon="2.531347">
        <ele>633.2</ele>
        <time>2011-09-06T17:34:51Z</time>
      </trkpt>
      <trkpt lat="41.992231" lon="2.531775">
        <ele>636.1</ele>
        <time>2011-09-06T17:34:46Z</time>
      </trkpt>
      <trkpt lat="41.992175" lon="2.532308">
        <ele>638.9</ele>
        <time>2011-09-06T17:34:41Z</time>
      </trkpt>
      <trkpt lat="41.992113" lon="2.532583">
        <ele>640.9</ele>
        <time>2011-09-06T17:34:39Z</time>
      </trkpt>
      <trkpt lat="41.992056" lon="2.532916">
        <ele>643.3</ele>
        <time>2011-09-06T17:34:36Z</time>
      </trkpt>
      <trkpt lat="41.992423" lon="2.533662">
        <ele>651.0</ele>
        <time>2011-09-06T17:34:29Z</time>
      </trkpt>
      <trkpt lat="41.992757" lon="2.533891">
        <ele>654.8</ele>
        <time>2011-09-06T17:34:26Z</time>
      </trkpt>
      <trkpt lat="41.993363" lon="2.534466">
        <ele>660.6</ele>
        <time>2011-09-06T17:34:19Z</time>
      </trkpt>
      <trkpt lat="41.993670" lon="2.535145">
        <ele>663.0</ele>
        <time>2011-09-06T17:34:13Z</time>
      </trkpt>
      <trkpt lat="41.993614" lon="2.535611">
        <ele>664.4</ele>
        <time>2011-09-06T17:34:08Z</time>
      </trkpt>
      <trkpt lat="41.993483" lon="2.535749">
        <ele>666.3</ele>
        <time>2011-09-06T17:34:06Z</time>
      </trkpt>
      <trkpt lat="41.993458" lon="2.535957">
        <ele>666.3</ele>
        <time>2011-09-06T17:34:01Z</time>
      </trkpt>
      <trkpt lat="41.993540" lon="2.535885">
        <ele>667.3</ele>
        <time>2011-09-06T17:33:59Z</time>
      </trkpt>
      <trkpt lat="41.993738" lon="2.535724">
        <ele>669.2</ele>
        <time>2011-09-06T17:33:56Z</time>
      </trkpt>
      <trkpt lat="41.993815" lon="2.535660">
        <ele>669.7</ele>
        <time>2011-09-06T17:33:55Z</time>
      </trkpt>
      <trkpt lat="41.993934" lon="2.535077">
        <ele>674.0</ele>
        <time>2011-09-06T17:33:49Z</time>
      </trkpt>
      <trkpt lat="41.993665" lon="2.533837">
        <ele>689.4</ele>
        <time>2011-09-06T17:33:37Z</time>
      </trkpt>
      <trkpt lat="41.993530" lon="2.533428">
        <ele>691.3</ele>
        <time>2011-09-06T17:33:33Z</time>
      </trkpt>
      <trkpt lat="41.993515" lon="2.533206">
        <ele>692.3</ele>
        <time>2011-09-06T17:33:31Z</time>
      </trkpt>
      <trkpt lat="41.993538" lon="2.532873">
        <ele>694.7</ele>
        <time>2011-09-06T17:33:28Z</time>
      </trkpt>
      <trkpt lat="41.993539" lon="2.531862">
        <ele>700.9</ele>
        <time>2011-09-06T17:33:20Z</time>
      </trkpt>
      <trkpt lat="41.993558" lon="2.531734">
        <ele>701.9</ele>
        <time>2011-09-06T17:33:18Z</time>
      </trkpt>
      <trkpt lat="41.993692" lon="2.531939">
        <ele>707.2</ele>
        <time>2011-09-06T17:33:12Z</time>
      </trkpt>
      <trkpt lat="41.993730" lon="2.532358">
        <ele>713.0</ele>
        <time>2011-09-06T17:33:08Z</time>
      </trkpt>
      <trkpt lat="41.993840" lon="2.532763">
        <ele>717.3</ele>
        <time>2011-09-06T17:33:04Z</time>
      </trkpt>
      <trkpt lat="41.994187" lon="2.533620">
        <ele>725.9</ele>
        <time>2011-09-06T17:32:56Z</time>
      </trkpt>
      <trkpt lat="41.994390" lon="2.534060">
        <ele>730.7</ele>
        <time>2011-09-06T17:32:52Z</time>
      </trkpt>
      <trkpt lat="41.994917" lon="2.534791">
        <ele>738.4</ele>
        <time>2011-09-06T17:32:44Z</time>
      </trkpt>
      <trkpt lat="41.994996" lon="2.534994">
        <ele>740.8</ele>
        <time>2011-09-06T17:32:42Z</time>
      </trkpt>
      <trkpt lat="41.995055" lon="2.535442">
        <ele>745.6</ele>
        <time>2011-09-06T17:32:38Z</time>
      </trkpt>
      <trkpt lat="41.995028" lon="2.535674">
        <ele>748.0</ele>
        <time>2011-09-06T17:32:36Z</time>
      </trkpt>
      <trkpt lat="41.995120" lon="2.536277">
        <ele>751.4</ele>
        <time>2011-09-06T17:32:30Z</time>
      </trkpt>
      <trkpt lat="41.995235" lon="2.536400">
        <ele>753.3</ele>
        <time>2011-09-06T17:32:28Z</time>
      </trkpt>
      <trkpt lat="41.995415" lon="2.536864">
        <ele>759.1</ele>
        <time>2011-09-06T17:32:22Z</time>
      </trkpt>
      <trkpt lat="41.995438" lon="2.537618">
        <ele>769.2</ele>
        <time>2011-09-06T17:32:15Z</time>
      </trkpt>
      <trkpt lat="41.995624" lon="2.538042">
        <ele>772.6</ele>
        <time>2011-09-06T17:32:10Z</time>
      </trkpt>
      <trkpt lat="41.995763" lon="2.538085">
        <ele>775.0</ele>
        <time>2011-09-06T17:32:05Z</time>
      </trkpt>
      <trkpt lat="41.995778" lon="2.537555">
        <ele>778.8</ele>
        <time>2011-09-06T17:32:00Z</time>
      </trkpt>
      <trkpt lat="41.996008" lon="2.536912">
        <ele>785.5</ele>
        <time>2011-09-06T17:31:54Z</time>
      </trkpt>
      <trkpt lat="41.996224" lon="2.536347">
        <ele>792.3</ele>
        <time>2011-09-06T17:31:49Z</time>
      </trkpt>
      <trkpt lat="41.996262" lon="2.536265">
        <ele>793.2</ele>
        <time>2011-09-06T17:31:48Z</time>
      </trkpt>
      <trkpt lat="41.996414" lon="2.536374">
        <ele>795.2</ele>
        <time>2011-09-06T17:31:43Z</time>
      </trkpt>
      <trkpt lat="41.996716" lon="2.537856">
        <ele>804.8</ele>
        <time>2011-09-06T17:31:32Z</time>
      </trkpt>
      <trkpt lat="41.996790" lon="2.538085">
        <ele>806.2</ele>
        <time>2011-09-06T17:31:30Z</time>
      </trkpt>
      <trkpt lat="41.997054" lon="2.538074">
        <ele>809.1</ele>
        <time>2011-09-06T17:31:22Z</time>
      </trkpt>
      <trkpt lat="41.997128" lon="2.537886">
        <ele>811.0</ele>
        <time>2011-09-06T17:31:20Z</time>
      </trkpt>
      <trkpt lat="41.997524" lon="2.537736">
        <ele>812.0</ele>
        <time>2011-09-06T17:31:14Z</time>
      </trkpt>
      <trkpt lat="41.997667" lon="2.537910">
        <ele>812.5</ele>
        <time>2011-09-06T17:31:12Z</time>
      </trkpt>
      <trkpt lat="41.998066" lon="2.538299">
        <ele>813.9</ele>
        <time>2011-09-06T17:31:07Z</time>
      </trkpt>
      <trkpt lat="41.998253" lon="2.538273">
        <ele>814.9</ele>
        <time>2011-09-06T17:31:05Z</time>
      </trkpt>
      <trkpt lat="41.998793" lon="2.538539">
        <ele>817.3</ele>
        <time>2011-09-06T17:30:58Z</time>
      </trkpt>
      <trkpt lat="41.999151" lon="2.539093">
        <ele>818.7</ele>
        <time>2011-09-06T17:30:53Z</time>
      </trkpt>
      <trkpt lat="41.999323" lon="2.539247">
        <ele>818.7</ele>
        <time>2011-09-06T17:30:51Z</time>
      </trkpt>
      <trkpt lat="41.999574" lon="2.539149">
        <ele>819.7</ele>
        <time>2011-09-06T17:30:46Z</time>
      </trkpt>
      <trkpt lat="41.999592" lon="2.538853">
        <ele>819.7</ele>
        <time>2011-09-06T17:30:43Z</time>
      </trkpt>
      <trkpt lat="41.999596" lon="2.538609">
        <ele>819.2</ele>
        <time>2011-09-06T17:30:41Z</time>
      </trkpt>
      <trkpt lat="41.999597" lon="2.538497">
        <ele>819.7</ele>
        <time>2011-09-06T17:30:40Z</time>
      </trkpt>
      <trkpt lat="41.999987" lon="2.538392">
        <ele>816.8</ele>
        <time>2011-09-06T17:30:34Z</time>
      </trkpt>
      <trkpt lat="42.000255" lon="2.538517">
        <ele>814.4</ele>
        <time>2011-09-06T17:30:32Z</time>
      </trkpt>
      <trkpt lat="42.001316" lon="2.538827">
        <ele>808.6</ele>
        <time>2011-09-06T17:30:25Z</time>
      </trkpt>
      <trkpt lat="42.001420" lon="2.538914">
        <ele>808.1</ele>
        <time>2011-09-06T17:30:24Z</time>
      </trkpt>
      <trkpt lat="42.002303" lon="2.539327">
        <ele>810.1</ele>
        <time>2011-09-06T17:30:17Z</time>
      </trkpt>
      <trkpt lat="42.002542" lon="2.539295">
        <ele>809.6</ele>
        <time>2011-09-06T17:30:15Z</time>
      </trkpt>
      <trkpt lat="42.002991" lon="2.539345">
        <ele>809.6</ele>
        <time>2011-09-06T17:30:11Z</time>
      </trkpt>
      <trkpt lat="42.003695" lon="2.539814">
        <ele>808.1</ele>
        <time>2011-09-06T17:30:06Z</time>
      </trkpt>
      <trkpt lat="42.004464" lon="2.540397">
        <ele>814.9</ele>
        <time>2011-09-06T17:29:59Z</time>
      </trkpt>
      <trkpt lat="42.004898" lon="2.541065">
        <ele>818.7</ele>
        <time>2011-09-06T17:29:53Z</time>
      </trkpt>
      <trkpt lat="42.005333" lon="2.541539">
        <ele>823.5</ele>
        <time>2011-09-06T17:29:48Z</time>
      </trkpt>
      <trkpt lat="42.005409" lon="2.541660">
        <ele>824.0</ele>
        <time>2011-09-06T17:29:47Z</time>
      </trkpt>
      <trkpt lat="42.006555" lon="2.543326">
        <ele>829.3</ele>
        <time>2011-09-06T17:29:35Z</time>
      </trkpt>
      <trkpt lat="42.006879" lon="2.543649">
        <ele>829.3</ele>
        <time>2011-09-06T17:29:32Z</time>
      </trkpt>
      <trkpt lat="42.007754" lon="2.544606">
        <ele>829.8</ele>
        <time>2011-09-06T17:29:22Z</time>
      </trkpt>
      <trkpt lat="42.007879" lon="2.544765">
        <ele>829.8</ele>
        <time>2011-09-06T17:29:20Z</time>
      </trkpt>
      <trkpt lat="42.008463" lon="2.545512">
        <ele>827.8</ele>
        <time>2011-09-06T17:29:09Z</time>
      </trkpt>
      <trkpt lat="42.008513" lon="2.545571">
        <ele>827.8</ele>
        <time>2011-09-06T17:29:08Z</time>
      </trkpt>
      <trkpt lat="42.008766" lon="2.545758">
        <ele>829.8</ele>
        <time>2011-09-06T17:28:59Z</time>
      </trkpt>
      <trkpt lat="42.008893" lon="2.546045">
        <ele>830.2</ele>
        <time>2011-09-06T17:28:53Z</time>
      </trkpt>
      <trkpt lat="42.009324" lon="2.547149">
        <ele>839.4</ele>
        <time>2011-09-06T17:28:45Z</time>
      </trkpt>
      <trkpt lat="42.009682" lon="2.548811">
        <ele>847.1</ele>
        <time>2011-09-06T17:28:37Z</time>
      </trkpt>
      <trkpt lat="42.010001" lon="2.550257">
        <ele>852.4</ele>
        <time>2011-09-06T17:28:29Z</time>
      </trkpt>
      <trkpt lat="42.010038" lon="2.550371">
        <ele>852.8</ele>
        <time>2011-09-06T17:28:28Z</time>
      </trkpt>
      <trkpt lat="42.010626" lon="2.551509">
        <ele>855.7</ele>
        <time>2011-09-06T17:28:20Z</time>
      </trkpt>
      <trkpt lat="42.011180" lon="2.553007">
        <ele>858.6</ele>
        <time>2011-09-06T17:28:11Z</time>
      </trkpt>
      <trkpt lat="42.011225" lon="2.553133">
        <ele>858.1</ele>
        <time>2011-09-06T17:28:10Z</time>
      </trkpt>
      <trkpt lat="42.011455" lon="2.553195">
        <ele>856.2</ele>
        <time>2011-09-06T17:28:03Z</time>
      </trkpt>
      <trkpt lat="42.011450" lon="2.553175">
        <ele>857.2</ele>
        <time>2011-09-06T17:27:52Z</time>
      </trkpt>
      <trkpt lat="42.011442" lon="2.553186">
        <ele>857.6</ele>
        <time>2011-09-06T17:27:51Z</time>
      </trkpt>
      <trkpt lat="42.011458" lon="2.553883">
        <ele>861.0</ele>
        <time>2011-09-06T17:27:41Z</time>
      </trkpt>
      <trkpt lat="42.011585" lon="2.554320">
        <ele>863.9</ele>
        <time>2011-09-06T17:27:36Z</time>
      </trkpt>
      <trkpt lat="42.011634" lon="2.554814">
        <ele>865.3</ele>
        <time>2011-09-06T17:27:31Z</time>
      </trkpt>
      <trkpt lat="42.011651" lon="2.555015">
        <ele>865.3</ele>
        <time>2011-09-06T17:27:29Z</time>
      </trkpt>
      <trkpt lat="42.011621" lon="2.555599">
        <ele>864.4</ele>
        <time>2011-09-06T17:27:22Z</time>
      </trkpt>
      <trkpt lat="42.011805" lon="2.556036">
        <ele>864.4</ele>
        <time>2011-09-06T17:27:16Z</time>
      </trkpt>
      <trkpt lat="42.011939" lon="2.556184">
        <ele>862.4</ele>
        <time>2011-09-06T17:27:14Z</time>
      </trkpt>
      <trkpt lat="42.012492" lon="2.556722">
        <ele>859.6</ele>
        <time>2011-09-06T17:27:06Z</time>
      </trkpt>
      <trkpt lat="42.012641" lon="2.557394">
        <ele>859.6</ele>
        <time>2011-09-06T17:26:58Z</time>
      </trkpt>
      <trkpt lat="42.012645" lon="2.557513">
        <ele>859.6</ele>
        <time>2011-09-06T17:26:57Z</time>
      </trkpt>
      <trkpt lat="42.012623" lon="2.557973">
        <ele>858.1</ele>
        <time>2011-09-06T17:26:51Z</time>
      </trkpt>
      <trkpt lat="42.012688" lon="2.558037">
        <ele>857.2</ele>
        <time>2011-09-06T17:26:48Z</time>
      </trkpt>
      <trkpt lat="42.012894" lon="2.557970">
        <ele>855.7</ele>
        <time>2011-09-06T17:26:43Z</time>
      </trkpt>
      <trkpt lat="42.013010" lon="2.557980">
        <ele>853.8</ele>
        <time>2011-09-06T17:26:39Z</time>
      </trkpt>
      <trkpt lat="42.012892" lon="2.558550">
        <ele>849.0</ele>
        <time>2011-09-06T17:26:30Z</time>
      </trkpt>
      <trkpt lat="42.012807" lon="2.558680">
        <ele>849.5</ele>
        <time>2011-09-06T17:26:27Z</time>
      </trkpt>
      <trkpt lat="42.012397" lon="2.559060">
        <ele>849.5</ele>
        <time>2011-09-06T17:26:18Z</time>
      </trkpt>
      <trkpt lat="42.012319" lon="2.559265">
        <ele>852.4</ele>
        <time>2011-09-06T17:26:15Z</time>
      </trkpt>
      <trkpt lat="42.012184" lon="2.559461">
        <ele>853.8</ele>
        <time>2011-09-06T17:26:10Z</time>
      </trkpt>
      <trkpt lat="42.011742" lon="2.559795">
        <ele>853.8</ele>
        <time>2011-09-06T17:26:04Z</time>
      </trkpt>
      <trkpt lat="42.011457" lon="2.560172">
        <ele>854.8</ele>
        <time>2011-09-06T17:25:59Z</time>
      </trkpt>
      <trkpt lat="42.011241" lon="2.560369">
        <ele>857.2</ele>
        <time>2011-09-06T17:25:56Z</time>
      </trkpt>
      <trkpt lat="42.010501" lon="2.561077">
        <ele>858.1</ele>
        <time>2011-09-06T17:25:44Z</time>
      </trkpt>
      <trkpt lat="42.010301" lon="2.561567">
        <ele>853.8</ele>
        <time>2011-09-06T17:25:39Z</time>
      </trkpt>
      <trkpt lat="42.009953" lon="2.562703">
        <ele>847.5</ele>
        <time>2011-09-06T17:25:29Z</time>
      </trkpt>
      <trkpt lat="42.009953" lon="2.562999">
        <ele>842.7</ele>
        <time>2011-09-06T17:25:26Z</time>
      </trkpt>
      <trkpt lat="42.009836" lon="2.563340">
        <ele>841.3</ele>
        <time>2011-09-06T17:25:21Z</time>
      </trkpt>
      <trkpt lat="42.009643" lon="2.563747">
        <ele>841.3</ele>
        <time>2011-09-06T17:25:13Z</time>
      </trkpt>
      <trkpt lat="42.009541" lon="2.564139">
        <ele>846.1</ele>
        <time>2011-09-06T17:25:06Z</time>
      </trkpt>
      <trkpt lat="42.009493" lon="2.564273">
        <ele>847.5</ele>
        <time>2011-09-06T17:25:03Z</time>
      </trkpt>
      <trkpt lat="42.009485" lon="2.564335">
        <ele>846.6</ele>
        <time>2011-09-06T17:24:59Z</time>
      </trkpt>
      <trkpt lat="42.009893" lon="2.563725">
        <ele>835.5</ele>
        <time>2011-09-06T17:24:49Z</time>
      </trkpt>
      <trkpt lat="42.010118" lon="2.563556">
        <ele>832.2</ele>
        <time>2011-09-06T17:24:46Z</time>
      </trkpt>
      <trkpt lat="42.010197" lon="2.563467">
        <ele>829.8</ele>
        <time>2011-09-06T17:24:43Z</time>
      </trkpt>
      <trkpt lat="42.010612" lon="2.563086">
        <ele>821.6</ele>
        <time>2011-09-06T17:24:34Z</time>
      </trkpt>
      <trkpt lat="42.010694" lon="2.562910">
        <ele>816.8</ele>
        <time>2011-09-06T17:24:28Z</time>
      </trkpt>
      <trkpt lat="42.010745" lon="2.562791">
        <ele>813.4</ele>
        <time>2011-09-06T17:24:24Z</time>
      </trkpt>
      <trkpt lat="42.010781" lon="2.562716">
        <ele>812.5</ele>
        <time>2011-09-06T17:24:22Z</time>
      </trkpt>
      <trkpt lat="42.010856" lon="2.562567">
        <ele>809.6</ele>
        <time>2011-09-06T17:24:18Z</time>
      </trkpt>
      <trkpt lat="42.010966" lon="2.562487">
        <ele>806.2</ele>
        <time>2011-09-06T17:24:14Z</time>
      </trkpt>
      <trkpt lat="42.011015" lon="2.562368">
        <ele>804.8</ele>
        <time>2011-09-06T17:24:12Z</time>
      </trkpt>
      <trkpt lat="42.011300" lon="2.561974">
        <ele>796.1</ele>
        <time>2011-09-06T17:24:04Z</time>
      </trkpt>
      <trkpt lat="42.011532" lon="2.562138">
        <ele>788.4</ele>
        <time>2011-09-06T17:24:00Z</time>
      </trkpt>
      <trkpt lat="42.011556" lon="2.562735">
        <ele>789.4</ele>
        <time>2011-09-06T17:23:51Z</time>
      </trkpt>
      <trkpt lat="42.011561" lon="2.563140">
        <ele>792.7</ele>
        <time>2011-09-06T17:23:45Z</time>
      </trkpt>
      <trkpt lat="42.011660" lon="2.563650">
        <ele>795.2</ele>
        <time>2011-09-06T17:23:36Z</time>
      </trkpt>
      <trkpt lat="42.011700" lon="2.564278">
        <ele>782.2</ele>
        <time>2011-09-06T17:23:26Z</time>
      </trkpt>
      <trkpt lat="42.011561" lon="2.564941">
        <ele>779.3</ele>
        <time>2011-09-06T17:23:15Z</time>
      </trkpt>
      <trkpt lat="42.011481" lon="2.565167">
        <ele>779.3</ele>
        <time>2011-09-06T17:23:11Z</time>
      </trkpt>
      <trkpt lat="42.011189" lon="2.565378">
        <ele>770.6</ele>
        <time>2011-09-06T17:23:06Z</time>
      </trkpt>
      <trkpt lat="42.011188" lon="2.565453">
        <ele>769.7</ele>
        <time>2011-09-06T17:23:04Z</time>
      </trkpt>
      <trkpt lat="42.011222" lon="2.565603">
        <ele>766.8</ele>
        <time>2011-09-06T17:23:00Z</time>
      </trkpt>
      <trkpt lat="42.011250" lon="2.565762">
        <ele>769.2</ele>
        <time>2011-09-06T17:22:56Z</time>
      </trkpt>
      <trkpt lat="42.011387" lon="2.566181">
        <ele>764.9</ele>
        <time>2011-09-06T17:22:48Z</time>
      </trkpt>
      <trkpt lat="42.011295" lon="2.566447">
        <ele>764.4</ele>
        <time>2011-09-06T17:22:43Z</time>
      </trkpt>
      <trkpt lat="42.011129" lon="2.566858">
        <ele>760.5</ele>
        <time>2011-09-06T17:22:35Z</time>
      </trkpt>
      <trkpt lat="42.011291" lon="2.567500">
        <ele>747.1</ele>
        <time>2011-09-06T17:22:25Z</time>
      </trkpt>
      <trkpt lat="42.011483" lon="2.567834">
        <ele>750.5</ele>
        <time>2011-09-06T17:22:21Z</time>
      </trkpt>
      <trkpt lat="42.011499" lon="2.567927">
        <ele>750.5</ele>
        <time>2011-09-06T17:22:19Z</time>
      </trkpt>
      <trkpt lat="42.011548" lon="2.568054">
        <ele>747.6</ele>
        <time>2011-09-06T17:22:16Z</time>
      </trkpt>
      <trkpt lat="42.011552" lon="2.568315">
        <ele>744.7</ele>
        <time>2011-09-06T17:22:10Z</time>
      </trkpt>
      <trkpt lat="42.011469" lon="2.568719">
        <ele>737.5</ele>
        <time>2011-09-06T17:22:03Z</time>
      </trkpt>
      <trkpt lat="42.011374" lon="2.569065">
        <ele>736.5</ele>
        <time>2011-09-06T17:21:58Z</time>
      </trkpt>
      <trkpt lat="42.011326" lon="2.569221">
        <ele>733.1</ele>
        <time>2011-09-06T17:21:54Z</time>
      </trkpt>
      <trkpt lat="42.011165" lon="2.569728">
        <ele>728.8</ele>
        <time>2011-09-06T17:21:46Z</time>
      </trkpt>
      <trkpt lat="42.011155" lon="2.570172">
        <ele>724.5</ele>
        <time>2011-09-06T17:21:41Z</time>
      </trkpt>
      <trkpt lat="42.011381" lon="2.571093">
        <ele>718.2</ele>
        <time>2011-09-06T17:21:32Z</time>
      </trkpt>
      <trkpt lat="42.011379" lon="2.571298">
        <ele>718.7</ele>
        <time>2011-09-06T17:21:29Z</time>
      </trkpt>
      <trkpt lat="42.011250" lon="2.571816">
        <ele>720.2</ele>
        <time>2011-09-06T17:21:22Z</time>
      </trkpt>
      <trkpt lat="42.011199" lon="2.571982">
        <ele>720.2</ele>
        <time>2011-09-06T17:21:20Z</time>
      </trkpt>
      <trkpt lat="42.011151" lon="2.572130">
        <ele>721.1</ele>
        <time>2011-09-06T17:21:18Z</time>
      </trkpt>
      <trkpt lat="42.010893" lon="2.572493">
        <ele>721.6</ele>
        <time>2011-09-06T17:21:11Z</time>
      </trkpt>
      <trkpt lat="42.010725" lon="2.572986">
        <ele>720.2</ele>
        <time>2011-09-06T17:21:02Z</time>
      </trkpt>
      <trkpt lat="42.010702" lon="2.573103">
        <ele>721.1</ele>
        <time>2011-09-06T17:21:01Z</time>
      </trkpt>
      <trkpt lat="42.010467" lon="2.573541">
        <ele>720.7</ele>
        <time>2011-09-06T17:20:54Z</time>
      </trkpt>
      <trkpt lat="42.010207" lon="2.573816">
        <ele>716.8</ele>
        <time>2011-09-06T17:20:49Z</time>
      </trkpt>
      <trkpt lat="42.009945" lon="2.574208">
        <ele>709.6</ele>
        <time>2011-09-06T17:20:43Z</time>
      </trkpt>
      <trkpt lat="42.009738" lon="2.574467">
        <ele>708.6</ele>
        <time>2011-09-06T17:20:38Z</time>
      </trkpt>
      <trkpt lat="42.009684" lon="2.574570">
        <ele>706.2</ele>
        <time>2011-09-06T17:20:36Z</time>
      </trkpt>
      <trkpt lat="42.009523" lon="2.574795">
        <ele>705.8</ele>
        <time>2011-09-06T17:20:32Z</time>
      </trkpt>
      <trkpt lat="42.009318" lon="2.575005">
        <ele>707.7</ele>
        <time>2011-09-06T17:20:28Z</time>
      </trkpt>
      <trkpt lat="42.009255" lon="2.575127">
        <ele>708.2</ele>
        <time>2011-09-06T17:20:26Z</time>
      </trkpt>
      <trkpt lat="42.009191" lon="2.575253">
        <ele>708.2</ele>
        <time>2011-09-06T17:20:24Z</time>
      </trkpt>
      <trkpt lat="42.009106" lon="2.575507">
        <ele>707.2</ele>
        <time>2011-09-06T17:20:20Z</time>
      </trkpt>
      <trkpt lat="42.008939" lon="2.575759">
        <ele>704.3</ele>
        <time>2011-09-06T17:20:16Z</time>
      </trkpt>
      <trkpt lat="42.008589" lon="2.576314">
        <ele>685.1</ele>
        <time>2011-09-06T17:20:05Z</time>
      </trkpt>
      <trkpt lat="42.008527" lon="2.576534">
        <ele>688.0</ele>
        <time>2011-09-06T17:20:01Z</time>
      </trkpt>
      <trkpt lat="42.008377" lon="2.576965">
        <ele>690.8</ele>
        <time>2011-09-06T17:19:50Z</time>
      </trkpt>
      <trkpt lat="42.008410" lon="2.577096">
        <ele>690.4</ele>
        <time>2011-09-06T17:19:47Z</time>
      </trkpt>
      <trkpt lat="42.008391" lon="2.577139">
        <ele>689.9</ele>
        <time>2011-09-06T17:19:46Z</time>
      </trkpt>
      <trkpt lat="42.008305" lon="2.577687">
        <ele>690.8</ele>
        <time>2011-09-06T17:19:33Z</time>
      </trkpt>
      <trkpt lat="42.008248" lon="2.577733">
        <ele>690.8</ele>
        <time>2011-09-06T17:19:31Z</time>
      </trkpt>
      <trkpt lat="42.008075" lon="2.578149">
        <ele>688.9</ele>
        <time>2011-09-06T17:19:20Z</time>
      </trkpt>
      <trkpt lat="42.008129" lon="2.578217">
        <ele>687.5</ele>
        <time>2011-09-06T17:19:14Z</time>
      </trkpt>
      <trkpt lat="42.007477" lon="2.578597">
        <ele>667.8</ele>
        <time>2011-09-06T17:06:07Z</time>
      </trkpt>
      <trkpt lat="42.007445" lon="2.579044">
        <ele>663.0</ele>
        <time>2011-09-06T17:06:01Z</time>
      </trkpt>
      <trkpt lat="42.007446" lon="2.579257">
        <ele>659.1</ele>
        <time>2011-09-06T17:05:57Z</time>
      </trkpt>
      <trkpt lat="42.007463" lon="2.579737">
        <ele>652.9</ele>
        <time>2011-09-06T17:05:48Z</time>
      </trkpt>
      <trkpt lat="42.007243" lon="2.580281">
        <ele>650.5</ele>
        <time>2011-09-06T17:05:37Z</time>
      </trkpt>
      <trkpt lat="42.007230" lon="2.580449">
        <ele>650.0</ele>
        <time>2011-09-06T17:05:34Z</time>
      </trkpt>
      <trkpt lat="42.007009" lon="2.580772">
        <ele>638.5</ele>
        <time>2011-09-06T17:05:25Z</time>
      </trkpt>
      <trkpt lat="42.006978" lon="2.580925">
        <ele>636.5</ele>
        <time>2011-09-06T17:05:21Z</time>
      </trkpt>
      <trkpt lat="42.006939" lon="2.581133">
        <ele>634.1</ele>
        <time>2011-09-06T17:05:17Z</time>
      </trkpt>
      <trkpt lat="42.006714" lon="2.581459">
        <ele>633.7</ele>
        <time>2011-09-06T17:05:12Z</time>
      </trkpt>
      <trkpt lat="42.006463" lon="2.581824">
        <ele>634.1</ele>
        <time>2011-09-06T17:05:07Z</time>
      </trkpt>
      <trkpt lat="42.006251" lon="2.582083">
        <ele>634.1</ele>
        <time>2011-09-06T17:05:03Z</time>
      </trkpt>
      <trkpt lat="42.005894" lon="2.582350">
        <ele>632.2</ele>
        <time>2011-09-06T17:04:57Z</time>
      </trkpt>
      <trkpt lat="42.005513" lon="2.582639">
        <ele>628.8</ele>
        <time>2011-09-06T17:04:51Z</time>
      </trkpt>
      <trkpt lat="42.005196" lon="2.582961">
        <ele>628.4</ele>
        <time>2011-09-06T17:04:45Z</time>
      </trkpt>
      <trkpt lat="42.005140" lon="2.583107">
        <ele>623.6</ele>
        <time>2011-09-06T17:04:42Z</time>
      </trkpt>
      <trkpt lat="42.004808" lon="2.583609">
        <ele>621.6</ele>
        <time>2011-09-06T17:04:31Z</time>
      </trkpt>
      <trkpt lat="42.004722" lon="2.583702">
        <ele>620.7</ele>
        <time>2011-09-06T17:04:29Z</time>
      </trkpt>
      <trkpt lat="42.004548" lon="2.583918">
        <ele>615.9</ele>
        <time>2011-09-06T17:04:24Z</time>
      </trkpt>
      <trkpt lat="42.004280" lon="2.584304">
        <ele>603.4</ele>
        <time>2011-09-06T17:04:16Z</time>
      </trkpt>
      <trkpt lat="42.004312" lon="2.584492">
        <ele>587.0</ele>
        <time>2011-09-06T17:04:13Z</time>
      </trkpt>
      <trkpt lat="42.004284" lon="2.584601">
        <ele>587.0</ele>
        <time>2011-09-06T17:04:11Z</time>
      </trkpt>
      <trkpt lat="42.004113" lon="2.584908">
        <ele>589.9</ele>
        <time>2011-09-06T17:04:04Z</time>
      </trkpt>
      <trkpt lat="42.003816" lon="2.585326">
        <ele>588.5</ele>
        <time>2011-09-06T17:03:57Z</time>
      </trkpt>
      <trkpt lat="42.003666" lon="2.585537">
        <ele>588.0</ele>
        <time>2011-09-06T17:03:53Z</time>
      </trkpt>
      <trkpt lat="42.003375" lon="2.585733">
        <ele>587.0</ele>
        <time>2011-09-06T17:03:48Z</time>
      </trkpt>
      <trkpt lat="42.003268" lon="2.585864">
        <ele>587.0</ele>
        <time>2011-09-06T17:03:46Z</time>
      </trkpt>
      <trkpt lat="42.002995" lon="2.586076">
        <ele>584.1</ele>
        <time>2011-09-06T17:03:41Z</time>
      </trkpt>
      <trkpt lat="42.002564" lon="2.586148">
        <ele>586.1</ele>
        <time>2011-09-06T17:03:34Z</time>
      </trkpt>
      <trkpt lat="42.002431" lon="2.586101">
        <ele>586.1</ele>
        <time>2011-09-06T17:03:32Z</time>
      </trkpt>
      <trkpt lat="42.002238" lon="2.586121">
        <ele>588.5</ele>
        <time>2011-09-06T17:03:28Z</time>
      </trkpt>
      <trkpt lat="42.001843" lon="2.586617">
        <ele>588.0</ele>
        <time>2011-09-06T17:03:19Z</time>
      </trkpt>
      <trkpt lat="42.001490" lon="2.586994">
        <ele>585.1</ele>
        <time>2011-09-06T17:03:11Z</time>
      </trkpt>
      <trkpt lat="42.001443" lon="2.587047">
        <ele>585.1</ele>
        <time>2011-09-06T17:03:09Z</time>
      </trkpt>
      <trkpt lat="42.001623" lon="2.587192">
        <ele>582.2</ele>
        <time>2011-09-06T17:03:02Z</time>
      </trkpt>
      <trkpt lat="42.001737" lon="2.587115">
        <ele>582.2</ele>
        <time>2011-09-06T17:03:00Z</time>
      </trkpt>
      <trkpt lat="42.001911" lon="2.586954">
        <ele>580.8</ele>
        <time>2011-09-06T17:02:57Z</time>
      </trkpt>
      <trkpt lat="42.002186" lon="2.586652">
        <ele>583.7</ele>
        <time>2011-09-06T17:02:52Z</time>
      </trkpt>
      <trkpt lat="42.002365" lon="2.586514">
        <ele>583.2</ele>
        <time>2011-09-06T17:02:49Z</time>
      </trkpt>
      <trkpt lat="42.002655" lon="2.586425">
        <ele>582.2</ele>
        <time>2011-09-06T17:02:45Z</time>
      </trkpt>
      <trkpt lat="42.002855" lon="2.586559">
        <ele>578.4</ele>
        <time>2011-09-06T17:02:42Z</time>
      </trkpt>
      <trkpt lat="42.002913" lon="2.586595">
        <ele>576.9</ele>
        <time>2011-09-06T17:02:41Z</time>
      </trkpt>
      <trkpt lat="42.003313" lon="2.586856">
        <ele>565.9</ele>
        <time>2011-09-06T17:02:30Z</time>
      </trkpt>
      <trkpt lat="42.003619" lon="2.586745">
        <ele>564.4</ele>
        <time>2011-09-06T17:02:25Z</time>
      </trkpt>
      <trkpt lat="42.004241" lon="2.586682">
        <ele>558.2</ele>
        <time>2011-09-06T17:02:16Z</time>
      </trkpt>
      <trkpt lat="42.004612" lon="2.586579">
        <ele>552.9</ele>
        <time>2011-09-06T17:02:09Z</time>
      </trkpt>
      <trkpt lat="42.004844" lon="2.586438">
        <ele>549.5</ele>
        <time>2011-09-06T17:02:05Z</time>
      </trkpt>
      <trkpt lat="42.005022" lon="2.586386">
        <ele>545.7</ele>
        <time>2011-09-06T17:02:01Z</time>
      </trkpt>
      <trkpt lat="42.005602" lon="2.586347">
        <ele>538.0</ele>
        <time>2011-09-06T17:01:52Z</time>
      </trkpt>
      <trkpt lat="42.005766" lon="2.586194">
        <ele>535.1</ele>
        <time>2011-09-06T17:01:48Z</time>
      </trkpt>
      <trkpt lat="42.005811" lon="2.586279">
        <ele>533.2</ele>
        <time>2011-09-06T17:01:44Z</time>
      </trkpt>
      <trkpt lat="42.005811" lon="2.586283">
        <ele>531.8</ele>
        <time>2011-09-06T17:01:27Z</time>
      </trkpt>
      <trkpt lat="42.005962" lon="2.586420">
        <ele>526.9</ele>
        <time>2011-09-06T17:01:16Z</time>
      </trkpt>
      <trkpt lat="42.006009" lon="2.586485">
        <ele>526.9</ele>
        <time>2011-09-06T17:01:12Z</time>
      </trkpt>
      <trkpt lat="42.006073" lon="2.586366">
        <ele>528.9</ele>
        <time>2011-09-06T17:01:00Z</time>
      </trkpt>
      <trkpt lat="42.006113" lon="2.586248">
        <ele>530.3</ele>
        <time>2011-09-06T17:00:56Z</time>
      </trkpt>
      <trkpt lat="42.006131" lon="2.586221">
        <ele>529.8</ele>
        <time>2011-09-06T17:00:49Z</time>
      </trkpt>
      <trkpt lat="42.006138" lon="2.586165">
        <ele>529.8</ele>
        <time>2011-09-06T17:00:22Z</time>
      </trkpt>
      <trkpt lat="42.006147" lon="2.586056">
        <ele>529.3</ele>
        <time>2011-09-06T16:59:43Z</time>
      </trkpt>
      <trkpt lat="42.006132" lon="2.586309">
        <ele>523.1</ele>
        <time>2011-09-06T16:59:34Z</time>
      </trkpt>
      <trkpt lat="42.006117" lon="2.586420">
        <ele>520.2</ele>
        <time>2011-09-06T16:59:32Z</time>
      </trkpt>
      <trkpt lat="42.006071" lon="2.586576">
        <ele>517.3</ele>
        <time>2011-09-06T16:59:29Z</time>
      </trkpt>
      <trkpt lat="42.006042" lon="2.586736">
        <ele>515.9</ele>
        <time>2011-09-06T16:59:26Z</time>
      </trkpt>
      <trkpt lat="42.006230" lon="2.586825">
        <ele>512.5</ele>
        <time>2011-09-06T16:59:20Z</time>
      </trkpt>
      <trkpt lat="42.006456" lon="2.586719">
        <ele>508.7</ele>
        <time>2011-09-06T16:59:17Z</time>
      </trkpt>
      <trkpt lat="42.006724" lon="2.586501">
        <ele>500.5</ele>
        <time>2011-09-06T16:59:10Z</time>
      </trkpt>
      <trkpt lat="42.006890" lon="2.586756">
        <ele>489.5</ele>
        <time>2011-09-06T16:59:03Z</time>
      </trkpt>
      <trkpt lat="42.006940" lon="2.586856">
        <ele>487.1</ele>
        <time>2011-09-06T16:59:01Z</time>
      </trkpt>
      <trkpt lat="42.007248" lon="2.586882">
        <ele>481.8</ele>
        <time>2011-09-06T16:58:55Z</time>
      </trkpt>
      <trkpt lat="42.007386" lon="2.587087">
        <ele>478.4</ele>
        <time>2011-09-06T16:58:52Z</time>
      </trkpt>
      <trkpt lat="42.007610" lon="2.587265">
        <ele>477.0</ele>
        <time>2011-09-06T16:58:49Z</time>
      </trkpt>
      <trkpt lat="42.008060" lon="2.587530">
        <ele>472.6</ele>
        <time>2011-09-06T16:58:43Z</time>
      </trkpt>
      <trkpt lat="42.008426" lon="2.587461">
        <ele>473.1</ele>
        <time>2011-09-06T16:58:38Z</time>
      </trkpt>
      <trkpt lat="42.008625" lon="2.587474">
        <ele>473.6</ele>
        <time>2011-09-06T16:58:35Z</time>
      </trkpt>
      <trkpt lat="42.008874" lon="2.587460">
        <ele>468.3</ele>
        <time>2011-09-06T16:58:29Z</time>
      </trkpt>
      <trkpt lat="42.009198" lon="2.587238">
        <ele>461.6</ele>
        <time>2011-09-06T16:58:22Z</time>
      </trkpt>
      <trkpt lat="42.009286" lon="2.587079">
        <ele>459.7</ele>
        <time>2011-09-06T16:58:19Z</time>
      </trkpt>
      <trkpt lat="42.009403" lon="2.586874">
        <ele>456.3</ele>
        <time>2011-09-06T16:58:15Z</time>
      </trkpt>
      <trkpt lat="42.009442" lon="2.586768">
        <ele>454.8</ele>
        <time>2011-09-06T16:58:13Z</time>
      </trkpt>
      <trkpt lat="42.009541" lon="2.586751">
        <ele>451.0</ele>
        <time>2011-09-06T16:58:08Z</time>
      </trkpt>
      <trkpt lat="42.009545" lon="2.586923">
        <ele>450.0</ele>
        <time>2011-09-06T16:58:05Z</time>
      </trkpt>
      <trkpt lat="42.009581" lon="2.587395">
        <ele>442.3</ele>
        <time>2011-09-06T16:57:58Z</time>
      </trkpt>
      <trkpt lat="42.009531" lon="2.587585">
        <ele>439.5</ele>
        <time>2011-09-06T16:57:55Z</time>
      </trkpt>
      <trkpt lat="42.009482" lon="2.587795">
        <ele>435.6</ele>
        <time>2011-09-06T16:57:52Z</time>
      </trkpt>
      <trkpt lat="42.009431" lon="2.588072">
        <ele>433.7</ele>
        <time>2011-09-06T16:57:47Z</time>
      </trkpt>
      <trkpt lat="42.009343" lon="2.588307">
        <ele>431.8</ele>
        <time>2011-09-06T16:57:43Z</time>
      </trkpt>
      <trkpt lat="42.009122" lon="2.588605">
        <ele>429.9</ele>
        <time>2011-09-06T16:57:38Z</time>
      </trkpt>
      <trkpt lat="42.008953" lon="2.588694">
        <ele>428.9</ele>
        <time>2011-09-06T16:57:35Z</time>
      </trkpt>
      <trkpt lat="42.008474" lon="2.588832">
        <ele>422.2</ele>
        <time>2011-09-06T16:57:26Z</time>
      </trkpt>
      <trkpt lat="42.008270" lon="2.588820">
        <ele>423.6</ele>
        <time>2011-09-06T16:57:23Z</time>
      </trkpt>
      <trkpt lat="42.008161" lon="2.588967">
        <ele>417.8</ele>
        <time>2011-09-06T16:57:18Z</time>
      </trkpt>
      <trkpt lat="42.008237" lon="2.589050">
        <ele>411.6</ele>
        <time>2011-09-06T16:57:15Z</time>
      </trkpt>
      <trkpt lat="42.008584" lon="2.589493">
        <ele>400.5</ele>
        <time>2011-09-06T16:57:05Z</time>
      </trkpt>
      <trkpt lat="42.008938" lon="2.589804">
        <ele>391.4</ele>
        <time>2011-09-06T16:56:54Z</time>
      </trkpt>
      <trkpt lat="42.009000" lon="2.589839">
        <ele>389.5</ele>
        <time>2011-09-06T16:56:52Z</time>
      </trkpt>
      <trkpt lat="42.008832" lon="2.589965">
        <ele>383.7</ele>
        <time>2011-09-06T16:56:46Z</time>
      </trkpt>
      <trkpt lat="42.008714" lon="2.590006">
        <ele>381.8</ele>
        <time>2011-09-06T16:56:44Z</time>
      </trkpt>
      <trkpt lat="42.008618" lon="2.590025">
        <ele>380.3</ele>
        <time>2011-09-06T16:56:42Z</time>
      </trkpt>
      <trkpt lat="42.008545" lon="2.590178">
        <ele>374.6</ele>
        <time>2011-09-06T16:56:37Z</time>
      </trkpt>
      <trkpt lat="42.008783" lon="2.590389">
        <ele>370.2</ele>
        <time>2011-09-06T16:56:30Z</time>
      </trkpt>
      <trkpt lat="42.009439" lon="2.590334">
        <ele>364.0</ele>
        <time>2011-09-06T16:56:22Z</time>
      </trkpt>
      <trkpt lat="42.009704" lon="2.590269">
        <ele>362.1</ele>
        <time>2011-09-06T16:56:18Z</time>
      </trkpt>
      <trkpt lat="42.009910" lon="2.590166">
        <ele>359.7</ele>
        <time>2011-09-06T16:56:14Z</time>
      </trkpt>
      <trkpt lat="42.010143" lon="2.590188">
        <ele>356.8</ele>
        <time>2011-09-06T16:56:10Z</time>
      </trkpt>
      <trkpt lat="42.010322" lon="2.590275">
        <ele>351.0</ele>
        <time>2011-09-06T16:56:06Z</time>
      </trkpt>
      <trkpt lat="42.010776" lon="2.590166">
        <ele>345.7</ele>
        <time>2011-09-06T16:55:59Z</time>
      </trkpt>
      <trkpt lat="42.011221" lon="2.590019">
        <ele>329.4</ele>
        <time>2011-09-06T16:55:53Z</time>
      </trkpt>
      <trkpt lat="42.011358" lon="2.589801">
        <ele>321.7</ele>
        <time>2011-09-06T16:55:50Z</time>
      </trkpt>
      <trkpt lat="42.011490" lon="2.589789">
        <ele>309.2</ele>
        <time>2011-09-06T16:55:46Z</time>
      </trkpt>
      <trkpt lat="42.011520" lon="2.589959">
        <ele>302.0</ele>
        <time>2011-09-06T16:55:44Z</time>
      </trkpt>
      <trkpt lat="42.011485" lon="2.590376">
        <ele>294.3</ele>
        <time>2011-09-06T16:55:40Z</time>
      </trkpt>
      <trkpt lat="42.011410" lon="2.590519">
        <ele>289.5</ele>
        <time>2011-09-06T16:55:38Z</time>
      </trkpt>
      <trkpt lat="42.011391" lon="2.590689">
        <ele>284.7</ele>
        <time>2011-09-06T16:55:36Z</time>
      </trkpt>
      <trkpt lat="42.011550" lon="2.590633">
        <ele>278.0</ele>
        <time>2011-09-06T16:55:30Z</time>
      </trkpt>
      <trkpt lat="42.011655" lon="2.590147">
        <ele>269.8</ele>
        <time>2011-09-06T16:55:25Z</time>
      </trkpt>
      <trkpt lat="42.012307" lon="2.589759">
        <ele>253.0</ele>
        <time>2011-09-06T16:55:18Z</time>
      </trkpt>
      <trkpt lat="42.012239" lon="2.589510">
        <ele>252.5</ele>
        <time>2011-09-06T16:55:15Z</time>
      </trkpt>
      <trkpt lat="42.012221" lon="2.589441">
        <ele>252.5</ele>
        <time>2011-09-06T16:55:14Z</time>
      </trkpt>
      <trkpt lat="42.012399" lon="2.589333">
        <ele>253.4</ele>
        <time>2011-09-06T16:55:08Z</time>
      </trkpt>
      <trkpt lat="42.012426" lon="2.589386">
        <ele>254.9</ele>
        <time>2011-09-06T16:55:04Z</time>
      </trkpt>
      <trkpt lat="42.012559" lon="2.589397">
        <ele>254.9</ele>
        <time>2011-09-06T16:54:59Z</time>
      </trkpt>
      <trkpt lat="42.012603" lon="2.589924">
        <ele>253.9</ele>
        <time>2011-09-06T16:54:50Z</time>
      </trkpt>
      <trkpt lat="42.012718" lon="2.590038">
        <ele>254.4</ele>
        <time>2011-09-06T16:54:47Z</time>
      </trkpt>
      <trkpt lat="42.012724" lon="2.590145">
        <ele>254.4</ele>
        <time>2011-09-06T16:54:44Z</time>
      </trkpt>
      <trkpt lat="42.012942" lon="2.590284">
        <ele>254.4</ele>
        <time>2011-09-06T16:54:35Z</time>
      </trkpt>
      <trkpt lat="42.013051" lon="2.590431">
        <ele>254.4</ele>
        <time>2011-09-06T16:54:30Z</time>
      </trkpt>
      <trkpt lat="42.013074" lon="2.590565">
        <ele>253.9</ele>
        <time>2011-09-06T16:54:26Z</time>
      </trkpt>
      <trkpt lat="42.013166" lon="2.590946">
        <ele>252.0</ele>
        <time>2011-09-06T16:54:16Z</time>
      </trkpt>
      <trkpt lat="42.013178" lon="2.591321">
        <ele>249.6</ele>
        <time>2011-09-06T16:54:11Z</time>
      </trkpt>
      <trkpt lat="42.012195" lon="2.592792">
        <ele>245.3</ele>
        <time>2011-09-06T16:54:02Z</time>
      </trkpt>
      <trkpt lat="42.011816" lon="2.593803">
        <ele>240.0</ele>
        <time>2011-09-06T16:53:55Z</time>
      </trkpt>
      <trkpt lat="42.011466" lon="2.594396">
        <ele>237.6</ele>
        <time>2011-09-06T16:53:49Z</time>
      </trkpt>
      <trkpt lat="42.011177" lon="2.594752">
        <ele>235.7</ele>
        <time>2011-09-06T16:53:45Z</time>
      </trkpt>
      <trkpt lat="42.010826" lon="2.595028">
        <ele>233.3</ele>
        <time>2011-09-06T16:53:40Z</time>
      </trkpt>
      <trkpt lat="42.010518" lon="2.595097">
        <ele>231.3</ele>
        <time>2011-09-06T16:53:37Z</time>
      </trkpt>
      <trkpt lat="42.010313" lon="2.595224">
        <ele>230.4</ele>
        <time>2011-09-06T16:53:35Z</time>
      </trkpt>
      <trkpt lat="42.010536" lon="2.595740">
        <ele>225.6</ele>
        <time>2011-09-06T16:53:29Z</time>
      </trkpt>
      <trkpt lat="42.010674" lon="2.595824">
        <ele>225.1</ele>
        <time>2011-09-06T16:53:27Z</time>
      </trkpt>
      <trkpt lat="42.011114" lon="2.595823">
        <ele>219.3</ele>
        <time>2011-09-06T16:53:21Z</time>
      </trkpt>
      <trkpt lat="42.011669" lon="2.595650">
        <ele>215.5</ele>
        <time>2011-09-06T16:53:14Z</time>
      </trkpt>
      <trkpt lat="42.011713" lon="2.596012">
        <ele>215.5</ele>
        <time>2011-09-06T16:53:08Z</time>
      </trkpt>
      <trkpt lat="42.011209" lon="2.596968">
        <ele>217.9</ele>
        <time>2011-09-06T16:52:59Z</time>
      </trkpt>
      <trkpt lat="42.011220" lon="2.597300">
        <ele>215.0</ele>
        <time>2011-09-06T16:52:55Z</time>
      </trkpt>
      <trkpt lat="42.011821" lon="2.598282">
        <ele>205.9</ele>
        <time>2011-09-06T16:52:45Z</time>
      </trkpt>
      <trkpt lat="42.012212" lon="2.599045">
        <ele>203.5</ele>
        <time>2011-09-06T16:52:37Z</time>
      </trkpt>
      <trkpt lat="42.012425" lon="2.599930">
        <ele>200.1</ele>
        <time>2011-09-06T16:52:29Z</time>
      </trkpt>
      <trkpt lat="42.012589" lon="2.600961">
        <ele>193.4</ele>
        <time>2011-09-06T16:52:22Z</time>
      </trkpt>
      <trkpt lat="42.012774" lon="2.601074">
        <ele>191.9</ele>
        <time>2011-09-06T16:52:17Z</time>
      </trkpt>
      <trkpt lat="42.009760" lon="2.604159">
        <ele>187.6</ele>
        <time>2011-09-06T16:33:59Z</time>
      </trkpt>
      <trkpt lat="42.009503" lon="2.604387">
        <ele>186.6</ele>
        <time>2011-09-06T16:33:55Z</time>
      </trkpt>
      <trkpt lat="42.009232" lon="2.604479">
        <ele>185.7</ele>
        <time>2011-09-06T16:33:49Z</time>
      </trkpt>
      <trkpt lat="42.008872" lon="2.604575">
        <ele>186.6</ele>
        <time>2011-09-06T16:33:46Z</time>
      </trkpt>
      <trkpt lat="42.008012" lon="2.604828">
        <ele>184.7</ele>
        <time>2011-09-06T16:33:40Z</time>
      </trkpt>
      <trkpt lat="42.006180" lon="2.605343">
        <ele>186.2</ele>
        <time>2011-09-06T16:33:29Z</time>
      </trkpt>
      <trkpt lat="42.005596" lon="2.605324">
        <ele>186.6</ele>
        <time>2011-09-06T16:33:25Z</time>
      </trkpt>
      <trkpt lat="42.004888" lon="2.605331">
        <ele>187.6</ele>
        <time>2011-09-06T16:33:18Z</time>
      </trkpt>
      <trkpt lat="42.004666" lon="2.605442">
        <ele>187.1</ele>
        <time>2011-09-06T16:33:14Z</time>
      </trkpt>
      <trkpt lat="42.004245" lon="2.605597">
        <ele>188.1</ele>
        <time>2011-09-06T16:33:09Z</time>
      </trkpt>
      <trkpt lat="42.004008" lon="2.605817">
        <ele>187.6</ele>
        <time>2011-09-06T16:33:06Z</time>
      </trkpt>
      <trkpt lat="42.003915" lon="2.605932">
        <ele>187.6</ele>
        <time>2011-09-06T16:33:04Z</time>
      </trkpt>
      <trkpt lat="42.002951" lon="2.606831">
        <ele>180.9</ele>
        <time>2011-09-06T16:32:54Z</time>
      </trkpt>
      <trkpt lat="42.002710" lon="2.607244">
        <ele>178.9</ele>
        <time>2011-09-06T16:32:50Z</time>
      </trkpt>
      <trkpt lat="42.002536" lon="2.608016">
        <ele>178.5</ele>
        <time>2011-09-06T16:32:45Z</time>
      </trkpt>
      <trkpt lat="42.002322" lon="2.608525">
        <ele>178.5</ele>
        <time>2011-09-06T16:32:42Z</time>
      </trkpt>
      <trkpt lat="42.001748" lon="2.610080">
        <ele>179.9</ele>
        <time>2011-09-06T16:32:33Z</time>
      </trkpt>
      <trkpt lat="42.001454" lon="2.611108">
        <ele>179.4</ele>
        <time>2011-09-06T16:32:26Z</time>
      </trkpt>
      <trkpt lat="42.001480" lon="2.611501">
        <ele>178.9</ele>
        <time>2011-09-06T16:32:24Z</time>
      </trkpt>
      <trkpt lat="42.001525" lon="2.611886">
        <ele>178.5</ele>
        <time>2011-09-06T16:32:22Z</time>
      </trkpt>
      <trkpt lat="42.001362" lon="2.612586">
        <ele>177.5</ele>
        <time>2011-09-06T16:32:17Z</time>
      </trkpt>
      <trkpt lat="42.001022" lon="2.612924">
        <ele>177.5</ele>
        <time>2011-09-06T16:32:14Z</time>
      </trkpt>
      <trkpt lat="42.000720" lon="2.613447">
        <ele>178.5</ele>
        <time>2011-09-06T16:32:09Z</time>
      </trkpt>
      <trkpt lat="42.000815" lon="2.614043">
        <ele>178.5</ele>
        <time>2011-09-06T16:32:05Z</time>
      </trkpt>
      <trkpt lat="42.000820" lon="2.614390">
        <ele>177.5</ele>
        <time>2011-09-06T16:32:03Z</time>
      </trkpt>
      <trkpt lat="42.000690" lon="2.614851">
        <ele>178.0</ele>
        <time>2011-09-06T16:32:00Z</time>
      </trkpt>
      <trkpt lat="42.000398" lon="2.615984">
        <ele>177.5</ele>
        <time>2011-09-06T16:31:53Z</time>
      </trkpt>
      <trkpt lat="42.000424" lon="2.616333">
        <ele>177.0</ele>
        <time>2011-09-06T16:31:51Z</time>
      </trkpt>
      <trkpt lat="42.000224" lon="2.617065">
        <ele>176.1</ele>
        <time>2011-09-06T16:31:45Z</time>
      </trkpt>
      <trkpt lat="41.999902" lon="2.617564">
        <ele>180.9</ele>
        <time>2011-09-06T16:31:40Z</time>
      </trkpt>
      <trkpt lat="41.999863" lon="2.618053">
        <ele>183.8</ele>
        <time>2011-09-06T16:31:37Z</time>
      </trkpt>
      <trkpt lat="41.999651" lon="2.619047">
        <ele>189.5</ele>
        <time>2011-09-06T16:31:32Z</time>
      </trkpt>
      <trkpt lat="41.999263" lon="2.620130">
        <ele>191.0</ele>
        <time>2011-09-06T16:31:26Z</time>
      </trkpt>
      <trkpt lat="41.999108" lon="2.620661">
        <ele>193.8</ele>
        <time>2011-09-06T16:31:23Z</time>
      </trkpt>
      <trkpt lat="41.999055" lon="2.621195">
        <ele>197.7</ele>
        <time>2011-09-06T16:31:19Z</time>
      </trkpt>
      <trkpt lat="41.999502" lon="2.623021">
        <ele>203.5</ele>
        <time>2011-09-06T16:31:11Z</time>
      </trkpt>
      <trkpt lat="42.000110" lon="2.625353">
        <ele>210.7</ele>
        <time>2011-09-06T16:31:02Z</time>
      </trkpt>
      <trkpt lat="42.000179" lon="2.626538">
        <ele>215.5</ele>
        <time>2011-09-06T16:30:57Z</time>
      </trkpt>
      <trkpt lat="42.000537" lon="2.627842">
        <ele>216.9</ele>
        <time>2011-09-06T16:30:51Z</time>
      </trkpt>
      <trkpt lat="42.000808" lon="2.628439">
        <ele>218.4</ele>
        <time>2011-09-06T16:30:48Z</time>
      </trkpt>
      <trkpt lat="42.001483" lon="2.629972">
        <ele>221.2</ele>
        <time>2011-09-06T16:30:40Z</time>
      </trkpt>
      <trkpt lat="42.001695" lon="2.630512">
        <ele>222.7</ele>
        <time>2011-09-06T16:30:37Z</time>
      </trkpt>
      <trkpt lat="42.001597" lon="2.631476">
        <ele>218.8</ele>
        <time>2011-09-06T16:30:31Z</time>
      </trkpt>
      <trkpt lat="42.001423" lon="2.631768">
        <ele>216.4</ele>
        <time>2011-09-06T16:30:29Z</time>
      </trkpt>
      <trkpt lat="42.000626" lon="2.632862">
        <ele>217.9</ele>
        <time>2011-09-06T16:30:21Z</time>
      </trkpt>
      <trkpt lat="42.000326" lon="2.633470">
        <ele>224.6</ele>
        <time>2011-09-06T16:30:17Z</time>
      </trkpt>
      <trkpt lat="42.000139" lon="2.634301">
        <ele>231.8</ele>
        <time>2011-09-06T16:30:12Z</time>
      </trkpt>
      <trkpt lat="42.000390" lon="2.635274">
        <ele>238.5</ele>
        <time>2011-09-06T16:30:05Z</time>
      </trkpt>
      <trkpt lat="42.000538" lon="2.635465">
        <ele>240.5</ele>
        <time>2011-09-06T16:30:03Z</time>
      </trkpt>
      <trkpt lat="42.001607" lon="2.636395">
        <ele>253.4</ele>
        <time>2011-09-06T16:29:54Z</time>
      </trkpt>
      <trkpt lat="42.001974" lon="2.636578">
        <ele>256.8</ele>
        <time>2011-09-06T16:29:51Z</time>
      </trkpt>
      <trkpt lat="42.002777" lon="2.636883">
        <ele>260.7</ele>
        <time>2011-09-06T16:29:44Z</time>
      </trkpt>
      <trkpt lat="42.003109" lon="2.636844">
        <ele>261.6</ele>
        <time>2011-09-06T16:29:41Z</time>
      </trkpt>
      <trkpt lat="42.003558" lon="2.636979">
        <ele>263.5</ele>
        <time>2011-09-06T16:29:37Z</time>
      </trkpt>
      <trkpt lat="42.004055" lon="2.637337">
        <ele>264.5</ele>
        <time>2011-09-06T16:29:32Z</time>
      </trkpt>
      <trkpt lat="42.004517" lon="2.637431">
        <ele>263.1</ele>
        <time>2011-09-06T16:29:28Z</time>
      </trkpt>
      <trkpt lat="42.004743" lon="2.637516">
        <ele>263.5</ele>
        <time>2011-09-06T16:29:26Z</time>
      </trkpt>
      <trkpt lat="42.005184" lon="2.638098">
        <ele>263.5</ele>
        <time>2011-09-06T16:29:20Z</time>
      </trkpt>
      <trkpt lat="42.005314" lon="2.639455">
        <ele>257.3</ele>
        <time>2011-09-06T16:29:11Z</time>
      </trkpt>
      <trkpt lat="42.005329" lon="2.639621">
        <ele>257.8</ele>
        <time>2011-09-06T16:29:10Z</time>
      </trkpt>
      <trkpt lat="42.005333" lon="2.640506">
        <ele>255.4</ele>
        <time>2011-09-06T16:29:02Z</time>
      </trkpt>
      <trkpt lat="42.005157" lon="2.641158">
        <ele>250.6</ele>
        <time>2011-09-06T16:28:56Z</time>
      </trkpt>
      <trkpt lat="42.004990" lon="2.641288">
        <ele>249.1</ele>
        <time>2011-09-06T16:28:54Z</time>
      </trkpt>
      <trkpt lat="42.004866" lon="2.641621">
        <ele>245.8</ele>
        <time>2011-09-06T16:28:50Z</time>
      </trkpt>
      <trkpt lat="42.004813" lon="2.642110">
        <ele>245.8</ele>
        <time>2011-09-06T16:28:46Z</time>
      </trkpt>
      <trkpt lat="42.004657" lon="2.642258">
        <ele>249.6</ele>
        <time>2011-09-06T16:28:43Z</time>
      </trkpt>
      <trkpt lat="42.004363" lon="2.642442">
        <ele>253.9</ele>
        <time>2011-09-06T16:28:37Z</time>
      </trkpt>
      <trkpt lat="42.004196" lon="2.642840">
        <ele>257.3</ele>
        <time>2011-09-06T16:28:33Z</time>
      </trkpt>
      <trkpt lat="42.004153" lon="2.643178">
        <ele>258.3</ele>
        <time>2011-09-06T16:28:30Z</time>
      </trkpt>
      <trkpt lat="42.003961" lon="2.643607">
        <ele>258.7</ele>
        <time>2011-09-06T16:28:24Z</time>
      </trkpt>
      <trkpt lat="42.003719" lon="2.643833">
        <ele>257.3</ele>
        <time>2011-09-06T16:28:19Z</time>
      </trkpt>
      <trkpt lat="42.003065" lon="2.644175">
        <ele>256.3</ele>
        <time>2011-09-06T16:28:10Z</time>
      </trkpt>
      <trkpt lat="42.002725" lon="2.644371">
        <ele>253.9</ele>
        <time>2011-09-06T16:28:04Z</time>
      </trkpt>
      <trkpt lat="42.002563" lon="2.644424">
        <ele>252.0</ele>
        <time>2011-09-06T16:28:02Z</time>
      </trkpt>
      <trkpt lat="42.002307" lon="2.644486">
        <ele>250.6</ele>
        <time>2011-09-06T16:27:58Z</time>
      </trkpt>
      <trkpt lat="42.002051" lon="2.644403">
        <ele>247.2</ele>
        <time>2011-09-06T16:27:53Z</time>
      </trkpt>
      <trkpt lat="42.001562" lon="2.644177">
        <ele>237.6</ele>
        <time>2011-09-06T16:27:48Z</time>
      </trkpt>
      <trkpt lat="42.001104" lon="2.644145">
        <ele>230.4</ele>
        <time>2011-09-06T16:27:43Z</time>
      </trkpt>
      <trkpt lat="42.000988" lon="2.644298">
        <ele>232.8</ele>
        <time>2011-09-06T16:27:39Z</time>
      </trkpt>
      <trkpt lat="42.000778" lon="2.644661">
        <ele>236.6</ele>
        <time>2011-09-06T16:27:32Z</time>
      </trkpt>
      <trkpt lat="42.000724" lon="2.644927">
        <ele>238.5</ele>
        <time>2011-09-06T16:27:29Z</time>
      </trkpt>
      <trkpt lat="42.000595" lon="2.645291">
        <ele>241.0</ele>
        <time>2011-09-06T16:27:25Z</time>
      </trkpt>
      <trkpt lat="42.000523" lon="2.645542">
        <ele>241.9</ele>
        <time>2011-09-06T16:27:22Z</time>
      </trkpt>
      <trkpt lat="42.000252" lon="2.646053">
        <ele>246.7</ele>
        <time>2011-09-06T16:27:17Z</time>
      </trkpt>
      <trkpt lat="42.000060" lon="2.646699">
        <ele>256.8</ele>
        <time>2011-09-06T16:27:07Z</time>
      </trkpt>
      <trkpt lat="42.000033" lon="2.647091">
        <ele>258.7</ele>
        <time>2011-09-06T16:27:03Z</time>
      </trkpt>
      <trkpt lat="41.999941" lon="2.647295">
        <ele>260.7</ele>
        <time>2011-09-06T16:27:00Z</time>
      </trkpt>
      <trkpt lat="41.999544" lon="2.647815">
        <ele>268.8</ele>
        <time>2011-09-06T16:26:51Z</time>
      </trkpt>
      <trkpt lat="41.999490" lon="2.647870">
        <ele>269.8</ele>
        <time>2011-09-06T16:26:50Z</time>
      </trkpt>
      <trkpt lat="41.999393" lon="2.648310">
        <ele>279.9</ele>
        <time>2011-09-06T16:26:43Z</time>
      </trkpt>
      <trkpt lat="41.999149" lon="2.648688">
        <ele>286.1</ele>
        <time>2011-09-06T16:26:35Z</time>
      </trkpt>
      <trkpt lat="41.999012" lon="2.649504">
        <ele>292.4</ele>
        <time>2011-09-06T16:26:23Z</time>
      </trkpt>
      <trkpt lat="41.998835" lon="2.650092">
        <ele>299.6</ele>
        <time>2011-09-06T16:26:13Z</time>
      </trkpt>
      <trkpt lat="41.998737" lon="2.650366">
        <ele>303.9</ele>
        <time>2011-09-06T16:26:09Z</time>
      </trkpt>
      <trkpt lat="41.998699" lon="2.650499">
        <ele>305.8</ele>
        <time>2011-09-06T16:26:07Z</time>
      </trkpt>
      <trkpt lat="41.998677" lon="2.650781">
        <ele>311.6</ele>
        <time>2011-09-06T16:26:03Z</time>
      </trkpt>
      <trkpt lat="41.998622" lon="2.651410">
        <ele>318.8</ele>
        <time>2011-09-06T16:25:55Z</time>
      </trkpt>
      <trkpt lat="41.998536" lon="2.651719">
        <ele>322.7</ele>
        <time>2011-09-06T16:25:51Z</time>
      </trkpt>
      <trkpt lat="41.998277" lon="2.651827">
        <ele>323.6</ele>
        <time>2011-09-06T16:25:45Z</time>
      </trkpt>
      <trkpt lat="41.998224" lon="2.652473">
        <ele>315.0</ele>
        <time>2011-09-06T16:25:36Z</time>
      </trkpt>
      <trkpt lat="41.998210" lon="2.652680">
        <ele>310.6</ele>
        <time>2011-09-06T16:25:33Z</time>
      </trkpt>
      <trkpt lat="41.998073" lon="2.653171">
        <ele>308.7</ele>
        <time>2011-09-06T16:25:27Z</time>
      </trkpt>
      <trkpt lat="41.997912" lon="2.653487">
        <ele>311.1</ele>
        <time>2011-09-06T16:25:22Z</time>
      </trkpt>
      <trkpt lat="41.997865" lon="2.653686">
        <ele>311.6</ele>
        <time>2011-09-06T16:25:19Z</time>
      </trkpt>
      <trkpt lat="41.997793" lon="2.654048">
        <ele>313.5</ele>
        <time>2011-09-06T16:25:13Z</time>
      </trkpt>
      <trkpt lat="41.997790" lon="2.654193">
        <ele>312.6</ele>
        <time>2011-09-06T16:25:11Z</time>
      </trkpt>
      <trkpt lat="41.997719" lon="2.654433">
        <ele>313.1</ele>
        <time>2011-09-06T16:25:07Z</time>
      </trkpt>
      <trkpt lat="41.997522" lon="2.654710">
        <ele>314.0</ele>
        <time>2011-09-06T16:25:02Z</time>
      </trkpt>
      <trkpt lat="41.997399" lon="2.654829">
        <ele>317.9</ele>
        <time>2011-09-06T16:24:58Z</time>
      </trkpt>
      <trkpt lat="41.997069" lon="2.655005">
        <ele>323.6</ele>
        <time>2011-09-06T16:24:51Z</time>
      </trkpt>
      <trkpt lat="41.996866" lon="2.655059">
        <ele>327.0</ele>
        <time>2011-09-06T16:24:47Z</time>
      </trkpt>
      <trkpt lat="41.996740" lon="2.655018">
        <ele>329.4</ele>
        <time>2011-09-06T16:24:44Z</time>
      </trkpt>
      <trkpt lat="41.996266" lon="2.654796">
        <ele>322.7</ele>
        <time>2011-09-06T16:24:35Z</time>
      </trkpt>
      <trkpt lat="41.995962" lon="2.654612">
        <ele>322.7</ele>
        <time>2011-09-06T16:24:29Z</time>
      </trkpt>
      <trkpt lat="41.995787" lon="2.654438">
        <ele>323.6</ele>
        <time>2011-09-06T16:24:26Z</time>
      </trkpt>
      <trkpt lat="41.995600" lon="2.654301">
        <ele>323.1</ele>
        <time>2011-09-06T16:24:23Z</time>
      </trkpt>
      <trkpt lat="41.995483" lon="2.654226">
        <ele>323.6</ele>
        <time>2011-09-06T16:24:21Z</time>
      </trkpt>
      <trkpt lat="41.995134" lon="2.654159">
        <ele>324.1</ele>
        <time>2011-09-06T16:24:16Z</time>
      </trkpt>
      <trkpt lat="41.995000" lon="2.654186">
        <ele>321.7</ele>
        <time>2011-09-06T16:24:14Z</time>
      </trkpt>
      <trkpt lat="41.994785" lon="2.654167">
        <ele>318.3</ele>
        <time>2011-09-06T16:24:11Z</time>
      </trkpt>
      <trkpt lat="41.994647" lon="2.654134">
        <ele>317.4</ele>
        <time>2011-09-06T16:24:09Z</time>
      </trkpt>
      <trkpt lat="41.994256" lon="2.654176">
        <ele>318.3</ele>
        <time>2011-09-06T16:24:04Z</time>
      </trkpt>
      <trkpt lat="41.993985" lon="2.654366">
        <ele>319.8</ele>
        <time>2011-09-06T16:24:00Z</time>
      </trkpt>
      <trkpt lat="41.993713" lon="2.654496">
        <ele>320.3</ele>
        <time>2011-09-06T16:23:56Z</time>
      </trkpt>
      <trkpt lat="41.993383" lon="2.654463">
        <ele>319.3</ele>
        <time>2011-09-06T16:23:51Z</time>
      </trkpt>
      <trkpt lat="41.992693" lon="2.654241">
        <ele>316.4</ele>
        <time>2011-09-06T16:23:43Z</time>
      </trkpt>
      <trkpt lat="41.992510" lon="2.654178">
        <ele>316.4</ele>
        <time>2011-09-06T16:23:41Z</time>
      </trkpt>
      <trkpt lat="41.992170" lon="2.654233">
        <ele>314.5</ele>
        <time>2011-09-06T16:23:36Z</time>
      </trkpt>
      <trkpt lat="41.991797" lon="2.654182">
        <ele>309.7</ele>
        <time>2011-09-06T16:23:30Z</time>
      </trkpt>
      <trkpt lat="41.991547" lon="2.654029">
        <ele>304.9</ele>
        <time>2011-09-06T16:23:26Z</time>
      </trkpt>
      <trkpt lat="41.991313" lon="2.653947">
        <ele>302.5</ele>
        <time>2011-09-06T16:23:23Z</time>
      </trkpt>
      <trkpt lat="41.990855" lon="2.654060">
        <ele>297.7</ele>
        <time>2011-09-06T16:23:16Z</time>
      </trkpt>
      <trkpt lat="41.990766" lon="2.654804">
        <ele>299.6</ele>
        <time>2011-09-06T16:23:09Z</time>
      </trkpt>
      <trkpt lat="41.990735" lon="2.655166">
        <ele>299.6</ele>
        <time>2011-09-06T16:23:05Z</time>
      </trkpt>
      <trkpt lat="41.990734" lon="2.655167">
        <ele>299.6</ele>
        <time>2011-09-06T16:22:45Z</time>
      </trkpt>
      <trkpt lat="41.990731" lon="2.655166">
        <ele>299.1</ele>
        <time>2011-09-06T16:21:06Z</time>
      </trkpt>
      <trkpt lat="41.990696" lon="2.655231">
        <ele>295.7</ele>
        <time>2011-09-06T16:20:56Z</time>
      </trkpt>
      <trkpt lat="41.990705" lon="2.655895">
        <ele>281.8</ele>
        <time>2011-09-06T16:20:48Z</time>
      </trkpt>
      <trkpt lat="41.990622" lon="2.656205">
        <ele>278.4</ele>
        <time>2011-09-06T16:20:45Z</time>
      </trkpt>
      <trkpt lat="41.990599" lon="2.656309">
        <ele>278.9</ele>
        <time>2011-09-06T16:20:44Z</time>
      </trkpt>
      <trkpt lat="41.990459" lon="2.657208">
        <ele>279.4</ele>
        <time>2011-09-06T16:20:36Z</time>
      </trkpt>
      <trkpt lat="41.990388" lon="2.657845">
        <ele>278.4</ele>
        <time>2011-09-06T16:20:28Z</time>
      </trkpt>
      <trkpt lat="41.990280" lon="2.658132">
        <ele>274.6</ele>
        <time>2011-09-06T16:20:24Z</time>
      </trkpt>
      <trkpt lat="41.990260" lon="2.658195">
        <ele>273.2</ele>
        <time>2011-09-06T16:20:23Z</time>
      </trkpt>
      <trkpt lat="41.990257" lon="2.658774">
        <ele>270.8</ele>
        <time>2011-09-06T16:20:15Z</time>
      </trkpt>
      <trkpt lat="41.990221" lon="2.659320">
        <ele>268.8</ele>
        <time>2011-09-06T16:20:09Z</time>
      </trkpt>
      <trkpt lat="41.990225" lon="2.659530">
        <ele>264.0</ele>
        <time>2011-09-06T16:20:06Z</time>
      </trkpt>
      <trkpt lat="41.990232" lon="2.659814">
        <ele>260.7</ele>
        <time>2011-09-06T16:20:02Z</time>
      </trkpt>
      <trkpt lat="41.990226" lon="2.660143">
        <ele>254.9</ele>
        <time>2011-09-06T16:19:57Z</time>
      </trkpt>
      <trkpt lat="41.990198" lon="2.660568">
        <ele>257.8</ele>
        <time>2011-09-06T16:19:52Z</time>
      </trkpt>
      <trkpt lat="41.990167" lon="2.660801">
        <ele>259.7</ele>
        <time>2011-09-06T16:19:49Z</time>
      </trkpt>
      <trkpt lat="41.990114" lon="2.661237">
        <ele>261.6</ele>
        <time>2011-09-06T16:19:42Z</time>
      </trkpt>
      <trkpt lat="41.990147" lon="2.661430">
        <ele>259.7</ele>
        <time>2011-09-06T16:19:38Z</time>
      </trkpt>
      <trkpt lat="41.990320" lon="2.661376">
        <ele>256.3</ele>
        <time>2011-09-06T16:19:34Z</time>
      </trkpt>
      <trkpt lat="41.990601" lon="2.661090">
        <ele>261.1</ele>
        <time>2011-09-06T16:19:29Z</time>
      </trkpt>
      <trkpt lat="41.990698" lon="2.660916">
        <ele>266.9</ele>
        <time>2011-09-06T16:19:27Z</time>
      </trkpt>
      <trkpt lat="41.990771" lon="2.660612">
        <ele>265.5</ele>
        <time>2011-09-06T16:19:23Z</time>
      </trkpt>
      <trkpt lat="41.990809" lon="2.660444">
        <ele>260.7</ele>
        <time>2011-09-06T16:19:21Z</time>
      </trkpt>
      <trkpt lat="41.991029" lon="2.659918">
        <ele>249.6</ele>
        <time>2011-09-06T16:19:14Z</time>
      </trkpt>
      <trkpt lat="41.991403" lon="2.659592">
        <ele>233.7</ele>
        <time>2011-09-06T16:19:03Z</time>
      </trkpt>
      <trkpt lat="41.991516" lon="2.659366">
        <ele>231.8</ele>
        <time>2011-09-06T16:18:59Z</time>
      </trkpt>
      <trkpt lat="41.991550" lon="2.659117">
        <ele>227.5</ele>
        <time>2011-09-06T16:18:54Z</time>
      </trkpt>
      <trkpt lat="41.991781" lon="2.658922">
        <ele>224.6</ele>
        <time>2011-09-06T16:18:48Z</time>
      </trkpt>
      <trkpt lat="41.991995" lon="2.658802">
        <ele>215.0</ele>
        <time>2011-09-06T16:18:43Z</time>
      </trkpt>
      <trkpt lat="41.992142" lon="2.658558">
        <ele>210.7</ele>
        <time>2011-09-06T16:18:38Z</time>
      </trkpt>
      <trkpt lat="41.992203" lon="2.658449">
        <ele>207.8</ele>
        <time>2011-09-06T16:18:36Z</time>
      </trkpt>
      <trkpt lat="41.992273" lon="2.658232">
        <ele>197.7</ele>
        <time>2011-09-06T16:18:30Z</time>
      </trkpt>
      <trkpt lat="41.992334" lon="2.658486">
        <ele>192.4</ele>
        <time>2011-09-06T16:18:25Z</time>
      </trkpt>
      <trkpt lat="41.992340" lon="2.658988">
        <ele>184.7</ele>
        <time>2011-09-06T16:18:15Z</time>
      </trkpt>
      <trkpt lat="41.992393" lon="2.659270">
        <ele>181.4</ele>
        <time>2011-09-06T16:18:10Z</time>
      </trkpt>
      <trkpt lat="41.992334" lon="2.659695">
        <ele>176.1</ele>
        <time>2011-09-06T16:18:02Z</time>
      </trkpt>
      <trkpt lat="41.992202" lon="2.659762">
        <ele>171.3</ele>
        <time>2011-09-06T16:17:59Z</time>
      </trkpt>
      <trkpt lat="41.992181" lon="2.659923">
        <ele>169.8</ele>
        <time>2011-09-06T16:17:56Z</time>
      </trkpt>
      <trkpt lat="41.992036" lon="2.660286">
        <ele>161.2</ele>
        <time>2011-09-06T16:17:51Z</time>
      </trkpt>
      <trkpt lat="41.991887" lon="2.660444">
        <ele>157.3</ele>
        <time>2011-09-06T16:17:48Z</time>
      </trkpt>
      <trkpt lat="41.991827" lon="2.660558">
        <ele>154.9</ele>
        <time>2011-09-06T16:17:46Z</time>
      </trkpt>
      <trkpt lat="41.991613" lon="2.661150">
        <ele>149.6</ele>
        <time>2011-09-06T16:17:37Z</time>
      </trkpt>
      <trkpt lat="41.991645" lon="2.661497">
        <ele>151.1</ele>
        <time>2011-09-06T16:17:32Z</time>
      </trkpt>
      <trkpt lat="41.991655" lon="2.661848">
        <ele>146.7</ele>
        <time>2011-09-06T16:17:27Z</time>
      </trkpt>
      <trkpt lat="41.991605" lon="2.662317">
        <ele>148.7</ele>
        <time>2011-09-06T16:17:19Z</time>
      </trkpt>
      <trkpt lat="41.991357" lon="2.662617">
        <ele>154.9</ele>
        <time>2011-09-06T16:17:13Z</time>
      </trkpt>
      <trkpt lat="41.991220" lon="2.662680">
        <ele>154.4</ele>
        <time>2011-09-06T16:17:10Z</time>
      </trkpt>
      <trkpt lat="41.991095" lon="2.662805">
        <ele>157.8</ele>
        <time>2011-09-06T16:17:05Z</time>
      </trkpt>
      <trkpt lat="41.991017" lon="2.663009">
        <ele>163.6</ele>
        <time>2011-09-06T16:17:01Z</time>
      </trkpt>
      <trkpt lat="41.990885" lon="2.663121">
        <ele>162.1</ele>
        <time>2011-09-06T16:16:59Z</time>
      </trkpt>
      <trkpt lat="41.990845" lon="2.663251">
        <ele>163.1</ele>
        <time>2011-09-06T16:16:57Z</time>
      </trkpt>
      <trkpt lat="41.990684" lon="2.663681">
        <ele>161.2</ele>
        <time>2011-09-06T16:16:49Z</time>
      </trkpt>
      <trkpt lat="41.990557" lon="2.663893">
        <ele>157.3</ele>
        <time>2011-09-06T16:16:45Z</time>
      </trkpt>
      <trkpt lat="41.990183" lon="2.664445">
        <ele>152.0</ele>
        <time>2011-09-06T16:16:32Z</time>
      </trkpt>
      <trkpt lat="41.990082" lon="2.664540">
        <ele>150.6</ele>
        <time>2011-09-06T16:16:29Z</time>
      </trkpt>
      <trkpt lat="41.989656" lon="2.664739">
        <ele>146.7</ele>
        <time>2011-09-06T16:16:19Z</time>
      </trkpt>
      <trkpt lat="41.989413" lon="2.664782">
        <ele>146.3</ele>
        <time>2011-09-06T16:16:15Z</time>
      </trkpt>
      <trkpt lat="41.988965" lon="2.664866">
        <ele>148.7</ele>
        <time>2011-09-06T16:16:03Z</time>
      </trkpt>
      <trkpt lat="41.988724" lon="2.664969">
        <ele>152.5</ele>
        <time>2011-09-06T16:15:55Z</time>
      </trkpt>
      <trkpt lat="41.988558" lon="2.665215">
        <ele>154.9</ele>
        <time>2011-09-06T16:15:49Z</time>
      </trkpt>
      <trkpt lat="41.988353" lon="2.665377">
        <ele>156.8</ele>
        <time>2011-09-06T16:15:45Z</time>
      </trkpt>
      <trkpt lat="41.988231" lon="2.665798">
        <ele>161.2</ele>
        <time>2011-09-06T16:15:35Z</time>
      </trkpt>
      <trkpt lat="41.988157" lon="2.665858">
        <ele>162.1</ele>
        <time>2011-09-06T16:15:30Z</time>
      </trkpt>
      <trkpt lat="41.988106" lon="2.665730">
        <ele>162.6</ele>
        <time>2011-09-06T16:15:26Z</time>
      </trkpt>
      <trkpt lat="41.988023" lon="2.665640">
        <ele>162.6</ele>
        <time>2011-09-06T16:15:23Z</time>
      </trkpt>
      <trkpt lat="41.987631" lon="2.665219">
        <ele>161.6</ele>
        <time>2011-09-06T16:15:13Z</time>
      </trkpt>
      <trkpt lat="41.987435" lon="2.664900">
        <ele>162.6</ele>
        <time>2011-09-06T16:15:06Z</time>
      </trkpt>
      <trkpt lat="41.987270" lon="2.664821">
        <ele>164.0</ele>
        <time>2011-09-06T16:15:03Z</time>
      </trkpt>
      <trkpt lat="41.987085" lon="2.664793">
        <ele>166.5</ele>
        <time>2011-09-06T16:14:59Z</time>
      </trkpt>
      <trkpt lat="41.986930" lon="2.664709">
        <ele>168.4</ele>
        <time>2011-09-06T16:14:55Z</time>
      </trkpt>
      <trkpt lat="41.986625" lon="2.664600">
        <ele>169.8</ele>
        <time>2011-09-06T16:14:49Z</time>
      </trkpt>
      <trkpt lat="41.986395" lon="2.664373">
        <ele>169.8</ele>
        <time>2011-09-06T16:14:43Z</time>
      </trkpt>
      <trkpt lat="41.986240" lon="2.663869">
        <ele>164.0</ele>
        <time>2011-09-06T16:14:30Z</time>
      </trkpt>
      <trkpt lat="41.986080" lon="2.663845">
        <ele>155.4</ele>
        <time>2011-09-06T16:14:25Z</time>
      </trkpt>
      <trkpt lat="41.986030" lon="2.664199">
        <ele>160.7</ele>
        <time>2011-09-06T16:14:18Z</time>
      </trkpt>
      <trkpt lat="41.985920" lon="2.664790">
        <ele>159.7</ele>
        <time>2011-09-06T16:14:09Z</time>
      </trkpt>
      <trkpt lat="41.985814" lon="2.664977">
        <ele>158.3</ele>
        <time>2011-09-06T16:14:05Z</time>
      </trkpt>
      <trkpt lat="41.985449" lon="2.665423">
        <ele>156.8</ele>
        <time>2011-09-06T16:13:54Z</time>
      </trkpt>
      <trkpt lat="41.985325" lon="2.665690">
        <ele>158.8</ele>
        <time>2011-09-06T16:13:50Z</time>
      </trkpt>
      <trkpt lat="41.985137" lon="2.665853">
        <ele>159.2</ele>
        <time>2011-09-06T16:13:45Z</time>
      </trkpt>
      <trkpt lat="41.984988" lon="2.666356">
        <ele>156.4</ele>
        <time>2011-09-06T16:13:36Z</time>
      </trkpt>
      <trkpt lat="41.984920" lon="2.666581">
        <ele>154.0</ele>
        <time>2011-09-06T16:13:32Z</time>
      </trkpt>
      <trkpt lat="41.984765" lon="2.666748">
        <ele>151.5</ele>
        <time>2011-09-06T16:13:27Z</time>
      </trkpt>
      <trkpt lat="41.984664" lon="2.666824">
        <ele>150.1</ele>
        <time>2011-09-06T16:13:21Z</time>
      </trkpt>
      <trkpt lat="41.984624" lon="2.666987">
        <ele>148.7</ele>
        <time>2011-09-06T16:13:12Z</time>
      </trkpt>
      <trkpt lat="41.984605" lon="2.667039">
        <ele>148.7</ele>
        <time>2011-09-06T16:13:11Z</time>
      </trkpt>
      <trkpt lat="41.984174" lon="2.667739">
        <ele>146.3</ele>
        <time>2011-09-06T16:12:58Z</time>
      </trkpt>
      <trkpt lat="41.984081" lon="2.667837">
        <ele>146.3</ele>
        <time>2011-09-06T16:12:56Z</time>
      </trkpt>
      <trkpt lat="41.983723" lon="2.668332">
        <ele>147.2</ele>
        <time>2011-09-06T16:12:47Z</time>
      </trkpt>
      <trkpt lat="41.983594" lon="2.668644">
        <ele>145.8</ele>
        <time>2011-09-06T16:12:42Z</time>
      </trkpt>
      <trkpt lat="41.983420" lon="2.668713">
        <ele>145.8</ele>
        <time>2011-09-06T16:12:39Z</time>
      </trkpt>
      <trkpt lat="41.982864" lon="2.668909">
        <ele>146.3</ele>
        <time>2011-09-06T16:12:31Z</time>
      </trkpt>
      <trkpt lat="41.982604" lon="2.668893">
        <ele>145.3</ele>
        <time>2011-09-06T16:12:28Z</time>
      </trkpt>
      <trkpt lat="41.982238" lon="2.669032">
        <ele>144.8</ele>
        <time>2011-09-06T16:12:24Z</time>
      </trkpt>
      <trkpt lat="41.981378" lon="2.669494">
        <ele>139.5</ele>
        <time>2011-09-06T16:12:15Z</time>
      </trkpt>
      <trkpt lat="41.981167" lon="2.669697">
        <ele>134.7</ele>
        <time>2011-09-06T16:12:11Z</time>
      </trkpt>
      <trkpt lat="41.981087" lon="2.670624">
        <ele>135.7</ele>
        <time>2011-09-06T16:12:02Z</time>
      </trkpt>
      <trkpt lat="41.980986" lon="2.670802">
        <ele>136.6</ele>
        <time>2011-09-06T16:11:58Z</time>
      </trkpt>
      <trkpt lat="41.980650" lon="2.670509">
        <ele>137.1</ele>
        <time>2011-09-06T16:11:53Z</time>
      </trkpt>
      <trkpt lat="41.980349" lon="2.670385">
        <ele>138.1</ele>
        <time>2011-09-06T16:11:49Z</time>
      </trkpt>
      <trkpt lat="41.980039" lon="2.670429">
        <ele>139.5</ele>
        <time>2011-09-06T16:11:45Z</time>
      </trkpt>
      <trkpt lat="41.979943" lon="2.670402">
        <ele>139.5</ele>
        <time>2011-09-06T16:11:44Z</time>
      </trkpt>
      <trkpt lat="41.979573" lon="2.670659">
        <ele>140.5</ele>
        <time>2011-09-06T16:11:39Z</time>
      </trkpt>
      <trkpt lat="41.979521" lon="2.670944">
        <ele>141.0</ele>
        <time>2011-09-06T16:11:37Z</time>
      </trkpt>
      <trkpt lat="41.979474" lon="2.671288">
        <ele>141.5</ele>
        <time>2011-09-06T16:11:35Z</time>
      </trkpt>
      <trkpt lat="41.979395" lon="2.672693">
        <ele>141.5</ele>
        <time>2011-09-06T16:11:27Z</time>
      </trkpt>
      <trkpt lat="41.979234" lon="2.673283">
        <ele>141.5</ele>
        <time>2011-09-06T16:11:23Z</time>
      </trkpt>
      <trkpt lat="41.978995" lon="2.673627">
        <ele>141.5</ele>
        <time>2011-09-06T16:11:19Z</time>
      </trkpt>
      <trkpt lat="41.978551" lon="2.673804">
        <ele>141.0</ele>
        <time>2011-09-06T16:11:13Z</time>
      </trkpt>
      <trkpt lat="41.978334" lon="2.674074">
        <ele>142.4</ele>
        <time>2011-09-06T16:11:09Z</time>
      </trkpt>
      <trkpt lat="41.978005" lon="2.674322">
        <ele>141.9</ele>
        <time>2011-09-06T16:11:06Z</time>
      </trkpt>
      <trkpt lat="41.977872" lon="2.674437">
        <ele>141.5</ele>
        <time>2011-09-06T16:11:05Z</time>
      </trkpt>
      <trkpt lat="41.977644" lon="2.675138">
        <ele>138.6</ele>
        <time>2011-09-06T16:11:00Z</time>
      </trkpt>
      <trkpt lat="41.977823" lon="2.675715">
        <ele>136.2</ele>
        <time>2011-09-06T16:10:57Z</time>
      </trkpt>
      <trkpt lat="41.978282" lon="2.678395">
        <ele>131.8</ele>
        <time>2011-09-06T16:10:47Z</time>
      </trkpt>
      <trkpt lat="41.978593" lon="2.680146">
        <ele>134.2</ele>
        <time>2011-09-06T16:10:39Z</time>
      </trkpt>
      <trkpt lat="41.978846" lon="2.680744">
        <ele>134.2</ele>
        <time>2011-09-06T16:10:35Z</time>
      </trkpt>
      <trkpt lat="41.979360" lon="2.681300">
        <ele>134.7</ele>
        <time>2011-09-06T16:10:30Z</time>
      </trkpt>
      <trkpt lat="41.979699" lon="2.681843">
        <ele>132.8</ele>
        <time>2011-09-06T16:10:23Z</time>
      </trkpt>
      <trkpt lat="41.979496" lon="2.682176">
        <ele>130.9</ele>
        <time>2011-09-06T16:10:18Z</time>
      </trkpt>
      <trkpt lat="41.979283" lon="2.682373">
        <ele>129.0</ele>
        <time>2011-09-06T16:10:16Z</time>
      </trkpt>
      <trkpt lat="41.979013" lon="2.682801">
        <ele>130.4</ele>
        <time>2011-09-06T16:10:11Z</time>
      </trkpt>
      <trkpt lat="41.979057" lon="2.683050">
        <ele>129.4</ele>
        <time>2011-09-06T16:10:09Z</time>
      </trkpt>
      <trkpt lat="41.979357" lon="2.683928">
        <ele>128.0</ele>
        <time>2011-09-06T16:10:04Z</time>
      </trkpt>
      <trkpt lat="41.980495" lon="2.686740">
        <ele>123.7</ele>
        <time>2011-09-06T16:09:51Z</time>
      </trkpt>
      <trkpt lat="41.980775" lon="2.687634">
        <ele>120.8</ele>
        <time>2011-09-06T16:09:47Z</time>
      </trkpt>
      <trkpt lat="41.980861" lon="2.688467">
        <ele>115.5</ele>
        <time>2011-09-06T16:09:43Z</time>
      </trkpt>
      <trkpt lat="41.980915" lon="2.688813">
        <ele>118.4</ele>
        <time>2011-09-06T16:09:41Z</time>
      </trkpt>
      <trkpt lat="41.981009" lon="2.689176">
        <ele>119.8</ele>
        <time>2011-09-06T16:09:38Z</time>
      </trkpt>
      <trkpt lat="41.981255" lon="2.689842">
        <ele>122.2</ele>
        <time>2011-09-06T16:09:32Z</time>
      </trkpt>
      <trkpt lat="41.981565" lon="2.690336">
        <ele>124.6</ele>
        <time>2011-09-06T16:09:27Z</time>
      </trkpt>
      <trkpt lat="41.981737" lon="2.690862">
        <ele>125.6</ele>
        <time>2011-09-06T16:09:22Z</time>
      </trkpt>
      <trkpt lat="41.981767" lon="2.691245">
        <ele>125.1</ele>
        <time>2011-09-06T16:09:18Z</time>
      </trkpt>
      <trkpt lat="41.981895" lon="2.691697">
        <ele>126.1</ele>
        <time>2011-09-06T16:09:15Z</time>
      </trkpt>
      <trkpt lat="41.982011" lon="2.692005">
        <ele>126.1</ele>
        <time>2011-09-06T16:09:12Z</time>
      </trkpt>
      <trkpt lat="41.982305" lon="2.692480">
        <ele>126.1</ele>
        <time>2011-09-06T16:09:07Z</time>
      </trkpt>
      <trkpt lat="41.982799" lon="2.693463">
        <ele>127.0</ele>
        <time>2011-09-06T16:09:00Z</time>
      </trkpt>
      <trkpt lat="41.982882" lon="2.693792">
        <ele>126.6</ele>
        <time>2011-09-06T16:08:58Z</time>
      </trkpt>
      <trkpt lat="41.983121" lon="2.695002">
        <ele>126.1</ele>
        <time>2011-09-06T16:08:51Z</time>
      </trkpt>
      <trkpt lat="41.983263" lon="2.695410">
        <ele>127.0</ele>
        <time>2011-09-06T16:08:47Z</time>
      </trkpt>
      <trkpt lat="41.983513" lon="2.695794">
        <ele>129.4</ele>
        <time>2011-09-06T16:08:44Z</time>
      </trkpt>
      <trkpt lat="41.983551" lon="2.696192">
        <ele>128.0</ele>
        <time>2011-09-06T16:08:40Z</time>
      </trkpt>
      <trkpt lat="41.983449" lon="2.696448">
        <ele>128.5</ele>
        <time>2011-09-06T16:08:38Z</time>
      </trkpt>
      <trkpt lat="41.983379" lon="2.696692">
        <ele>129.9</ele>
        <time>2011-09-06T16:08:36Z</time>
      </trkpt>
      <trkpt lat="41.983407" lon="2.697470">
        <ele>129.0</ele>
        <time>2011-09-06T16:08:30Z</time>
      </trkpt>
      <trkpt lat="41.983321" lon="2.698161">
        <ele>131.4</ele>
        <time>2011-09-06T16:08:26Z</time>
      </trkpt>
      <trkpt lat="41.983369" lon="2.699637">
        <ele>129.4</ele>
        <time>2011-09-06T16:08:18Z</time>
      </trkpt>
      <trkpt lat="41.983346" lon="2.700055">
        <ele>128.5</ele>
        <time>2011-09-06T16:08:16Z</time>
      </trkpt>
      <trkpt lat="41.983407" lon="2.701254">
        <ele>127.0</ele>
        <time>2011-09-06T16:08:10Z</time>
      </trkpt>
      <trkpt lat="41.983608" lon="2.702082">
        <ele>125.1</ele>
        <time>2011-09-06T16:08:05Z</time>
      </trkpt>
      <trkpt lat="41.983496" lon="2.702534">
        <ele>122.2</ele>
        <time>2011-09-06T16:07:58Z</time>
      </trkpt>
      <trkpt lat="41.983246" lon="2.702869">
        <ele>120.8</ele>
        <time>2011-09-06T16:07:52Z</time>
      </trkpt>
      <trkpt lat="41.983254" lon="2.702985">
        <ele>120.3</ele>
        <time>2011-09-06T16:07:51Z</time>
      </trkpt>
      <trkpt lat="41.983391" lon="2.704394">
        <ele>118.9</ele>
        <time>2011-09-06T16:07:44Z</time>
      </trkpt>
      <trkpt lat="41.983153" lon="2.705126">
        <ele>115.5</ele>
        <time>2011-09-06T16:07:38Z</time>
      </trkpt>
      <trkpt lat="41.982833" lon="2.705414">
        <ele>113.6</ele>
        <time>2011-09-06T16:07:33Z</time>
      </trkpt>
      <trkpt lat="41.982561" lon="2.705931">
        <ele>115.5</ele>
        <time>2011-09-06T16:07:27Z</time>
      </trkpt>
      <trkpt lat="41.982317" lon="2.706693">
        <ele>118.4</ele>
        <time>2011-09-06T16:07:21Z</time>
      </trkpt>
      <trkpt lat="41.982258" lon="2.706973">
        <ele>118.9</ele>
        <time>2011-09-06T16:07:16Z</time>
      </trkpt>
      <trkpt lat="41.982242" lon="2.707060">
        <ele>118.9</ele>
        <time>2011-09-06T16:07:14Z</time>
      </trkpt>
      <trkpt lat="41.982289" lon="2.707745">
        <ele>117.4</ele>
        <time>2011-09-06T16:07:09Z</time>
      </trkpt>
      <trkpt lat="41.982587" lon="2.708680">
        <ele>115.0</ele>
        <time>2011-09-06T16:07:03Z</time>
      </trkpt>
      <trkpt lat="41.982594" lon="2.709144">
        <ele>113.6</ele>
        <time>2011-09-06T16:07:00Z</time>
      </trkpt>
      <trkpt lat="41.982725" lon="2.710003">
        <ele>114.5</ele>
        <time>2011-09-06T16:06:55Z</time>
      </trkpt>
      <trkpt lat="41.982686" lon="2.710267">
        <ele>115.0</ele>
        <time>2011-09-06T16:06:53Z</time>
      </trkpt>
      <trkpt lat="41.982570" lon="2.711079">
        <ele>115.5</ele>
        <time>2011-09-06T16:06:48Z</time>
      </trkpt>
      <trkpt lat="41.982049" lon="2.712194">
        <ele>112.6</ele>
        <time>2011-09-06T16:06:41Z</time>
      </trkpt>
      <trkpt lat="41.981613" lon="2.713006">
        <ele>110.7</ele>
        <time>2011-09-06T16:06:35Z</time>
      </trkpt>
      <trkpt lat="41.981551" lon="2.713206">
        <ele>112.1</ele>
        <time>2011-09-06T16:06:33Z</time>
      </trkpt>
      <trkpt lat="41.981310" lon="2.714393">
        <ele>114.1</ele>
        <time>2011-09-06T16:06:26Z</time>
      </trkpt>
      <trkpt lat="41.980988" lon="2.714985">
        <ele>112.1</ele>
        <time>2011-09-06T16:06:22Z</time>
      </trkpt>
      <trkpt lat="41.979992" lon="2.716118">
        <ele>112.6</ele>
        <time>2011-09-06T16:06:13Z</time>
      </trkpt>
      <trkpt lat="41.979400" lon="2.716573">
        <ele>112.6</ele>
        <time>2011-09-06T16:06:08Z</time>
      </trkpt>
      <trkpt lat="41.978881" lon="2.716805">
        <ele>114.5</ele>
        <time>2011-09-06T16:06:04Z</time>
      </trkpt>
      <trkpt lat="41.978468" lon="2.716859">
        <ele>114.1</ele>
        <time>2011-09-06T16:06:01Z</time>
      </trkpt>
      <trkpt lat="41.978021" lon="2.717009">
        <ele>111.7</ele>
        <time>2011-09-06T16:05:57Z</time>
      </trkpt>
      <trkpt lat="41.977237" lon="2.717741">
        <ele>112.6</ele>
        <time>2011-09-06T16:05:50Z</time>
      </trkpt>
      <trkpt lat="41.976903" lon="2.717943">
        <ele>113.1</ele>
        <time>2011-09-06T16:05:47Z</time>
      </trkpt>
      <trkpt lat="41.976535" lon="2.718269">
        <ele>113.6</ele>
        <time>2011-09-06T16:05:44Z</time>
      </trkpt>
      <trkpt lat="41.975564" lon="2.719033">
        <ele>113.1</ele>
        <time>2011-09-06T16:05:36Z</time>
      </trkpt>
      <trkpt lat="41.975064" lon="2.719585">
        <ele>113.1</ele>
        <time>2011-09-06T16:05:30Z</time>
      </trkpt>
      <trkpt lat="41.974112" lon="2.720370">
        <ele>113.6</ele>
        <time>2011-09-06T16:05:23Z</time>
      </trkpt>
      <trkpt lat="41.972996" lon="2.721216">
        <ele>115.5</ele>
        <time>2011-09-06T16:05:15Z</time>
      </trkpt>
      <trkpt lat="41.972688" lon="2.721512">
        <ele>115.5</ele>
        <time>2011-09-06T16:05:12Z</time>
      </trkpt>
      <trkpt lat="41.971586" lon="2.723086">
        <ele>113.1</ele>
        <time>2011-09-06T16:05:04Z</time>
      </trkpt>
      <trkpt lat="41.970622" lon="2.724643">
        <ele>110.2</ele>
        <time>2011-09-06T16:04:57Z</time>
      </trkpt>
      <trkpt lat="41.970376" lon="2.725349">
        <ele>110.2</ele>
        <time>2011-09-06T16:04:53Z</time>
      </trkpt>
      <trkpt lat="41.970330" lon="2.725782">
        <ele>110.2</ele>
        <time>2011-09-06T16:04:51Z</time>
      </trkpt>
      <trkpt lat="41.970348" lon="2.727264">
        <ele>109.3</ele>
        <time>2011-09-06T16:04:44Z</time>
      </trkpt>
      <trkpt lat="41.970594" lon="2.728867">
        <ele>108.8</ele>
        <time>2011-09-06T16:04:37Z</time>
      </trkpt>
      <trkpt lat="41.971128" lon="2.731012">
        <ele>105.4</ele>
        <time>2011-09-06T16:04:28Z</time>
      </trkpt>
      <trkpt lat="41.971293" lon="2.731912">
        <ele>106.8</ele>
        <time>2011-09-06T16:04:23Z</time>
      </trkpt>
      <trkpt lat="41.971301" lon="2.732270">
        <ele>107.8</ele>
        <time>2011-09-06T16:04:21Z</time>
      </trkpt>
      <trkpt lat="41.971422" lon="2.732868">
        <ele>111.2</ele>
        <time>2011-09-06T16:04:17Z</time>
      </trkpt>
      <trkpt lat="41.971709" lon="2.733342">
        <ele>117.4</ele>
        <time>2011-09-06T16:04:13Z</time>
      </trkpt>
      <trkpt lat="41.971832" lon="2.733763">
        <ele>118.9</ele>
        <time>2011-09-06T16:04:09Z</time>
      </trkpt>
      <trkpt lat="41.971659" lon="2.734081">
        <ele>122.7</ele>
        <time>2011-09-06T16:04:05Z</time>
      </trkpt>
      <trkpt lat="41.971566" lon="2.734427">
        <ele>122.2</ele>
        <time>2011-09-06T16:04:02Z</time>
      </trkpt>
      <trkpt lat="41.971421" lon="2.734634">
        <ele>124.6</ele>
        <time>2011-09-06T16:04:00Z</time>
      </trkpt>
      <trkpt lat="41.971256" lon="2.735114">
        <ele>122.2</ele>
        <time>2011-09-06T16:03:55Z</time>
      </trkpt>
      <trkpt lat="41.971118" lon="2.735326">
        <ele>119.8</ele>
        <time>2011-09-06T16:03:53Z</time>
      </trkpt>
      <trkpt lat="41.970901" lon="2.735902">
        <ele>115.5</ele>
        <time>2011-09-06T16:03:48Z</time>
      </trkpt>
      <trkpt lat="41.970915" lon="2.736054">
        <ele>115.0</ele>
        <time>2011-09-06T16:03:47Z</time>
      </trkpt>
      <trkpt lat="41.971008" lon="2.737373">
        <ele>116.0</ele>
        <time>2011-09-06T16:03:40Z</time>
      </trkpt>
      <trkpt lat="41.971058" lon="2.737921">
        <ele>116.0</ele>
        <time>2011-09-06T16:03:35Z</time>
      </trkpt>
      <trkpt lat="41.971060" lon="2.737912">
        <ele>115.0</ele>
        <time>2011-09-06T16:02:49Z</time>
      </trkpt>
      <trkpt lat="41.971060" lon="2.738085">
        <ele>107.3</ele>
        <time>2011-09-06T16:02:42Z</time>
      </trkpt>
      <trkpt lat="41.971010" lon="2.738391">
        <ele>105.4</ele>
        <time>2011-09-06T16:02:39Z</time>
      </trkpt>
      <trkpt lat="41.970787" lon="2.739552">
        <ele>108.8</ele>
        <time>2011-09-06T16:02:32Z</time>
      </trkpt>
      <trkpt lat="41.970741" lon="2.740312">
        <ele>111.7</ele>
        <time>2011-09-06T16:02:28Z</time>
      </trkpt>
      <trkpt lat="41.970916" lon="2.741966">
        <ele>117.4</ele>
        <time>2011-09-06T16:02:19Z</time>
      </trkpt>
      <trkpt lat="41.971073" lon="2.742995">
        <ele>116.5</ele>
        <time>2011-09-06T16:02:12Z</time>
      </trkpt>
      <trkpt lat="41.970945" lon="2.743529">
        <ele>119.8</ele>
        <time>2011-09-06T16:02:07Z</time>
      </trkpt>
      <trkpt lat="41.970946" lon="2.743851">
        <ele>118.9</ele>
        <time>2011-09-06T16:02:05Z</time>
      </trkpt>
      <trkpt lat="41.971037" lon="2.745376">
        <ele>116.5</ele>
        <time>2011-09-06T16:01:57Z</time>
      </trkpt>
      <trkpt lat="41.971365" lon="2.746776">
        <ele>116.5</ele>
        <time>2011-09-06T16:01:50Z</time>
      </trkpt>
      <trkpt lat="41.971761" lon="2.748289">
        <ele>114.5</ele>
        <time>2011-09-06T16:01:42Z</time>
      </trkpt>
      <trkpt lat="41.971922" lon="2.748550">
        <ele>115.0</ele>
        <time>2011-09-06T16:01:40Z</time>
      </trkpt>
      <trkpt lat="41.972092" lon="2.749080">
        <ele>116.0</ele>
        <time>2011-09-06T16:01:36Z</time>
      </trkpt>
      <trkpt lat="41.972096" lon="2.749237">
        <ele>116.5</ele>
        <time>2011-09-06T16:01:35Z</time>
      </trkpt>
      <trkpt lat="41.972248" lon="2.750562">
        <ele>115.5</ele>
        <time>2011-09-06T16:01:28Z</time>
      </trkpt>
      <trkpt lat="41.972513" lon="2.752028">
        <ele>117.4</ele>
        <time>2011-09-06T16:01:20Z</time>
      </trkpt>
      <trkpt lat="41.972554" lon="2.752744">
        <ele>119.3</ele>
        <time>2011-09-06T16:01:13Z</time>
      </trkpt>
      <trkpt lat="41.972598" lon="2.753666">
        <ele>118.9</ele>
        <time>2011-09-06T16:01:05Z</time>
      </trkpt>
      <trkpt lat="41.972896" lon="2.754656">
        <ele>119.3</ele>
        <time>2011-09-06T16:00:59Z</time>
      </trkpt>
      <trkpt lat="41.973073" lon="2.755085">
        <ele>120.3</ele>
        <time>2011-09-06T16:00:56Z</time>
      </trkpt>
      <trkpt lat="41.973375" lon="2.755586">
        <ele>121.7</ele>
        <time>2011-09-06T16:00:52Z</time>
      </trkpt>
      <trkpt lat="41.973546" lon="2.756099">
        <ele>121.7</ele>
        <time>2011-09-06T16:00:48Z</time>
      </trkpt>
      <trkpt lat="41.973791" lon="2.756626">
        <ele>122.7</ele>
        <time>2011-09-06T16:00:43Z</time>
      </trkpt>
      <trkpt lat="41.973911" lon="2.756937">
        <ele>123.7</ele>
        <time>2011-09-06T16:00:38Z</time>
      </trkpt>
      <trkpt lat="41.974297" lon="2.757558">
        <ele>125.6</ele>
        <time>2011-09-06T16:00:31Z</time>
      </trkpt>
      <trkpt lat="41.974786" lon="2.758761">
        <ele>124.6</ele>
        <time>2011-09-06T16:00:22Z</time>
      </trkpt>
      <trkpt lat="41.975340" lon="2.760022">
        <ele>120.8</ele>
        <time>2011-09-06T16:00:11Z</time>
      </trkpt>
      <trkpt lat="41.975402" lon="2.760219">
        <ele>119.8</ele>
        <time>2011-09-06T16:00:09Z</time>
      </trkpt>
      <trkpt lat="41.975611" lon="2.760655">
        <ele>117.9</ele>
        <time>2011-09-06T16:00:03Z</time>
      </trkpt>
      <trkpt lat="41.975734" lon="2.761001">
        <ele>118.4</ele>
        <time>2011-09-06T15:59:59Z</time>
      </trkpt>
      <trkpt lat="41.976167" lon="2.761661">
        <ele>115.0</ele>
        <time>2011-09-06T15:59:49Z</time>
      </trkpt>
      <trkpt lat="41.976549" lon="2.762431">
        <ele>110.7</ele>
        <time>2011-09-06T15:59:38Z</time>
      </trkpt>
      <trkpt lat="41.976713" lon="2.762792">
        <ele>110.2</ele>
        <time>2011-09-06T15:59:34Z</time>
      </trkpt>
      <trkpt lat="41.977284" lon="2.763525">
        <ele>106.4</ele>
        <time>2011-09-06T15:59:25Z</time>
      </trkpt>
      <trkpt lat="41.977799" lon="2.764126">
        <ele>105.4</ele>
        <time>2011-09-06T15:59:17Z</time>
      </trkpt>
      <trkpt lat="41.978281" lon="2.764476">
        <ele>104.4</ele>
        <time>2011-09-06T15:59:10Z</time>
      </trkpt>
      <trkpt lat="41.978479" lon="2.764492">
        <ele>103.5</ele>
        <time>2011-09-06T15:59:06Z</time>
      </trkpt>
      <trkpt lat="41.978590" lon="2.764174">
        <ele>105.4</ele>
        <time>2011-09-06T15:59:01Z</time>
      </trkpt>
      <trkpt lat="41.978676" lon="2.764093">
        <ele>107.8</ele>
        <time>2011-09-06T15:58:56Z</time>
      </trkpt>
      <trkpt lat="41.978992" lon="2.764155">
        <ele>111.2</ele>
        <time>2011-09-06T15:58:50Z</time>
      </trkpt>
      <trkpt lat="41.979102" lon="2.764298">
        <ele>110.2</ele>
        <time>2011-09-06T15:58:48Z</time>
      </trkpt>
      <trkpt lat="41.979148" lon="2.764650">
        <ele>108.8</ele>
        <time>2011-09-06T15:58:43Z</time>
      </trkpt>
      <trkpt lat="41.979053" lon="2.764792">
        <ele>110.7</ele>
        <time>2011-09-06T15:58:41Z</time>
      </trkpt>
      <trkpt lat="41.979017" lon="2.765052">
        <ele>112.1</ele>
        <time>2011-09-06T15:58:37Z</time>
      </trkpt>
      <trkpt lat="41.979156" lon="2.765262">
        <ele>114.1</ele>
        <time>2011-09-06T15:58:34Z</time>
      </trkpt>
      <trkpt lat="41.979685" lon="2.765945">
        <ele>110.2</ele>
        <time>2011-09-06T15:58:25Z</time>
      </trkpt>
      <trkpt lat="41.979912" lon="2.766061">
        <ele>110.2</ele>
        <time>2011-09-06T15:58:22Z</time>
      </trkpt>
      <trkpt lat="41.980118" lon="2.766173">
        <ele>113.1</ele>
        <time>2011-09-06T15:58:19Z</time>
      </trkpt>
      <trkpt lat="41.980255" lon="2.766219">
        <ele>113.6</ele>
        <time>2011-09-06T15:58:17Z</time>
      </trkpt>
      <trkpt lat="41.980539" lon="2.766383">
        <ele>116.0</ele>
        <time>2011-09-06T15:58:12Z</time>
      </trkpt>
      <trkpt lat="41.980638" lon="2.766483">
        <ele>116.5</ele>
        <time>2011-09-06T15:58:10Z</time>
      </trkpt>
      <trkpt lat="41.981199" lon="2.767102">
        <ele>109.7</ele>
        <time>2011-09-06T15:57:57Z</time>
      </trkpt>
      <trkpt lat="41.981487" lon="2.767414">
        <ele>101.6</ele>
        <time>2011-09-06T15:57:47Z</time>
      </trkpt>
      <trkpt lat="41.981719" lon="2.767300">
        <ele>104.9</ele>
        <time>2011-09-06T15:57:43Z</time>
      </trkpt>
      <trkpt lat="41.982000" lon="2.767043">
        <ele>102.0</ele>
        <time>2011-09-06T15:57:34Z</time>
      </trkpt>
      <trkpt lat="41.982225" lon="2.766726">
        <ele>103.5</ele>
        <time>2011-09-06T15:57:26Z</time>
      </trkpt>
      <trkpt lat="41.982757" lon="2.766308">
        <ele>96.8</ele>
        <time>2011-09-06T15:57:17Z</time>
      </trkpt>
      <trkpt lat="41.982951" lon="2.766108">
        <ele>95.3</ele>
        <time>2011-09-06T15:57:13Z</time>
      </trkpt>
      <trkpt lat="41.983246" lon="2.765887">
        <ele>94.8</ele>
        <time>2011-09-06T15:57:09Z</time>
      </trkpt>
      <trkpt lat="41.983457" lon="2.765651">
        <ele>94.4</ele>
        <time>2011-09-06T15:57:06Z</time>
      </trkpt>
      <trkpt lat="41.983691" lon="2.764763">
        <ele>92.4</ele>
        <time>2011-09-06T15:56:58Z</time>
      </trkpt>
      <trkpt lat="41.983623" lon="2.764292">
        <ele>92.4</ele>
        <time>2011-09-06T15:56:54Z</time>
      </trkpt>
      <trkpt lat="41.983458" lon="2.763926">
        <ele>93.9</ele>
        <time>2011-09-06T15:56:50Z</time>
      </trkpt>
      <trkpt lat="41.983157" lon="2.763646">
        <ele>94.8</ele>
        <time>2011-09-06T15:56:46Z</time>
      </trkpt>
      <trkpt lat="41.982950" lon="2.763324">
        <ele>96.8</ele>
        <time>2011-09-06T15:56:42Z</time>
      </trkpt>
      <trkpt lat="41.982668" lon="2.762928">
        <ele>96.3</ele>
        <time>2011-09-06T15:56:36Z</time>
      </trkpt>
      <trkpt lat="41.982538" lon="2.762535">
        <ele>96.3</ele>
        <time>2011-09-06T15:56:30Z</time>
      </trkpt>
      <trkpt lat="41.982567" lon="2.762283">
        <ele>96.3</ele>
        <time>2011-09-06T15:56:27Z</time>
      </trkpt>
      <trkpt lat="41.982757" lon="2.761925">
        <ele>91.9</ele>
        <time>2011-09-06T15:56:19Z</time>
      </trkpt>
      <trkpt lat="41.983004" lon="2.761387">
        <ele>90.0</ele>
        <time>2011-09-06T15:56:11Z</time>
      </trkpt>
      <trkpt lat="41.983129" lon="2.761222">
        <ele>91.0</ele>
        <time>2011-09-06T15:56:08Z</time>
      </trkpt>
      <trkpt lat="41.983328" lon="2.760774">
        <ele>92.9</ele>
        <time>2011-09-06T15:56:03Z</time>
      </trkpt>
      <trkpt lat="41.983566" lon="2.760403">
        <ele>94.8</ele>
        <time>2011-09-06T15:55:59Z</time>
      </trkpt>
      <trkpt lat="41.983617" lon="2.760183">
        <ele>96.8</ele>
        <time>2011-09-06T15:55:55Z</time>
      </trkpt>
      <trkpt lat="41.983575" lon="2.759795">
        <ele>97.7</ele>
        <time>2011-09-06T15:55:50Z</time>
      </trkpt>
      <trkpt lat="41.983613" lon="2.759499">
        <ele>96.8</ele>
        <time>2011-09-06T15:55:46Z</time>
      </trkpt>
      <trkpt lat="41.983590" lon="2.759330">
        <ele>99.2</ele>
        <time>2011-09-06T15:55:44Z</time>
      </trkpt>
      <trkpt lat="41.983707" lon="2.759100">
        <ele>102.5</ele>
        <time>2011-09-06T15:55:39Z</time>
      </trkpt>
      <trkpt lat="41.984496" lon="2.759078">
        <ele>104.4</ele>
        <time>2011-09-06T15:55:32Z</time>
      </trkpt>
      <trkpt lat="41.986088" lon="2.759431">
        <ele>107.8</ele>
        <time>2011-09-06T15:55:20Z</time>
      </trkpt>
      <trkpt lat="41.986874" lon="2.759525">
        <ele>107.3</ele>
        <time>2011-09-06T15:55:13Z</time>
      </trkpt>
      <trkpt lat="41.987324" lon="2.759191">
        <ele>114.5</ele>
        <time>2011-09-06T15:55:08Z</time>
      </trkpt>
      <trkpt lat="41.988094" lon="2.759267">
        <ele>112.1</ele>
        <time>2011-09-06T15:55:00Z</time>
      </trkpt>
      <trkpt lat="41.988799" lon="2.759338">
        <ele>115.0</ele>
        <time>2011-09-06T15:54:53Z</time>
      </trkpt>
      <trkpt lat="41.988901" lon="2.759451">
        <ele>111.7</ele>
        <time>2011-09-06T15:54:49Z</time>
      </trkpt>
      <trkpt lat="41.988895" lon="2.759479">
        <ele>111.7</ele>
        <time>2011-09-06T15:54:48Z</time>
      </trkpt>
      <trkpt lat="41.988855" lon="2.760412">
        <ele>109.3</ele>
        <time>2011-09-06T15:54:40Z</time>
      </trkpt>
      <trkpt lat="41.988804" lon="2.761221">
        <ele>106.8</ele>
        <time>2011-09-06T15:54:33Z</time>
      </trkpt>
      <trkpt lat="41.988821" lon="2.761631">
        <ele>103.0</ele>
        <time>2011-09-06T15:54:26Z</time>
      </trkpt>
      <trkpt lat="41.988793" lon="2.762016">
        <ele>100.1</ele>
        <time>2011-09-06T15:54:19Z</time>
      </trkpt>
      <trkpt lat="41.988754" lon="2.762138">
        <ele>99.6</ele>
        <time>2011-09-06T15:54:18Z</time>
      </trkpt>
      <trkpt lat="41.988446" lon="2.763439">
        <ele>98.2</ele>
        <time>2011-09-06T15:54:10Z</time>
      </trkpt>
      <trkpt lat="41.988221" lon="2.765092">
        <ele>95.8</ele>
        <time>2011-09-06T15:54:01Z</time>
      </trkpt>
      <trkpt lat="41.988030" lon="2.766408">
        <ele>92.4</ele>
        <time>2011-09-06T15:53:54Z</time>
      </trkpt>
      <trkpt lat="41.987912" lon="2.766828">
        <ele>94.8</ele>
        <time>2011-09-06T15:53:50Z</time>
      </trkpt>
      <trkpt lat="41.987820" lon="2.767367">
        <ele>98.2</ele>
        <time>2011-09-06T15:53:46Z</time>
      </trkpt>
      <trkpt lat="41.987746" lon="2.767755">
        <ele>100.1</ele>
        <time>2011-09-06T15:53:43Z</time>
      </trkpt>
      <trkpt lat="41.987616" lon="2.768419">
        <ele>101.6</ele>
        <time>2011-09-06T15:53:37Z</time>
      </trkpt>
      <trkpt lat="41.987112" lon="2.770335">
        <ele>101.6</ele>
        <time>2011-09-06T15:53:27Z</time>
      </trkpt>
      <trkpt lat="41.986562" lon="2.772152">
        <ele>102.0</ele>
        <time>2011-09-06T15:53:18Z</time>
      </trkpt>
      <trkpt lat="41.986319" lon="2.773115">
        <ele>102.0</ele>
        <time>2011-09-06T15:53:12Z</time>
      </trkpt>
      <trkpt lat="41.986270" lon="2.773215">
        <ele>101.6</ele>
        <time>2011-09-06T15:53:10Z</time>
      </trkpt>
      <trkpt lat="41.985941" lon="2.773606">
        <ele>103.0</ele>
        <time>2011-09-06T15:53:01Z</time>
      </trkpt>
      <trkpt lat="41.985891" lon="2.773845">
        <ele>103.5</ele>
        <time>2011-09-06T15:52:58Z</time>
      </trkpt>
      <trkpt lat="41.985759" lon="2.774512">
        <ele>103.0</ele>
        <time>2011-09-06T15:52:52Z</time>
      </trkpt>
      <trkpt lat="41.985856" lon="2.775336">
        <ele>100.6</ele>
        <time>2011-09-06T15:52:44Z</time>
      </trkpt>
      <trkpt lat="41.986012" lon="2.775792">
        <ele>101.6</ele>
        <time>2011-09-06T15:52:40Z</time>
      </trkpt>
      <trkpt lat="41.986143" lon="2.776807">
        <ele>104.9</ele>
        <time>2011-09-06T15:52:32Z</time>
      </trkpt>
      <trkpt lat="41.986218" lon="2.777426">
        <ele>102.0</ele>
        <time>2011-09-06T15:52:26Z</time>
      </trkpt>
      <trkpt lat="41.986288" lon="2.777848">
        <ele>101.1</ele>
        <time>2011-09-06T15:52:23Z</time>
      </trkpt>
      <trkpt lat="41.986607" lon="2.779453">
        <ele>90.5</ele>
        <time>2011-09-06T15:52:12Z</time>
      </trkpt>
      <trkpt lat="41.986603" lon="2.779607">
        <ele>90.0</ele>
        <time>2011-09-06T15:52:11Z</time>
      </trkpt>
      <trkpt lat="41.986537" lon="2.780893">
        <ele>79.5</ele>
        <time>2011-09-06T15:52:03Z</time>
      </trkpt>
      <trkpt lat="41.986533" lon="2.781128">
        <ele>79.0</ele>
        <time>2011-09-06T15:52:01Z</time>
      </trkpt>
      <trkpt lat="41.986553" lon="2.781517">
        <ele>76.6</ele>
        <time>2011-09-06T15:51:57Z</time>
      </trkpt>
      <trkpt lat="41.986432" lon="2.782133">
        <ele>78.5</ele>
        <time>2011-09-06T15:51:51Z</time>
      </trkpt>
      <trkpt lat="41.986292" lon="2.782307">
        <ele>79.0</ele>
        <time>2011-09-06T15:51:47Z</time>
      </trkpt>
      <trkpt lat="41.986067" lon="2.782500">
        <ele>75.1</ele>
        <time>2011-09-06T15:51:39Z</time>
      </trkpt>
      <trkpt lat="41.985908" lon="2.782844">
        <ele>78.5</ele>
        <time>2011-09-06T15:51:31Z</time>
      </trkpt>
      <trkpt lat="41.985890" lon="2.783255">
        <ele>80.4</ele>
        <time>2011-09-06T15:51:26Z</time>
      </trkpt>
      <trkpt lat="41.985817" lon="2.783583">
        <ele>81.9</ele>
        <time>2011-09-06T15:51:21Z</time>
      </trkpt>
      <trkpt lat="41.985760" lon="2.783711">
        <ele>83.8</ele>
        <time>2011-09-06T15:51:18Z</time>
      </trkpt>
      <trkpt lat="41.985677" lon="2.783928">
        <ele>85.7</ele>
        <time>2011-09-06T15:51:14Z</time>
      </trkpt>
      <trkpt lat="41.985760" lon="2.784124">
        <ele>87.6</ele>
        <time>2011-09-06T15:51:10Z</time>
      </trkpt>
      <trkpt lat="41.986429" lon="2.784663">
        <ele>93.9</ele>
        <time>2011-09-06T15:51:01Z</time>
      </trkpt>
      <trkpt lat="41.986634" lon="2.785033">
        <ele>96.8</ele>
        <time>2011-09-06T15:50:55Z</time>
      </trkpt>
      <trkpt lat="41.986553" lon="2.785099">
        <ele>95.8</ele>
        <time>2011-09-06T15:50:53Z</time>
      </trkpt>
      <trkpt lat="41.986332" lon="2.785624">
        <ele>99.2</ele>
        <time>2011-09-06T15:50:47Z</time>
      </trkpt>
      <trkpt lat="41.986303" lon="2.786323">
        <ele>99.2</ele>
        <time>2011-09-06T15:50:43Z</time>
      </trkpt>
      <trkpt lat="41.986241" lon="2.787420">
        <ele>100.1</ele>
        <time>2011-09-06T15:50:35Z</time>
      </trkpt>
      <trkpt lat="41.986246" lon="2.787766">
        <ele>99.2</ele>
        <time>2011-09-06T15:50:33Z</time>
      </trkpt>
      <trkpt lat="41.986549" lon="2.788032">
        <ele>95.8</ele>
        <time>2011-09-06T15:50:28Z</time>
      </trkpt>
      <trkpt lat="41.987243" lon="2.787695">
        <ele>94.8</ele>
        <time>2011-09-06T15:50:21Z</time>
      </trkpt>
      <trkpt lat="41.987525" lon="2.787821">
        <ele>96.8</ele>
        <time>2011-09-06T15:50:17Z</time>
      </trkpt>
      <trkpt lat="41.987650" lon="2.788196">
        <ele>97.2</ele>
        <time>2011-09-06T15:50:13Z</time>
      </trkpt>
      <trkpt lat="41.987665" lon="2.788242">
        <ele>96.8</ele>
        <time>2011-09-06T15:49:18Z</time>
      </trkpt>
      <trkpt lat="41.987621" lon="2.788318">
        <ele>94.8</ele>
        <time>2011-09-06T15:48:15Z</time>
      </trkpt>
      <trkpt lat="41.987660" lon="2.788442">
        <ele>94.4</ele>
        <time>2011-09-06T15:48:05Z</time>
      </trkpt>
      <trkpt lat="41.987683" lon="2.788429">
        <ele>93.9</ele>
        <time>2011-09-06T15:48:03Z</time>
      </trkpt>
      <trkpt lat="41.987663" lon="2.788200">
        <ele>92.9</ele>
        <time>2011-09-06T15:47:57Z</time>
      </trkpt>
      <trkpt lat="41.987660" lon="2.788206">
        <ele>92.9</ele>
        <time>2011-09-06T15:47:22Z</time>
      </trkpt>
      <trkpt lat="41.987660" lon="2.788206">
        <ele>92.9</ele>
        <time>2011-09-06T15:46:09Z</time>
      </trkpt>
      <trkpt lat="41.987659" lon="2.788207">
        <ele>91.9</ele>
        <time>2011-09-06T15:44:14Z</time>
      </trkpt>
      <trkpt lat="41.987694" lon="2.788132">
        <ele>81.9</ele>
        <time>2011-09-06T15:42:42Z</time>
      </trkpt>
      <trkpt lat="41.987727" lon="2.788165">
        <ele>74.6</ele>
        <time>2011-09-06T14:04:31Z</time>
      </trkpt>
      <trkpt lat="41.987744" lon="2.788186">
        <ele>74.2</ele>
        <time>2011-09-06T14:04:22Z</time>
      </trkpt>
      <trkpt lat="41.987761" lon="2.788206">
        <ele>72.7</ele>
        <time>2011-09-06T14:04:21Z</time>
      </trkpt>
      <trkpt lat="41.987776" lon="2.788248">
        <ele>71.8</ele>
        <time>2011-09-06T14:04:20Z</time>
      </trkpt>
      <trkpt lat="41.987772" lon="2.788297">
        <ele>71.3</ele>
        <time>2011-09-06T14:04:19Z</time>
      </trkpt>
      <trkpt lat="41.987726" lon="2.788381">
        <ele>71.3</ele>
        <time>2011-09-06T14:04:16Z</time>
      </trkpt>
      <trkpt lat="41.987772" lon="2.788659">
        <ele>71.8</ele>
        <time>2011-09-06T14:04:11Z</time>
      </trkpt>
      <trkpt lat="41.988199" lon="2.790168">
        <ele>70.3</ele>
        <time>2011-09-06T14:04:02Z</time>
      </trkpt>
      <trkpt lat="41.988599" lon="2.791326">
        <ele>68.9</ele>
        <time>2011-09-06T14:03:54Z</time>
      </trkpt>
      <trkpt lat="41.988910" lon="2.793074">
        <ele>67.0</ele>
        <time>2011-09-06T14:03:44Z</time>
      </trkpt>
      <trkpt lat="41.989243" lon="2.795070">
        <ele>67.0</ele>
        <time>2011-09-06T14:03:33Z</time>
      </trkpt>
      <trkpt lat="41.989266" lon="2.795239">
        <ele>66.5</ele>
        <time>2011-09-06T14:03:32Z</time>
      </trkpt>
      <trkpt lat="41.989302" lon="2.795386">
        <ele>67.0</ele>
        <time>2011-09-06T14:03:31Z</time>
      </trkpt>
      <trkpt lat="41.989369" lon="2.795499">
        <ele>66.5</ele>
        <time>2011-09-06T14:03:30Z</time>
      </trkpt>
      <trkpt lat="41.989464" lon="2.795569">
        <ele>67.0</ele>
        <time>2011-09-06T14:03:29Z</time>
      </trkpt>
      <trkpt lat="41.989572" lon="2.795593">
        <ele>67.4</ele>
        <time>2011-09-06T14:03:28Z</time>
      </trkpt>
      <trkpt lat="41.989694" lon="2.795586">
        <ele>67.4</ele>
        <time>2011-09-06T14:03:27Z</time>
      </trkpt>
      <trkpt lat="41.990021" lon="2.795427">
        <ele>68.4</ele>
        <time>2011-09-06T14:03:24Z</time>
      </trkpt>
      <trkpt lat="41.990119" lon="2.795356">
        <ele>68.4</ele>
        <time>2011-09-06T14:03:23Z</time>
      </trkpt>
      <trkpt lat="41.990210" lon="2.795258">
        <ele>68.4</ele>
        <time>2011-09-06T14:03:22Z</time>
      </trkpt>
      <trkpt lat="41.990281" lon="2.795138">
        <ele>68.4</ele>
        <time>2011-09-06T14:03:21Z</time>
      </trkpt>
      <trkpt lat="41.990353" lon="2.795033">
        <ele>67.9</ele>
        <time>2011-09-06T14:03:20Z</time>
      </trkpt>
      <trkpt lat="41.990433" lon="2.794966">
        <ele>67.0</ele>
        <time>2011-09-06T14:03:19Z</time>
      </trkpt>
      <trkpt lat="41.990530" lon="2.794953">
        <ele>67.9</ele>
        <time>2011-09-06T14:03:18Z</time>
      </trkpt>
      <trkpt lat="41.990628" lon="2.794998">
        <ele>68.4</ele>
        <time>2011-09-06T14:03:17Z</time>
      </trkpt>
      <trkpt lat="41.990705" lon="2.795090">
        <ele>68.9</ele>
        <time>2011-09-06T14:03:16Z</time>
      </trkpt>
      <trkpt lat="41.990751" lon="2.795210">
        <ele>69.4</ele>
        <time>2011-09-06T14:03:15Z</time>
      </trkpt>
      <trkpt lat="41.990749" lon="2.795340">
        <ele>69.4</ele>
        <time>2011-09-06T14:03:14Z</time>
      </trkpt>
      <trkpt lat="41.990705" lon="2.795473">
        <ele>68.4</ele>
        <time>2011-09-06T14:03:13Z</time>
      </trkpt>
      <trkpt lat="41.990656" lon="2.795601">
        <ele>68.9</ele>
        <time>2011-09-06T14:03:12Z</time>
      </trkpt>
      <trkpt lat="41.990631" lon="2.795726">
        <ele>68.4</ele>
        <time>2011-09-06T14:03:11Z</time>
      </trkpt>
      <trkpt lat="41.990629" lon="2.795842">
        <ele>68.4</ele>
        <time>2011-09-06T14:03:10Z</time>
      </trkpt>
      <trkpt lat="41.990828" lon="2.796967">
        <ele>67.4</ele>
        <time>2011-09-06T14:03:03Z</time>
      </trkpt>
      <trkpt lat="41.991345" lon="2.799924">
        <ele>66.5</ele>
        <time>2011-09-06T14:02:47Z</time>
      </trkpt>
      <trkpt lat="41.991762" lon="2.802281">
        <ele>66.0</ele>
        <time>2011-09-06T14:02:35Z</time>
      </trkpt>
      <trkpt lat="41.992111" lon="2.804221">
        <ele>65.0</ele>
        <time>2011-09-06T14:02:25Z</time>
      </trkpt>
      <trkpt lat="41.992368" lon="2.805813">
        <ele>63.1</ele>
        <time>2011-09-06T14:02:17Z</time>
      </trkpt>
      <trkpt lat="41.992385" lon="2.805999">
        <ele>63.1</ele>
        <time>2011-09-06T14:02:16Z</time>
      </trkpt>
      <trkpt lat="41.992382" lon="2.806164">
        <ele>62.1</ele>
        <time>2011-09-06T14:02:15Z</time>
      </trkpt>
      <trkpt lat="41.992356" lon="2.806566">
        <ele>64.1</ele>
        <time>2011-09-06T14:02:08Z</time>
      </trkpt>
      <trkpt lat="41.992332" lon="2.807051">
        <ele>64.1</ele>
        <time>2011-09-06T14:02:01Z</time>
      </trkpt>
      <trkpt lat="41.992327" lon="2.808333">
        <ele>62.6</ele>
        <time>2011-09-06T14:01:53Z</time>
      </trkpt>
      <trkpt lat="41.992333" lon="2.808491">
        <ele>62.1</ele>
        <time>2011-09-06T14:01:52Z</time>
      </trkpt>
      <trkpt lat="41.992400" lon="2.808748">
        <ele>62.1</ele>
        <time>2011-09-06T14:01:50Z</time>
      </trkpt>
      <trkpt lat="41.992439" lon="2.808867">
        <ele>62.1</ele>
        <time>2011-09-06T14:01:49Z</time>
      </trkpt>
      <trkpt lat="41.992444" lon="2.808987">
        <ele>62.1</ele>
        <time>2011-09-06T14:01:48Z</time>
      </trkpt>
      <trkpt lat="41.992380" lon="2.809195">
        <ele>61.7</ele>
        <time>2011-09-06T14:01:46Z</time>
      </trkpt>
      <trkpt lat="41.992324" lon="2.809308">
        <ele>61.2</ele>
        <time>2011-09-06T14:01:37Z</time>
      </trkpt>
      <trkpt lat="41.992289" lon="2.809924">
        <ele>61.7</ele>
        <time>2011-09-06T14:01:31Z</time>
      </trkpt>
      <trkpt lat="41.992310" lon="2.811018">
        <ele>61.2</ele>
        <time>2011-09-06T14:01:23Z</time>
      </trkpt>
      <trkpt lat="41.992323" lon="2.811115">
        <ele>61.2</ele>
        <time>2011-09-06T14:01:22Z</time>
      </trkpt>
      <trkpt lat="41.992346" lon="2.811204">
        <ele>61.2</ele>
        <time>2011-09-06T14:01:21Z</time>
      </trkpt>
      <trkpt lat="41.992437" lon="2.811353">
        <ele>61.2</ele>
        <time>2011-09-06T14:01:19Z</time>
      </trkpt>
      <trkpt lat="41.992488" lon="2.811426">
        <ele>61.7</ele>
        <time>2011-09-06T14:01:18Z</time>
      </trkpt>
      <trkpt lat="41.992576" lon="2.811731">
        <ele>61.7</ele>
        <time>2011-09-06T14:01:15Z</time>
      </trkpt>
      <trkpt lat="41.992327" lon="2.811944">
        <ele>0.0</ele>
        <time>2012-05-13T00:35:25Z</time>
      </trkpt>
      <trkpt lat="41.992327" lon="2.811977">
        <ele>0.0</ele>
        <time>2012-05-13T00:35:45Z</time>
      </trkpt>
      <trkpt lat="41.992259" lon="2.812442">
        <ele>0.0</ele>
        <time>2012-05-13T00:36:05Z</time>
      </trkpt>
      <trkpt lat="41.992259" lon="2.812459">
        <ele>0.0</ele>
        <time>2012-05-13T00:36:25Z</time>
      </trkpt>
      <trkpt lat="41.992259" lon="2.813006">
        <ele>0.0</ele>
        <time>2012-05-13T00:36:45Z</time>
      </trkpt>
      <trkpt lat="41.992259" lon="2.813554">
        <ele>0.0</ele>
        <time>2012-05-13T00:37:05Z</time>
      </trkpt>
      <trkpt lat="41.992259" lon="2.813587">
        <ele>0.0</ele>
        <time>2012-05-13T00:37:25Z</time>
      </trkpt>
      <trkpt lat="41.992273" lon="2.814384">
        <ele>0.0</ele>
        <time>2012-05-13T00:37:45Z</time>
      </trkpt>
      <trkpt lat="41.992178" lon="2.815031">
        <ele>0.0</ele>
        <time>2012-05-13T00:38:05Z</time>
      </trkpt>
      <trkpt lat="41.992192" lon="2.815048">
        <ele>0.0</ele>
        <time>2012-05-13T00:38:25Z</time>
      </trkpt>
      <trkpt lat="41.992259" lon="2.815628">
        <ele>0.0</ele>
        <time>2012-05-13T00:38:45Z</time>
      </trkpt>
      <trkpt lat="41.992273" lon="2.816143">
        <ele>0.0</ele>
        <time>2012-05-13T00:39:05Z</time>
      </trkpt>
      <trkpt lat="41.992273" lon="2.816757">
        <ele>0.0</ele>
        <time>2012-05-13T00:39:25Z</time>
      </trkpt>
      <trkpt lat="41.992219" lon="2.817587">
        <ele>0.0</ele>
        <time>2012-05-13T00:39:45Z</time>
      </trkpt>
      <trkpt lat="41.992219" lon="2.817603">
        <ele>0.0</ele>
        <time>2012-05-13T00:40:05Z</time>
      </trkpt>
      <trkpt lat="41.992232" lon="2.818217">
        <ele>0.0</ele>
        <time>2012-05-13T00:40:25Z</time>
      </trkpt>
      <trkpt lat="41.992259" lon="2.818500">
        <ele>0.0</ele>
        <time>2012-05-13T00:40:45Z</time>
      </trkpt>
      <trkpt lat="41.991976" lon="2.818417">
        <ele>0.0</ele>
        <time>2012-05-13T00:41:05Z</time>
      </trkpt>
      <trkpt lat="41.991653" lon="2.818566">
        <ele>0.0</ele>
        <time>2012-05-13T00:41:25Z</time>
      </trkpt>
      <trkpt lat="41.991235" lon="2.818782">
        <ele>0.0</ele>
        <time>2012-05-13T00:41:45Z</time>
      </trkpt>
      <trkpt lat="41.990992" lon="2.818865">
        <ele>0.0</ele>
        <time>2012-05-13T00:42:05Z</time>
      </trkpt>
      <trkpt lat="41.990629" lon="2.819014">
        <ele>0.0</ele>
        <time>2012-05-13T00:42:25Z</time>
      </trkpt>
      <trkpt lat="41.990130" lon="2.819230">
        <ele>0.0</ele>
        <time>2012-05-13T00:42:45Z</time>
      </trkpt>
      <trkpt lat="41.989672" lon="2.819512">
        <ele>0.0</ele>
        <time>2012-05-13T00:43:05Z</time>
      </trkpt>
      <trkpt lat="41.989456" lon="2.819844">
        <ele>0.0</ele>
        <time>2012-05-13T00:43:25Z</time>
      </trkpt>
      <trkpt lat="41.989254" lon="2.820226">
        <ele>0.0</ele>
        <time>2012-05-13T00:43:45Z</time>
      </trkpt>
      <trkpt lat="41.989120" lon="2.820491">
        <ele>0.0</ele>
        <time>2012-05-13T00:44:05Z</time>
      </trkpt>
      <trkpt lat="41.989133" lon="2.820707">
        <ele>0.0</ele>
        <time>2012-05-13T00:44:25Z</time>
      </trkpt>
      <trkpt lat="41.988904" lon="2.820790">
        <ele>0.0</ele>
        <time>2012-05-13T00:44:45Z</time>
      </trkpt>
      <trkpt lat="41.988769" lon="2.821039">
        <ele>0.0</ele>
        <time>2012-05-13T00:45:05Z</time>
      </trkpt>
      <trkpt lat="41.988621" lon="2.821221">
        <ele>0.0</ele>
        <time>2012-05-13T00:45:25Z</time>
      </trkpt>
      <trkpt lat="41.988796" lon="2.821404">
        <ele>0.0</ele>
        <time>2012-05-13T00:45:45Z</time>
      </trkpt>
      <trkpt lat="41.988971" lon="2.821470">
        <ele>0.0</ele>
        <time>2012-05-13T00:46:05Z</time>
      </trkpt>
      <trkpt lat="41.989093" lon="2.821653">
        <ele>0.0</ele>
        <time>2012-05-13T00:46:25Z</time>
      </trkpt>
      <trkpt lat="41.989187" lon="2.821769">
        <ele>0.0</ele>
        <time>2012-05-13T00:46:45Z</time>
      </trkpt>
      <trkpt lat="41.989241" lon="2.821952">
        <ele>0.0</ele>
        <time>2012-05-13T00:47:05Z</time>
      </trkpt>
      <trkpt lat="41.989268" lon="2.821968">
        <ele>0.0</ele>
        <time>2012-05-13T00:47:25Z</time>
      </trkpt>
      <trkpt lat="41.989335" lon="2.822284">
        <ele>0.0</ele>
        <time>2012-05-13T00:47:45Z</time>
      </trkpt>
      <trkpt lat="41.989416" lon="2.822632">
        <ele>0.0</ele>
        <time>2012-05-13T00:48:05Z</time>
      </trkpt>
      <trkpt lat="41.989456" lon="2.823014">
        <ele>0.0</ele>
        <time>2012-05-13T00:48:25Z</time>
      </trkpt>
      <trkpt lat="41.989524" lon="2.823412">
        <ele>0.0</ele>
        <time>2012-05-13T00:48:45Z</time>
      </trkpt>
      <trkpt lat="41.989605" lon="2.823761">
        <ele>0.0</ele>
        <time>2012-05-13T00:49:05Z</time>
      </trkpt>
      <trkpt lat="41.989451" lon="2.823923">
        <ele>0.0</ele>
        <time>2012-05-13T00:49:25Z</time>
      </trkpt>
      <trkpt lat="41.989440" lon="2.823937">
        <ele>0.0</ele>
        <time>2012-05-13T00:49:45Z</time>
      </trkpt>
      <trkpt lat="41.989292" lon="2.824096">
        <ele>0.0</ele>
        <time>2012-05-13T00:50:05Z</time>
      </trkpt>
      <trkpt lat="41.989201" lon="2.824192">
        <ele>0.0</ele>
        <time>2012-05-13T00:50:25Z</time>
      </trkpt>
      <trkpt lat="41.989214" lon="2.824288">
        <ele>0.0</ele>
        <time>2012-05-13T00:50:45Z</time>
      </trkpt>
      <trkpt lat="41.989324" lon="2.824375">
        <ele>0.0</ele>
        <time>2012-05-13T00:51:05Z</time>
      </trkpt>
      <trkpt lat="41.989392" lon="2.824461">
        <ele>0.0</ele>
        <time>2012-05-13T00:51:25Z</time>
      </trkpt>
      <trkpt lat="41.989392" lon="2.824464">
        <ele>0.0</ele>
        <time>2012-05-13T00:51:45Z</time>
      </trkpt>
      <trkpt lat="41.989446" lon="2.824537">
        <ele>0.0</ele>
        <time>2012-05-13T00:52:05Z</time>
      </trkpt>
      <trkpt lat="41.989341" lon="2.824700">
        <ele>0.0</ele>
        <time>2012-05-13T00:52:25Z</time>
      </trkpt>
      <trkpt lat="41.989338" lon="2.824703">
        <ele>0.0</ele>
        <time>2012-05-13T00:52:45Z</time>
      </trkpt>
      <trkpt lat="41.989222" lon="2.824916">
        <ele>0.0</ele>
        <time>2012-05-13T00:53:05Z</time>
      </trkpt>
      <trkpt lat="41.989214" lon="2.824929">
        <ele>0.0</ele>
        <time>2012-05-13T00:53:25Z</time>
      </trkpt>
      <trkpt lat="41.989211" lon="2.824932">
        <ele>0.0</ele>
        <time>2012-05-13T00:53:45Z</time>
      </trkpt>
      <trkpt lat="41.989109" lon="2.825131">
        <ele>0.0</ele>
        <time>2012-05-13T00:54:05Z</time>
      </trkpt>
      <trkpt lat="41.988955" lon="2.825430">
        <ele>0.0</ele>
        <time>2012-05-13T00:54:25Z</time>
      </trkpt>
      <trkpt lat="41.988953" lon="2.825430">
        <ele>0.0</ele>
        <time>2012-05-13T00:54:45Z</time>
      </trkpt>
      <trkpt lat="41.988850" lon="2.825629">
        <ele>0.0</ele>
        <time>2012-05-13T00:55:05Z</time>
      </trkpt>
      <trkpt lat="41.988847" lon="2.825633">
        <ele>0.0</ele>
        <time>2012-05-13T00:55:25Z</time>
      </trkpt>
      <trkpt lat="41.988823" lon="2.825480">
        <ele>0.0</ele>
        <time>2012-05-13T00:55:45Z</time>
      </trkpt>
      <trkpt lat="41.988718" lon="2.825444">
        <ele>0.0</ele>
        <time>2012-05-13T00:56:05Z</time>
      </trkpt>
      <trkpt lat="41.988710" lon="2.825440">
        <ele>0.0</ele>
        <time>2012-05-13T00:56:25Z</time>
      </trkpt>
      <trkpt lat="41.988578" lon="2.825404">
        <ele>0.0</ele>
        <time>2012-05-13T00:56:45Z</time>
      </trkpt>
      <trkpt lat="41.988570" lon="2.825401">
        <ele>0.0</ele>
        <time>2012-05-13T00:57:05Z</time>
      </trkpt>
      <trkpt lat="41.988451" lon="2.825337">
        <ele>0.0</ele>
        <time>2012-05-13T00:57:25Z</time>
      </trkpt>
      <trkpt lat="41.988438" lon="2.825331">
        <ele>0.0</ele>
        <time>2012-05-13T00:57:45Z</time>
      </trkpt>
      <trkpt lat="41.988424" lon="2.825327">
        <ele>0.0</ele>
        <time>2012-05-13T00:58:05Z</time>
      </trkpt>
      <trkpt lat="41.988351" lon="2.825314">
        <ele>0.0</ele>
        <time>2012-05-13T00:58:25Z</time>
      </trkpt>
      <trkpt lat="41.987915" lon="2.825251">
        <ele>0.0</ele>
        <time>2012-05-13T00:58:45Z</time>
      </trkpt>
      <trkpt lat="41.987580" lon="2.825221">
        <ele>0.0</ele>
        <time>2012-05-13T00:59:05Z</time>
      </trkpt>
      <trkpt lat="41.987303" lon="2.825205">
        <ele>0.0</ele>
        <time>2012-05-13T00:59:25Z</time>
      </trkpt>
    </trkseg>
  </trk></gpx>